<?xml version='1.0' encoding='UTF-8'?><gpx version="1.1" creator="JPX - https://github.com/jenetics/jpx" xmlns="http://www.topografix.com/GPX/1/1"><trk><trkseg><trkpt lat="42.08979945342707" lon="11.792490467687788"><ele>1.9999999999999998</ele><time>2026-04-18T08:27:28.972Z</time></trkpt><trkpt lat="42.08972676023618" lon="11.792546563856842"><ele>2.0</ele><time>2026-04-18T08:28:19.972Z</time></trkpt><trkpt lat="42.08970241097862" lon="11.792637797876042"><ele>2.0</ele><time>2026-04-18T08:28:22.972Z</time></trkpt><trkpt lat="42.08967894738193" lon="11.792741141845472"><ele>2.0</ele><time>2026-04-18T08:28:25.972Z</time></trkpt><trkpt lat="42.08959469161969" lon="11.792879281234098"><ele>1.9999999999999998</ele><time>2026-04-18T08:28:26.972Z</time></trkpt><trkpt lat="42.089566189459696" lon="11.79296305875205"><ele>2.0</ele><time>2026-04-18T08:28:29.972Z</time></trkpt><trkpt lat="42.089533749336645" lon="11.793054382848993"><ele>2.0</ele><time>2026-04-18T08:28:33.972Z</time></trkpt><trkpt lat="42.08949309717459" lon="11.793136208284263"><ele>1.9999999999999998</ele><time>2026-04-18T08:28:38.972Z</time></trkpt><trkpt lat="42.08945416129731" lon="11.79321819233907"><ele>2.0</ele><time>2026-04-18T08:28:42.972Z</time></trkpt><trkpt lat="42.08941362127456" lon="11.793289575183715"><ele>2.0</ele><time>2026-04-18T08:28:44.972Z</time></trkpt><trkpt lat="42.0893595912049" lon="11.793388134912885"><ele>1.9999999999999998</ele><time>2026-04-18T08:28:46.972Z</time></trkpt><trkpt lat="42.08932571360691" lon="11.793462535146892"><ele>2.0</ele><time>2026-04-18T08:28:47.972Z</time></trkpt><trkpt lat="42.08928943142292" lon="11.793548893736363"><ele>2.0</ele><time>2026-04-18T08:28:48.972Z</time></trkpt><trkpt lat="42.08924262361732" lon="11.793664633555943"><ele>2.2</ele><time>2026-04-18T08:28:50.972Z</time></trkpt><trkpt lat="42.08917806191015" lon="11.793781503959183"><ele>2.4000000000000004</ele><time>2026-04-18T08:28:52.972Z</time></trkpt><trkpt lat="42.08915246239405" lon="11.79386246375369"><ele>2.5999999999999996</ele><time>2026-04-18T08:28:53.972Z</time></trkpt><trkpt lat="42.08910017436396" lon="11.793974995914223"><ele>2.8</ele><time>2026-04-18T08:28:55.972Z</time></trkpt><trkpt lat="42.08903605393746" lon="11.794100786186577"><ele>3.0</ele><time>2026-04-18T08:28:57.972Z</time></trkpt><trkpt lat="42.0889816084429" lon="11.794231269201822"><ele>2.6666666666666665</ele><time>2026-04-18T08:28:59.972Z</time></trkpt><trkpt lat="42.08893916164385" lon="11.794381558189382"><ele>2.3333333333333335</ele><time>2026-04-18T08:29:01.972Z</time></trkpt><trkpt lat="42.08886117178831" lon="11.794508897555371"><ele>2.0</ele><time>2026-04-18T08:29:03.972Z</time></trkpt><trkpt lat="42.08882546983962" lon="11.794581998585862"><ele>1.6666666666666665</ele><time>2026-04-18T08:29:04.972Z</time></trkpt><trkpt lat="42.088787381467796" lon="11.794661001974086"><ele>1.3333333333333333</ele><time>2026-04-18T08:29:05.972Z</time></trkpt><trkpt lat="42.088751201785634" lon="11.79474472503476"><ele>1.0</ele><time>2026-04-18T08:29:06.972Z</time></trkpt><trkpt lat="42.08871423149711" lon="11.794830138422345"><ele>1.0</ele><time>2026-04-18T08:29:07.972Z</time></trkpt><trkpt lat="42.08867366019728" lon="11.794912285321852"><ele>1.0</ele><time>2026-04-18T08:29:08.972Z</time></trkpt><trkpt lat="42.088635485046936" lon="11.794984646009905"><ele>1.0</ele><time>2026-04-18T08:29:09.972Z</time></trkpt><trkpt lat="42.08857742015086" lon="11.795120871107923"><ele>1.0</ele><time>2026-04-18T08:29:11.972Z</time></trkpt><trkpt lat="42.0885292455276" lon="11.795265420000542"><ele>1.0</ele><time>2026-04-18T08:29:13.972Z</time></trkpt><trkpt lat="42.08849809855701" lon="11.79540786108307"><ele>1.4</ele><time>2026-04-18T08:29:15.972Z</time></trkpt><trkpt lat="42.088467854249345" lon="11.795554451629043"><ele>1.8</ele><time>2026-04-18T08:29:17.971Z</time></trkpt><trkpt lat="42.08843498118585" lon="11.795702881396284"><ele>2.1999999999999997</ele><time>2026-04-18T08:29:19.972Z</time></trkpt><trkpt lat="42.08840067647215" lon="11.795831663101445"><ele>2.6</ele><time>2026-04-18T08:29:21.972Z</time></trkpt><trkpt lat="42.08836100735" lon="11.795958087087596"><ele>3.0</ele><time>2026-04-18T08:29:23.971Z</time></trkpt><trkpt lat="42.088325291989364" lon="11.796091693624282"><ele>2.8</ele><time>2026-04-18T08:29:25.972Z</time></trkpt><trkpt lat="42.08827652028537" lon="11.796225248308591"><ele>2.5999999999999996</ele><time>2026-04-18T08:29:27.972Z</time></trkpt><trkpt lat="42.08823481472337" lon="11.796333488211614"><ele>2.4000000000000004</ele><time>2026-04-18T08:29:29.972Z</time></trkpt><trkpt lat="42.08819774816609" lon="11.796446566930896"><ele>2.2</ele><time>2026-04-18T08:29:31.972Z</time></trkpt><trkpt lat="42.08816987798822" lon="11.796544611722236"><ele>2.0</ele><time>2026-04-18T08:29:33.972Z</time></trkpt><trkpt lat="42.088138182076136" lon="11.796654920872081"><ele>2.0</ele><time>2026-04-18T08:29:35.972Z</time></trkpt><trkpt lat="42.08813516356463" lon="11.79676832328946"><ele>2.0</ele><time>2026-04-18T08:29:37.972Z</time></trkpt><trkpt lat="42.08814364923286" lon="11.7968892040116"><ele>2.0</ele><time>2026-04-18T08:29:39.972Z</time></trkpt><trkpt lat="42.08813811699619" lon="11.79700068036776"><ele>2.0</ele><time>2026-04-18T08:29:41.972Z</time></trkpt><trkpt lat="42.08809892156402" lon="11.797156780578044"><ele>2.0</ele><time>2026-04-18T08:29:43.972Z</time></trkpt><trkpt lat="42.088067385274144" lon="11.79724750407094"><ele>3.0</ele><time>2026-04-18T08:29:44.972Z</time></trkpt><trkpt lat="42.08801814244978" lon="11.797355891922502"><ele>4.0</ele><time>2026-04-18T08:29:45.972Z</time></trkpt><trkpt lat="42.0879541597832" lon="11.797461003282415"><ele>4.999999999999999</ele><time>2026-04-18T08:29:46.972Z</time></trkpt><trkpt lat="42.08790841243125" lon="11.797566533299747"><ele>6.0</ele><time>2026-04-18T08:29:47.972Z</time></trkpt><trkpt lat="42.08786061539904" lon="11.797673462477304"><ele>7.0</ele><time>2026-04-18T08:29:48.972Z</time></trkpt><trkpt lat="42.08781819708566" lon="11.797788891804995"><ele>7.500000000000001</ele><time>2026-04-18T08:29:49.972Z</time></trkpt><trkpt lat="42.087774246956734" lon="11.797895687417425"><ele>8.0</ele><time>2026-04-18T08:29:50.972Z</time></trkpt><trkpt lat="42.08773492962909" lon="11.797991749867363"><ele>8.5</ele><time>2026-04-18T08:29:51.972Z</time></trkpt><trkpt lat="42.08768606913806" lon="11.7980863720502"><ele>9.0</ele><time>2026-04-18T08:29:52.972Z</time></trkpt><trkpt lat="42.087634845019934" lon="11.79818764010929"><ele>9.5</ele><time>2026-04-18T08:29:53.972Z</time></trkpt><trkpt lat="42.08759028400597" lon="11.798294994611105"><ele>10.0</ele><time>2026-04-18T08:29:54.972Z</time></trkpt><trkpt lat="42.087540455465536" lon="11.79839778575235"><ele>9.8</ele><time>2026-04-18T08:29:55.972Z</time></trkpt><trkpt lat="42.08749301417571" lon="11.798503354488368"><ele>9.6</ele><time>2026-04-18T08:29:56.972Z</time></trkpt><trkpt lat="42.08744027883655" lon="11.798603011143705"><ele>9.4</ele><time>2026-04-18T08:29:57.972Z</time></trkpt><trkpt lat="42.08738705261966" lon="11.798699955402387"><ele>9.2</ele><time>2026-04-18T08:29:58.972Z</time></trkpt><trkpt lat="42.08733946422105" lon="11.79880410993934"><ele>9.0</ele><time>2026-04-18T08:29:59.972Z</time></trkpt><trkpt lat="42.08729030187682" lon="11.798910261327606"><ele>8.6</ele><time>2026-04-18T08:30:00.972Z</time></trkpt><trkpt lat="42.08723962539266" lon="11.799016469568512"><ele>8.2</ele><time>2026-04-18T08:30:01.972Z</time></trkpt><trkpt lat="42.08718216124465" lon="11.799123430901902"><ele>7.799999999999999</ele><time>2026-04-18T08:30:02.972Z</time></trkpt><trkpt lat="42.08712886667426" lon="11.79922901862695"><ele>7.3999999999999995</ele><time>2026-04-18T08:30:03.972Z</time></trkpt><trkpt lat="42.08708999576933" lon="11.79934076180881"><ele>7.0</ele><time>2026-04-18T08:30:04.972Z</time></trkpt><trkpt lat="42.08703635688614" lon="11.79944328790512"><ele>7.000000000000001</ele><time>2026-04-18T08:30:05.972Z</time></trkpt><trkpt lat="42.08699075669187" lon="11.799539846643318"><ele>7.0</ele><time>2026-04-18T08:30:06.972Z</time></trkpt><trkpt lat="42.08694278467836" lon="11.799629503662313"><ele>7.0</ele><time>2026-04-18T08:30:07.972Z</time></trkpt><trkpt lat="42.0868941629403" lon="11.7997220146667"><ele>7.0</ele><time>2026-04-18T08:30:08.972Z</time></trkpt><trkpt lat="42.08685079372844" lon="11.799814339835521"><ele>7.000000000000001</ele><time>2026-04-18T08:30:09.972Z</time></trkpt><trkpt lat="42.086808790300346" lon="11.799918408986603"><ele>7.0</ele><time>2026-04-18T08:30:10.972Z</time></trkpt><trkpt lat="42.08676155370621" lon="11.800022126310724"><ele>7.000000000000001</ele><time>2026-04-18T08:30:11.971Z</time></trkpt><trkpt lat="42.086711220067656" lon="11.800118814133223"><ele>7.0</ele><time>2026-04-18T08:30:12.971Z</time></trkpt><trkpt lat="42.08666238174287" lon="11.800220267992183"><ele>7.0</ele><time>2026-04-18T08:30:13.971Z</time></trkpt><trkpt lat="42.086616740910486" lon="11.800316804153818"><ele>7.0</ele><time>2026-04-18T08:30:14.971Z</time></trkpt><trkpt lat="42.08656856114347" lon="11.800393367239828"><ele>7.000000000000001</ele><time>2026-04-18T08:30:15.971Z</time></trkpt><trkpt lat="42.08653144398425" lon="11.800468509469638"><ele>7.0</ele><time>2026-04-18T08:30:16.971Z</time></trkpt><trkpt lat="42.08646049732055" lon="11.80059025420899"><ele>7.0</ele><time>2026-04-18T08:30:18.971Z</time></trkpt><trkpt lat="42.086401699582105" lon="11.800689212745567"><ele>6.999999999999999</ele><time>2026-04-18T08:30:20.971Z</time></trkpt><trkpt lat="42.08632296853404" lon="11.800684815518883"><ele>6.999999999999999</ele><time>2026-04-18T08:30:23.971Z</time></trkpt><trkpt lat="42.08622330457638" lon="11.800766078282244"><ele>7.0</ele><time>2026-04-18T08:30:26.971Z</time></trkpt><trkpt lat="42.08617634098548" lon="11.80089811532439"><ele>7.0</ele><time>2026-04-18T08:30:28.971Z</time></trkpt><trkpt lat="42.08612183108428" lon="11.800955760377786"><ele>7.000000000000001</ele><time>2026-04-18T08:30:30.971Z</time></trkpt><trkpt lat="42.08606263990251" lon="11.800989199271923"><ele>7.0</ele><time>2026-04-18T08:30:32.971Z</time></trkpt><trkpt lat="42.0859889995595" lon="11.801037496605543"><ele>7.0</ele><time>2026-04-18T08:30:34.971Z</time></trkpt><trkpt lat="42.08594093025425" lon="11.80112176038244"><ele>7.0</ele><time>2026-04-18T08:31:14.971Z</time></trkpt><trkpt lat="42.08605363200668" lon="11.801192321957801"><ele>7.000000000000001</ele><time>2026-04-18T08:31:16.971Z</time></trkpt><trkpt lat="42.086112293864986" lon="11.801265487723258"><ele>7.0</ele><time>2026-04-18T08:31:18.971Z</time></trkpt><trkpt lat="42.08615576515902" lon="11.801343536515011"><ele>7.666666666666667</ele><time>2026-04-18T08:31:21.971Z</time></trkpt><trkpt lat="42.08582100154701" lon="11.801351893884373"><ele>8.333333333333334</ele><time>2026-04-18T08:31:22.97Z</time></trkpt><trkpt lat="42.08577832072381" lon="11.801433794934008"><ele>9.0</ele><time>2026-04-18T08:31:23.97Z</time></trkpt><trkpt lat="42.08571081503641" lon="11.801363956905673"><ele>9.0</ele><time>2026-04-18T08:31:24.97Z</time></trkpt><trkpt lat="42.085655239766865" lon="11.801424903772842"><ele>9.0</ele><time>2026-04-18T08:31:25.97Z</time></trkpt><trkpt lat="42.08559458935573" lon="11.801491416319475"><ele>9.0</ele><time>2026-04-18T08:31:26.97Z</time></trkpt><trkpt lat="42.08552996160371" lon="11.801562290632212"><ele>9.0</ele><time>2026-04-18T08:31:27.97Z</time></trkpt><trkpt lat="42.08548061207638" lon="11.801645278218698"><ele>9.0</ele><time>2026-04-18T08:31:28.97Z</time></trkpt><trkpt lat="42.085630237339345" lon="11.802056006628666"><ele>9.8</ele><time>2026-04-18T08:31:29.97Z</time></trkpt><trkpt lat="42.08557616057915" lon="11.802138118412323"><ele>10.600000000000001</ele><time>2026-04-18T08:31:30.97Z</time></trkpt><trkpt lat="42.08551948459807" lon="11.8022270853772"><ele>11.4</ele><time>2026-04-18T08:31:31.97Z</time></trkpt><trkpt lat="42.08545355585717" lon="11.802319352320778"><ele>12.200000000000001</ele><time>2026-04-18T08:31:32.97Z</time></trkpt><trkpt lat="42.0853844260706" lon="11.802413148688428"><ele>13.0</ele><time>2026-04-18T08:31:33.97Z</time></trkpt><trkpt lat="42.08531236179725" lon="11.802511793167856"><ele>13.0</ele><time>2026-04-18T08:31:34.97Z</time></trkpt><trkpt lat="42.0852407533604" lon="11.802604054841314"><ele>13.0</ele><time>2026-04-18T08:31:35.97Z</time></trkpt><trkpt lat="42.08516997975096" lon="11.802695774238936"><ele>13.0</ele><time>2026-04-18T08:31:36.97Z</time></trkpt><trkpt lat="42.08510251018905" lon="11.802792397659013"><ele>13.0</ele><time>2026-04-18T08:31:37.97Z</time></trkpt><trkpt lat="42.085037032475434" lon="11.802898002251258"><ele>13.0</ele><time>2026-04-18T08:31:38.97Z</time></trkpt><trkpt lat="42.08497605352565" lon="11.802992764087882"><ele>13.0</ele><time>2026-04-18T08:31:39.97Z</time></trkpt><trkpt lat="42.0848840246429" lon="11.803046066911861"><ele>13.0</ele><time>2026-04-18T08:31:40.97Z</time></trkpt><trkpt lat="42.084821408981234" lon="11.80314504098542"><ele>13.0</ele><time>2026-04-18T08:31:41.97Z</time></trkpt><trkpt lat="42.08475959017236" lon="11.803234021977547"><ele>13.0</ele><time>2026-04-18T08:31:42.97Z</time></trkpt><trkpt lat="42.0846994635921" lon="11.803316841981315"><ele>13.0</ele><time>2026-04-18T08:31:43.97Z</time></trkpt><trkpt lat="42.08463578543504" lon="11.803400641499953"><ele>13.0</ele><time>2026-04-18T08:31:44.97Z</time></trkpt><trkpt lat="42.08456788859746" lon="11.803487063165282"><ele>13.0</ele><time>2026-04-18T08:31:45.97Z</time></trkpt><trkpt lat="42.08450302453637" lon="11.803586102900766"><ele>13.0</ele><time>2026-04-18T08:31:46.97Z</time></trkpt><trkpt lat="42.084436493410124" lon="11.803690860228905"><ele>13.0</ele><time>2026-04-18T08:31:47.97Z</time></trkpt><trkpt lat="42.08436664264595" lon="11.803796279605347"><ele>13.0</ele><time>2026-04-18T08:31:48.97Z</time></trkpt><trkpt lat="42.0842933941582" lon="11.803896159935283"><ele>13.2</ele><time>2026-04-18T08:31:49.97Z</time></trkpt><trkpt lat="42.084219803713275" lon="11.803983976536962"><ele>13.4</ele><time>2026-04-18T08:31:50.97Z</time></trkpt><trkpt lat="42.08415417386701" lon="11.804081329871373"><ele>13.599999999999998</ele><time>2026-04-18T08:31:51.97Z</time></trkpt><trkpt lat="42.08408591532704" lon="11.804178922309084"><ele>13.799999999999999</ele><time>2026-04-18T08:31:52.97Z</time></trkpt><trkpt lat="42.08401360665084" lon="11.80428095005511"><ele>14.0</ele><time>2026-04-18T08:31:53.97Z</time></trkpt><trkpt lat="42.08394071154662" lon="11.804381803334271"><ele>13.6</ele><time>2026-04-18T08:31:54.97Z</time></trkpt><trkpt lat="42.08386803961139" lon="11.804477381202096"><ele>13.2</ele><time>2026-04-18T08:31:55.97Z</time></trkpt><trkpt lat="42.083794798864425" lon="11.804574538487003"><ele>12.799999999999999</ele><time>2026-04-18T08:31:56.97Z</time></trkpt><trkpt lat="42.08372498825787" lon="11.804659133717736"><ele>12.399999999999999</ele><time>2026-04-18T08:31:57.97Z</time></trkpt><trkpt lat="42.08366108994542" lon="11.804735756925398"><ele>12.0</ele><time>2026-04-18T08:31:58.97Z</time></trkpt><trkpt lat="42.08359983551995" lon="11.80481922282996"><ele>12.0</ele><time>2026-04-18T08:31:59.97Z</time></trkpt><trkpt lat="42.08353647080878" lon="11.804907799909481"><ele>12.0</ele><time>2026-04-18T08:32:00.969Z</time></trkpt><trkpt lat="42.083471108775285" lon="11.804994587954553"><ele>12.0</ele><time>2026-04-18T08:32:01.969Z</time></trkpt><trkpt lat="42.083403672495955" lon="11.805086015859914"><ele>12.0</ele><time>2026-04-18T08:32:02.969Z</time></trkpt><trkpt lat="42.083335968149385" lon="11.805175781617097"><ele>12.0</ele><time>2026-04-18T08:32:03.969Z</time></trkpt><trkpt lat="42.083269859133786" lon="11.805266458381515"><ele>11.8</ele><time>2026-04-18T08:32:04.969Z</time></trkpt><trkpt lat="42.083204922214975" lon="11.805363080283357"><ele>11.6</ele><time>2026-04-18T08:32:05.969Z</time></trkpt><trkpt lat="42.083134426709094" lon="11.805456083483481"><ele>11.4</ele><time>2026-04-18T08:32:06.97Z</time></trkpt><trkpt lat="42.083062732725274" lon="11.805554056687974"><ele>11.200000000000001</ele><time>2026-04-18T08:32:07.97Z</time></trkpt><trkpt lat="42.082986218419805" lon="11.805656173783836"><ele>11.0</ele><time>2026-04-18T08:32:08.97Z</time></trkpt><trkpt lat="42.08290905889235" lon="11.805759044559395"><ele>11.0</ele><time>2026-04-18T08:32:09.97Z</time></trkpt><trkpt lat="42.082825503159356" lon="11.805866698478996"><ele>11.0</ele><time>2026-04-18T08:32:10.97Z</time></trkpt><trkpt lat="42.082731078644656" lon="11.805962873390426"><ele>11.0</ele><time>2026-04-18T08:32:11.97Z</time></trkpt><trkpt lat="42.08263103015282" lon="11.806051382123085"><ele>11.0</ele><time>2026-04-18T08:32:12.97Z</time></trkpt><trkpt lat="42.08253505461232" lon="11.806121884407574"><ele>11.0</ele><time>2026-04-18T08:32:13.97Z</time></trkpt><trkpt lat="42.082443625999574" lon="11.806189267063202"><ele>11.0</ele><time>2026-04-18T08:32:14.97Z</time></trkpt><trkpt lat="42.08234836607283" lon="11.806259591847372"><ele>11.0</ele><time>2026-04-18T08:32:15.971Z</time></trkpt><trkpt lat="42.08224701617813" lon="11.806324147804235"><ele>11.0</ele><time>2026-04-18T08:32:16.971Z</time></trkpt><trkpt lat="42.082139276954166" lon="11.806383697347648"><ele>11.0</ele><time>2026-04-18T08:32:17.971Z</time></trkpt><trkpt lat="42.08202929430235" lon="11.806439849110435"><ele>10.25</ele><time>2026-04-18T08:32:18.971Z</time></trkpt><trkpt lat="42.08191308180224" lon="11.806480122677259"><ele>9.5</ele><time>2026-04-18T08:32:19.971Z</time></trkpt><trkpt lat="42.081803376529514" lon="11.806529186840493"><ele>8.75</ele><time>2026-04-18T08:32:20.971Z</time></trkpt><trkpt lat="42.08168948518416" lon="11.806584042089808"><ele>8.0</ele><time>2026-04-18T08:32:21.971Z</time></trkpt><trkpt lat="42.08157546946189" lon="11.806651319678977"><ele>8.0</ele><time>2026-04-18T08:32:22.971Z</time></trkpt><trkpt lat="42.0814600378303" lon="11.806722100671102"><ele>8.0</ele><time>2026-04-18T08:32:23.971Z</time></trkpt><trkpt lat="42.08133792415521" lon="11.806790445575613"><ele>8.0</ele><time>2026-04-18T08:32:24.971Z</time></trkpt><trkpt lat="42.08121476983631" lon="11.806861119945522"><ele>8.0</ele><time>2026-04-18T08:32:25.971Z</time></trkpt><trkpt lat="42.081092055423404" lon="11.806929553651804"><ele>8.0</ele><time>2026-04-18T08:32:26.971Z</time></trkpt><trkpt lat="42.08096775206668" lon="11.806991584797512"><ele>8.0</ele><time>2026-04-18T08:32:27.971Z</time></trkpt><trkpt lat="42.0808526723741" lon="11.807046433832543"><ele>8.0</ele><time>2026-04-18T08:32:28.971Z</time></trkpt><trkpt lat="42.08073554401839" lon="11.807108667514887"><ele>8.0</ele><time>2026-04-18T08:32:29.971Z</time></trkpt><trkpt lat="42.08061850889279" lon="11.807169288969375"><ele>8.25</ele><time>2026-04-18T08:32:30.971Z</time></trkpt><trkpt lat="42.08050392858758" lon="11.80722278120017"><ele>8.5</ele><time>2026-04-18T08:32:31.971Z</time></trkpt><trkpt lat="42.0803908181115" lon="11.807274786890076"><ele>8.75</ele><time>2026-04-18T08:32:32.971Z</time></trkpt><trkpt lat="42.080273584135426" lon="11.807325427641928"><ele>9.0</ele><time>2026-04-18T08:32:33.971Z</time></trkpt><trkpt lat="42.080157878772795" lon="11.807372463132433"><ele>9.0</ele><time>2026-04-18T08:32:34.971Z</time></trkpt><trkpt lat="42.080036601435836" lon="11.807419880292315"><ele>9.0</ele><time>2026-04-18T08:32:35.971Z</time></trkpt><trkpt lat="42.07991453590383" lon="11.807468797867479"><ele>9.0</ele><time>2026-04-18T08:32:36.971Z</time></trkpt><trkpt lat="42.079793279693966" lon="11.80752385307516"><ele>9.0</ele><time>2026-04-18T08:32:37.971Z</time></trkpt><trkpt lat="42.07966920251968" lon="11.807565196272865"><ele>8.5</ele><time>2026-04-18T08:32:38.971Z</time></trkpt><trkpt lat="42.0795546735202" lon="11.807611624351896"><ele>8.0</ele><time>2026-04-18T08:32:39.971Z</time></trkpt><trkpt lat="42.0794490887714" lon="11.807655339568822"><ele>7.5</ele><time>2026-04-18T08:32:40.971Z</time></trkpt><trkpt lat="42.0793427177202" lon="11.807698657540337"><ele>7.0</ele><time>2026-04-18T08:32:41.971Z</time></trkpt><trkpt lat="42.0792329298892" lon="11.807745034981782"><ele>7.0</ele><time>2026-04-18T08:32:42.972Z</time></trkpt><trkpt lat="42.07911955913476" lon="11.807796493327121"><ele>6.999999999999999</ele><time>2026-04-18T08:32:43.972Z</time></trkpt><trkpt lat="42.078999787851146" lon="11.807811371492805"><ele>6.999999999999999</ele><time>2026-04-18T08:32:44.972Z</time></trkpt><trkpt lat="42.07890471722861" lon="11.807848766042579"><ele>7.0</ele><time>2026-04-18T08:32:45.972Z</time></trkpt><trkpt lat="42.07881447248254" lon="11.80788909346139"><ele>7.0</ele><time>2026-04-18T08:32:46.972Z</time></trkpt><trkpt lat="42.07871996589177" lon="11.807919839097828"><ele>7.166666666666667</ele><time>2026-04-18T08:32:47.972Z</time></trkpt><trkpt lat="42.078629768243985" lon="11.807948687342627"><ele>7.333333333333334</ele><time>2026-04-18T08:32:48.972Z</time></trkpt><trkpt lat="42.07854121624695" lon="11.807980103977897"><ele>7.5</ele><time>2026-04-18T08:32:49.972Z</time></trkpt><trkpt lat="42.07845890507022" lon="11.808005395769786"><ele>7.666666666666666</ele><time>2026-04-18T08:32:50.972Z</time></trkpt><trkpt lat="42.07838447012928" lon="11.808022496210832"><ele>7.833333333333333</ele><time>2026-04-18T08:32:51.972Z</time></trkpt><trkpt lat="42.078306675083816" lon="11.808051614256108"><ele>8.0</ele><time>2026-04-18T08:32:52.972Z</time></trkpt><trkpt lat="42.07821920571335" lon="11.8080782433383"><ele>7.2</ele><time>2026-04-18T08:32:53.972Z</time></trkpt><trkpt lat="42.07813012660329" lon="11.808093047796095"><ele>6.4</ele><time>2026-04-18T08:32:54.972Z</time></trkpt><trkpt lat="42.078025273031685" lon="11.808103682694563"><ele>5.6000000000000005</ele><time>2026-04-18T08:32:55.972Z</time></trkpt><trkpt lat="42.07792769331322" lon="11.808117337226472"><ele>4.800000000000001</ele><time>2026-04-18T08:32:56.972Z</time></trkpt><trkpt lat="42.07783533905585" lon="11.808137297323917"><ele>4.0</ele><time>2026-04-18T08:32:57.972Z</time></trkpt><trkpt lat="42.07774058639283" lon="11.808166314445263"><ele>3.9999999999999996</ele><time>2026-04-18T08:32:58.972Z</time></trkpt><trkpt lat="42.07765422936022" lon="11.8081989229129"><ele>4.0</ele><time>2026-04-18T08:32:59.972Z</time></trkpt><trkpt lat="42.07757064631918" lon="11.808237159250728"><ele>4.0</ele><time>2026-04-18T08:33:00.972Z</time></trkpt><trkpt lat="42.07749126130445" lon="11.808277967244129"><ele>4.0</ele><time>2026-04-18T08:33:01.972Z</time></trkpt><trkpt lat="42.0774034457132" lon="11.808317050584636"><ele>3.9999999999999996</ele><time>2026-04-18T08:33:02.972Z</time></trkpt><trkpt lat="42.07731838207233" lon="11.80834830794427"><ele>4.0</ele><time>2026-04-18T08:33:03.972Z</time></trkpt><trkpt lat="42.07722198117364" lon="11.808377557824805"><ele>4.0</ele><time>2026-04-18T08:33:04.972Z</time></trkpt><trkpt lat="42.07712228388897" lon="11.808404845891292"><ele>4.0</ele><time>2026-04-18T08:33:05.972Z</time></trkpt><trkpt lat="42.07699885077395" lon="11.808410748067587"><ele>4.0</ele><time>2026-04-18T08:33:06.972Z</time></trkpt><trkpt lat="42.07687989182192" lon="11.808454079042157"><ele>4.0</ele><time>2026-04-18T08:33:07.972Z</time></trkpt><trkpt lat="42.07675230162147" lon="11.808491686684265"><ele>5.0</ele><time>2026-04-18T08:33:08.972Z</time></trkpt><trkpt lat="42.076614912375454" lon="11.808528727986177"><ele>6.0</ele><time>2026-04-18T08:33:09.972Z</time></trkpt><trkpt lat="42.07648053148564" lon="11.808565703921765"><ele>7.0</ele><time>2026-04-18T08:33:10.972Z</time></trkpt><trkpt lat="42.0763478904576" lon="11.808604791229518"><ele>8.0</ele><time>2026-04-18T08:33:11.972Z</time></trkpt><trkpt lat="42.076211308634626" lon="11.808646268567614"><ele>9.25</ele><time>2026-04-18T08:33:12.972Z</time></trkpt><trkpt lat="42.07607117586847" lon="11.808688832435521"><ele>10.5</ele><time>2026-04-18T08:33:13.972Z</time></trkpt><trkpt lat="42.075934155838155" lon="11.808731073843033"><ele>11.75</ele><time>2026-04-18T08:33:14.972Z</time></trkpt><trkpt lat="42.075796194892256" lon="11.80876650757654"><ele>13.0</ele><time>2026-04-18T08:33:15.972Z</time></trkpt><trkpt lat="42.07566207631768" lon="11.80880198685575"><ele>13.5</ele><time>2026-04-18T08:33:16.972Z</time></trkpt><trkpt lat="42.07553106313391" lon="11.808840149375772"><ele>14.0</ele><time>2026-04-18T08:33:17.972Z</time></trkpt><trkpt lat="42.07539583573943" lon="11.80887894960723"><ele>14.5</ele><time>2026-04-18T08:33:18.972Z</time></trkpt><trkpt lat="42.07526167325819" lon="11.808915712764362"><ele>15.0</ele><time>2026-04-18T08:33:19.972Z</time></trkpt><trkpt lat="42.07513312825821" lon="11.808952787097539"><ele>15.0</ele><time>2026-04-18T08:33:20.972Z</time></trkpt><trkpt lat="42.075001231866445" lon="11.80899616540514"><ele>15.0</ele><time>2026-04-18T08:33:21.972Z</time></trkpt><trkpt lat="42.07485233540638" lon="11.809006964206091"><ele>15.0</ele><time>2026-04-18T08:33:22.972Z</time></trkpt><trkpt lat="42.07472608720564" lon="11.809047527716707"><ele>15.0</ele><time>2026-04-18T08:33:23.972Z</time></trkpt><trkpt lat="42.074601223106804" lon="11.809087911153672"><ele>14.75</ele><time>2026-04-18T08:33:24.972Z</time></trkpt><trkpt lat="42.074476332048086" lon="11.809134380063078"><ele>14.5</ele><time>2026-04-18T08:33:25.972Z</time></trkpt><trkpt lat="42.0743576736553" lon="11.80918141047834"><ele>14.25</ele><time>2026-04-18T08:33:26.972Z</time></trkpt><trkpt lat="42.074249812535676" lon="11.80923197877411"><ele>14.0</ele><time>2026-04-18T08:33:27.972Z</time></trkpt><trkpt lat="42.07415111740359" lon="11.809275507581045"><ele>14.0</ele><time>2026-04-18T08:33:28.971Z</time></trkpt><trkpt lat="42.074057229727316" lon="11.809321353838856"><ele>13.999999999999998</ele><time>2026-04-18T08:33:29.97Z</time></trkpt><trkpt lat="42.073967406015406" lon="11.809361231600803"><ele>13.999999999999998</ele><time>2026-04-18T08:33:30.97Z</time></trkpt><trkpt lat="42.07387526901995" lon="11.80940691929457"><ele>14.0</ele><time>2026-04-18T08:33:31.971Z</time></trkpt><trkpt lat="42.07377029239774" lon="11.809457989959984"><ele>14.0</ele><time>2026-04-18T08:33:32.97Z</time></trkpt><trkpt lat="42.073649661808254" lon="11.809507693799945"><ele>14.0</ele><time>2026-04-18T08:33:33.97Z</time></trkpt><trkpt lat="42.07352808781337" lon="11.809567062721673"><ele>14.0</ele><time>2026-04-18T08:33:34.97Z</time></trkpt><trkpt lat="42.07340785785948" lon="11.809618272193777"><ele>14.0</ele><time>2026-04-18T08:33:35.971Z</time></trkpt><trkpt lat="42.07329134983785" lon="11.809673137068746"><ele>14.0</ele><time>2026-04-18T08:33:36.971Z</time></trkpt><trkpt lat="42.07318519273056" lon="11.809732001722814"><ele>13.25</ele><time>2026-04-18T08:33:37.971Z</time></trkpt><trkpt lat="42.07307718745268" lon="11.809784181014782"><ele>12.5</ele><time>2026-04-18T08:33:38.97Z</time></trkpt><trkpt lat="42.07296206826591" lon="11.809838551302311"><ele>11.75</ele><time>2026-04-18T08:33:39.97Z</time></trkpt><trkpt lat="42.07285543215712" lon="11.809886270630315"><ele>11.0</ele><time>2026-04-18T08:33:40.971Z</time></trkpt><trkpt lat="42.07275302606266" lon="11.809929453576139"><ele>11.0</ele><time>2026-04-18T08:33:41.97Z</time></trkpt><trkpt lat="42.07264846892404" lon="11.809986265747803"><ele>11.0</ele><time>2026-04-18T08:33:42.97Z</time></trkpt><trkpt lat="42.07253425118278" lon="11.810031407893053"><ele>11.0</ele><time>2026-04-18T08:33:43.97Z</time></trkpt><trkpt lat="42.07242331470249" lon="11.810065096440447"><ele>11.0</ele><time>2026-04-18T08:33:44.97Z</time></trkpt><trkpt lat="42.072314312149274" lon="11.810117506472551"><ele>11.25</ele><time>2026-04-18T08:33:45.97Z</time></trkpt><trkpt lat="42.072201993153726" lon="11.810177976042336"><ele>11.5</ele><time>2026-04-18T08:33:46.97Z</time></trkpt><trkpt lat="42.07208028243161" lon="11.810235943861095"><ele>11.75</ele><time>2026-04-18T08:33:47.97Z</time></trkpt><trkpt lat="42.071953585000706" lon="11.810298418498146"><ele>12.0</ele><time>2026-04-18T08:33:48.97Z</time></trkpt><trkpt lat="42.07182331969815" lon="11.81036008760488"><ele>12.0</ele><time>2026-04-18T08:33:49.97Z</time></trkpt><trkpt lat="42.071691385275905" lon="11.810424202510761"><ele>12.0</ele><time>2026-04-18T08:33:50.97Z</time></trkpt><trkpt lat="42.07155152628647" lon="11.810479820849608"><ele>12.0</ele><time>2026-04-18T08:33:51.97Z</time></trkpt><trkpt lat="42.07140496034843" lon="11.810549364552994"><ele>12.0</ele><time>2026-04-18T08:33:52.97Z</time></trkpt><trkpt lat="42.07125470889807" lon="11.810604771007883"><ele>11.666666666666666</ele><time>2026-04-18T08:33:53.97Z</time></trkpt><trkpt lat="42.07110971753072" lon="11.81065438465817"><ele>11.333333333333332</ele><time>2026-04-18T08:33:54.97Z</time></trkpt><trkpt lat="42.07096556628333" lon="11.810720125273498"><ele>11.0</ele><time>2026-04-18T08:33:55.97Z</time></trkpt><trkpt lat="42.07081798725621" lon="11.810787940322939"><ele>10.666666666666666</ele><time>2026-04-18T08:33:56.97Z</time></trkpt><trkpt lat="42.07067295919321" lon="11.810862323943821"><ele>10.333333333333334</ele><time>2026-04-18T08:33:57.97Z</time></trkpt><trkpt lat="42.07052560611202" lon="11.810935899994787"><ele>10.0</ele><time>2026-04-18T08:33:58.97Z</time></trkpt><trkpt lat="42.070378145818175" lon="11.811007023672767"><ele>11.0</ele><time>2026-04-18T08:33:59.97Z</time></trkpt><trkpt lat="42.070232900941654" lon="11.811075864923916"><ele>12.0</ele><time>2026-04-18T08:34:00.97Z</time></trkpt><trkpt lat="42.070093250158685" lon="11.811150100710844"><ele>13.0</ele><time>2026-04-18T08:34:01.97Z</time></trkpt><trkpt lat="42.069954462203405" lon="11.811242904333886"><ele>11.666666666666666</ele><time>2026-04-18T08:34:02.97Z</time></trkpt><trkpt lat="42.06981581085952" lon="11.811347860886913"><ele>10.333333333333332</ele><time>2026-04-18T08:34:03.97Z</time></trkpt><trkpt lat="42.06967738156818" lon="11.811452050359636"><ele>9.0</ele><time>2026-04-18T08:34:04.97Z</time></trkpt><trkpt lat="42.069539759041255" lon="11.811568092114372"><ele>9.0</ele><time>2026-04-18T08:34:05.97Z</time></trkpt><trkpt lat="42.069405569456386" lon="11.811679656840573"><ele>9.0</ele><time>2026-04-18T08:34:06.97Z</time></trkpt><trkpt lat="42.06926559745722" lon="11.811790077374864"><ele>9.0</ele><time>2026-04-18T08:34:07.97Z</time></trkpt><trkpt lat="42.06912962408609" lon="11.811892426169498"><ele>8.5</ele><time>2026-04-18T08:34:08.97Z</time></trkpt><trkpt lat="42.06900119542482" lon="11.811995382712462"><ele>8.0</ele><time>2026-04-18T08:34:09.97Z</time></trkpt><trkpt lat="42.068885747245446" lon="11.812086908988686"><ele>7.5</ele><time>2026-04-18T08:34:10.97Z</time></trkpt><trkpt lat="42.0687723194497" lon="11.812182855717888"><ele>7.0</ele><time>2026-04-18T08:34:11.97Z</time></trkpt><trkpt lat="42.06866546267723" lon="11.812267103428242"><ele>7.0</ele><time>2026-04-18T08:34:12.97Z</time></trkpt><trkpt lat="42.068569454962905" lon="11.812344261572909"><ele>6.999999999999999</ele><time>2026-04-18T08:34:13.97Z</time></trkpt><trkpt lat="42.06848003482066" lon="11.812420479089695"><ele>6.999999999999999</ele><time>2026-04-18T08:34:14.97Z</time></trkpt><trkpt lat="42.06838925755554" lon="11.812494691115381"><ele>7.0</ele><time>2026-04-18T08:34:15.97Z</time></trkpt><trkpt lat="42.06829668292667" lon="11.812566865812947"><ele>7.0</ele><time>2026-04-18T08:34:16.97Z</time></trkpt><trkpt lat="42.06819831144669" lon="11.812647173701114"><ele>6.5</ele><time>2026-04-18T08:34:17.97Z</time></trkpt><trkpt lat="42.06808998696683" lon="11.812727469235812"><ele>6.0</ele><time>2026-04-18T08:34:18.97Z</time></trkpt><trkpt lat="42.06798010121012" lon="11.812818848740209"><ele>5.5</ele><time>2026-04-18T08:34:19.97Z</time></trkpt><trkpt lat="42.067863110854105" lon="11.812913884944418"><ele>5.0</ele><time>2026-04-18T08:34:20.97Z</time></trkpt><trkpt lat="42.06774676986956" lon="11.813005730828984"><ele>5.0</ele><time>2026-04-18T08:34:21.97Z</time></trkpt><trkpt lat="42.06764302015354" lon="11.81309966439093"><ele>5.0</ele><time>2026-04-18T08:34:22.97Z</time></trkpt><trkpt lat="42.06754777646879" lon="11.813177113381629"><ele>5.0</ele><time>2026-04-18T08:34:23.97Z</time></trkpt><trkpt lat="42.06746183301408" lon="11.813244974707024"><ele>5.0</ele><time>2026-04-18T08:34:24.97Z</time></trkpt><trkpt lat="42.067375751883354" lon="11.813316541826389"><ele>5.0</ele><time>2026-04-18T08:34:25.97Z</time></trkpt><trkpt lat="42.06727325964482" lon="11.813410120747701"><ele>5.0</ele><time>2026-04-18T08:34:26.97Z</time></trkpt><trkpt lat="42.0671645170836" lon="11.81350207597512"><ele>5.0</ele><time>2026-04-18T08:34:27.97Z</time></trkpt><trkpt lat="42.06706404316458" lon="11.813579857566598"><ele>5.0</ele><time>2026-04-18T08:34:28.97Z</time></trkpt><trkpt lat="42.066958430323005" lon="11.813656076618685"><ele>5.0</ele><time>2026-04-18T08:34:29.97Z</time></trkpt><trkpt lat="42.06684215804019" lon="11.813736342905079"><ele>5.0</ele><time>2026-04-18T08:34:30.97Z</time></trkpt><trkpt lat="42.06671688957206" lon="11.813814206017657"><ele>5.0</ele><time>2026-04-18T08:34:31.97Z</time></trkpt><trkpt lat="42.06658188378918" lon="11.813875454690116"><ele>5.0</ele><time>2026-04-18T08:34:32.97Z</time></trkpt><trkpt lat="42.066433831741335" lon="11.813893114910874"><ele>5.0</ele><time>2026-04-18T08:34:33.97Z</time></trkpt><trkpt lat="42.066285108760034" lon="11.813881719203861"><ele>5.0</ele><time>2026-04-18T08:34:34.97Z</time></trkpt><trkpt lat="42.0661374215256" lon="11.813871236113966"><ele>5.0</ele><time>2026-04-18T08:34:35.97Z</time></trkpt><trkpt lat="42.065992340998804" lon="11.813866126246262"><ele>5.0</ele><time>2026-04-18T08:34:36.97Z</time></trkpt><trkpt lat="42.065857997845725" lon="11.813864902578919"><ele>5.0</ele><time>2026-04-18T08:34:37.97Z</time></trkpt><trkpt lat="42.06572709605699" lon="11.813856590722414"><ele>5.0</ele><time>2026-04-18T08:34:38.97Z</time></trkpt><trkpt lat="42.06559413845597" lon="11.813850179067567"><ele>5.0</ele><time>2026-04-18T08:34:39.97Z</time></trkpt><trkpt lat="42.06546945135874" lon="11.8138472431922"><ele>5.0</ele><time>2026-04-18T08:34:40.97Z</time></trkpt><trkpt lat="42.0653401809525" lon="11.813850003233561"><ele>5.0</ele><time>2026-04-18T08:34:41.97Z</time></trkpt><trkpt lat="42.065214990276445" lon="11.813854394733603"><ele>5.0</ele><time>2026-04-18T08:34:42.97Z</time></trkpt><trkpt lat="42.06510002823553" lon="11.813860786782378"><ele>5.0</ele><time>2026-04-18T08:34:43.97Z</time></trkpt><trkpt lat="42.06498655742668" lon="11.813876179491634"><ele>5.0</ele><time>2026-04-18T08:34:44.97Z</time></trkpt><trkpt lat="42.06487206852617" lon="11.813902036408154"><ele>5.0</ele><time>2026-04-18T08:34:45.97Z</time></trkpt><trkpt lat="42.06475304514149" lon="11.81393156991259"><ele>4.75</ele><time>2026-04-18T08:34:46.97Z</time></trkpt><trkpt lat="42.0646278420501" lon="11.813968102885218"><ele>4.5</ele><time>2026-04-18T08:34:47.97Z</time></trkpt><trkpt lat="42.06450428670183" lon="11.814004455972691"><ele>4.25</ele><time>2026-04-18T08:34:48.97Z</time></trkpt><trkpt lat="42.064369065046925" lon="11.814034649105158"><ele>4.0</ele><time>2026-04-18T08:34:49.97Z</time></trkpt><trkpt lat="42.0642402592183" lon="11.814096966066769"><ele>4.0</ele><time>2026-04-18T08:34:50.97Z</time></trkpt><trkpt lat="42.06410370188515" lon="11.814158722069486"><ele>4.0</ele><time>2026-04-18T08:34:51.97Z</time></trkpt><trkpt lat="42.063972125939515" lon="11.81422711254856"><ele>4.0</ele><time>2026-04-18T08:34:52.97Z</time></trkpt><trkpt lat="42.06383167077717" lon="11.814270106205212"><ele>4.0</ele><time>2026-04-18T08:34:53.97Z</time></trkpt><trkpt lat="42.063716753208176" lon="11.81434613766582"><ele>4.0</ele><time>2026-04-18T08:34:54.97Z</time></trkpt><trkpt lat="42.063608388149085" lon="11.81442721765336"><ele>4.0</ele><time>2026-04-18T08:34:55.97Z</time></trkpt><trkpt lat="42.06351159238294" lon="11.814496742396711"><ele>4.0</ele><time>2026-04-18T08:34:56.97Z</time></trkpt><trkpt lat="42.063437732056265" lon="11.814538604050057"><ele>4.0</ele><time>2026-04-18T08:34:57.97Z</time></trkpt><trkpt lat="42.06335723102584" lon="11.81459364741051"><ele>4.0</ele><time>2026-04-18T08:34:59.97Z</time></trkpt><trkpt lat="42.0633006356408" lon="11.814661224487812"><ele>3.6</ele><time>2026-04-18T08:35:22.97Z</time></trkpt><trkpt lat="42.06323865080074" lon="11.814712216678998"><ele>3.2</ele><time>2026-04-18T08:35:23.97Z</time></trkpt><trkpt lat="42.06316541843248" lon="11.814765921575447"><ele>2.8000000000000003</ele><time>2026-04-18T08:35:24.97Z</time></trkpt><trkpt lat="42.063083821858925" lon="11.814829921744526"><ele>2.4000000000000004</ele><time>2026-04-18T08:35:25.97Z</time></trkpt><trkpt lat="42.06299498105333" lon="11.814897314042424"><ele>2.0</ele><time>2026-04-18T08:35:26.97Z</time></trkpt><trkpt lat="42.06290378704195" lon="11.814967964492068"><ele>2.0</ele><time>2026-04-18T08:35:27.97Z</time></trkpt><trkpt lat="42.06281234386728" lon="11.815042951048525"><ele>2.0</ele><time>2026-04-18T08:35:28.97Z</time></trkpt><trkpt lat="42.06271429537883" lon="11.815120486467407"><ele>2.0</ele><time>2026-04-18T08:35:29.97Z</time></trkpt><trkpt lat="42.06261077186446" lon="11.81519798289572"><ele>2.0</ele><time>2026-04-18T08:35:30.97Z</time></trkpt><trkpt lat="42.06250569216151" lon="11.815272606672085"><ele>3.0</ele><time>2026-04-18T08:35:31.97Z</time></trkpt><trkpt lat="42.062402441011635" lon="11.815343564158036"><ele>4.0</ele><time>2026-04-18T08:35:32.97Z</time></trkpt><trkpt lat="42.062303352476356" lon="11.815416096270756"><ele>5.0</ele><time>2026-04-18T08:35:33.97Z</time></trkpt><trkpt lat="42.06219702433705" lon="11.815495781953409"><ele>6.0</ele><time>2026-04-18T08:35:34.969Z</time></trkpt><trkpt lat="42.06208511306727" lon="11.815582344389288"><ele>6.0</ele><time>2026-04-18T08:35:35.969Z</time></trkpt><trkpt lat="42.061968864202974" lon="11.815673384323098"><ele>6.0</ele><time>2026-04-18T08:35:36.969Z</time></trkpt><trkpt lat="42.06185355172053" lon="11.815764374413424"><ele>6.0</ele><time>2026-04-18T08:35:37.969Z</time></trkpt><trkpt lat="42.06173866611883" lon="11.81585358395105"><ele>6.0</ele><time>2026-04-18T08:35:38.968Z</time></trkpt><trkpt lat="42.061622419056725" lon="11.815943723736341"><ele>6.5</ele><time>2026-04-18T08:35:39.968Z</time></trkpt><trkpt lat="42.06150658846338" lon="11.816036224593466"><ele>7.0</ele><time>2026-04-18T08:35:40.968Z</time></trkpt><trkpt lat="42.061389140819934" lon="11.816130556077136"><ele>7.5</ele><time>2026-04-18T08:35:41.969Z</time></trkpt><trkpt lat="42.06127540720628" lon="11.816224058018388"><ele>8.0</ele><time>2026-04-18T08:35:42.969Z</time></trkpt><trkpt lat="42.061162967380945" lon="11.816319369064143"><ele>8.0</ele><time>2026-04-18T08:35:43.969Z</time></trkpt><trkpt lat="42.06105739767592" lon="11.816406643183246"><ele>8.0</ele><time>2026-04-18T08:35:44.968Z</time></trkpt><trkpt lat="42.060955668001476" lon="11.8164892847467"><ele>8.0</ele><time>2026-04-18T08:35:45.968Z</time></trkpt><trkpt lat="42.06085106269626" lon="11.816570847473027"><ele>8.0</ele><time>2026-04-18T08:35:46.969Z</time></trkpt><trkpt lat="42.06074634256747" lon="11.816640026176309"><ele>7.5</ele><time>2026-04-18T08:35:47.969Z</time></trkpt><trkpt lat="42.06063851936346" lon="11.816701376851093"><ele>7.0</ele><time>2026-04-18T08:35:48.969Z</time></trkpt><trkpt lat="42.060528274121566" lon="11.816760351952988"><ele>6.5</ele><time>2026-04-18T08:35:49.969Z</time></trkpt><trkpt lat="42.06041724163669" lon="11.816816133685036"><ele>6.0</ele><time>2026-04-18T08:35:50.969Z</time></trkpt><trkpt lat="42.06030239532815" lon="11.816864168135405"><ele>6.75</ele><time>2026-04-18T08:35:51.969Z</time></trkpt><trkpt lat="42.06019177250155" lon="11.816901849202884"><ele>7.5</ele><time>2026-04-18T08:35:52.969Z</time></trkpt><trkpt lat="42.06007493390549" lon="11.81693201664422"><ele>8.25</ele><time>2026-04-18T08:35:53.969Z</time></trkpt><trkpt lat="42.05995543853943" lon="11.816965479012906"><ele>9.0</ele><time>2026-04-18T08:35:54.969Z</time></trkpt><trkpt lat="42.059832888431444" lon="11.817000751479458"><ele>9.0</ele><time>2026-04-18T08:35:55.969Z</time></trkpt><trkpt lat="42.059707893345774" lon="11.817039402286238"><ele>9.0</ele><time>2026-04-18T08:35:56.969Z</time></trkpt><trkpt lat="42.059580142327555" lon="11.817078027822655"><ele>9.0</ele><time>2026-04-18T08:35:57.969Z</time></trkpt><trkpt lat="42.0594541576971" lon="11.81712068911158"><ele>9.0</ele><time>2026-04-18T08:35:58.969Z</time></trkpt><trkpt lat="42.05932989759074" lon="11.817169012850915"><ele>9.0</ele><time>2026-04-18T08:35:59.969Z</time></trkpt><trkpt lat="42.059203755440166" lon="11.81722634105242"><ele>9.0</ele><time>2026-04-18T08:36:00.969Z</time></trkpt><trkpt lat="42.05907474815308" lon="11.817298391251798"><ele>9.0</ele><time>2026-04-18T08:36:01.969Z</time></trkpt><trkpt lat="42.058945522733936" lon="11.817390322198925"><ele>9.0</ele><time>2026-04-18T08:36:02.969Z</time></trkpt><trkpt lat="42.058835212522126" lon="11.817503445840112"><ele>8.0</ele><time>2026-04-18T08:36:03.969Z</time></trkpt><trkpt lat="42.05872691756505" lon="11.817633760286645"><ele>7.0</ele><time>2026-04-18T08:36:04.969Z</time></trkpt><trkpt lat="42.058627253906344" lon="11.817770170366751"><ele>6.0</ele><time>2026-04-18T08:36:05.969Z</time></trkpt><trkpt lat="42.05852016862636" lon="11.817899063311899"><ele>5.0</ele><time>2026-04-18T08:36:06.969Z</time></trkpt><trkpt lat="42.058409303307144" lon="11.81802749282721"><ele>4.666666666666667</ele><time>2026-04-18T08:36:07.969Z</time></trkpt><trkpt lat="42.058294542678496" lon="11.81816059230549"><ele>4.333333333333333</ele><time>2026-04-18T08:36:08.969Z</time></trkpt><trkpt lat="42.058173840324045" lon="11.818299889158123"><ele>4.0</ele><time>2026-04-18T08:36:09.969Z</time></trkpt><trkpt lat="42.058051581272096" lon="11.818442516120221"><ele>3.0</ele><time>2026-04-18T08:36:10.969Z</time></trkpt><trkpt lat="42.057919408084835" lon="11.818571942611571"><ele>2.0</ele><time>2026-04-18T08:36:11.969Z</time></trkpt><trkpt lat="42.05779831920309" lon="11.818705931932579"><ele>1.0</ele><time>2026-04-18T08:36:12.969Z</time></trkpt><trkpt lat="42.057679075953075" lon="11.818833548369014"><ele>1.0</ele><time>2026-04-18T08:36:13.969Z</time></trkpt><trkpt lat="42.057575142028035" lon="11.818952252613366"><ele>1.0</ele><time>2026-04-18T08:36:14.969Z</time></trkpt><trkpt lat="42.05748232174144" lon="11.81907615232879"><ele>1.0</ele><time>2026-04-18T08:36:15.969Z</time></trkpt><trkpt lat="42.05737538475749" lon="11.81919109700668"><ele>1.0</ele><time>2026-04-18T08:36:16.969Z</time></trkpt><trkpt lat="42.05726634386903" lon="11.819305226901855"><ele>2.5</ele><time>2026-04-18T08:36:17.969Z</time></trkpt><trkpt lat="42.05716290161205" lon="11.819413587848281"><ele>4.0</ele><time>2026-04-18T08:36:18.969Z</time></trkpt><trkpt lat="42.05706052342859" lon="11.819505677272417"><ele>5.5</ele><time>2026-04-18T08:36:19.969Z</time></trkpt><trkpt lat="42.056953836061176" lon="11.819589969399999"><ele>7.0</ele><time>2026-04-18T08:36:20.969Z</time></trkpt><trkpt lat="42.056815951121365" lon="11.819620148233215"><ele>7.0</ele><time>2026-04-18T08:36:21.969Z</time></trkpt><trkpt lat="42.05667800521729" lon="11.819642601358225"><ele>7.0</ele><time>2026-04-18T08:36:22.969Z</time></trkpt><trkpt lat="42.05653819590936" lon="11.819688673519288"><ele>7.0</ele><time>2026-04-18T08:36:23.969Z</time></trkpt><trkpt lat="42.056389372997835" lon="11.819683557263044"><ele>7.0</ele><time>2026-04-18T08:36:24.969Z</time></trkpt><trkpt lat="42.05625182912563" lon="11.819712009535301"><ele>6.5</ele><time>2026-04-18T08:36:25.969Z</time></trkpt><trkpt lat="42.05612038306638" lon="11.819736848750221"><ele>6.0</ele><time>2026-04-18T08:36:26.969Z</time></trkpt><trkpt lat="42.055986188794044" lon="11.81976185623493"><ele>5.5</ele><time>2026-04-18T08:36:27.969Z</time></trkpt><trkpt lat="42.05584576387757" lon="11.819784952739775"><ele>5.0</ele><time>2026-04-18T08:36:28.969Z</time></trkpt><trkpt lat="42.0557015180995" lon="11.819812563521525"><ele>5.0</ele><time>2026-04-18T08:36:29.969Z</time></trkpt><trkpt lat="42.05555824273273" lon="11.819841249742586"><ele>5.0</ele><time>2026-04-18T08:36:30.969Z</time></trkpt><trkpt lat="42.05541450499679" lon="11.819870110464274"><ele>5.0</ele><time>2026-04-18T08:36:31.969Z</time></trkpt><trkpt lat="42.05527083871442" lon="11.819898456121123"><ele>5.0</ele><time>2026-04-18T08:36:32.969Z</time></trkpt><trkpt lat="42.05512649334329" lon="11.819922704824561"><ele>5.0</ele><time>2026-04-18T08:36:33.969Z</time></trkpt><trkpt lat="42.054981727054695" lon="11.819947928256624"><ele>5.0</ele><time>2026-04-18T08:36:34.969Z</time></trkpt><trkpt lat="42.0548345147217" lon="11.81997291841755"><ele>5.0</ele><time>2026-04-18T08:36:35.969Z</time></trkpt><trkpt lat="42.05468642362397" lon="11.81999844889718"><ele>5.0</ele><time>2026-04-18T08:36:36.969Z</time></trkpt><trkpt lat="42.05454234805096" lon="11.820025920347291"><ele>5.0</ele><time>2026-04-18T08:36:37.969Z</time></trkpt><trkpt lat="42.05439295129612" lon="11.820054077303363"><ele>5.0</ele><time>2026-04-18T08:36:38.969Z</time></trkpt><trkpt lat="42.05424289772478" lon="11.820079156423034"><ele>5.0</ele><time>2026-04-18T08:36:39.969Z</time></trkpt><trkpt lat="42.05409768359916" lon="11.82010648279378"><ele>5.0</ele><time>2026-04-18T08:36:40.969Z</time></trkpt><trkpt lat="42.053948630133725" lon="11.820115130637594"><ele>5.75</ele><time>2026-04-18T08:36:41.969Z</time></trkpt><trkpt lat="42.05379853693449" lon="11.820157198648218"><ele>6.5</ele><time>2026-04-18T08:36:42.969Z</time></trkpt><trkpt lat="42.053653726903505" lon="11.820192233460874"><ele>7.25</ele><time>2026-04-18T08:36:43.969Z</time></trkpt><trkpt lat="42.05351241236136" lon="11.820224073298972"><ele>8.0</ele><time>2026-04-18T08:36:44.969Z</time></trkpt><trkpt lat="42.05336849837595" lon="11.820254794279986"><ele>7.25</ele><time>2026-04-18T08:36:45.969Z</time></trkpt><trkpt lat="42.0532273131927" lon="11.820279207060802"><ele>6.5</ele><time>2026-04-18T08:36:46.969Z</time></trkpt><trkpt lat="42.05308106472023" lon="11.820300324103279"><ele>5.75</ele><time>2026-04-18T08:36:47.969Z</time></trkpt><trkpt lat="42.05293677133065" lon="11.820313820772078"><ele>5.0</ele><time>2026-04-18T08:36:48.969Z</time></trkpt><trkpt lat="42.05278920745952" lon="11.820318191352403"><ele>5.0</ele><time>2026-04-18T08:36:49.969Z</time></trkpt><trkpt lat="42.05264023033926" lon="11.820319398755158"><ele>5.0</ele><time>2026-04-18T08:36:50.969Z</time></trkpt><trkpt lat="42.05249215018715" lon="11.820324052105718"><ele>5.0</ele><time>2026-04-18T08:36:51.969Z</time></trkpt><trkpt lat="42.05235341031834" lon="11.82032797156208"><ele>5.0</ele><time>2026-04-18T08:36:52.969Z</time></trkpt><trkpt lat="42.05221827479217" lon="11.820332558156524"><ele>4.75</ele><time>2026-04-18T08:36:53.969Z</time></trkpt><trkpt lat="42.05207644002525" lon="11.820339480895509"><ele>4.5</ele><time>2026-04-18T08:36:54.969Z</time></trkpt><trkpt lat="42.05193013545055" lon="11.820349451486504"><ele>4.25</ele><time>2026-04-18T08:36:55.969Z</time></trkpt><trkpt lat="42.051781310131766" lon="11.820358892363366"><ele>4.0</ele><time>2026-04-18T08:36:56.969Z</time></trkpt><trkpt lat="42.051636706945274" lon="11.820365256268897"><ele>4.0</ele><time>2026-04-18T08:36:57.969Z</time></trkpt><trkpt lat="42.0514930610299" lon="11.82037333070822"><ele>4.0</ele><time>2026-04-18T08:36:58.969Z</time></trkpt><trkpt lat="42.0513604917559" lon="11.820376416533668"><ele>4.0</ele><time>2026-04-18T08:36:59.969Z</time></trkpt><trkpt lat="42.05123388963499" lon="11.820387648457196"><ele>4.0</ele><time>2026-04-18T08:37:00.969Z</time></trkpt><trkpt lat="42.05110404948265" lon="11.820395265208381"><ele>4.0</ele><time>2026-04-18T08:37:01.969Z</time></trkpt><trkpt lat="42.05097112607596" lon="11.820403271940464"><ele>4.0</ele><time>2026-04-18T08:37:02.969Z</time></trkpt><trkpt lat="42.05083944342357" lon="11.82041115922153"><ele>4.0</ele><time>2026-04-18T08:37:03.969Z</time></trkpt><trkpt lat="42.0507084609173" lon="11.82042023000901"><ele>4.0</ele><time>2026-04-18T08:37:04.969Z</time></trkpt><trkpt lat="42.050579221820634" lon="11.820435014030004"><ele>4.0</ele><time>2026-04-18T08:37:05.969Z</time></trkpt><trkpt lat="42.050447842292826" lon="11.820462364997079"><ele>4.0</ele><time>2026-04-18T08:37:06.969Z</time></trkpt><trkpt lat="42.05031352713844" lon="11.820470458701745"><ele>4.0</ele><time>2026-04-18T08:37:07.969Z</time></trkpt><trkpt lat="42.05018664457138" lon="11.8205077229405"><ele>4.0</ele><time>2026-04-18T08:37:08.969Z</time></trkpt><trkpt lat="42.05005872281685" lon="11.820542494722227"><ele>4.25</ele><time>2026-04-18T08:37:09.969Z</time></trkpt><trkpt lat="42.049928794268666" lon="11.820577987862388"><ele>4.5</ele><time>2026-04-18T08:37:10.969Z</time></trkpt><trkpt lat="42.04980299935901" lon="11.820611799530774"><ele>4.75</ele><time>2026-04-18T08:37:11.969Z</time></trkpt><trkpt lat="42.0496801045" lon="11.820644198022874"><ele>5.0</ele><time>2026-04-18T08:37:12.969Z</time></trkpt><trkpt lat="42.04955059786481" lon="11.82067528251295"><ele>5.0</ele><time>2026-04-18T08:37:13.969Z</time></trkpt><trkpt lat="42.04941782635161" lon="11.82070698518181"><ele>5.0</ele><time>2026-04-18T08:37:14.969Z</time></trkpt><trkpt lat="42.049279533765436" lon="11.82074224026612"><ele>5.0</ele><time>2026-04-18T08:37:15.969Z</time></trkpt><trkpt lat="42.04914366030218" lon="11.820778010649182"><ele>5.0</ele><time>2026-04-18T08:37:16.969Z</time></trkpt><trkpt lat="42.04900803095646" lon="11.820814151162272"><ele>5.25</ele><time>2026-04-18T08:37:17.969Z</time></trkpt><trkpt lat="42.0488741625538" lon="11.820857769134625"><ele>5.5</ele><time>2026-04-18T08:37:18.969Z</time></trkpt><trkpt lat="42.048737812532146" lon="11.820921627853831"><ele>5.75</ele><time>2026-04-18T08:37:19.969Z</time></trkpt><trkpt lat="42.04860251538952" lon="11.820994207672795"><ele>6.0</ele><time>2026-04-18T08:37:20.969Z</time></trkpt><trkpt lat="42.048469223526475" lon="11.821080147654625"><ele>6.25</ele><time>2026-04-18T08:37:21.969Z</time></trkpt><trkpt lat="42.04834805441065" lon="11.821185015649858"><ele>6.5</ele><time>2026-04-18T08:37:22.969Z</time></trkpt><trkpt lat="42.04823129966044" lon="11.821292311130888"><ele>6.75</ele><time>2026-04-18T08:37:23.969Z</time></trkpt><trkpt lat="42.048116402887324" lon="11.821407131519646"><ele>7.0</ele><time>2026-04-18T08:37:24.969Z</time></trkpt><trkpt lat="42.04800446034661" lon="11.82153104875605"><ele>6.333333333333334</ele><time>2026-04-18T08:37:25.969Z</time></trkpt><trkpt lat="42.04789753834075" lon="11.821671092895413"><ele>5.666666666666667</ele><time>2026-04-18T08:37:26.969Z</time></trkpt><trkpt lat="42.04779103608993" lon="11.82181866261986"><ele>5.0</ele><time>2026-04-18T08:37:27.969Z</time></trkpt><trkpt lat="42.04768809743437" lon="11.821962876564507"><ele>5.0</ele><time>2026-04-18T08:37:28.969Z</time></trkpt><trkpt lat="42.04758966045936" lon="11.82210734766523"><ele>5.0</ele><time>2026-04-18T08:37:29.969Z</time></trkpt><trkpt lat="42.04748332466967" lon="11.822258899940648"><ele>5.0</ele><time>2026-04-18T08:37:30.969Z</time></trkpt><trkpt lat="42.04736390555181" lon="11.822426920152456"><ele>5.0</ele><time>2026-04-18T08:37:31.969Z</time></trkpt><trkpt lat="42.04724996358174" lon="11.822598797392654"><ele>5.0</ele><time>2026-04-18T08:37:32.969Z</time></trkpt><trkpt lat="42.04713049093117" lon="11.82276886973057"><ele>5.0</ele><time>2026-04-18T08:37:33.969Z</time></trkpt><trkpt lat="42.04699945381903" lon="11.822921052815783"><ele>5.0</ele><time>2026-04-18T08:37:34.969Z</time></trkpt><trkpt lat="42.04686386565235" lon="11.823079986631132"><ele>5.0</ele><time>2026-04-18T08:37:35.969Z</time></trkpt><trkpt lat="42.046747045672426" lon="11.82324395219075"><ele>5.0</ele><time>2026-04-18T08:37:36.969Z</time></trkpt><trkpt lat="42.04663099146725" lon="11.82340479622868"><ele>4.666666666666667</ele><time>2026-04-18T08:37:37.969Z</time></trkpt><trkpt lat="42.04651763452694" lon="11.82357336941997"><ele>4.333333333333333</ele><time>2026-04-18T08:37:38.969Z</time></trkpt><trkpt lat="42.046393810784394" lon="11.823750749879602"><ele>4.0</ele><time>2026-04-18T08:37:39.969Z</time></trkpt><trkpt lat="42.04627308136287" lon="11.823908319439509"><ele>4.0</ele><time>2026-04-18T08:37:40.967Z</time></trkpt><trkpt lat="42.046161937117446" lon="11.824058515021301"><ele>4.0</ele><time>2026-04-18T08:37:41.967Z</time></trkpt><trkpt lat="42.04604699322763" lon="11.824211831491674"><ele>4.0</ele><time>2026-04-18T08:37:42.967Z</time></trkpt><trkpt lat="42.04593271858574" lon="11.824362752981994"><ele>4.333333333333333</ele><time>2026-04-18T08:37:43.967Z</time></trkpt><trkpt lat="42.0458144377203" lon="11.824521736224636"><ele>4.666666666666667</ele><time>2026-04-18T08:37:44.967Z</time></trkpt><trkpt lat="42.04570160371582" lon="11.82468789232642"><ele>5.0</ele><time>2026-04-18T08:37:45.967Z</time></trkpt><trkpt lat="42.04559587987627" lon="11.82485353649857"><ele>3.666666666666667</ele><time>2026-04-18T08:37:46.967Z</time></trkpt><trkpt lat="42.04548736194249" lon="11.82500890187297"><ele>2.3333333333333335</ele><time>2026-04-18T08:37:47.967Z</time></trkpt><trkpt lat="42.04538322837168" lon="11.825177222440383"><ele>1.0</ele><time>2026-04-18T08:37:48.967Z</time></trkpt><trkpt lat="42.04528865912852" lon="11.825349739489631"><ele>1.0</ele><time>2026-04-18T08:37:49.967Z</time></trkpt><trkpt lat="42.04519360195197" lon="11.82553128146866"><ele>1.0</ele><time>2026-04-18T08:37:50.967Z</time></trkpt><trkpt lat="42.04509627123148" lon="11.825730524332387"><ele>1.0</ele><time>2026-04-18T08:37:51.967Z</time></trkpt><trkpt lat="42.044999414224534" lon="11.825926823837877"><ele>1.25</ele><time>2026-04-18T08:37:52.967Z</time></trkpt><trkpt lat="42.04491048663131" lon="11.82610123630042"><ele>1.5</ele><time>2026-04-18T08:37:53.967Z</time></trkpt><trkpt lat="42.04482601674142" lon="11.826256209470127"><ele>1.75</ele><time>2026-04-18T08:37:54.967Z</time></trkpt><trkpt lat="42.04475122269242" lon="11.826409202143846"><ele>2.0</ele><time>2026-04-18T08:37:55.967Z</time></trkpt><trkpt lat="42.04467589253981" lon="11.826544242835908"><ele>2.0</ele><time>2026-04-18T08:37:56.967Z</time></trkpt><trkpt lat="42.04460696412395" lon="11.826659484990039"><ele>2.0</ele><time>2026-04-18T08:37:57.967Z</time></trkpt><trkpt lat="42.04455083826427" lon="11.826748149564224"><ele>2.0</ele><time>2026-04-18T08:37:58.967Z</time></trkpt><trkpt lat="42.044492424370375" lon="11.826829887979764"><ele>2.0</ele><time>2026-04-18T08:37:59.967Z</time></trkpt><trkpt lat="42.04441517604068" lon="11.826900696930355"><ele>2.0</ele><time>2026-04-18T08:38:00.967Z</time></trkpt><trkpt lat="42.044320971575566" lon="11.826973571245288"><ele>3.0</ele><time>2026-04-18T08:38:01.967Z</time></trkpt><trkpt lat="42.0441997170088" lon="11.82702314229431"><ele>4.0</ele><time>2026-04-18T08:38:02.967Z</time></trkpt><trkpt lat="42.04406999194447" lon="11.82706102643903"><ele>5.0</ele><time>2026-04-18T08:38:03.967Z</time></trkpt><trkpt lat="42.04394163492585" lon="11.82710290432918"><ele>6.0</ele><time>2026-04-18T08:38:04.967Z</time></trkpt><trkpt lat="42.04381969007467" lon="11.827134340668186"><ele>6.0</ele><time>2026-04-18T08:38:05.967Z</time></trkpt><trkpt lat="42.04371071639502" lon="11.827165242416767"><ele>6.0</ele><time>2026-04-18T08:38:06.967Z</time></trkpt><trkpt lat="42.04359901032458" lon="11.827196564678447"><ele>6.0</ele><time>2026-04-18T08:38:07.967Z</time></trkpt><trkpt lat="42.0434702201746" lon="11.827242281213659"><ele>6.0</ele><time>2026-04-18T08:38:08.967Z</time></trkpt><trkpt lat="42.04332068370624" lon="11.827273043575897"><ele>5.333333333333333</ele><time>2026-04-18T08:38:09.967Z</time></trkpt><trkpt lat="42.04317451238696" lon="11.827319826761368"><ele>4.666666666666666</ele><time>2026-04-18T08:38:10.967Z</time></trkpt><trkpt lat="42.04302593015415" lon="11.827359883297023"><ele>4.0</ele><time>2026-04-18T08:38:11.967Z</time></trkpt><trkpt lat="42.04287004510649" lon="11.827402602373338"><ele>4.0</ele><time>2026-04-18T08:38:12.967Z</time></trkpt><trkpt lat="42.042717589864935" lon="11.827446135222905"><ele>4.0</ele><time>2026-04-18T08:38:13.967Z</time></trkpt><trkpt lat="42.04256224293436" lon="11.827496102016097"><ele>4.0</ele><time>2026-04-18T08:38:14.967Z</time></trkpt><trkpt lat="42.042409090780595" lon="11.827549185058997"><ele>3.6666666666666665</ele><time>2026-04-18T08:38:15.967Z</time></trkpt><trkpt lat="42.04225420337596" lon="11.827609477604158"><ele>3.333333333333333</ele><time>2026-04-18T08:38:16.967Z</time></trkpt><trkpt lat="42.042100093360425" lon="11.827678948628828"><ele>3.0</ele><time>2026-04-18T08:38:17.967Z</time></trkpt><trkpt lat="42.04195204099211" lon="11.827756330414362"><ele>3.0</ele><time>2026-04-18T08:38:18.967Z</time></trkpt><trkpt lat="42.04180274407916" lon="11.827849836001729"><ele>3.0</ele><time>2026-04-18T08:38:19.967Z</time></trkpt><trkpt lat="42.04164724216696" lon="11.827947194862553"><ele>3.0</ele><time>2026-04-18T08:38:20.967Z</time></trkpt><trkpt lat="42.04150306416611" lon="11.828042298564938"><ele>2.3333333333333335</ele><time>2026-04-18T08:38:21.967Z</time></trkpt><trkpt lat="42.041354788107284" lon="11.828155401258458"><ele>1.6666666666666665</ele><time>2026-04-18T08:38:22.967Z</time></trkpt><trkpt lat="42.04120929401963" lon="11.82826376914526"><ele>1.0</ele><time>2026-04-18T08:38:23.967Z</time></trkpt><trkpt lat="42.04106232289658" lon="11.828378394838206"><ele>1.0</ele><time>2026-04-18T08:38:24.967Z</time></trkpt><trkpt lat="42.04090879801475" lon="11.828499646342154"><ele>1.0</ele><time>2026-04-18T08:38:25.967Z</time></trkpt><trkpt lat="42.04076240403975" lon="11.828613928653784"><ele>1.0</ele><time>2026-04-18T08:38:26.967Z</time></trkpt><trkpt lat="42.040625919212175" lon="11.828720982467607"><ele>1.0</ele><time>2026-04-18T08:38:27.967Z</time></trkpt><trkpt lat="42.04048351704014" lon="11.828828718135565"><ele>1.0</ele><time>2026-04-18T08:38:28.967Z</time></trkpt><trkpt lat="42.040354573837" lon="11.828939426371047"><ele>1.0</ele><time>2026-04-18T08:38:29.967Z</time></trkpt><trkpt lat="42.04021835247597" lon="11.829052697149853"><ele>1.0</ele><time>2026-04-18T08:38:30.967Z</time></trkpt><trkpt lat="42.04008225061858" lon="11.829176810569157"><ele>1.0</ele><time>2026-04-18T08:38:31.967Z</time></trkpt><trkpt lat="42.0399526477256" lon="11.829300620581703"><ele>1.0</ele><time>2026-04-18T08:38:32.967Z</time></trkpt><trkpt lat="42.03982641111919" lon="11.82944186746857"><ele>0.6666666666666666</ele><time>2026-04-18T08:38:33.967Z</time></trkpt><trkpt lat="42.03971411689778" lon="11.829606194365706"><ele>0.3333333333333333</ele><time>2026-04-18T08:38:34.967Z</time></trkpt><trkpt lat="42.03961475233608" lon="11.829793512652273"><ele>0.0</ele><time>2026-04-18T08:38:35.967Z</time></trkpt><trkpt lat="42.03952207691615" lon="11.829969968767017"><ele>0.0</ele><time>2026-04-18T08:38:36.967Z</time></trkpt><trkpt lat="42.03942748267001" lon="11.830137851547674"><ele>0.0</ele><time>2026-04-18T08:38:37.967Z</time></trkpt><trkpt lat="42.03933668727848" lon="11.830304007938429"><ele>0.0</ele><time>2026-04-18T08:38:38.967Z</time></trkpt><trkpt lat="42.0392463923386" lon="11.830468827104461"><ele>0.0</ele><time>2026-04-18T08:38:39.967Z</time></trkpt><trkpt lat="42.03915541580686" lon="11.830639684380978"><ele>0.0</ele><time>2026-04-18T08:38:40.967Z</time></trkpt><trkpt lat="42.03906027698787" lon="11.830804037841064"><ele>0.0</ele><time>2026-04-18T08:38:41.967Z</time></trkpt><trkpt lat="42.0389636617478" lon="11.830970379380753"><ele>0.6666666666666666</ele><time>2026-04-18T08:38:42.967Z</time></trkpt><trkpt lat="42.03886583701511" lon="11.831140212300674"><ele>1.3333333333333333</ele><time>2026-04-18T08:38:43.967Z</time></trkpt><trkpt lat="42.03877005779511" lon="11.831304755003968"><ele>2.0</ele><time>2026-04-18T08:38:44.967Z</time></trkpt><trkpt lat="42.03867395676781" lon="11.831473385004607"><ele>2.0</ele><time>2026-04-18T08:38:45.967Z</time></trkpt><trkpt lat="42.038570291953796" lon="11.831647216840766"><ele>2.0</ele><time>2026-04-18T08:38:46.967Z</time></trkpt><trkpt lat="42.03846001877959" lon="11.831822162043391"><ele>2.0</ele><time>2026-04-18T08:38:47.967Z</time></trkpt><trkpt lat="42.03833473301814" lon="11.831965353699523"><ele>1.6666666666666665</ele><time>2026-04-18T08:38:48.967Z</time></trkpt><trkpt lat="42.03821098591126" lon="11.832111062365213"><ele>1.3333333333333333</ele><time>2026-04-18T08:38:49.967Z</time></trkpt><trkpt lat="42.03807316027838" lon="11.832256136465492"><ele>1.0</ele><time>2026-04-18T08:38:50.967Z</time></trkpt><trkpt lat="42.03794492518893" lon="11.83237704072982"><ele>1.0</ele><time>2026-04-18T08:38:51.967Z</time></trkpt><trkpt lat="42.03781099966997" lon="11.832494739822227"><ele>1.0</ele><time>2026-04-18T08:38:52.967Z</time></trkpt><trkpt lat="42.03766934954417" lon="11.832591509062022"><ele>1.0</ele><time>2026-04-18T08:38:53.967Z</time></trkpt><trkpt lat="42.037509248898765" lon="11.8326897241077"><ele>2.3333333333333335</ele><time>2026-04-18T08:38:54.967Z</time></trkpt><trkpt lat="42.03735107661307" lon="11.832774555885832"><ele>3.666666666666667</ele><time>2026-04-18T08:38:55.967Z</time></trkpt><trkpt lat="42.03718837018361" lon="11.832847771969883"><ele>5.0</ele><time>2026-04-18T08:38:56.967Z</time></trkpt><trkpt lat="42.03703171164244" lon="11.832901413692335"><ele>5.0</ele><time>2026-04-18T08:38:57.967Z</time></trkpt><trkpt lat="42.03687033415799" lon="11.832945426591609"><ele>5.0</ele><time>2026-04-18T08:38:58.967Z</time></trkpt><trkpt lat="42.0367015406403" lon="11.832983968347188"><ele>5.0</ele><time>2026-04-18T08:38:59.967Z</time></trkpt><trkpt lat="42.03654607321303" lon="11.833019627948044"><ele>4.666666666666667</ele><time>2026-04-18T08:39:00.967Z</time></trkpt><trkpt lat="42.036397348776156" lon="11.83305390855915"><ele>4.333333333333333</ele><time>2026-04-18T08:39:01.967Z</time></trkpt><trkpt lat="42.03624425449923" lon="11.83309178254854"><ele>4.0</ele><time>2026-04-18T08:39:02.967Z</time></trkpt><trkpt lat="42.036085190436765" lon="11.83313542560588"><ele>4.0</ele><time>2026-04-18T08:39:03.967Z</time></trkpt><trkpt lat="42.035940214970275" lon="11.833177756087998"><ele>4.0</ele><time>2026-04-18T08:39:04.967Z</time></trkpt><trkpt lat="42.03578930383339" lon="11.83323103701651"><ele>4.0</ele><time>2026-04-18T08:39:05.967Z</time></trkpt><trkpt lat="42.03564636628602" lon="11.833292587943419"><ele>3.75</ele><time>2026-04-18T08:39:06.967Z</time></trkpt><trkpt lat="42.035516239863675" lon="11.833370096263852"><ele>3.5</ele><time>2026-04-18T08:39:07.967Z</time></trkpt><trkpt lat="42.03539956448137" lon="11.833470005098544"><ele>3.25</ele><time>2026-04-18T08:39:08.967Z</time></trkpt><trkpt lat="42.03528162305938" lon="11.83358994545321"><ele>3.0</ele><time>2026-04-18T08:39:09.967Z</time></trkpt><trkpt lat="42.035166698268924" lon="11.833728524750027"><ele>4.333333333333334</ele><time>2026-04-18T08:39:10.967Z</time></trkpt><trkpt lat="42.03505687716148" lon="11.833882539081555"><ele>5.666666666666667</ele><time>2026-04-18T08:39:11.967Z</time></trkpt><trkpt lat="42.03495958646687" lon="11.834042274354072"><ele>7.0</ele><time>2026-04-18T08:39:12.967Z</time></trkpt><trkpt lat="42.034857095441936" lon="11.83419238223298"><ele>7.75</ele><time>2026-04-18T08:39:13.967Z</time></trkpt><trkpt lat="42.03475180964492" lon="11.834332803713117"><ele>8.5</ele><time>2026-04-18T08:39:14.967Z</time></trkpt><trkpt lat="42.03465687400892" lon="11.834483439100257"><ele>9.25</ele><time>2026-04-18T08:39:15.967Z</time></trkpt><trkpt lat="42.0345624249538" lon="11.83464317217398"><ele>10.0</ele><time>2026-04-18T08:39:16.967Z</time></trkpt><trkpt lat="42.034462887775874" lon="11.834798699064173"><ele>10.0</ele><time>2026-04-18T08:39:17.967Z</time></trkpt><trkpt lat="42.03436318972134" lon="11.83495872947395"><ele>10.0</ele><time>2026-04-18T08:39:18.967Z</time></trkpt><trkpt lat="42.034265019070325" lon="11.835121997822316"><ele>10.0</ele><time>2026-04-18T08:39:19.967Z</time></trkpt><trkpt lat="42.034161823543315" lon="11.835284680038832"><ele>10.666666666666668</ele><time>2026-04-18T08:39:20.967Z</time></trkpt><trkpt lat="42.034073607904574" lon="11.835462652666516"><ele>11.333333333333334</ele><time>2026-04-18T08:39:21.967Z</time></trkpt><trkpt lat="42.03398442298909" lon="11.835625257367424"><ele>12.0</ele><time>2026-04-18T08:39:22.967Z</time></trkpt><trkpt lat="42.0339014444249" lon="11.835784532576579"><ele>12.0</ele><time>2026-04-18T08:39:23.967Z</time></trkpt><trkpt lat="42.033817708605746" lon="11.83594487447246"><ele>12.0</ele><time>2026-04-18T08:39:24.967Z</time></trkpt><trkpt lat="42.03373409683328" lon="11.836099123698416"><ele>12.0</ele><time>2026-04-18T08:39:25.967Z</time></trkpt><trkpt lat="42.03365407925459" lon="11.836259325339045"><ele>12.0</ele><time>2026-04-18T08:39:26.967Z</time></trkpt><trkpt lat="42.033549050495616" lon="11.83640083993088"><ele>12.75</ele><time>2026-04-18T08:39:27.967Z</time></trkpt><trkpt lat="42.03347557116223" lon="11.836551710801444"><ele>13.5</ele><time>2026-04-18T08:39:28.967Z</time></trkpt><trkpt lat="42.03341333852029" lon="11.83669230647258"><ele>14.25</ele><time>2026-04-18T08:39:29.967Z</time></trkpt><trkpt lat="42.033357050840095" lon="11.836828627233496"><ele>15.0</ele><time>2026-04-18T08:39:30.967Z</time></trkpt><trkpt lat="42.03330664889639" lon="11.836953059874208"><ele>15.4</ele><time>2026-04-18T08:39:31.967Z</time></trkpt><trkpt lat="42.03326417357392" lon="11.83706436845716"><ele>15.8</ele><time>2026-04-18T08:39:32.967Z</time></trkpt><trkpt lat="42.03322470552706" lon="11.83716027356775"><ele>16.2</ele><time>2026-04-18T08:39:33.967Z</time></trkpt><trkpt lat="42.033187718209426" lon="11.837250421346996"><ele>16.6</ele><time>2026-04-18T08:39:34.967Z</time></trkpt><trkpt lat="42.03315238682923" lon="11.837391453604093"><ele>17.0</ele><time>2026-04-18T08:39:36.967Z</time></trkpt><trkpt lat="42.0331136340235" lon="11.8375247086129"><ele>17.0</ele><time>2026-04-18T08:39:38.967Z</time></trkpt><trkpt lat="42.0330562924076" lon="11.837599416792035"><ele>17.0</ele><time>2026-04-18T08:39:39.967Z</time></trkpt><trkpt lat="42.03303103057222" lon="11.83770224455165"><ele>17.0</ele><time>2026-04-18T08:39:40.967Z</time></trkpt><trkpt lat="42.03299182665893" lon="11.837828208530539"><ele>17.0</ele><time>2026-04-18T08:39:41.967Z</time></trkpt><trkpt lat="42.03294950274738" lon="11.837957005656694"><ele>17.0</ele><time>2026-04-18T08:39:42.967Z</time></trkpt><trkpt lat="42.03290036661966" lon="11.838093322074794"><ele>17.2</ele><time>2026-04-18T08:39:43.967Z</time></trkpt><trkpt lat="42.03285372858498" lon="11.838231225557033"><ele>17.4</ele><time>2026-04-18T08:39:44.967Z</time></trkpt><trkpt lat="42.032809724956955" lon="11.838354700554437"><ele>17.6</ele><time>2026-04-18T08:39:45.967Z</time></trkpt><trkpt lat="42.03277556908508" lon="11.838494135013685"><ele>17.8</ele><time>2026-04-18T08:39:46.965Z</time></trkpt><trkpt lat="42.032746752579804" lon="11.838634211823834"><ele>18.0</ele><time>2026-04-18T08:39:47.966Z</time></trkpt><trkpt lat="42.03272245135941" lon="11.83878064782128"><ele>18.0</ele><time>2026-04-18T08:39:48.966Z</time></trkpt><trkpt lat="42.03269786654939" lon="11.83893512106729"><ele>18.0</ele><time>2026-04-18T08:39:49.965Z</time></trkpt><trkpt lat="42.032649337031934" lon="11.839090516993128"><ele>18.0</ele><time>2026-04-18T08:39:50.965Z</time></trkpt><trkpt lat="42.03261867968672" lon="11.83924096616671"><ele>18.0</ele><time>2026-04-18T08:39:51.965Z</time></trkpt><trkpt lat="42.03259145665048" lon="11.83938107483063"><ele>17.6</ele><time>2026-04-18T08:39:52.965Z</time></trkpt><trkpt lat="42.03258254520112" lon="11.839522333574585"><ele>17.200000000000003</ele><time>2026-04-18T08:39:53.965Z</time></trkpt><trkpt lat="42.03255416377369" lon="11.8396465968123"><ele>16.8</ele><time>2026-04-18T08:39:54.965Z</time></trkpt><trkpt lat="42.03251435858702" lon="11.839767139457868"><ele>16.400000000000002</ele><time>2026-04-18T08:39:55.965Z</time></trkpt><trkpt lat="42.03249763882931" lon="11.83988016656556"><ele>16.0</ele><time>2026-04-18T08:39:56.966Z</time></trkpt><trkpt lat="42.0324858710933" lon="11.839995202487735"><ele>15.666666666666666</ele><time>2026-04-18T08:39:57.966Z</time></trkpt><trkpt lat="42.03247238093063" lon="11.840091507127669"><ele>15.333333333333332</ele><time>2026-04-18T08:39:58.966Z</time></trkpt><trkpt lat="42.03245916925621" lon="11.840180447617666"><ele>15.0</ele><time>2026-04-18T08:39:59.965Z</time></trkpt><trkpt lat="42.032443817550366" lon="11.840324842728327"><ele>14.666666666666668</ele><time>2026-04-18T08:40:01.965Z</time></trkpt><trkpt lat="42.03243391649062" lon="11.840413219510024"><ele>14.333333333333334</ele><time>2026-04-18T08:40:03.965Z</time></trkpt><trkpt lat="42.03242925852347" lon="11.840536591227467"><ele>14.0</ele><time>2026-04-18T08:40:30.965Z</time></trkpt><trkpt lat="42.032389175585934" lon="11.84069957177881"><ele>13.500000000000002</ele><time>2026-04-18T08:40:32.965Z</time></trkpt><trkpt lat="42.032379279764484" lon="11.84080355733642"><ele>13.0</ele><time>2026-04-18T08:40:33.965Z</time></trkpt><trkpt lat="42.03236735113759" lon="11.84091595350936"><ele>12.5</ele><time>2026-04-18T08:40:34.965Z</time></trkpt><trkpt lat="42.032357976578496" lon="11.841031157664288"><ele>12.0</ele><time>2026-04-18T08:40:35.965Z</time></trkpt><trkpt lat="42.032345140802875" lon="11.84115676467432"><ele>11.5</ele><time>2026-04-18T08:40:36.965Z</time></trkpt><trkpt lat="42.03233133636778" lon="11.841295698854909"><ele>11.0</ele><time>2026-04-18T08:40:37.965Z</time></trkpt><trkpt lat="42.03231959794895" lon="11.841445234625992"><ele>10.75</ele><time>2026-04-18T08:40:38.965Z</time></trkpt><trkpt lat="42.032312581796994" lon="11.841601102312143"><ele>10.5</ele><time>2026-04-18T08:40:39.965Z</time></trkpt><trkpt lat="42.032302032846296" lon="11.841766054081914"><ele>10.25</ele><time>2026-04-18T08:40:40.965Z</time></trkpt><trkpt lat="42.03228846631109" lon="11.841935283663869"><ele>10.0</ele><time>2026-04-18T08:40:41.965Z</time></trkpt><trkpt lat="42.032270986491675" lon="11.842110173167779"><ele>9.75</ele><time>2026-04-18T08:40:42.965Z</time></trkpt><trkpt lat="42.032263644563905" lon="11.842291609381533"><ele>9.5</ele><time>2026-04-18T08:40:43.965Z</time></trkpt><trkpt lat="42.032258264254516" lon="11.842476092392317"><ele>9.25</ele><time>2026-04-18T08:40:44.965Z</time></trkpt><trkpt lat="42.03224668013146" lon="11.842658189486507"><ele>9.0</ele><time>2026-04-18T08:40:45.965Z</time></trkpt><trkpt lat="42.03222497227465" lon="11.842841438207572"><ele>9.0</ele><time>2026-04-18T08:40:46.965Z</time></trkpt><trkpt lat="42.03221176707758" lon="11.843023245854448"><ele>9.0</ele><time>2026-04-18T08:40:47.965Z</time></trkpt><trkpt lat="42.03220277613209" lon="11.843210528483278"><ele>9.0</ele><time>2026-04-18T08:40:48.965Z</time></trkpt><trkpt lat="42.03218985174006" lon="11.843398209130612"><ele>9.0</ele><time>2026-04-18T08:40:49.965Z</time></trkpt><trkpt lat="42.03217508370687" lon="11.843583482884837"><ele>9.0</ele><time>2026-04-18T08:40:50.965Z</time></trkpt><trkpt lat="42.032156516212666" lon="11.84377091399883"><ele>9.0</ele><time>2026-04-18T08:40:51.965Z</time></trkpt><trkpt lat="42.03213906824567" lon="11.843953645834407"><ele>9.0</ele><time>2026-04-18T08:40:52.965Z</time></trkpt><trkpt lat="42.03212570347445" lon="11.844131245943984"><ele>9.0</ele><time>2026-04-18T08:40:53.965Z</time></trkpt><trkpt lat="42.032112924952855" lon="11.84431025846657"><ele>9.0</ele><time>2026-04-18T08:40:54.965Z</time></trkpt><trkpt lat="42.032102827959555" lon="11.844490145389086"><ele>9.0</ele><time>2026-04-18T08:40:55.965Z</time></trkpt><trkpt lat="42.032091145336786" lon="11.84465954655309"><ele>9.0</ele><time>2026-04-18T08:40:56.965Z</time></trkpt><trkpt lat="42.032090842484486" lon="11.844833753752436"><ele>9.0</ele><time>2026-04-18T08:40:57.965Z</time></trkpt><trkpt lat="42.032089523476365" lon="11.844988187816906"><ele>9.0</ele><time>2026-04-18T08:40:58.965Z</time></trkpt><trkpt lat="42.03210620130305" lon="11.845126947124538"><ele>9.0</ele><time>2026-04-18T08:40:59.965Z</time></trkpt><trkpt lat="42.03213062393741" lon="11.845262623907168"><ele>9.0</ele><time>2026-04-18T08:41:00.965Z</time></trkpt><trkpt lat="42.0321630801288" lon="11.845407210920204"><ele>9.0</ele><time>2026-04-18T08:41:01.965Z</time></trkpt><trkpt lat="42.032181452916085" lon="11.845577403458833"><ele>9.0</ele><time>2026-04-18T08:41:02.965Z</time></trkpt><trkpt lat="42.032212347505364" lon="11.845743813035334"><ele>8.5</ele><time>2026-04-18T08:41:03.965Z</time></trkpt><trkpt lat="42.032241094518696" lon="11.845906720557048"><ele>8.0</ele><time>2026-04-18T08:41:04.965Z</time></trkpt><trkpt lat="42.032276325092205" lon="11.8460759507063"><ele>7.5</ele><time>2026-04-18T08:41:05.965Z</time></trkpt><trkpt lat="42.03230227700554" lon="11.846253813704159"><ele>7.0</ele><time>2026-04-18T08:41:06.965Z</time></trkpt><trkpt lat="42.03233206875165" lon="11.846419037578185"><ele>6.75</ele><time>2026-04-18T08:41:07.965Z</time></trkpt><trkpt lat="42.032363137353286" lon="11.846578156231883"><ele>6.5</ele><time>2026-04-18T08:41:08.965Z</time></trkpt><trkpt lat="42.03239158606706" lon="11.846730317898215"><ele>6.25</ele><time>2026-04-18T08:41:09.965Z</time></trkpt><trkpt lat="42.0324162168338" lon="11.846885507606954"><ele>6.0</ele><time>2026-04-18T08:41:10.965Z</time></trkpt><trkpt lat="42.032440003494" lon="11.847046209445542"><ele>6.0</ele><time>2026-04-18T08:41:11.965Z</time></trkpt><trkpt lat="42.03246258714421" lon="11.84719791853339"><ele>6.0</ele><time>2026-04-18T08:41:12.965Z</time></trkpt><trkpt lat="42.03248825849505" lon="11.847349177587311"><ele>6.0</ele><time>2026-04-18T08:41:13.964Z</time></trkpt><trkpt lat="42.032516106503195" lon="11.847502544666757"><ele>6.0</ele><time>2026-04-18T08:41:14.964Z</time></trkpt><trkpt lat="42.03254530438078" lon="11.847658156264469"><ele>6.5</ele><time>2026-04-18T08:41:15.964Z</time></trkpt><trkpt lat="42.0325632501721" lon="11.847817557076995"><ele>7.0</ele><time>2026-04-18T08:41:16.964Z</time></trkpt><trkpt lat="42.032589920604465" lon="11.847972656737095"><ele>7.5</ele><time>2026-04-18T08:41:17.964Z</time></trkpt><trkpt lat="42.032616994272935" lon="11.84811404655778"><ele>8.0</ele><time>2026-04-18T08:41:18.964Z</time></trkpt><trkpt lat="42.03265490093068" lon="11.848274364040002"><ele>7.75</ele><time>2026-04-18T08:41:19.964Z</time></trkpt><trkpt lat="42.032658191078795" lon="11.848469724995391"><ele>7.5</ele><time>2026-04-18T08:41:20.964Z</time></trkpt><trkpt lat="42.03269131565626" lon="11.848643907056521"><ele>7.25</ele><time>2026-04-18T08:41:21.964Z</time></trkpt><trkpt lat="42.03271526503308" lon="11.848819669641612"><ele>7.0</ele><time>2026-04-18T08:41:22.964Z</time></trkpt><trkpt lat="42.03274499287538" lon="11.848994592325708"><ele>7.0</ele><time>2026-04-18T08:41:23.964Z</time></trkpt><trkpt lat="42.03278146381789" lon="11.84918057469872"><ele>7.0</ele><time>2026-04-18T08:41:24.964Z</time></trkpt><trkpt lat="42.03281658050361" lon="11.849372482079135"><ele>7.0</ele><time>2026-04-18T08:41:25.964Z</time></trkpt><trkpt lat="42.03284414210986" lon="11.849554120423479"><ele>7.0</ele><time>2026-04-18T08:41:26.964Z</time></trkpt><trkpt lat="42.03287365709875" lon="11.84972861985093"><ele>7.0</ele><time>2026-04-18T08:41:27.964Z</time></trkpt><trkpt lat="42.032905058544145" lon="11.84989847621381"><ele>7.0</ele><time>2026-04-18T08:41:28.964Z</time></trkpt><trkpt lat="42.03293115365463" lon="11.850064571423253"><ele>7.0</ele><time>2026-04-18T08:41:29.964Z</time></trkpt><trkpt lat="42.03296759175344" lon="11.850235546031719"><ele>7.0</ele><time>2026-04-18T08:41:30.964Z</time></trkpt><trkpt lat="42.032996718518866" lon="11.850404926249672"><ele>7.25</ele><time>2026-04-18T08:41:31.964Z</time></trkpt><trkpt lat="42.03302766737372" lon="11.850573650746886"><ele>7.5</ele><time>2026-04-18T08:41:32.964Z</time></trkpt><trkpt lat="42.03305641480256" lon="11.850741169800903"><ele>7.75</ele><time>2026-04-18T08:41:33.964Z</time></trkpt><trkpt lat="42.033083916846074" lon="11.850909326987468"><ele>8.0</ele><time>2026-04-18T08:41:34.964Z</time></trkpt><trkpt lat="42.03311082714647" lon="11.851079336478465"><ele>8.25</ele><time>2026-04-18T08:41:35.964Z</time></trkpt><trkpt lat="42.033146167267205" lon="11.85125644165343"><ele>8.5</ele><time>2026-04-18T08:41:36.964Z</time></trkpt><trkpt lat="42.03317373004786" lon="11.85142225172195"><ele>8.75</ele><time>2026-04-18T08:41:37.964Z</time></trkpt><trkpt lat="42.033202241459385" lon="11.851590299488246"><ele>9.0</ele><time>2026-04-18T08:41:38.964Z</time></trkpt><trkpt lat="42.03322876223379" lon="11.851763524635569"><ele>8.0</ele><time>2026-04-18T08:41:39.964Z</time></trkpt><trkpt lat="42.03325334993585" lon="11.851930933119684"><ele>7.0</ele><time>2026-04-18T08:41:40.964Z</time></trkpt><trkpt lat="42.033275828854734" lon="11.852102427796515"><ele>6.0</ele><time>2026-04-18T08:41:41.964Z</time></trkpt><trkpt lat="42.033298731318204" lon="11.852267556920445"><ele>5.0</ele><time>2026-04-18T08:41:42.964Z</time></trkpt><trkpt lat="42.0332964582339" lon="11.8524451240252"><ele>6.5</ele><time>2026-04-18T08:41:43.964Z</time></trkpt><trkpt lat="42.03332115439442" lon="11.85262571452843"><ele>8.0</ele><time>2026-04-18T08:41:44.964Z</time></trkpt><trkpt lat="42.0333461566763" lon="11.852812033901412"><ele>9.5</ele><time>2026-04-18T08:41:45.964Z</time></trkpt><trkpt lat="42.033375413162325" lon="11.853003536348291"><ele>11.0</ele><time>2026-04-18T08:41:46.964Z</time></trkpt><trkpt lat="42.033397145578164" lon="11.853187076074498"><ele>11.0</ele><time>2026-04-18T08:41:47.964Z</time></trkpt><trkpt lat="42.033419552741734" lon="11.853383160389182"><ele>11.0</ele><time>2026-04-18T08:41:48.964Z</time></trkpt><trkpt lat="42.03344488773997" lon="11.853577332269357"><ele>11.0</ele><time>2026-04-18T08:41:49.964Z</time></trkpt><trkpt lat="42.03346791966198" lon="11.853768344230426"><ele>11.0</ele><time>2026-04-18T08:41:50.964Z</time></trkpt><trkpt lat="42.03349849842616" lon="11.85395346361859"><ele>10.25</ele><time>2026-04-18T08:41:51.964Z</time></trkpt><trkpt lat="42.03352480331616" lon="11.85413175429993"><ele>9.5</ele><time>2026-04-18T08:41:52.963Z</time></trkpt><trkpt lat="42.033548175647624" lon="11.854316014570601"><ele>8.75</ele><time>2026-04-18T08:41:53.964Z</time></trkpt><trkpt lat="42.03356936360386" lon="11.854506597797823"><ele>8.0</ele><time>2026-04-18T08:41:54.964Z</time></trkpt><trkpt lat="42.03359595829656" lon="11.8546898526142"><ele>7.75</ele><time>2026-04-18T08:41:55.964Z</time></trkpt><trkpt lat="42.03361737573919" lon="11.854875921933921"><ele>7.5</ele><time>2026-04-18T08:41:56.964Z</time></trkpt><trkpt lat="42.03363821355669" lon="11.85506305665401"><ele>7.25</ele><time>2026-04-18T08:41:57.964Z</time></trkpt><trkpt lat="42.03365967834238" lon="11.855240467635099"><ele>7.0</ele><time>2026-04-18T08:41:58.964Z</time></trkpt><trkpt lat="42.033680271906505" lon="11.855406896248388"><ele>6.25</ele><time>2026-04-18T08:41:59.963Z</time></trkpt><trkpt lat="42.03370146606642" lon="11.85555683153157"><ele>5.5</ele><time>2026-04-18T08:42:00.963Z</time></trkpt><trkpt lat="42.03372282173483" lon="11.855702700284246"><ele>4.75</ele><time>2026-04-18T08:42:01.964Z</time></trkpt><trkpt lat="42.03373956345412" lon="11.855858404449494"><ele>4.0</ele><time>2026-04-18T08:42:02.964Z</time></trkpt><trkpt lat="42.033759883101446" lon="11.856022482985644"><ele>3.5</ele><time>2026-04-18T08:42:03.964Z</time></trkpt><trkpt lat="42.03379076345915" lon="11.856189240313345"><ele>3.0</ele><time>2026-04-18T08:42:04.964Z</time></trkpt><trkpt lat="42.03383378462732" lon="11.856359137316831"><ele>2.5</ele><time>2026-04-18T08:42:05.963Z</time></trkpt><trkpt lat="42.03387622604987" lon="11.856533636299712"><ele>2.0</ele><time>2026-04-18T08:42:06.963Z</time></trkpt><trkpt lat="42.03392121714213" lon="11.856708923150679"><ele>1.5</ele><time>2026-04-18T08:42:07.963Z</time></trkpt><trkpt lat="42.03395845595425" lon="11.856889738001934"><ele>1.0</ele><time>2026-04-18T08:42:08.963Z</time></trkpt><trkpt lat="42.0340040587801" lon="11.85706322367546"><ele>0.5</ele><time>2026-04-18T08:42:09.963Z</time></trkpt><trkpt lat="42.0340471827735" lon="11.85723957130265"><ele>0.0</ele><time>2026-04-18T08:42:10.963Z</time></trkpt><trkpt lat="42.03409345301515" lon="11.85741859567255"><ele>0.0</ele><time>2026-04-18T08:42:11.963Z</time></trkpt><trkpt lat="42.034138121160346" lon="11.857602888144234"><ele>0.0</ele><time>2026-04-18T08:42:12.963Z</time></trkpt><trkpt lat="42.03418142627564" lon="11.857781518030135"><ele>0.0</ele><time>2026-04-18T08:42:13.963Z</time></trkpt><trkpt lat="42.03422450911811" lon="11.857956947162645"><ele>0.0</ele><time>2026-04-18T08:42:14.963Z</time></trkpt><trkpt lat="42.03426284906787" lon="11.85811827366643"><ele>0.5</ele><time>2026-04-18T08:42:15.963Z</time></trkpt><trkpt lat="42.03430182380455" lon="11.858284232049648"><ele>1.0</ele><time>2026-04-18T08:42:16.963Z</time></trkpt><trkpt lat="42.03431986008005" lon="11.858469062353675"><ele>1.5</ele><time>2026-04-18T08:42:17.963Z</time></trkpt><trkpt lat="42.03436417387031" lon="11.858643065782005"><ele>2.0</ele><time>2026-04-18T08:42:18.963Z</time></trkpt><trkpt lat="42.034402474595375" lon="11.85882242511921"><ele>2.0</ele><time>2026-04-18T08:42:19.963Z</time></trkpt><trkpt lat="42.0344164751228" lon="11.859005405600632"><ele>2.0</ele><time>2026-04-18T08:42:20.963Z</time></trkpt><trkpt lat="42.03443934766505" lon="11.8591832586269"><ele>2.0</ele><time>2026-04-18T08:42:21.963Z</time></trkpt><trkpt lat="42.03446341082873" lon="11.859361862266011"><ele>2.0</ele><time>2026-04-18T08:42:22.963Z</time></trkpt><trkpt lat="42.03448315230648" lon="11.85954421541773"><ele>2.0</ele><time>2026-04-18T08:42:23.963Z</time></trkpt><trkpt lat="42.03450050859345" lon="11.85972756500609"><ele>2.0</ele><time>2026-04-18T08:42:24.963Z</time></trkpt><trkpt lat="42.03451365141062" lon="11.859906273600435"><ele>2.0</ele><time>2026-04-18T08:42:25.963Z</time></trkpt><trkpt lat="42.03453450427132" lon="11.86008302728252"><ele>2.0</ele><time>2026-04-18T08:42:26.963Z</time></trkpt><trkpt lat="42.0345499882402" lon="11.860255878109115"><ele>1.8</ele><time>2026-04-18T08:42:27.963Z</time></trkpt><trkpt lat="42.03456995262789" lon="11.860412320036788"><ele>1.6</ele><time>2026-04-18T08:42:28.963Z</time></trkpt><trkpt lat="42.03458851574872" lon="11.860555678840065"><ele>1.4000000000000001</ele><time>2026-04-18T08:42:29.963Z</time></trkpt><trkpt lat="42.03460616335708" lon="11.860693192823168"><ele>1.2000000000000002</ele><time>2026-04-18T08:42:30.963Z</time></trkpt><trkpt lat="42.0346200368394" lon="11.860805397651767"><ele>1.0</ele><time>2026-04-18T08:42:31.963Z</time></trkpt><trkpt lat="42.03463284198013" lon="11.860911025719107"><ele>1.1666666666666665</ele><time>2026-04-18T08:42:32.963Z</time></trkpt><trkpt lat="42.03464021885476" lon="11.861018033432632"><ele>1.3333333333333333</ele><time>2026-04-18T08:42:33.963Z</time></trkpt><trkpt lat="42.034648755469355" lon="11.86111566653273"><ele>1.5</ele><time>2026-04-18T08:42:34.963Z</time></trkpt><trkpt lat="42.03466086481923" lon="11.861199773759429"><ele>1.6666666666666665</ele><time>2026-04-18T08:42:35.963Z</time></trkpt><trkpt lat="42.03465294212682" lon="11.861354587530316"><ele>1.8333333333333333</ele><time>2026-04-18T08:42:37.963Z</time></trkpt><trkpt lat="42.03467186416664" lon="11.861488560268938"><ele>2.0</ele><time>2026-04-18T08:42:39.963Z</time></trkpt><trkpt lat="42.03468466311333" lon="11.86159626200784"><ele>1.9999999999999998</ele><time>2026-04-18T08:42:41.963Z</time></trkpt><trkpt lat="42.034698998824396" lon="11.86172168838374"><ele>2.0</ele><time>2026-04-18T08:42:43.963Z</time></trkpt><trkpt lat="42.034715798210556" lon="11.861820763417779"><ele>2.0</ele><time>2026-04-18T08:42:46.963Z</time></trkpt><trkpt lat="42.034732376004165" lon="11.861909244122991"><ele>2.0</ele><time>2026-04-18T08:42:48.963Z</time></trkpt><trkpt lat="42.03475345427407" lon="11.862042335203604"><ele>1.9999999999999998</ele><time>2026-04-18T08:42:50.963Z</time></trkpt><trkpt lat="42.03476974330386" lon="11.862127152089403"><ele>2.0</ele><time>2026-04-18T08:42:51.963Z</time></trkpt><trkpt lat="42.03478578217346" lon="11.862219528149565"><ele>2.4000000000000004</ele><time>2026-04-18T08:42:52.963Z</time></trkpt><trkpt lat="42.03480799781333" lon="11.86233099205096"><ele>2.8000000000000003</ele><time>2026-04-18T08:42:53.963Z</time></trkpt><trkpt lat="42.034815611290696" lon="11.862463221745307"><ele>3.2</ele><time>2026-04-18T08:42:54.963Z</time></trkpt><trkpt lat="42.03483940254219" lon="11.862592306967118"><ele>3.6</ele><time>2026-04-18T08:42:55.963Z</time></trkpt><trkpt lat="42.03486178963233" lon="11.862715150118936"><ele>4.0</ele><time>2026-04-18T08:42:56.963Z</time></trkpt><trkpt lat="42.034887211307804" lon="11.862817064725157"><ele>5.333333333333333</ele><time>2026-04-18T08:42:57.963Z</time></trkpt><trkpt lat="42.03489308793476" lon="11.862912229699276"><ele>6.666666666666666</ele><time>2026-04-18T08:42:58.963Z</time></trkpt><trkpt lat="42.034907609565465" lon="11.862995408919282"><ele>8.0</ele><time>2026-04-18T08:42:59.963Z</time></trkpt><trkpt lat="42.03492515059259" lon="11.863083583450614"><ele>9.333333333333334</ele><time>2026-04-18T08:43:00.963Z</time></trkpt><trkpt lat="42.034953066819995" lon="11.86321851912194"><ele>10.666666666666666</ele><time>2026-04-18T08:43:02.963Z</time></trkpt><trkpt lat="42.03496554345781" lon="11.86331511599114"><ele>12.0</ele><time>2026-04-18T08:43:04.963Z</time></trkpt><trkpt lat="42.034988525549174" lon="11.863447769264905"><ele>13.8</ele><time>2026-04-18T08:43:18.963Z</time></trkpt><trkpt lat="42.03500324487444" lon="11.863540952396836"><ele>15.6</ele><time>2026-04-18T08:43:19.963Z</time></trkpt><trkpt lat="42.03503110123301" lon="11.863655443026314"><ele>17.400000000000002</ele><time>2026-04-18T08:43:20.963Z</time></trkpt><trkpt lat="42.03506104931935" lon="11.863770681284342"><ele>19.2</ele><time>2026-04-18T08:43:21.963Z</time></trkpt><trkpt lat="42.03507461109365" lon="11.863910066862607"><ele>21.0</ele><time>2026-04-18T08:43:22.963Z</time></trkpt><trkpt lat="42.03510265843268" lon="11.864066793233453"><ele>21.0</ele><time>2026-04-18T08:43:23.963Z</time></trkpt><trkpt lat="42.03512995772078" lon="11.864219339551159"><ele>21.0</ele><time>2026-04-18T08:43:24.963Z</time></trkpt><trkpt lat="42.03516872883351" lon="11.86434794927669"><ele>21.0</ele><time>2026-04-18T08:43:25.963Z</time></trkpt><trkpt lat="42.035173933107494" lon="11.86448834205498"><ele>21.0</ele><time>2026-04-18T08:43:26.963Z</time></trkpt><trkpt lat="42.03519739674209" lon="11.864608850942702"><ele>21.0</ele><time>2026-04-18T08:43:27.963Z</time></trkpt><trkpt lat="42.03522698158514" lon="11.864724475770057"><ele>20.8</ele><time>2026-04-18T08:43:28.963Z</time></trkpt><trkpt lat="42.03525537432968" lon="11.8648557203386"><ele>20.6</ele><time>2026-04-18T08:43:29.963Z</time></trkpt><trkpt lat="42.03527741634971" lon="11.864979664724043"><ele>20.4</ele><time>2026-04-18T08:43:30.963Z</time></trkpt><trkpt lat="42.03530081524113" lon="11.865106039827777"><ele>20.2</ele><time>2026-04-18T08:43:31.963Z</time></trkpt><trkpt lat="42.035313955414345" lon="11.86522931577412"><ele>20.0</ele><time>2026-04-18T08:43:32.963Z</time></trkpt><trkpt lat="42.03533958117508" lon="11.865347673526207"><ele>19.833333333333336</ele><time>2026-04-18T08:43:33.963Z</time></trkpt><trkpt lat="42.03536213269702" lon="11.86545407222437"><ele>19.666666666666668</ele><time>2026-04-18T08:43:34.963Z</time></trkpt><trkpt lat="42.035383844566276" lon="11.865557421757192"><ele>19.5</ele><time>2026-04-18T08:43:35.963Z</time></trkpt><trkpt lat="42.03540534389688" lon="11.8656597594327"><ele>19.333333333333332</ele><time>2026-04-18T08:43:36.963Z</time></trkpt><trkpt lat="42.035441770942704" lon="11.865756905500962"><ele>19.166666666666664</ele><time>2026-04-18T08:43:37.963Z</time></trkpt><trkpt lat="42.03544844880181" lon="11.865864059580582"><ele>19.0</ele><time>2026-04-18T08:43:38.963Z</time></trkpt><trkpt lat="42.03547430884929" lon="11.865981739843743"><ele>19.0</ele><time>2026-04-18T08:43:39.963Z</time></trkpt><trkpt lat="42.03549642739701" lon="11.86608033153609"><ele>19.0</ele><time>2026-04-18T08:43:40.963Z</time></trkpt><trkpt lat="42.03551853721437" lon="11.866178884103148"><ele>19.0</ele><time>2026-04-18T08:43:41.963Z</time></trkpt><trkpt lat="42.03553799288337" lon="11.866265383578268"><ele>19.0</ele><time>2026-04-18T08:43:42.963Z</time></trkpt><trkpt lat="42.03557319164925" lon="11.866421042835539"><ele>19.0</ele><time>2026-04-18T08:43:44.963Z</time></trkpt><trkpt lat="42.03560592688416" lon="11.86656432567113"><ele>19.0</ele><time>2026-04-18T08:43:46.963Z</time></trkpt><trkpt lat="42.03562893734409" lon="11.866662850551528"><ele>19.0</ele><time>2026-04-18T08:43:48.963Z</time></trkpt><trkpt lat="42.03565095317706" lon="11.866757116660288"><ele>19.0</ele><time>2026-04-18T08:43:51.963Z</time></trkpt><trkpt lat="42.03566995256447" lon="11.866838467083227"><ele>19.0</ele><time>2026-04-18T08:43:59.962Z</time></trkpt><trkpt lat="42.03569363374637" lon="11.86694025880415"><ele>19.0</ele><time>2026-04-18T08:44:02.962Z</time></trkpt><trkpt lat="42.03571505023638" lon="11.867032503483546"><ele>19.0</ele><time>2026-04-18T08:44:04.962Z</time></trkpt><trkpt lat="42.03573741180881" lon="11.867128818920623"><ele>19.0</ele><time>2026-04-18T08:44:06.962Z</time></trkpt><trkpt lat="42.03575719449738" lon="11.867229300868857"><ele>19.166666666666664</ele><time>2026-04-18T08:44:08.962Z</time></trkpt><trkpt lat="42.0357773703057" lon="11.867332093252138"><ele>19.333333333333332</ele><time>2026-04-18T08:44:10.962Z</time></trkpt><trkpt lat="42.035804327245195" lon="11.867427214156084"><ele>19.5</ele><time>2026-04-18T08:44:12.962Z</time></trkpt><trkpt lat="42.03583206518541" lon="11.867530734195578"><ele>19.666666666666668</ele><time>2026-04-18T08:44:15.962Z</time></trkpt><trkpt lat="42.035850793228974" lon="11.86761651496841"><ele>19.833333333333336</ele><time>2026-04-18T08:44:17.962Z</time></trkpt><trkpt lat="42.035878898258495" lon="11.86772044568357"><ele>20.0</ele><time>2026-04-18T08:44:19.962Z</time></trkpt><trkpt lat="42.03590928393742" lon="11.867830743276242"><ele>20.0</ele><time>2026-04-18T08:44:21.962Z</time></trkpt><trkpt lat="42.03593556165964" lon="11.86794967605966"><ele>20.0</ele><time>2026-04-18T08:44:23.962Z</time></trkpt><trkpt lat="42.035942105812005" lon="11.868076154294329"><ele>20.0</ele><time>2026-04-18T08:44:25.962Z</time></trkpt><trkpt lat="42.03596328817181" lon="11.86821834358202"><ele>20.0</ele><time>2026-04-18T08:44:27.962Z</time></trkpt><trkpt lat="42.036001817144445" lon="11.868362995084766"><ele>20.0</ele><time>2026-04-18T08:44:29.962Z</time></trkpt><trkpt lat="42.03604944147011" lon="11.868498586206348"><ele>19.0</ele><time>2026-04-18T08:44:31.962Z</time></trkpt><trkpt lat="42.03610390337023" lon="11.868632424063922"><ele>18.0</ele><time>2026-04-18T08:44:33.962Z</time></trkpt><trkpt lat="42.036162701007335" lon="11.868776326877118"><ele>17.0</ele><time>2026-04-18T08:44:35.962Z</time></trkpt><trkpt lat="42.03620928122223" lon="11.868903459766784"><ele>16.0</ele><time>2026-04-18T08:44:37.962Z</time></trkpt><trkpt lat="42.03627032363778" lon="11.869060325863694"><ele>16.0</ele><time>2026-04-18T08:44:39.962Z</time></trkpt><trkpt lat="42.03631432265358" lon="11.869162997232634"><ele>16.0</ele><time>2026-04-18T08:44:40.962Z</time></trkpt><trkpt lat="42.03635783647045" lon="11.869276685540415"><ele>16.0</ele><time>2026-04-18T08:44:41.962Z</time></trkpt><trkpt lat="42.036405423144366" lon="11.869392155640613"><ele>16.0</ele><time>2026-04-18T08:44:42.962Z</time></trkpt><trkpt lat="42.03646188623052" lon="11.869496848876233"><ele>16.0</ele><time>2026-04-18T08:44:43.962Z</time></trkpt><trkpt lat="42.03651704750904" lon="11.869615054285392"><ele>14.75</ele><time>2026-04-18T08:44:44.962Z</time></trkpt><trkpt lat="42.03658021208656" lon="11.869747913143728"><ele>13.5</ele><time>2026-04-18T08:44:45.962Z</time></trkpt><trkpt lat="42.03664567965363" lon="11.86987991634403"><ele>12.25</ele><time>2026-04-18T08:44:46.962Z</time></trkpt><trkpt lat="42.03671181486075" lon="11.870004783265355"><ele>11.0</ele><time>2026-04-18T08:44:47.962Z</time></trkpt><trkpt lat="42.03677688370508" lon="11.87012891341178"><ele>10.0</ele><time>2026-04-18T08:44:48.962Z</time></trkpt><trkpt lat="42.03683790695177" lon="11.870248543258382"><ele>9.0</ele><time>2026-04-18T08:44:49.962Z</time></trkpt><trkpt lat="42.03689472057222" lon="11.870373033579904"><ele>8.0</ele><time>2026-04-18T08:44:50.962Z</time></trkpt><trkpt lat="42.036952543766354" lon="11.870494333497833"><ele>7.0</ele><time>2026-04-18T08:44:51.962Z</time></trkpt><trkpt lat="42.0370066042808" lon="11.870617004139973"><ele>6.0</ele><time>2026-04-18T08:44:52.962Z</time></trkpt><trkpt lat="42.03705527976918" lon="11.870752510821685"><ele>6.0</ele><time>2026-04-18T08:44:53.962Z</time></trkpt><trkpt lat="42.037095515147456" lon="11.870895500874294"><ele>6.0</ele><time>2026-04-18T08:44:54.962Z</time></trkpt><trkpt lat="42.03712613618345" lon="11.871052973282495"><ele>6.0</ele><time>2026-04-18T08:44:55.962Z</time></trkpt><trkpt lat="42.03716362870714" lon="11.871211130311607"><ele>6.0</ele><time>2026-04-18T08:44:56.962Z</time></trkpt><trkpt lat="42.0371990645182" lon="11.871370130524388"><ele>5.25</ele><time>2026-04-18T08:44:57.962Z</time></trkpt><trkpt lat="42.03723592349986" lon="11.871536788518481"><ele>4.5</ele><time>2026-04-18T08:44:58.962Z</time></trkpt><trkpt lat="42.03724712702435" lon="11.871714803451813"><ele>3.75</ele><time>2026-04-18T08:44:59.962Z</time></trkpt><trkpt lat="42.03727958474242" lon="11.871868800112074"><ele>3.0</ele><time>2026-04-18T08:45:00.962Z</time></trkpt><trkpt lat="42.037307819137574" lon="11.872018002301466"><ele>2.6</ele><time>2026-04-18T08:45:01.962Z</time></trkpt><trkpt lat="42.037337355349194" lon="11.872155998785985"><ele>2.1999999999999997</ele><time>2026-04-18T08:45:02.962Z</time></trkpt><trkpt lat="42.03736287363558" lon="11.872300689885899"><ele>1.8</ele><time>2026-04-18T08:45:03.962Z</time></trkpt><trkpt lat="42.03738997717684" lon="11.872445092200078"><ele>1.4</ele><time>2026-04-18T08:45:04.962Z</time></trkpt><trkpt lat="42.037413995452134" lon="11.87258097766985"><ele>1.0</ele><time>2026-04-18T08:45:05.962Z</time></trkpt><trkpt lat="42.037437117329446" lon="11.87270988950525"><ele>0.8</ele><time>2026-04-18T08:45:06.962Z</time></trkpt><trkpt lat="42.037462508992675" lon="11.872842983129562"><ele>0.6000000000000001</ele><time>2026-04-18T08:45:07.962Z</time></trkpt><trkpt lat="42.0374875028224" lon="11.872982358713701"><ele>0.4</ele><time>2026-04-18T08:45:08.962Z</time></trkpt><trkpt lat="42.037511551085984" lon="11.873124321512288"><ele>0.2</ele><time>2026-04-18T08:45:09.962Z</time></trkpt><trkpt lat="42.03753758890941" lon="11.873269355381273"><ele>0.0</ele><time>2026-04-18T08:45:10.962Z</time></trkpt><trkpt lat="42.0375648777462" lon="11.873416890425347"><ele>0.75</ele><time>2026-04-18T08:45:11.962Z</time></trkpt><trkpt lat="42.03759299811531" lon="11.873567263133157"><ele>1.5</ele><time>2026-04-18T08:45:12.962Z</time></trkpt><trkpt lat="42.037620653431034" lon="11.873721910753739"><ele>2.25</ele><time>2026-04-18T08:45:13.962Z</time></trkpt><trkpt lat="42.037648450220715" lon="11.873870394424042"><ele>3.0</ele><time>2026-04-18T08:45:14.962Z</time></trkpt><trkpt lat="42.03767485019652" lon="11.874010321172571"><ele>3.0</ele><time>2026-04-18T08:45:15.962Z</time></trkpt><trkpt lat="42.03769503482563" lon="11.874138465027574"><ele>3.0</ele><time>2026-04-18T08:45:16.962Z</time></trkpt><trkpt lat="42.03771786124014" lon="11.87427178422559"><ele>3.0</ele><time>2026-04-18T08:45:17.962Z</time></trkpt><trkpt lat="42.03774621494428" lon="11.874410478996529"><ele>3.0</ele><time>2026-04-18T08:45:18.962Z</time></trkpt><trkpt lat="42.0377733575376" lon="11.874544778561036"><ele>3.0</ele><time>2026-04-18T08:45:19.962Z</time></trkpt><trkpt lat="42.03780133531883" lon="11.874682538300474"><ele>3.0</ele><time>2026-04-18T08:45:20.962Z</time></trkpt><trkpt lat="42.03783116208768" lon="11.874821972836989"><ele>3.0</ele><time>2026-04-18T08:45:21.962Z</time></trkpt><trkpt lat="42.03786418404261" lon="11.874974120074052"><ele>3.0</ele><time>2026-04-18T08:45:22.962Z</time></trkpt><trkpt lat="42.037897302893406" lon="11.875131082694327"><ele>3.0</ele><time>2026-04-18T08:45:23.962Z</time></trkpt><trkpt lat="42.037930150836054" lon="11.875294417959772"><ele>2.75</ele><time>2026-04-18T08:45:24.962Z</time></trkpt><trkpt lat="42.03796039571774" lon="11.875465084843702"><ele>2.5</ele><time>2026-04-18T08:45:25.962Z</time></trkpt><trkpt lat="42.03798953725371" lon="11.875641517946734"><ele>2.25</ele><time>2026-04-18T08:45:26.962Z</time></trkpt><trkpt lat="42.038023781295905" lon="11.875821699286304"><ele>2.0</ele><time>2026-04-18T08:45:27.962Z</time></trkpt><trkpt lat="42.038057127480606" lon="11.876013231988921"><ele>1.6666666666666665</ele><time>2026-04-18T08:45:28.962Z</time></trkpt><trkpt lat="42.03809125113097" lon="11.876211129655614"><ele>1.3333333333333333</ele><time>2026-04-18T08:45:29.962Z</time></trkpt><trkpt lat="42.038126374851785" lon="11.87640748914451"><ele>1.0</ele><time>2026-04-18T08:45:30.962Z</time></trkpt><trkpt lat="42.03816532323161" lon="11.876600678263197"><ele>1.25</ele><time>2026-04-18T08:45:31.962Z</time></trkpt><trkpt lat="42.03817633078333" lon="11.876809324426551"><ele>1.5</ele><time>2026-04-18T08:45:32.962Z</time></trkpt><trkpt lat="42.0382202249617" lon="11.87700116543996"><ele>1.75</ele><time>2026-04-18T08:45:33.962Z</time></trkpt><trkpt lat="42.03825207924843" lon="11.877176498318917"><ele>2.0</ele><time>2026-04-18T08:45:34.962Z</time></trkpt><trkpt lat="42.03828305386235" lon="11.877342348891066"><ele>3.0</ele><time>2026-04-18T08:45:35.962Z</time></trkpt><trkpt lat="42.03831694727325" lon="11.87749467152211"><ele>4.0</ele><time>2026-04-18T08:45:36.962Z</time></trkpt><trkpt lat="42.0383517679114" lon="11.877636311616774"><ele>5.0</ele><time>2026-04-18T08:45:37.962Z</time></trkpt><trkpt lat="42.0383884990464" lon="11.87779442963528"><ele>6.0</ele><time>2026-04-18T08:45:38.962Z</time></trkpt><trkpt lat="42.038422880974224" lon="11.877958657596237"><ele>6.0</ele><time>2026-04-18T08:45:39.962Z</time></trkpt><trkpt lat="42.03845671939238" lon="11.87813942428732"><ele>6.0</ele><time>2026-04-18T08:45:40.962Z</time></trkpt><trkpt lat="42.03848369302307" lon="11.87832431432223"><ele>6.0</ele><time>2026-04-18T08:45:41.962Z</time></trkpt><trkpt lat="42.03851299007046" lon="11.878526522554141"><ele>6.0</ele><time>2026-04-18T08:45:42.962Z</time></trkpt><trkpt lat="42.03853247743141" lon="11.878724165146961"><ele>5.75</ele><time>2026-04-18T08:45:43.961Z</time></trkpt><trkpt lat="42.03855491130955" lon="11.878919092110943"><ele>5.5</ele><time>2026-04-18T08:45:44.961Z</time></trkpt><trkpt lat="42.03857580640772" lon="11.879112224504421"><ele>5.25</ele><time>2026-04-18T08:45:45.961Z</time></trkpt><trkpt lat="42.038592582475964" lon="11.879308919898843"><ele>5.0</ele><time>2026-04-18T08:45:46.961Z</time></trkpt><trkpt lat="42.03861319735419" lon="11.879498938220184"><ele>5.0</ele><time>2026-04-18T08:45:47.961Z</time></trkpt><trkpt lat="42.038630525542914" lon="11.87968498999262"><ele>5.0</ele><time>2026-04-18T08:45:48.961Z</time></trkpt><trkpt lat="42.03864939845693" lon="11.879866500221835"><ele>5.0</ele><time>2026-04-18T08:45:49.961Z</time></trkpt><trkpt lat="42.038668503650385" lon="11.880047077179068"><ele>5.0</ele><time>2026-04-18T08:45:50.961Z</time></trkpt><trkpt lat="42.03868897509801" lon="11.880218114033555"><ele>4.5</ele><time>2026-04-18T08:45:51.961Z</time></trkpt><trkpt lat="42.038706454354305" lon="11.88038319443274"><ele>4.0</ele><time>2026-04-18T08:45:52.961Z</time></trkpt><trkpt lat="42.03872243780304" lon="11.8805340683534"><ele>3.5</ele><time>2026-04-18T08:45:53.961Z</time></trkpt><trkpt lat="42.03875429794268" lon="11.880683572648211"><ele>3.0</ele><time>2026-04-18T08:45:54.961Z</time></trkpt><trkpt lat="42.03880692696342" lon="11.880835723289701"><ele>3.0</ele><time>2026-04-18T08:45:55.961Z</time></trkpt><trkpt lat="42.03886937256755" lon="11.880983007857719"><ele>3.0</ele><time>2026-04-18T08:45:56.961Z</time></trkpt><trkpt lat="42.038970096679996" lon="11.881106507613099"><ele>3.0</ele><time>2026-04-18T08:45:57.961Z</time></trkpt><trkpt lat="42.03909737995732" lon="11.881197107441142"><ele>3.0</ele><time>2026-04-18T08:45:58.961Z</time></trkpt><trkpt lat="42.03922786449677" lon="11.881272667577205"><ele>3.0</ele><time>2026-04-18T08:45:59.961Z</time></trkpt><trkpt lat="42.039353000240695" lon="11.881342653667943"><ele>3.0</ele><time>2026-04-18T08:46:00.961Z</time></trkpt><trkpt lat="42.039473047015925" lon="11.88141163214663"><ele>3.0</ele><time>2026-04-18T08:46:01.961Z</time></trkpt><trkpt lat="42.03958485208209" lon="11.881488973356944"><ele>3.0</ele><time>2026-04-18T08:46:02.961Z</time></trkpt><trkpt lat="42.03969527944735" lon="11.88156464616027"><ele>3.0</ele><time>2026-04-18T08:46:03.961Z</time></trkpt><trkpt lat="42.03980593735821" lon="11.881640221170924"><ele>3.0</ele><time>2026-04-18T08:46:04.96Z</time></trkpt><trkpt lat="42.039909483484934" lon="11.88170892398334"><ele>3.0</ele><time>2026-04-18T08:46:05.959Z</time></trkpt><trkpt lat="42.04001107389591" lon="11.881783553569731"><ele>3.0</ele><time>2026-04-18T08:46:06.959Z</time></trkpt><trkpt lat="42.04011559673055" lon="11.881866751907095"><ele>3.5</ele><time>2026-04-18T08:46:07.96Z</time></trkpt><trkpt lat="42.04021328596115" lon="11.881961806264185"><ele>4.0</ele><time>2026-04-18T08:46:08.96Z</time></trkpt><trkpt lat="42.04029617073499" lon="11.882078221212712"><ele>4.5</ele><time>2026-04-18T08:46:09.96Z</time></trkpt><trkpt lat="42.04036390556536" lon="11.882219916673797"><ele>5.0</ele><time>2026-04-18T08:46:10.96Z</time></trkpt><trkpt lat="42.04037854854424" lon="11.882362719613408"><ele>5.0</ele><time>2026-04-18T08:46:11.96Z</time></trkpt><trkpt lat="42.040406483704054" lon="11.882491017301733"><ele>5.0</ele><time>2026-04-18T08:46:12.96Z</time></trkpt><trkpt lat="42.04039577698595" lon="11.882622255860333"><ele>5.0</ele><time>2026-04-18T08:46:13.96Z</time></trkpt><trkpt lat="42.04040493109292" lon="11.882721688783656"><ele>5.0</ele><time>2026-04-18T08:46:14.959Z</time></trkpt><trkpt lat="42.04041431705321" lon="11.882808665845854"><ele>5.0</ele><time>2026-04-18T08:46:15.959Z</time></trkpt><trkpt lat="42.040422122883605" lon="11.882902655320656"><ele>5.0</ele><time>2026-04-18T08:46:16.96Z</time></trkpt><trkpt lat="42.04042948484589" lon="11.882995121950401"><ele>5.0</ele><time>2026-04-18T08:46:17.96Z</time></trkpt><trkpt lat="42.04043527250069" lon="11.883086480084687"><ele>5.0</ele><time>2026-04-18T08:46:18.96Z</time></trkpt><trkpt lat="42.04042671453172" lon="11.883195545369885"><ele>5.0</ele><time>2026-04-18T08:46:19.96Z</time></trkpt><trkpt lat="42.04041117526815" lon="11.883317743224996"><ele>5.0</ele><time>2026-04-18T08:46:20.96Z</time></trkpt><trkpt lat="42.04038583042816" lon="11.883447561116865"><ele>5.0</ele><time>2026-04-18T08:46:21.96Z</time></trkpt><trkpt lat="42.04035637454761" lon="11.883581200140771"><ele>5.0</ele><time>2026-04-18T08:46:22.96Z</time></trkpt><trkpt lat="42.040319186557554" lon="11.883721922794441"><ele>5.0</ele><time>2026-04-18T08:46:23.96Z</time></trkpt><trkpt lat="42.04026028057272" lon="11.88385880529158"><ele>5.0</ele><time>2026-04-18T08:46:24.96Z</time></trkpt><trkpt lat="42.04021586654803" lon="11.884016314266919"><ele>5.0</ele><time>2026-04-18T08:46:25.96Z</time></trkpt><trkpt lat="42.04017011594894" lon="11.884180912374084"><ele>5.0</ele><time>2026-04-18T08:46:26.96Z</time></trkpt><trkpt lat="42.040123804668816" lon="11.884351851438089"><ele>5.0</ele><time>2026-04-18T08:46:27.96Z</time></trkpt><trkpt lat="42.040076510228246" lon="11.884529237062443"><ele>5.0</ele><time>2026-04-18T08:46:28.96Z</time></trkpt><trkpt lat="42.04002999321925" lon="11.88470934483002"><ele>5.0</ele><time>2026-04-18T08:46:29.96Z</time></trkpt><trkpt lat="42.039982101207414" lon="11.88488571695822"><ele>5.0</ele><time>2026-04-18T08:46:30.96Z</time></trkpt><trkpt lat="42.03993290184819" lon="11.885058923358773"><ele>4.5</ele><time>2026-04-18T08:46:31.96Z</time></trkpt><trkpt lat="42.03988670655245" lon="11.885228710881279"><ele>4.0</ele><time>2026-04-18T08:46:32.96Z</time></trkpt><trkpt lat="42.039830093534334" lon="11.885398571158717"><ele>3.5</ele><time>2026-04-18T08:46:33.96Z</time></trkpt><trkpt lat="42.039777598546834" lon="11.885576609312757"><ele>3.0</ele><time>2026-04-18T08:46:34.96Z</time></trkpt><trkpt lat="42.039729919892885" lon="11.88575279829521"><ele>2.5</ele><time>2026-04-18T08:46:35.96Z</time></trkpt><trkpt lat="42.0396826767667" lon="11.885929902246962"><ele>2.0</ele><time>2026-04-18T08:46:36.96Z</time></trkpt><trkpt lat="42.03963534543729" lon="11.886115492626125"><ele>1.5</ele><time>2026-04-18T08:46:37.96Z</time></trkpt><trkpt lat="42.03959049406892" lon="11.886304886537758"><ele>1.0</ele><time>2026-04-18T08:46:38.96Z</time></trkpt><trkpt lat="42.03954458168228" lon="11.886497104128182"><ele>1.0</ele><time>2026-04-18T08:46:39.96Z</time></trkpt><trkpt lat="42.03949885838444" lon="11.886682620447909"><ele>1.0</ele><time>2026-04-18T08:46:40.96Z</time></trkpt><trkpt lat="42.03946437474304" lon="11.886881161357602"><ele>1.0</ele><time>2026-04-18T08:46:41.96Z</time></trkpt><trkpt lat="42.03946271012114" lon="11.887077802475815"><ele>1.0</ele><time>2026-04-18T08:46:42.96Z</time></trkpt><trkpt lat="42.03949345583216" lon="11.887277880927675"><ele>1.0</ele><time>2026-04-18T08:46:43.96Z</time></trkpt><trkpt lat="42.03954591753246" lon="11.88747708824034"><ele>1.0</ele><time>2026-04-18T08:46:44.96Z</time></trkpt><trkpt lat="42.0395936497001" lon="11.887671532216837"><ele>1.0</ele><time>2026-04-18T08:46:45.96Z</time></trkpt><trkpt lat="42.03964529944" lon="11.887861397073022"><ele>1.0</ele><time>2026-04-18T08:46:46.96Z</time></trkpt><trkpt lat="42.039701181498366" lon="11.888052887529268"><ele>1.0</ele><time>2026-04-18T08:46:47.96Z</time></trkpt><trkpt lat="42.039754244067076" lon="11.888243463640613"><ele>1.0</ele><time>2026-04-18T08:46:48.96Z</time></trkpt><trkpt lat="42.0398071394455" lon="11.888436419294276"><ele>1.6666666666666665</ele><time>2026-04-18T08:46:49.96Z</time></trkpt><trkpt lat="42.03985401680653" lon="11.888635398050763"><ele>2.3333333333333335</ele><time>2026-04-18T08:46:50.96Z</time></trkpt><trkpt lat="42.03990540138147" lon="11.888834856853249"><ele>3.0</ele><time>2026-04-18T08:46:51.96Z</time></trkpt><trkpt lat="42.03995730901009" lon="11.889031726796306"><ele>3.666666666666667</ele><time>2026-04-18T08:46:52.96Z</time></trkpt><trkpt lat="42.040010381237416" lon="11.889232551292793"><ele>4.333333333333334</ele><time>2026-04-18T08:46:53.96Z</time></trkpt><trkpt lat="42.04006908010131" lon="11.8894279298745"><ele>5.0</ele><time>2026-04-18T08:46:54.96Z</time></trkpt><trkpt lat="42.04011698979984" lon="11.889626477375357"><ele>5.0</ele><time>2026-04-18T08:46:55.96Z</time></trkpt><trkpt lat="42.04016975376115" lon="11.889825438150618"><ele>5.0</ele><time>2026-04-18T08:46:56.96Z</time></trkpt><trkpt lat="42.04022587516226" lon="11.890025849784417"><ele>5.0</ele><time>2026-04-18T08:46:57.96Z</time></trkpt><trkpt lat="42.040271126097124" lon="11.890225875178462"><ele>5.0</ele><time>2026-04-18T08:46:58.96Z</time></trkpt><trkpt lat="42.040326092297335" lon="11.890431248427998"><ele>5.0</ele><time>2026-04-18T08:46:59.96Z</time></trkpt><trkpt lat="42.040376293542934" lon="11.89062963864215"><ele>5.0</ele><time>2026-04-18T08:47:00.96Z</time></trkpt><trkpt lat="42.04042667402914" lon="11.890825415912088"><ele>4.666666666666667</ele><time>2026-04-18T08:47:01.96Z</time></trkpt><trkpt lat="42.040426648104464" lon="11.891037167175563"><ele>4.333333333333333</ele><time>2026-04-18T08:47:02.96Z</time></trkpt><trkpt lat="42.04043173575718" lon="11.891260527613152"><ele>4.0</ele><time>2026-04-18T08:47:03.96Z</time></trkpt><trkpt lat="42.040432614334776" lon="11.891456992051506"><ele>4.0</ele><time>2026-04-18T08:47:04.96Z</time></trkpt><trkpt lat="42.04042030097206" lon="11.891630925577303"><ele>4.0</ele><time>2026-04-18T08:47:05.96Z</time></trkpt><trkpt lat="42.040425893097215" lon="11.891767225611916"><ele>4.0</ele><time>2026-04-18T08:47:06.96Z</time></trkpt><trkpt lat="42.04043204064889" lon="11.891889440358264"><ele>4.0</ele><time>2026-04-18T08:47:07.96Z</time></trkpt><trkpt lat="42.04043771513165" lon="11.891983161086698"><ele>4.0</ele><time>2026-04-18T08:47:08.96Z</time></trkpt><trkpt lat="42.0404268571093" lon="11.892124997767622"><ele>4.0</ele><time>2026-04-18T08:47:10.96Z</time></trkpt><trkpt lat="42.04062271735377" lon="11.892183603385911"><ele>4.0</ele><time>2026-04-18T08:47:12.958Z</time></trkpt><trkpt lat="42.040703693322264" lon="11.892202247230879"><ele>4.0</ele><time>2026-04-18T08:47:13.956Z</time></trkpt><trkpt lat="42.040783827263624" lon="11.89222240706698"><ele>4.0</ele><time>2026-04-18T08:47:14.955Z</time></trkpt><trkpt lat="42.040858597264446" lon="11.892245337240146"><ele>4.0</ele><time>2026-04-18T08:47:15.954Z</time></trkpt><trkpt lat="42.040925329883585" lon="11.892267678519751"><ele>4.142857142857142</ele><time>2026-04-18T08:47:16.953Z</time></trkpt><trkpt lat="42.04099500813431" lon="11.892292440151714"><ele>4.285714285714286</ele><time>2026-04-18T08:47:17.952Z</time></trkpt><trkpt lat="42.04105862129054" lon="11.892323962790805"><ele>4.428571428571429</ele><time>2026-04-18T08:47:18.951Z</time></trkpt><trkpt lat="42.0411155314355" lon="11.892384800229422"><ele>4.571428571428571</ele><time>2026-04-18T08:47:19.95Z</time></trkpt><trkpt lat="42.04115032416449" lon="11.892500137734114"><ele>4.714285714285714</ele><time>2026-04-18T08:47:20.949Z</time></trkpt><trkpt lat="42.04115736842468" lon="11.892607068920633"><ele>4.857142857142857</ele><time>2026-04-18T08:47:21.948Z</time></trkpt><trkpt lat="42.04116022883293" lon="11.892693309914073"><ele>5.0</ele><time>2026-04-18T08:47:22.948Z</time></trkpt><trkpt lat="42.04115501983694" lon="11.892850844334816"><ele>5.0</ele><time>2026-04-18T08:47:24.946Z</time></trkpt><trkpt lat="42.04113071300356" lon="11.892952123163063"><ele>5.0</ele><time>2026-04-18T08:47:26.945Z</time></trkpt><trkpt lat="42.041268281693405" lon="11.893039063095234"><ele>5.0</ele><time>2026-04-18T08:47:28.944Z</time></trkpt><trkpt lat="42.04133087938949" lon="11.89302003358925"><ele>5.0</ele><time>2026-04-18T08:47:29.944Z</time></trkpt><trkpt lat="42.04140087236506" lon="11.892965537156599"><ele>5.0</ele><time>2026-04-18T08:47:30.943Z</time></trkpt><trkpt lat="42.04147969293199" lon="11.892909208965586"><ele>5.0</ele><time>2026-04-18T08:47:31.943Z</time></trkpt><trkpt lat="42.04156592127779" lon="11.89285779531422"><ele>5.0</ele><time>2026-04-18T08:47:32.943Z</time></trkpt><trkpt lat="42.041659990116116" lon="11.89280047165902"><ele>5.0</ele><time>2026-04-18T08:47:33.942Z</time></trkpt><trkpt lat="42.041766088613635" lon="11.892765538228401"><ele>5.0</ele><time>2026-04-18T08:47:34.942Z</time></trkpt><trkpt lat="42.04186356281405" lon="11.89270196482216"><ele>5.0</ele><time>2026-04-18T08:47:35.942Z</time></trkpt><trkpt lat="42.04196529756609" lon="11.892640820654"><ele>5.75</ele><time>2026-04-18T08:47:36.941Z</time></trkpt><trkpt lat="42.042064465122756" lon="11.892584846581403"><ele>6.5</ele><time>2026-04-18T08:47:37.941Z</time></trkpt><trkpt lat="42.042169482773474" lon="11.892531095373192"><ele>7.25</ele><time>2026-04-18T08:47:38.941Z</time></trkpt><trkpt lat="42.04228233843968" lon="11.892467200955698"><ele>8.0</ele><time>2026-04-18T08:47:39.941Z</time></trkpt><trkpt lat="42.042384564988296" lon="11.892413609563702"><ele>8.600000000000001</ele><time>2026-04-18T08:47:40.94Z</time></trkpt><trkpt lat="42.04247843065415" lon="11.892363692712973"><ele>9.200000000000001</ele><time>2026-04-18T08:47:41.94Z</time></trkpt><trkpt lat="42.04256841107207" lon="11.892304399825397"><ele>9.8</ele><time>2026-04-18T08:47:42.94Z</time></trkpt><trkpt lat="42.04266932173892" lon="11.892250629576939"><ele>10.4</ele><time>2026-04-18T08:47:43.94Z</time></trkpt><trkpt lat="42.04278082092231" lon="11.892212598533776"><ele>11.0</ele><time>2026-04-18T08:47:44.939Z</time></trkpt><trkpt lat="42.04289669206762" lon="11.892169228222704"><ele>11.0</ele><time>2026-04-18T08:47:45.939Z</time></trkpt><trkpt lat="42.0430137260668" lon="11.892108975410205"><ele>11.0</ele><time>2026-04-18T08:47:46.939Z</time></trkpt><trkpt lat="42.043133761666866" lon="11.892036455216374"><ele>11.0</ele><time>2026-04-18T08:47:47.939Z</time></trkpt><trkpt lat="42.04323827397765" lon="11.891966925950607"><ele>11.0</ele><time>2026-04-18T08:47:48.939Z</time></trkpt><trkpt lat="42.043338090134554" lon="11.891883809458218"><ele>11.75</ele><time>2026-04-18T08:47:49.939Z</time></trkpt><trkpt lat="42.04345481538712" lon="11.891802624665246"><ele>12.5</ele><time>2026-04-18T08:47:50.939Z</time></trkpt><trkpt lat="42.043575775158615" lon="11.891718727555963"><ele>13.25</ele><time>2026-04-18T08:47:51.939Z</time></trkpt><trkpt lat="42.04369772375085" lon="11.891620879496026"><ele>14.0</ele><time>2026-04-18T08:47:52.938Z</time></trkpt><trkpt lat="42.0438118795352" lon="11.891520133837618"><ele>14.0</ele><time>2026-04-18T08:47:53.938Z</time></trkpt><trkpt lat="42.043916943595335" lon="11.891417735152746"><ele>14.0</ele><time>2026-04-18T08:47:54.938Z</time></trkpt><trkpt lat="42.044022922625125" lon="11.891316809815535"><ele>14.0</ele><time>2026-04-18T08:47:55.938Z</time></trkpt><trkpt lat="42.04412514601658" lon="11.891219016316645"><ele>14.0</ele><time>2026-04-18T08:47:56.938Z</time></trkpt><trkpt lat="42.044225656606045" lon="11.891124679662882"><ele>14.0</ele><time>2026-04-18T08:47:57.938Z</time></trkpt><trkpt lat="42.04431028971005" lon="11.891013863480074"><ele>13.999999999999998</ele><time>2026-04-18T08:47:58.938Z</time></trkpt><trkpt lat="42.04438035492971" lon="11.890904923237946"><ele>13.999999999999998</ele><time>2026-04-18T08:47:59.938Z</time></trkpt><trkpt lat="42.0444590163133" lon="11.890816885344304"><ele>14.0</ele><time>2026-04-18T08:48:00.938Z</time></trkpt><trkpt lat="42.04454532340136" lon="11.890753891471597"><ele>14.0</ele><time>2026-04-18T08:48:01.938Z</time></trkpt><trkpt lat="42.044626795115256" lon="11.890693715808592"><ele>14.000000000000002</ele><time>2026-04-18T08:48:02.938Z</time></trkpt><trkpt lat="42.044701585897464" lon="11.890650122048672"><ele>14.0</ele><time>2026-04-18T08:48:03.938Z</time></trkpt><trkpt lat="42.04477900158827" lon="11.890639844458283"><ele>14.0</ele><time>2026-04-18T08:48:04.937Z</time></trkpt><trkpt lat="42.04486285631405" lon="11.890670101184934"><ele>14.0</ele><time>2026-04-18T08:48:05.937Z</time></trkpt><trkpt lat="42.044945575734765" lon="11.890663980826252"><ele>14.000000000000002</ele><time>2026-04-18T08:48:06.937Z</time></trkpt><trkpt lat="42.04504683208913" lon="11.890644548686158"><ele>14.0</ele><time>2026-04-18T08:48:07.937Z</time></trkpt><trkpt lat="42.045162710500946" lon="11.890583266412754"><ele>14.75</ele><time>2026-04-18T08:48:08.937Z</time></trkpt><trkpt lat="42.045299544561026" lon="11.890512070691956"><ele>15.5</ele><time>2026-04-18T08:48:09.935Z</time></trkpt><trkpt lat="42.045417267067265" lon="11.890439191407298"><ele>16.25</ele><time>2026-04-18T08:48:10.936Z</time></trkpt><trkpt lat="42.04555510924404" lon="11.890382454175512"><ele>17.0</ele><time>2026-04-18T08:48:11.936Z</time></trkpt><trkpt lat="42.04570548597646" lon="11.890362186975432"><ele>18.0</ele><time>2026-04-18T08:48:12.935Z</time></trkpt><trkpt lat="42.04585838810923" lon="11.890317167329444"><ele>19.0</ele><time>2026-04-18T08:48:13.936Z</time></trkpt><trkpt lat="42.04600772099241" lon="11.890273197142795"><ele>20.0</ele><time>2026-04-18T08:48:14.936Z</time></trkpt><trkpt lat="42.04615812622426" lon="11.890225859213496"><ele>20.0</ele><time>2026-04-18T08:48:15.935Z</time></trkpt><trkpt lat="42.04630663903398" lon="11.890178677467254"><ele>20.0</ele><time>2026-04-18T08:48:16.935Z</time></trkpt><trkpt lat="42.04644494967191" lon="11.890134574389348"><ele>20.0</ele><time>2026-04-18T08:48:17.935Z</time></trkpt><trkpt lat="42.04657915336535" lon="11.890092823848377"><ele>20.0</ele><time>2026-04-18T08:48:18.936Z</time></trkpt><trkpt lat="42.046712554930814" lon="11.890051923576873"><ele>19.75</ele><time>2026-04-18T08:48:19.935Z</time></trkpt><trkpt lat="42.04684880330287" lon="11.890010719999871"><ele>19.5</ele><time>2026-04-18T08:48:20.935Z</time></trkpt><trkpt lat="42.04697210277833" lon="11.889971263109448"><ele>19.25</ele><time>2026-04-18T08:48:21.935Z</time></trkpt><trkpt lat="42.0470950718326" lon="11.889937545779373"><ele>19.0</ele><time>2026-04-18T08:48:22.935Z</time></trkpt><trkpt lat="42.047222129873056" lon="11.889900982543125"><ele>19.0</ele><time>2026-04-18T08:48:23.935Z</time></trkpt><trkpt lat="42.047349306997354" lon="11.889863761335853"><ele>19.0</ele><time>2026-04-18T08:48:24.935Z</time></trkpt><trkpt lat="42.04747711136858" lon="11.889821653834009"><ele>19.0</ele><time>2026-04-18T08:48:25.935Z</time></trkpt><trkpt lat="42.04761344515519" lon="11.889791466847422"><ele>19.0</ele><time>2026-04-18T08:48:26.935Z</time></trkpt><trkpt lat="42.04774693357279" lon="11.889747849845943"><ele>19.25</ele><time>2026-04-18T08:48:27.935Z</time></trkpt><trkpt lat="42.04788660249471" lon="11.889713283576139"><ele>19.5</ele><time>2026-04-18T08:48:28.935Z</time></trkpt><trkpt lat="42.04802331468465" lon="11.889678651320992"><ele>19.75</ele><time>2026-04-18T08:48:29.935Z</time></trkpt><trkpt lat="42.04813432414079" lon="11.889670317622318"><ele>20.0</ele><time>2026-04-18T08:48:30.935Z</time></trkpt><trkpt lat="42.048240663012876" lon="11.889656561072563"><ele>20.25</ele><time>2026-04-18T08:48:31.935Z</time></trkpt><trkpt lat="42.0483526799535" lon="11.889651214384498"><ele>20.5</ele><time>2026-04-18T08:48:32.935Z</time></trkpt><trkpt lat="42.04846930473122" lon="11.889649392117967"><ele>20.75</ele><time>2026-04-18T08:48:33.935Z</time></trkpt><trkpt lat="42.04859468089478" lon="11.889642673107085"><ele>21.0</ele><time>2026-04-18T08:48:34.935Z</time></trkpt><trkpt lat="42.04874035057116" lon="11.88963799231411"><ele>21.0</ele><time>2026-04-18T08:48:35.935Z</time></trkpt><trkpt lat="42.04888884000053" lon="11.889616862126427"><ele>21.0</ele><time>2026-04-18T08:48:36.935Z</time></trkpt><trkpt lat="42.04904208286248" lon="11.88961796197998"><ele>21.0</ele><time>2026-04-18T08:48:37.935Z</time></trkpt><trkpt lat="42.0491915230327" lon="11.88959753038788"><ele>22.5</ele><time>2026-04-18T08:48:38.935Z</time></trkpt><trkpt lat="42.0493410344675" lon="11.889577589332433"><ele>24.0</ele><time>2026-04-18T08:48:39.935Z</time></trkpt><trkpt lat="42.049488233496916" lon="11.889563539164245"><ele>25.5</ele><time>2026-04-18T08:48:40.935Z</time></trkpt><trkpt lat="42.0496314374892" lon="11.889555918619902"><ele>27.0</ele><time>2026-04-18T08:48:41.935Z</time></trkpt><trkpt lat="42.04977703781258" lon="11.889542953470936"><ele>27.0</ele><time>2026-04-18T08:48:42.935Z</time></trkpt><trkpt lat="42.04992768432149" lon="11.889518534054915"><ele>27.0</ele><time>2026-04-18T08:48:43.935Z</time></trkpt><trkpt lat="42.05008050427972" lon="11.889486757283509"><ele>27.0</ele><time>2026-04-18T08:48:44.935Z</time></trkpt><trkpt lat="42.05023188649473" lon="11.889450042061068"><ele>28.5</ele><time>2026-04-18T08:48:45.935Z</time></trkpt><trkpt lat="42.05036989518573" lon="11.889417172014037"><ele>30.0</ele><time>2026-04-18T08:48:46.935Z</time></trkpt><trkpt lat="42.050496939456444" lon="11.889382580062385"><ele>31.5</ele><time>2026-04-18T08:48:47.934Z</time></trkpt><trkpt lat="42.050629479146295" lon="11.88934897215603"><ele>33.0</ele><time>2026-04-18T08:48:48.934Z</time></trkpt><trkpt lat="42.0507660453107" lon="11.889309240018509"><ele>33.5</ele><time>2026-04-18T08:48:49.934Z</time></trkpt><trkpt lat="42.050903166390384" lon="11.889274069754787"><ele>34.0</ele><time>2026-04-18T08:48:50.934Z</time></trkpt><trkpt lat="42.05103956625618" lon="11.889255770971754"><ele>34.5</ele><time>2026-04-18T08:48:51.934Z</time></trkpt><trkpt lat="42.05116952665075" lon="11.889255528384744"><ele>35.0</ele><time>2026-04-18T08:48:52.934Z</time></trkpt><trkpt lat="42.05129393233199" lon="11.889270848357837"><ele>35.0</ele><time>2026-04-18T08:48:53.934Z</time></trkpt><trkpt lat="42.05142337703069" lon="11.889282343825645"><ele>35.0</ele><time>2026-04-18T08:48:54.934Z</time></trkpt><trkpt lat="42.05154557432795" lon="11.889291539925814"><ele>35.0</ele><time>2026-04-18T08:48:55.934Z</time></trkpt><trkpt lat="42.05166122388629" lon="11.889299303028755"><ele>35.0</ele><time>2026-04-18T08:48:56.934Z</time></trkpt><trkpt lat="42.051785936929505" lon="11.88931039824523"><ele>35.0</ele><time>2026-04-18T08:48:57.934Z</time></trkpt><trkpt lat="42.051919598746004" lon="11.889321475894112"><ele>35.0</ele><time>2026-04-18T08:48:58.934Z</time></trkpt><trkpt lat="42.052060893647074" lon="11.889326819805195"><ele>35.0</ele><time>2026-04-18T08:48:59.934Z</time></trkpt><trkpt lat="42.0522082352102" lon="11.889300511537588"><ele>35.0</ele><time>2026-04-18T08:49:00.934Z</time></trkpt><trkpt lat="42.052354489643335" lon="11.889252682781459"><ele>37.5</ele><time>2026-04-18T08:49:01.934Z</time></trkpt><trkpt lat="42.05249085927797" lon="11.889190073566176"><ele>40.0</ele><time>2026-04-18T08:49:02.934Z</time></trkpt><trkpt lat="42.05262116505866" lon="11.889129704174604"><ele>42.5</ele><time>2026-04-18T08:49:03.934Z</time></trkpt><trkpt lat="42.05274188986075" lon="11.88906927236775"><ele>45.0</ele><time>2026-04-18T08:49:04.934Z</time></trkpt><trkpt lat="42.05286276081416" lon="11.889018277146054"><ele>45.0</ele><time>2026-04-18T08:49:05.934Z</time></trkpt><trkpt lat="42.05297322849309" lon="11.888966837866597"><ele>45.0</ele><time>2026-04-18T08:49:06.934Z</time></trkpt><trkpt lat="42.05308580396762" lon="11.888924326427"><ele>45.0</ele><time>2026-04-18T08:49:07.934Z</time></trkpt><trkpt lat="42.05319701762822" lon="11.888871804906497"><ele>45.0</ele><time>2026-04-18T08:49:08.934Z</time></trkpt><trkpt lat="42.0532851944064" lon="11.888826335170418"><ele>45.0</ele><time>2026-04-18T08:49:09.934Z</time></trkpt><trkpt lat="42.053362840901784" lon="11.888796154661527"><ele>45.6</ele><time>2026-04-18T08:49:10.934Z</time></trkpt><trkpt lat="42.053443210055896" lon="11.888761597673353"><ele>46.2</ele><time>2026-04-18T08:49:11.934Z</time></trkpt><trkpt lat="42.0535317372899" lon="11.888747792386614"><ele>46.8</ele><time>2026-04-18T08:49:12.934Z</time></trkpt><trkpt lat="42.05362464360534" lon="11.888789855823346"><ele>47.4</ele><time>2026-04-18T08:49:13.934Z</time></trkpt><trkpt lat="42.05372345773383" lon="11.888809361974419"><ele>48.0</ele><time>2026-04-18T08:49:14.934Z</time></trkpt><trkpt lat="42.05383857673529" lon="11.888833332658903"><ele>48.0</ele><time>2026-04-18T08:49:15.934Z</time></trkpt><trkpt lat="42.053964421641766" lon="11.888869355783692"><ele>48.0</ele><time>2026-04-18T08:49:16.934Z</time></trkpt><trkpt lat="42.05409686429627" lon="11.88889227496304"><ele>48.0</ele><time>2026-04-18T08:49:17.934Z</time></trkpt><trkpt lat="42.05422194221165" lon="11.888911029261491"><ele>48.0</ele><time>2026-04-18T08:49:18.934Z</time></trkpt><trkpt lat="42.05435247251885" lon="11.888943040683918"><ele>51.0</ele><time>2026-04-18T08:49:19.934Z</time></trkpt><trkpt lat="42.054482061627745" lon="11.88896559926998"><ele>54.0</ele><time>2026-04-18T08:49:20.934Z</time></trkpt><trkpt lat="42.05459781975508" lon="11.888988716492763"><ele>57.0</ele><time>2026-04-18T08:49:21.934Z</time></trkpt><trkpt lat="42.05470505180706" lon="11.889011609800372"><ele>60.0</ele><time>2026-04-18T08:49:22.934Z</time></trkpt><trkpt lat="42.054811898315435" lon="11.889046741840088"><ele>60.0</ele><time>2026-04-18T08:49:23.934Z</time></trkpt><trkpt lat="42.05491792456702" lon="11.889098210651975"><ele>60.0</ele><time>2026-04-18T08:49:24.934Z</time></trkpt><trkpt lat="42.05502708863456" lon="11.889168931218475"><ele>60.0</ele><time>2026-04-18T08:49:25.934Z</time></trkpt><trkpt lat="42.05513415848735" lon="11.88925059117751"><ele>60.0</ele><time>2026-04-18T08:49:26.934Z</time></trkpt><trkpt lat="42.055220745777184" lon="11.88937040059682"><ele>63.5</ele><time>2026-04-18T08:49:27.934Z</time></trkpt><trkpt lat="42.055319075301256" lon="11.889470235203316"><ele>67.0</ele><time>2026-04-18T08:49:28.934Z</time></trkpt><trkpt lat="42.055389310696384" lon="11.88958343387378"><ele>70.5</ele><time>2026-04-18T08:49:29.934Z</time></trkpt><trkpt lat="42.05546916181046" lon="11.88966708877902"><ele>74.0</ele><time>2026-04-18T08:49:30.934Z</time></trkpt><trkpt lat="42.05557870639043" lon="11.889726701093759"><ele>74.0</ele><time>2026-04-18T08:49:31.934Z</time></trkpt><trkpt lat="42.05569734412264" lon="11.889771892930508"><ele>74.0</ele><time>2026-04-18T08:49:32.934Z</time></trkpt><trkpt lat="42.05583927850772" lon="11.889775539489577"><ele>74.0</ele><time>2026-04-18T08:49:33.934Z</time></trkpt><trkpt lat="42.0559819001148" lon="11.889786382696725"><ele>74.0</ele><time>2026-04-18T08:49:34.934Z</time></trkpt><trkpt lat="42.05611794965347" lon="11.889792647988578"><ele>74.5</ele><time>2026-04-18T08:49:35.934Z</time></trkpt><trkpt lat="42.05624630881958" lon="11.889821916591064"><ele>75.0</ele><time>2026-04-18T08:49:36.934Z</time></trkpt><trkpt lat="42.05636383032955" lon="11.889863354835226"><ele>75.5</ele><time>2026-04-18T08:49:37.934Z</time></trkpt><trkpt lat="42.05647318893163" lon="11.889920873452775"><ele>76.0</ele><time>2026-04-18T08:49:38.934Z</time></trkpt><trkpt lat="42.056563468612914" lon="11.89000587900248"><ele>78.75</ele><time>2026-04-18T08:49:39.934Z</time></trkpt><trkpt lat="42.056634908392056" lon="11.890117030725103"><ele>81.5</ele><time>2026-04-18T08:49:40.934Z</time></trkpt><trkpt lat="42.05672146585176" lon="11.890239445207694"><ele>84.25</ele><time>2026-04-18T08:49:41.934Z</time></trkpt><trkpt lat="42.05681164026578" lon="11.890354948029362"><ele>87.0</ele><time>2026-04-18T08:49:42.934Z</time></trkpt><trkpt lat="42.05689677835851" lon="11.890466187522083"><ele>87.0</ele><time>2026-04-18T08:49:43.934Z</time></trkpt><trkpt lat="42.056976494735615" lon="11.89056758132438"><ele>87.0</ele><time>2026-04-18T08:49:44.934Z</time></trkpt><trkpt lat="42.0570585041805" lon="11.890660405498851"><ele>87.0</ele><time>2026-04-18T08:49:45.934Z</time></trkpt><trkpt lat="42.057139844070605" lon="11.890751132054836"><ele>87.0</ele><time>2026-04-18T08:49:46.934Z</time></trkpt><trkpt lat="42.05721520368002" lon="11.890842756502826"><ele>87.0</ele><time>2026-04-18T08:49:47.934Z</time></trkpt><trkpt lat="42.05730262536025" lon="11.890912606713414"><ele>87.19999999999999</ele><time>2026-04-18T08:49:48.934Z</time></trkpt><trkpt lat="42.05740501619681" lon="11.890952553846697"><ele>87.4</ele><time>2026-04-18T08:49:49.934Z</time></trkpt><trkpt lat="42.057505825698186" lon="11.890961931920277"><ele>87.6</ele><time>2026-04-18T08:49:50.934Z</time></trkpt><trkpt lat="42.057614966238624" lon="11.890976868095853"><ele>87.80000000000001</ele><time>2026-04-18T08:49:51.934Z</time></trkpt><trkpt lat="42.057741215869825" lon="11.890986439058992"><ele>88.0</ele><time>2026-04-18T08:49:52.934Z</time></trkpt><trkpt lat="42.05786793587071" lon="11.891004003387666"><ele>88.0</ele><time>2026-04-18T08:49:53.934Z</time></trkpt><trkpt lat="42.05799656388421" lon="11.891025534034073"><ele>88.0</ele><time>2026-04-18T08:49:54.934Z</time></trkpt><trkpt lat="42.05811894001402" lon="11.891048025035177"><ele>88.0</ele><time>2026-04-18T08:49:55.934Z</time></trkpt><trkpt lat="42.05824357746309" lon="11.891070659846024"><ele>88.0</ele><time>2026-04-18T08:49:56.934Z</time></trkpt><trkpt lat="42.05836130806118" lon="11.891087556277407"><ele>90.75</ele><time>2026-04-18T08:49:57.934Z</time></trkpt><trkpt lat="42.058489176088095" lon="11.891098683727012"><ele>93.5</ele><time>2026-04-18T08:49:58.934Z</time></trkpt><trkpt lat="42.05861492015273" lon="11.891107779134712"><ele>96.25</ele><time>2026-04-18T08:49:59.934Z</time></trkpt><trkpt lat="42.0587432497888" lon="11.891100297130674"><ele>99.0</ele><time>2026-04-18T08:50:00.934Z</time></trkpt><trkpt lat="42.05886780834247" lon="11.891083165654267"><ele>99.0</ele><time>2026-04-18T08:50:01.934Z</time></trkpt><trkpt lat="42.058979237297265" lon="11.891048111986088"><ele>99.0</ele><time>2026-04-18T08:50:02.934Z</time></trkpt><trkpt lat="42.05906294356499" lon="11.891018483787244"><ele>99.0</ele><time>2026-04-18T08:50:03.934Z</time></trkpt><trkpt lat="42.059124406958624" lon="11.890977134981876"><ele>99.0</ele><time>2026-04-18T08:50:04.934Z</time></trkpt><trkpt lat="42.0591828154058" lon="11.890934712030516"><ele>99.0</ele><time>2026-04-18T08:50:05.934Z</time></trkpt><trkpt lat="42.059264805946036" lon="11.890909139306551"><ele>99.0</ele><time>2026-04-18T08:50:06.934Z</time></trkpt><trkpt lat="42.05932906782189" lon="11.89089521421693"><ele>100.5</ele><time>2026-04-18T08:50:07.934Z</time></trkpt><trkpt lat="42.05942542747528" lon="11.890896709740506"><ele>102.0</ele><time>2026-04-18T08:50:09.934Z</time></trkpt><trkpt lat="42.05948091848805" lon="11.890936926286631"><ele>103.5</ele><time>2026-04-18T08:50:10.934Z</time></trkpt><trkpt lat="42.05953143586836" lon="11.890999008941368"><ele>105.0</ele><time>2026-04-18T08:50:11.934Z</time></trkpt><trkpt lat="42.0595900671436" lon="11.89108564148109"><ele>106.5</ele><time>2026-04-18T08:50:12.934Z</time></trkpt><trkpt lat="42.05965143395274" lon="11.891182340370015"><ele>108.0</ele><time>2026-04-18T08:50:13.934Z</time></trkpt><trkpt lat="42.059708510505686" lon="11.891294230074784"><ele>108.4</ele><time>2026-04-18T08:50:14.934Z</time></trkpt><trkpt lat="42.05976368498778" lon="11.891403700582066"><ele>108.80000000000001</ele><time>2026-04-18T08:50:15.932Z</time></trkpt><trkpt lat="42.059815479576386" lon="11.891501277100373"><ele>109.2</ele><time>2026-04-18T08:50:16.932Z</time></trkpt><trkpt lat="42.059889544148085" lon="11.891584387866503"><ele>109.6</ele><time>2026-04-18T08:50:17.932Z</time></trkpt><trkpt lat="42.05997891911899" lon="11.891668584146874"><ele>110.0</ele><time>2026-04-18T08:50:18.932Z</time></trkpt><trkpt lat="42.06006481376357" lon="11.891759064859999"><ele>110.99999999999999</ele><time>2026-04-18T08:50:19.932Z</time></trkpt><trkpt lat="42.060135384076766" lon="11.891835417072663"><ele>112.0</ele><time>2026-04-18T08:50:20.932Z</time></trkpt><trkpt lat="42.06020618625546" lon="11.89191659532444"><ele>113.0</ele><time>2026-04-18T08:50:21.932Z</time></trkpt><trkpt lat="42.060277649666894" lon="11.891993200819353"><ele>114.0</ele><time>2026-04-18T08:50:22.932Z</time></trkpt><trkpt lat="42.06034429942634" lon="11.892061194373454"><ele>114.99999999999999</ele><time>2026-04-18T08:50:23.932Z</time></trkpt><trkpt lat="42.06041718158049" lon="11.892128350675874"><ele>116.0</ele><time>2026-04-18T08:50:24.932Z</time></trkpt><trkpt lat="42.06049242880352" lon="11.892184362675625"><ele>115.99999999999999</ele><time>2026-04-18T08:50:25.932Z</time></trkpt><trkpt lat="42.06056807710797" lon="11.892219898409904"><ele>116.0</ele><time>2026-04-18T08:50:26.932Z</time></trkpt><trkpt lat="42.06064280421689" lon="11.892239654859596"><ele>116.0</ele><time>2026-04-18T08:50:27.932Z</time></trkpt><trkpt lat="42.06071674176231" lon="11.89222054169471"><ele>116.0</ele><time>2026-04-18T08:50:28.932Z</time></trkpt><trkpt lat="42.06080379893449" lon="11.892175555426167"><ele>115.99999999999999</ele><time>2026-04-18T08:50:29.932Z</time></trkpt><trkpt lat="42.06090555995926" lon="11.892140603277374"><ele>116.0</ele><time>2026-04-18T08:50:30.932Z</time></trkpt><trkpt lat="42.06100476852419" lon="11.892122675155562"><ele>118.19999999999999</ele><time>2026-04-18T08:50:31.932Z</time></trkpt><trkpt lat="42.06111036247814" lon="11.892114624744599"><ele>120.39999999999999</ele><time>2026-04-18T08:50:32.932Z</time></trkpt><trkpt lat="42.061208176766435" lon="11.892114856196871"><ele>122.6</ele><time>2026-04-18T08:50:33.932Z</time></trkpt><trkpt lat="42.06129405615052" lon="11.892146131523686"><ele>124.8</ele><time>2026-04-18T08:50:34.932Z</time></trkpt><trkpt lat="42.06138532519802" lon="11.892143375903348"><ele>127.0</ele><time>2026-04-18T08:50:35.932Z</time></trkpt><trkpt lat="42.06147922685746" lon="11.89218926223311"><ele>127.0</ele><time>2026-04-18T08:50:36.932Z</time></trkpt><trkpt lat="42.06157500205535" lon="11.892202545822373"><ele>126.99999999999999</ele><time>2026-04-18T08:50:37.932Z</time></trkpt><trkpt lat="42.06166960300121" lon="11.892205786118621"><ele>126.99999999999999</ele><time>2026-04-18T08:50:38.932Z</time></trkpt><trkpt lat="42.061760563311466" lon="11.892202482920498"><ele>127.0</ele><time>2026-04-18T08:50:39.932Z</time></trkpt><trkpt lat="42.061849749690026" lon="11.892202238421103"><ele>127.0</ele><time>2026-04-18T08:50:40.932Z</time></trkpt><trkpt lat="42.06193633291708" lon="11.892206797554241"><ele>128.16666666666669</ele><time>2026-04-18T08:50:41.932Z</time></trkpt><trkpt lat="42.06203288782765" lon="11.892218001552896"><ele>129.33333333333334</ele><time>2026-04-18T08:50:42.932Z</time></trkpt><trkpt lat="42.06212358605257" lon="11.892223080762815"><ele>130.5</ele><time>2026-04-18T08:50:43.932Z</time></trkpt><trkpt lat="42.06220486819958" lon="11.892222164596328"><ele>131.66666666666666</ele><time>2026-04-18T08:50:44.932Z</time></trkpt><trkpt lat="42.06228906118111" lon="11.892220033798603"><ele>132.83333333333331</ele><time>2026-04-18T08:50:45.932Z</time></trkpt><trkpt lat="42.06237583546073" lon="11.892226492043509"><ele>134.0</ele><time>2026-04-18T08:50:46.932Z</time></trkpt><trkpt lat="42.062474389874644" lon="11.89223302611587"><ele>136.0</ele><time>2026-04-18T08:50:47.932Z</time></trkpt><trkpt lat="42.062575230726445" lon="11.892248817251517"><ele>138.0</ele><time>2026-04-18T08:50:48.932Z</time></trkpt><trkpt lat="42.062677025569634" lon="11.892277548210934"><ele>140.0</ele><time>2026-04-18T08:50:49.932Z</time></trkpt><trkpt lat="42.06278100240684" lon="11.892294994825425"><ele>142.0</ele><time>2026-04-18T08:50:50.932Z</time></trkpt><trkpt lat="42.062874567857115" lon="11.8923238851961"><ele>144.0</ele><time>2026-04-18T08:50:51.932Z</time></trkpt><trkpt lat="42.06298231264097" lon="11.89236467177022"><ele>144.0</ele><time>2026-04-18T08:50:52.932Z</time></trkpt><trkpt lat="42.06309342513003" lon="11.892411952070256"><ele>144.0</ele><time>2026-04-18T08:50:53.931Z</time></trkpt><trkpt lat="42.063205546231366" lon="11.892459991158713"><ele>144.0</ele><time>2026-04-18T08:50:54.931Z</time></trkpt><trkpt lat="42.063314267171535" lon="11.892492606156267"><ele>144.0</ele><time>2026-04-18T08:50:55.931Z</time></trkpt><trkpt lat="42.06341460972706" lon="11.89250840909407"><ele>144.0</ele><time>2026-04-18T08:50:56.931Z</time></trkpt><trkpt lat="42.063517206889" lon="11.892512793168699"><ele>145.0</ele><time>2026-04-18T08:50:57.931Z</time></trkpt><trkpt lat="42.063618717101434" lon="11.892488038162966"><ele>146.0</ele><time>2026-04-18T08:50:58.931Z</time></trkpt><trkpt lat="42.063725603146025" lon="11.892465663300408"><ele>147.0</ele><time>2026-04-18T08:50:59.931Z</time></trkpt><trkpt lat="42.063832550096876" lon="11.892470194770059"><ele>148.0</ele><time>2026-04-18T08:51:00.931Z</time></trkpt><trkpt lat="42.063936631445785" lon="11.892496473115429"><ele>149.0</ele><time>2026-04-18T08:51:01.931Z</time></trkpt><trkpt lat="42.06403885727421" lon="11.892533489341092"><ele>148.8</ele><time>2026-04-18T08:51:02.931Z</time></trkpt><trkpt lat="42.06413415235577" lon="11.89256139981595"><ele>148.60000000000002</ele><time>2026-04-18T08:51:03.931Z</time></trkpt><trkpt lat="42.06423042615515" lon="11.892594751713338"><ele>148.4</ele><time>2026-04-18T08:51:04.931Z</time></trkpt><trkpt lat="42.06433507106301" lon="11.892643759234067"><ele>148.20000000000002</ele><time>2026-04-18T08:51:05.931Z</time></trkpt><trkpt lat="42.064438683141546" lon="11.89271285385265"><ele>148.0</ele><time>2026-04-18T08:51:06.931Z</time></trkpt><trkpt lat="42.064544639168346" lon="11.892792757750428"><ele>148.0</ele><time>2026-04-18T08:51:07.931Z</time></trkpt><trkpt lat="42.06465517891317" lon="11.892862496370508"><ele>148.0</ele><time>2026-04-18T08:51:08.931Z</time></trkpt><trkpt lat="42.06476271900468" lon="11.892914668265435"><ele>148.0</ele><time>2026-04-18T08:51:09.931Z</time></trkpt><trkpt lat="42.06485161460547" lon="11.892965507026675"><ele>148.0</ele><time>2026-04-18T08:51:10.931Z</time></trkpt><trkpt lat="42.06494100034709" lon="11.893006113184601"><ele>148.0</ele><time>2026-04-18T08:51:11.931Z</time></trkpt><trkpt lat="42.06503543820724" lon="11.893033454050011"><ele>149.0</ele><time>2026-04-18T08:51:12.931Z</time></trkpt><trkpt lat="42.06514033971511" lon="11.893049442812611"><ele>150.0</ele><time>2026-04-18T08:51:13.931Z</time></trkpt><trkpt lat="42.06524713114562" lon="11.8930616416545"><ele>151.0</ele><time>2026-04-18T08:51:14.931Z</time></trkpt><trkpt lat="42.065346451464" lon="11.893082325431976"><ele>152.0</ele><time>2026-04-18T08:51:15.931Z</time></trkpt><trkpt lat="42.0654466490191" lon="11.89311396124973"><ele>153.0</ele><time>2026-04-18T08:51:16.931Z</time></trkpt><trkpt lat="42.065544789401386" lon="11.893144303288528"><ele>153.0</ele><time>2026-04-18T08:51:17.931Z</time></trkpt><trkpt lat="42.065642519874864" lon="11.893162756458176"><ele>153.0</ele><time>2026-04-18T08:51:18.931Z</time></trkpt><trkpt lat="42.06574364909803" lon="11.893184892230442"><ele>153.0</ele><time>2026-04-18T08:51:19.931Z</time></trkpt><trkpt lat="42.06584784841866" lon="11.893209892265467"><ele>153.0</ele><time>2026-04-18T08:51:20.931Z</time></trkpt><trkpt lat="42.06593436083162" lon="11.893230133440936"><ele>153.0</ele><time>2026-04-18T08:51:21.931Z</time></trkpt><trkpt lat="42.06601979347613" lon="11.893256973411683"><ele>152.8</ele><time>2026-04-18T08:51:22.931Z</time></trkpt><trkpt lat="42.066116364031956" lon="11.89327699103996"><ele>152.60000000000002</ele><time>2026-04-18T08:51:23.931Z</time></trkpt><trkpt lat="42.06620927684064" lon="11.893288407029013"><ele>152.39999999999998</ele><time>2026-04-18T08:51:24.931Z</time></trkpt><trkpt lat="42.06630795265022" lon="11.89328925059562"><ele>152.2</ele><time>2026-04-18T08:51:25.931Z</time></trkpt><trkpt lat="42.06639505090714" lon="11.893251084672698"><ele>152.0</ele><time>2026-04-18T08:51:26.931Z</time></trkpt><trkpt lat="42.06649106766853" lon="11.893199969736795"><ele>152.0</ele><time>2026-04-18T08:51:27.931Z</time></trkpt><trkpt lat="42.06660351727429" lon="11.893123932782046"><ele>152.0</ele><time>2026-04-18T08:51:28.931Z</time></trkpt><trkpt lat="42.06670412479012" lon="11.89306518739246"><ele>152.0</ele><time>2026-04-18T08:51:29.931Z</time></trkpt><trkpt lat="42.06679512742416" lon="11.893032871840388"><ele>152.0</ele><time>2026-04-18T08:51:30.931Z</time></trkpt><trkpt lat="42.06687885936321" lon="11.893010803970352"><ele>152.0</ele><time>2026-04-18T08:51:31.931Z</time></trkpt><trkpt lat="42.06696551103177" lon="11.892990644677187"><ele>151.6</ele><time>2026-04-18T08:51:32.931Z</time></trkpt><trkpt lat="42.06705137409787" lon="11.89299526722088"><ele>151.2</ele><time>2026-04-18T08:51:33.931Z</time></trkpt><trkpt lat="42.06715423223288" lon="11.89303480758679"><ele>150.8</ele><time>2026-04-18T08:51:34.931Z</time></trkpt><trkpt lat="42.067256612954516" lon="11.89307873133197"><ele>150.4</ele><time>2026-04-18T08:51:35.931Z</time></trkpt><trkpt lat="42.06734854304914" lon="11.89310942677058"><ele>150.0</ele><time>2026-04-18T08:51:36.931Z</time></trkpt><trkpt lat="42.067436475813466" lon="11.893142621696665"><ele>150.33333333333334</ele><time>2026-04-18T08:51:37.931Z</time></trkpt><trkpt lat="42.067525181113986" lon="11.893183382500665"><ele>150.66666666666666</ele><time>2026-04-18T08:51:38.931Z</time></trkpt><trkpt lat="42.0676075459409" lon="11.893221781907378"><ele>151.0</ele><time>2026-04-18T08:51:39.931Z</time></trkpt><trkpt lat="42.0676858566712" lon="11.89326715161859"><ele>151.33333333333331</ele><time>2026-04-18T08:51:40.931Z</time></trkpt><trkpt lat="42.06775136652327" lon="11.893311437932729"><ele>151.66666666666666</ele><time>2026-04-18T08:51:41.931Z</time></trkpt><trkpt lat="42.06780803707823" lon="11.893351244343297"><ele>152.0</ele><time>2026-04-18T08:51:42.931Z</time></trkpt><trkpt lat="42.06786791233565" lon="11.893393157962889"><ele>151.0</ele><time>2026-04-18T08:51:43.931Z</time></trkpt><trkpt lat="42.067940202601235" lon="11.893427260705222"><ele>150.0</ele><time>2026-04-18T08:51:44.931Z</time></trkpt><trkpt lat="42.068015413263176" lon="11.893444542378155"><ele>149.0</ele><time>2026-04-18T08:51:45.931Z</time></trkpt><trkpt lat="42.0680866893014" lon="11.893445960251086"><ele>148.0</ele><time>2026-04-18T08:51:46.931Z</time></trkpt><trkpt lat="42.06816239748277" lon="11.893456010255578"><ele>147.0</ele><time>2026-04-18T08:51:47.931Z</time></trkpt><trkpt lat="42.06823415718586" lon="11.89346092627464"><ele>146.0</ele><time>2026-04-18T08:51:48.931Z</time></trkpt><trkpt lat="42.068343868504925" lon="11.893504890032755"><ele>146.0</ele><time>2026-04-18T08:51:50.931Z</time></trkpt><trkpt lat="42.06843208978423" lon="11.893546063609799"><ele>146.0</ele><time>2026-04-18T08:51:52.931Z</time></trkpt><trkpt lat="42.06850145465802" lon="11.893576253679226"><ele>146.0</ele><time>2026-04-18T08:51:54.931Z</time></trkpt><trkpt lat="42.06856404883999" lon="11.893612930392626"><ele>146.0</ele><time>2026-04-18T08:51:56.931Z</time></trkpt><trkpt lat="42.06863601463484" lon="11.893643388407764"><ele>146.0</ele><time>2026-04-18T08:51:58.931Z</time></trkpt><trkpt lat="42.0687379350039" lon="11.8936782655064"><ele>146.0</ele><time>2026-04-18T08:52:00.931Z</time></trkpt><trkpt lat="42.068806935722094" lon="11.893704791995578"><ele>146.0</ele><time>2026-04-18T08:52:01.931Z</time></trkpt><trkpt lat="42.06890808189904" lon="11.893761979673396"><ele>146.0</ele><time>2026-04-18T08:52:03.931Z</time></trkpt><trkpt lat="42.06897866622082" lon="11.893799023076104"><ele>146.0</ele><time>2026-04-18T08:52:05.931Z</time></trkpt><trkpt lat="42.06907025244453" lon="11.893857911460609"><ele>146.0</ele><time>2026-04-18T08:56:57.923Z</time></trkpt><trkpt lat="42.06915811443265" lon="11.893946716565878"><ele>146.0</ele><time>2026-04-18T08:56:59.923Z</time></trkpt><trkpt lat="42.069208640979895" lon="11.893997824261612"><ele>146.2</ele><time>2026-04-18T08:57:00.923Z</time></trkpt><trkpt lat="42.06926530684909" lon="11.8940423650204"><ele>146.39999999999998</ele><time>2026-04-18T08:57:01.923Z</time></trkpt><trkpt lat="42.06936795430849" lon="11.894075726035176"><ele>146.6</ele><time>2026-04-18T08:57:03.923Z</time></trkpt><trkpt lat="42.06943976303378" lon="11.894112581250228"><ele>146.79999999999998</ele><time>2026-04-18T08:57:05.923Z</time></trkpt><trkpt lat="42.06949238678827" lon="11.894235319500346"><ele>147.0</ele><time>2026-04-18T08:57:07.923Z</time></trkpt><trkpt lat="42.069517244806256" lon="11.8944106323889"><ele>145.5</ele><time>2026-04-18T08:57:09.923Z</time></trkpt><trkpt lat="42.069550077558546" lon="11.894499043932655"><ele>144.0</ele><time>2026-04-18T08:57:10.923Z</time></trkpt><trkpt lat="42.069600288938595" lon="11.894593947895412"><ele>142.5</ele><time>2026-04-18T08:57:11.923Z</time></trkpt><trkpt lat="42.06966059054571" lon="11.89469335756173"><ele>141.0</ele><time>2026-04-18T08:57:12.923Z</time></trkpt><trkpt lat="42.06971272544439" lon="11.894793456223075"><ele>139.5</ele><time>2026-04-18T08:57:13.923Z</time></trkpt><trkpt lat="42.069763048108776" lon="11.894872459332095"><ele>138.0</ele><time>2026-04-18T08:57:14.923Z</time></trkpt><trkpt lat="42.06979786616903" lon="11.894957348654625"><ele>138.0</ele><time>2026-04-18T08:57:15.923Z</time></trkpt><trkpt lat="42.06983741072984" lon="11.89503815663888"><ele>138.0</ele><time>2026-04-18T08:57:16.923Z</time></trkpt><trkpt lat="42.06988300336152" lon="11.895114746484868"><ele>138.0</ele><time>2026-04-18T08:57:17.923Z</time></trkpt><trkpt lat="42.06992988548872" lon="11.89519794775691"><ele>138.0</ele><time>2026-04-18T08:57:18.923Z</time></trkpt><trkpt lat="42.06996404188623" lon="11.895282774017192"><ele>138.0</ele><time>2026-04-18T08:57:19.923Z</time></trkpt><trkpt lat="42.07001173050629" lon="11.895341101600229"><ele>138.0</ele><time>2026-04-18T08:57:20.923Z</time></trkpt><trkpt lat="42.07005855839615" lon="11.89543943765158"><ele>138.0</ele><time>2026-04-18T08:57:22.923Z</time></trkpt><trkpt lat="42.07009991535181" lon="11.895581789825846"><ele>138.5</ele><time>2026-04-18T08:57:24.923Z</time></trkpt><trkpt lat="42.07008627163614" lon="11.895741066947789"><ele>139.0</ele><time>2026-04-18T08:57:26.923Z</time></trkpt><trkpt lat="42.070085884278726" lon="11.895832521696116"><ele>139.5</ele><time>2026-04-18T08:57:27.923Z</time></trkpt><trkpt lat="42.070085611007116" lon="11.895937068914884"><ele>140.0</ele><time>2026-04-18T08:57:28.923Z</time></trkpt><trkpt lat="42.0700823991538" lon="11.896056264038986"><ele>140.5</ele><time>2026-04-18T08:57:29.923Z</time></trkpt><trkpt lat="42.07008534326005" lon="11.896184625784256"><ele>141.0</ele><time>2026-04-18T08:57:30.923Z</time></trkpt><trkpt lat="42.07007825016581" lon="11.8963049845583"><ele>141.0</ele><time>2026-04-18T08:57:31.923Z</time></trkpt><trkpt lat="42.07007137961615" lon="11.89642180602005"><ele>141.0</ele><time>2026-04-18T08:57:32.923Z</time></trkpt><trkpt lat="42.07006553030299" lon="11.89652160780767"><ele>141.0</ele><time>2026-04-18T08:57:33.923Z</time></trkpt><trkpt lat="42.07006253690449" lon="11.896618973831579"><ele>141.0</ele><time>2026-04-18T08:57:34.923Z</time></trkpt><trkpt lat="42.07009466750848" lon="11.896781572758044"><ele>141.0</ele><time>2026-04-18T08:57:36.923Z</time></trkpt><trkpt lat="42.070130595821496" lon="11.89686467953131"><ele>141.0</ele><time>2026-04-18T08:57:37.923Z</time></trkpt><trkpt lat="42.07016149095734" lon="11.896949717929415"><ele>139.8</ele><time>2026-04-18T08:57:38.923Z</time></trkpt><trkpt lat="42.07023386398869" lon="11.897094712583915"><ele>138.6</ele><time>2026-04-18T08:57:40.923Z</time></trkpt><trkpt lat="42.070295368085965" lon="11.897249079539298"><ele>137.4</ele><time>2026-04-18T08:57:42.923Z</time></trkpt><trkpt lat="42.07033751263066" lon="11.8973122365967"><ele>136.2</ele><time>2026-04-18T08:57:43.923Z</time></trkpt><trkpt lat="42.07040324889678" lon="11.897365597651259"><ele>135.0</ele><time>2026-04-18T08:57:44.923Z</time></trkpt><trkpt lat="42.07047541297903" lon="11.897409075280395"><ele>135.0</ele><time>2026-04-18T08:57:45.923Z</time></trkpt><trkpt lat="42.07055166550317" lon="11.897438176978005"><ele>135.0</ele><time>2026-04-18T08:57:46.923Z</time></trkpt><trkpt lat="42.07062780276242" lon="11.89745905741938"><ele>135.0</ele><time>2026-04-18T08:57:47.923Z</time></trkpt><trkpt lat="42.070692582428585" lon="11.897487212779494"><ele>135.0</ele><time>2026-04-18T08:57:48.923Z</time></trkpt><trkpt lat="42.070781146208525" lon="11.897516934315277"><ele>135.0</ele><time>2026-04-18T08:57:49.923Z</time></trkpt><trkpt lat="42.07088049097989" lon="11.89756074695184"><ele>135.0</ele><time>2026-04-18T08:57:50.923Z</time></trkpt><trkpt lat="42.07098110804351" lon="11.897594912239773"><ele>135.2</ele><time>2026-04-18T08:57:51.923Z</time></trkpt><trkpt lat="42.071076388019996" lon="11.89762692000796"><ele>135.4</ele><time>2026-04-18T08:57:52.923Z</time></trkpt><trkpt lat="42.07116457682561" lon="11.89765700444687"><ele>135.6</ele><time>2026-04-18T08:57:53.923Z</time></trkpt><trkpt lat="42.07124885248872" lon="11.897693285745246"><ele>135.8</ele><time>2026-04-18T08:57:54.923Z</time></trkpt><trkpt lat="42.071330744149115" lon="11.897731985780766"><ele>136.0</ele><time>2026-04-18T08:57:55.923Z</time></trkpt><trkpt lat="42.071416989800476" lon="11.897796475155863"><ele>136.0</ele><time>2026-04-18T08:57:56.923Z</time></trkpt><trkpt lat="42.07149852230076" lon="11.897848515632512"><ele>136.0</ele><time>2026-04-18T08:57:57.923Z</time></trkpt><trkpt lat="42.07157701733764" lon="11.897882031839018"><ele>136.0</ele><time>2026-04-18T08:57:58.923Z</time></trkpt><trkpt lat="42.07164504930202" lon="11.897950286118185"><ele>136.0</ele><time>2026-04-18T08:57:59.923Z</time></trkpt><trkpt lat="42.071709488404885" lon="11.898011576086793"><ele>136.0</ele><time>2026-04-18T08:58:00.923Z</time></trkpt><trkpt lat="42.07177136909764" lon="11.898071005545356"><ele>136.0</ele><time>2026-04-18T08:58:01.923Z</time></trkpt><trkpt lat="42.07183807744997" lon="11.898151620005908"><ele>136.83333333333334</ele><time>2026-04-18T08:58:02.923Z</time></trkpt><trkpt lat="42.071913973864355" lon="11.898211965409132"><ele>137.66666666666669</ele><time>2026-04-18T08:58:03.923Z</time></trkpt><trkpt lat="42.07198683402834" lon="11.898266214066043"><ele>138.5</ele><time>2026-04-18T08:58:04.923Z</time></trkpt><trkpt lat="42.072063492407864" lon="11.898306258088084"><ele>139.33333333333334</ele><time>2026-04-18T08:58:05.923Z</time></trkpt><trkpt lat="42.07213692472147" lon="11.898319948577177"><ele>140.16666666666666</ele><time>2026-04-18T08:58:06.923Z</time></trkpt><trkpt lat="42.07220710747997" lon="11.898368615656672"><ele>141.0</ele><time>2026-04-18T08:58:07.923Z</time></trkpt><trkpt lat="42.07228899550091" lon="11.898396986159012"><ele>141.0</ele><time>2026-04-18T08:58:08.923Z</time></trkpt><trkpt lat="42.07235783884979" lon="11.898398523122738"><ele>141.0</ele><time>2026-04-18T08:58:09.923Z</time></trkpt><trkpt lat="42.07244209939392" lon="11.898439744550195"><ele>141.0</ele><time>2026-04-18T08:58:10.923Z</time></trkpt><trkpt lat="42.072526627549664" lon="11.898454106978276"><ele>141.0</ele><time>2026-04-18T08:58:11.923Z</time></trkpt><trkpt lat="42.072613734053775" lon="11.898459580920099"><ele>141.0</ele><time>2026-04-18T08:58:12.923Z</time></trkpt><trkpt lat="42.07269115058693" lon="11.898471093343543"><ele>141.0</ele><time>2026-04-18T08:58:13.923Z</time></trkpt><trkpt lat="42.07276794108154" lon="11.898489272876038"><ele>141.0</ele><time>2026-04-18T08:58:14.923Z</time></trkpt><trkpt lat="42.0728432166021" lon="11.898505836996545"><ele>141.0</ele><time>2026-04-18T08:58:15.923Z</time></trkpt><trkpt lat="42.07292811239504" lon="11.898528198958669"><ele>141.0</ele><time>2026-04-18T08:58:16.923Z</time></trkpt><trkpt lat="42.0730222491298" lon="11.898552879032682"><ele>141.0</ele><time>2026-04-18T08:58:17.923Z</time></trkpt><trkpt lat="42.07310603330111" lon="11.898565616162534"><ele>141.0</ele><time>2026-04-18T08:58:18.923Z</time></trkpt><trkpt lat="42.07317657142293" lon="11.898580162408814"><ele>141.0</ele><time>2026-04-18T08:58:19.923Z</time></trkpt><trkpt lat="42.07326633622496" lon="11.898631945082471"><ele>143.33333333333334</ele><time>2026-04-18T08:58:21.923Z</time></trkpt><trkpt lat="42.073358677287246" lon="11.898761241960122"><ele>145.66666666666666</ele><time>2026-04-18T08:58:23.923Z</time></trkpt><trkpt lat="42.07341462748058" lon="11.898821700000621"><ele>148.0</ele><time>2026-04-18T08:58:24.923Z</time></trkpt><trkpt lat="42.07349522373554" lon="11.898890173223787"><ele>150.33333333333331</ele><time>2026-04-18T08:58:25.923Z</time></trkpt><trkpt lat="42.07356377355639" lon="11.898910699141304"><ele>152.66666666666666</ele><time>2026-04-18T08:58:26.923Z</time></trkpt><trkpt lat="42.07364112382361" lon="11.898927578052172"><ele>155.0</ele><time>2026-04-18T08:58:27.923Z</time></trkpt><trkpt lat="42.07373479549225" lon="11.898943468441303"><ele>155.0</ele><time>2026-04-18T08:58:28.923Z</time></trkpt><trkpt lat="42.073822078751945" lon="11.898952412793172"><ele>155.0</ele><time>2026-04-18T08:58:29.923Z</time></trkpt><trkpt lat="42.07390251688345" lon="11.898970787805087"><ele>155.0</ele><time>2026-04-18T08:58:30.923Z</time></trkpt><trkpt lat="42.07397451490951" lon="11.898966226658612"><ele>155.0</ele><time>2026-04-18T08:58:31.923Z</time></trkpt><trkpt lat="42.074054934171" lon="11.898942267580395"><ele>155.0</ele><time>2026-04-18T08:58:32.923Z</time></trkpt><trkpt lat="42.07413523005868" lon="11.898915875813124"><ele>155.0</ele><time>2026-04-18T08:58:33.922Z</time></trkpt><trkpt lat="42.07421565128335" lon="11.898891827580833"><ele>156.16666666666666</ele><time>2026-04-18T08:58:34.922Z</time></trkpt><trkpt lat="42.07430957785324" lon="11.898874260593457"><ele>157.33333333333331</ele><time>2026-04-18T08:58:35.922Z</time></trkpt><trkpt lat="42.07439028886065" lon="11.898858558989403"><ele>158.5</ele><time>2026-04-18T08:58:36.922Z</time></trkpt><trkpt lat="42.07445578421306" lon="11.898872316456028"><ele>159.66666666666666</ele><time>2026-04-18T08:58:37.922Z</time></trkpt><trkpt lat="42.07452863506812" lon="11.898854193627981"><ele>160.83333333333334</ele><time>2026-04-18T08:58:38.922Z</time></trkpt><trkpt lat="42.074596588211406" lon="11.898824938311066"><ele>162.0</ele><time>2026-04-18T08:58:39.921Z</time></trkpt><trkpt lat="42.074669108536206" lon="11.898790099826245"><ele>162.0</ele><time>2026-04-18T08:58:40.921Z</time></trkpt><trkpt lat="42.07475471952427" lon="11.898743428910809"><ele>162.0</ele><time>2026-04-18T08:58:41.921Z</time></trkpt><trkpt lat="42.074837859362106" lon="11.898687726029294"><ele>162.0</ele><time>2026-04-18T08:58:42.921Z</time></trkpt><trkpt lat="42.074920975328595" lon="11.898644381500068"><ele>162.0</ele><time>2026-04-18T08:58:43.921Z</time></trkpt><trkpt lat="42.07499677293" lon="11.898616831782029"><ele>162.0</ele><time>2026-04-18T08:58:44.921Z</time></trkpt><trkpt lat="42.07508686372387" lon="11.898591953997325"><ele>162.0</ele><time>2026-04-18T08:58:45.921Z</time></trkpt><trkpt lat="42.07519454158685" lon="11.898572140051431"><ele>161.5</ele><time>2026-04-18T08:58:46.921Z</time></trkpt><trkpt lat="42.075288369612004" lon="11.89854424209369"><ele>161.0</ele><time>2026-04-18T08:58:47.921Z</time></trkpt><trkpt lat="42.07537728080446" lon="11.898513368630658"><ele>160.5</ele><time>2026-04-18T08:58:48.921Z</time></trkpt><trkpt lat="42.075454845482405" lon="11.898458638849204"><ele>160.0</ele><time>2026-04-18T08:58:49.921Z</time></trkpt><trkpt lat="42.07552578910801" lon="11.898415316522108"><ele>159.5</ele><time>2026-04-18T08:58:50.921Z</time></trkpt><trkpt lat="42.07557774584054" lon="11.898335324978696"><ele>159.0</ele><time>2026-04-18T08:58:51.92Z</time></trkpt><trkpt lat="42.075638693566056" lon="11.898304047312118"><ele>161.0</ele><time>2026-04-18T08:58:52.921Z</time></trkpt><trkpt lat="42.07576138203501" lon="11.898243455056942"><ele>163.0</ele><time>2026-04-18T08:58:54.921Z</time></trkpt><trkpt lat="42.07585141867166" lon="11.898241368426914"><ele>165.0</ele><time>2026-04-18T08:58:55.921Z</time></trkpt><trkpt lat="42.07594129504123" lon="11.89822300327732"><ele>167.0</ele><time>2026-04-18T08:58:56.921Z</time></trkpt><trkpt lat="42.07603462453832" lon="11.898199494402744"><ele>169.0</ele><time>2026-04-18T08:58:57.92Z</time></trkpt><trkpt lat="42.07612030036902" lon="11.898163274890726"><ele>169.0</ele><time>2026-04-18T08:58:58.92Z</time></trkpt><trkpt lat="42.07620761141018" lon="11.898106324261121"><ele>169.0</ele><time>2026-04-18T08:58:59.92Z</time></trkpt><trkpt lat="42.07629741599792" lon="11.898032601420537"><ele>169.0</ele><time>2026-04-18T08:59:00.92Z</time></trkpt><trkpt lat="42.076381443170234" lon="11.897944933378563"><ele>169.0</ele><time>2026-04-18T08:59:01.92Z</time></trkpt><trkpt lat="42.076459151539595" lon="11.89785549535724"><ele>169.0</ele><time>2026-04-18T08:59:02.92Z</time></trkpt><trkpt lat="42.07652847629377" lon="11.897782327487917"><ele>169.0</ele><time>2026-04-18T08:59:03.92Z</time></trkpt><trkpt lat="42.07659791396463" lon="11.897727372067681"><ele>169.0</ele><time>2026-04-18T08:59:04.92Z</time></trkpt><trkpt lat="42.07667784233324" lon="11.897678043190144"><ele>169.0</ele><time>2026-04-18T08:59:05.92Z</time></trkpt><trkpt lat="42.07674483122937" lon="11.897623632958544"><ele>169.0</ele><time>2026-04-18T08:59:06.92Z</time></trkpt><trkpt lat="42.076808929080755" lon="11.89754367705517"><ele>169.0</ele><time>2026-04-18T08:59:07.92Z</time></trkpt><trkpt lat="42.07687915090984" lon="11.897442220867735"><ele>169.0</ele><time>2026-04-18T08:59:08.92Z</time></trkpt><trkpt lat="42.07696051960124" lon="11.89735510905996"><ele>170.16666666666669</ele><time>2026-04-18T08:59:09.92Z</time></trkpt><trkpt lat="42.07704042967321" lon="11.897290301643434"><ele>171.33333333333334</ele><time>2026-04-18T08:59:10.92Z</time></trkpt><trkpt lat="42.07712789500424" lon="11.897241630264705"><ele>172.5</ele><time>2026-04-18T08:59:11.92Z</time></trkpt><trkpt lat="42.0772083564945" lon="11.897198000952882"><ele>173.66666666666666</ele><time>2026-04-18T08:59:12.92Z</time></trkpt><trkpt lat="42.07728252090014" lon="11.897168931377013"><ele>174.83333333333331</ele><time>2026-04-18T08:59:13.92Z</time></trkpt><trkpt lat="42.077350253019915" lon="11.89714908554835"><ele>176.0</ele><time>2026-04-18T08:59:14.92Z</time></trkpt><trkpt lat="42.07741369242878" lon="11.897151067520028"><ele>174.83333333333331</ele><time>2026-04-18T08:59:15.92Z</time></trkpt><trkpt lat="42.077479833005" lon="11.897169035124803"><ele>173.66666666666666</ele><time>2026-04-18T08:59:16.92Z</time></trkpt><trkpt lat="42.07753925498303" lon="11.897197555047098"><ele>172.5</ele><time>2026-04-18T08:59:17.92Z</time></trkpt><trkpt lat="42.07764128553551" lon="11.897283146916214"><ele>171.33333333333334</ele><time>2026-04-18T08:59:19.92Z</time></trkpt><trkpt lat="42.07772443774281" lon="11.897391282133915"><ele>170.16666666666669</ele><time>2026-04-18T08:59:21.92Z</time></trkpt><trkpt lat="42.07775701805099" lon="11.89747338771037"><ele>169.0</ele><time>2026-04-18T08:59:23.92Z</time></trkpt><trkpt lat="42.077815534065145" lon="11.897560203815342"><ele>169.0</ele><time>2026-04-18T09:00:03.92Z</time></trkpt><trkpt lat="42.07785357835127" lon="11.897669525311779"><ele>169.0</ele><time>2026-04-18T09:00:58.918Z</time></trkpt><trkpt lat="42.077920321551304" lon="11.897801150508517"><ele>169.0</ele><time>2026-04-18T09:01:00.918Z</time></trkpt><trkpt lat="42.07799142020603" lon="11.897938869508566"><ele>169.0</ele><time>2026-04-18T09:01:02.918Z</time></trkpt><trkpt lat="42.07805047588288" lon="11.897993153002576"><ele>169.0</ele><time>2026-04-18T09:01:03.918Z</time></trkpt><trkpt lat="42.07811051918658" lon="11.89802981006123"><ele>169.0</ele><time>2026-04-18T09:01:04.918Z</time></trkpt><trkpt lat="42.07817576475432" lon="11.898037747213971"><ele>169.0</ele><time>2026-04-18T09:01:05.918Z</time></trkpt><trkpt lat="42.0782610686604" lon="11.89798519407421"><ele>169.0</ele><time>2026-04-18T09:01:06.918Z</time></trkpt><trkpt lat="42.07833335178069" lon="11.897967975423331"><ele>169.0</ele><time>2026-04-18T09:01:07.918Z</time></trkpt><trkpt lat="42.07840231280248" lon="11.897947693093757"><ele>169.0</ele><time>2026-04-18T09:01:08.918Z</time></trkpt><trkpt lat="42.07848472614731" lon="11.897939285153239"><ele>169.0</ele><time>2026-04-18T09:01:09.918Z</time></trkpt><trkpt lat="42.0785641516374" lon="11.897932284569595"><ele>170.42857142857144</ele><time>2026-04-18T09:01:10.918Z</time></trkpt><trkpt lat="42.078635841835876" lon="11.897920919288845"><ele>171.85714285714286</ele><time>2026-04-18T09:01:11.918Z</time></trkpt><trkpt lat="42.078699668776274" lon="11.897950006772245"><ele>173.28571428571428</ele><time>2026-04-18T09:01:12.918Z</time></trkpt><trkpt lat="42.07875894708253" lon="11.898001837001122"><ele>174.71428571428572</ele><time>2026-04-18T09:01:13.918Z</time></trkpt><trkpt lat="42.07882094976717" lon="11.89806709132113"><ele>176.14285714285714</ele><time>2026-04-18T09:01:14.918Z</time></trkpt><trkpt lat="42.07886951583139" lon="11.898147542225633"><ele>177.57142857142858</ele><time>2026-04-18T09:01:15.918Z</time></trkpt><trkpt lat="42.07890874802624" lon="11.898237362573528"><ele>179.0</ele><time>2026-04-18T09:01:16.918Z</time></trkpt><trkpt lat="42.07893880414214" lon="11.898340547845565"><ele>178.79999999999998</ele><time>2026-04-18T09:01:17.918Z</time></trkpt><trkpt lat="42.07897933761597" lon="11.898442877017526"><ele>178.6</ele><time>2026-04-18T09:01:18.918Z</time></trkpt><trkpt lat="42.07903198818326" lon="11.89856320518734"><ele>178.4</ele><time>2026-04-18T09:01:19.918Z</time></trkpt><trkpt lat="42.079084145678785" lon="11.898659670858162"><ele>178.2</ele><time>2026-04-18T09:01:20.918Z</time></trkpt><trkpt lat="42.07911382441925" lon="11.898778110152515"><ele>178.0</ele><time>2026-04-18T09:01:21.918Z</time></trkpt><trkpt lat="42.07916398272813" lon="11.89887755456617"><ele>180.0</ele><time>2026-04-18T09:01:22.918Z</time></trkpt><trkpt lat="42.07922068678783" lon="11.898983472666327"><ele>182.0</ele><time>2026-04-18T09:01:23.918Z</time></trkpt><trkpt lat="42.07927178660987" lon="11.899101738352313"><ele>184.0</ele><time>2026-04-18T09:01:24.918Z</time></trkpt><trkpt lat="42.07932860646993" lon="11.899203298693124"><ele>186.0</ele><time>2026-04-18T09:01:25.918Z</time></trkpt><trkpt lat="42.07938277367753" lon="11.899293957181671"><ele>188.0</ele><time>2026-04-18T09:01:26.918Z</time></trkpt><trkpt lat="42.07942594186679" lon="11.899364023040995"><ele>190.0</ele><time>2026-04-18T09:01:27.918Z</time></trkpt><trkpt lat="42.07953026095752" lon="11.89942351824532"><ele>190.0</ele><time>2026-04-18T09:01:29.918Z</time></trkpt><trkpt lat="42.07965756013601" lon="11.899387772023944"><ele>190.0</ele><time>2026-04-18T09:01:31.918Z</time></trkpt><trkpt lat="42.07973023204391" lon="11.899324351406511"><ele>190.0</ele><time>2026-04-18T09:01:32.918Z</time></trkpt><trkpt lat="42.079795655366055" lon="11.899253857349052"><ele>190.0</ele><time>2026-04-18T09:01:33.918Z</time></trkpt><trkpt lat="42.07985700993125" lon="11.899160298949766"><ele>190.0</ele><time>2026-04-18T09:01:34.918Z</time></trkpt><trkpt lat="42.07991403191218" lon="11.8990601682095"><ele>192.8</ele><time>2026-04-18T09:01:35.918Z</time></trkpt><trkpt lat="42.07998101885213" lon="11.898961418740654"><ele>195.6</ele><time>2026-04-18T09:01:36.918Z</time></trkpt><trkpt lat="42.08005355302354" lon="11.898865646137068"><ele>198.39999999999998</ele><time>2026-04-18T09:01:37.918Z</time></trkpt><trkpt lat="42.08012860019941" lon="11.898783485828679"><ele>201.2</ele><time>2026-04-18T09:01:38.918Z</time></trkpt><trkpt lat="42.08020198554125" lon="11.898718635465173"><ele>204.0</ele><time>2026-04-18T09:01:39.918Z</time></trkpt><trkpt lat="42.08028135183235" lon="11.898656705334071"><ele>204.0</ele><time>2026-04-18T09:01:40.918Z</time></trkpt><trkpt lat="42.08035061334015" lon="11.898592100056932"><ele>204.0</ele><time>2026-04-18T09:01:41.918Z</time></trkpt><trkpt lat="42.080415158709314" lon="11.89854442808758"><ele>204.0</ele><time>2026-04-18T09:01:42.918Z</time></trkpt><trkpt lat="42.08047670244324" lon="11.898497240712196"><ele>204.0</ele><time>2026-04-18T09:01:43.918Z</time></trkpt><trkpt lat="42.080578189903584" lon="11.898423325207617"><ele>204.0</ele><time>2026-04-18T09:01:45.918Z</time></trkpt><trkpt lat="42.08066051573885" lon="11.898486273687432"><ele>204.0</ele><time>2026-04-18T09:01:47.918Z</time></trkpt><trkpt lat="42.08071776442303" lon="11.898537930294601"><ele>206.0</ele><time>2026-04-18T09:01:49.918Z</time></trkpt><trkpt lat="42.08077333322738" lon="11.898600010241092"><ele>208.0</ele><time>2026-04-18T09:01:51.918Z</time></trkpt><trkpt lat="42.08082516058901" lon="11.898695730191111"><ele>210.0</ele><time>2026-04-18T09:01:53.918Z</time></trkpt><trkpt lat="42.080870429438164" lon="11.898799315399609"><ele>212.0</ele><time>2026-04-18T09:01:55.918Z</time></trkpt><trkpt lat="42.08090593990684" lon="11.898883227795412"><ele>214.0</ele><time>2026-04-18T09:01:58.918Z</time></trkpt><trkpt lat="42.08096144504895" lon="11.8990127864423"><ele>216.0</ele><time>2026-04-18T09:02:06.917Z</time></trkpt><trkpt lat="42.08103091538655" lon="11.899141126809823"><ele>216.0</ele><time>2026-04-18T09:02:08.917Z</time></trkpt><trkpt lat="42.0810551912398" lon="11.899227814749812"><ele>216.0</ele><time>2026-04-18T09:02:09.917Z</time></trkpt><trkpt lat="42.08112179723634" lon="11.899375172874336"><ele>216.0</ele><time>2026-04-18T09:02:11.917Z</time></trkpt><trkpt lat="42.0811597560285" lon="11.899454231210498"><ele>216.0</ele><time>2026-04-18T09:02:12.917Z</time></trkpt><trkpt lat="42.081212402017556" lon="11.899523762559598"><ele>216.0</ele><time>2026-04-18T09:02:13.917Z</time></trkpt><trkpt lat="42.0812824017467" lon="11.899580137218065"><ele>216.0</ele><time>2026-04-18T09:02:14.917Z</time></trkpt><trkpt lat="42.0813652958218" lon="11.899632120422844"><ele>216.5</ele><time>2026-04-18T09:02:15.917Z</time></trkpt><trkpt lat="42.08144554561609" lon="11.899673586464967"><ele>217.0</ele><time>2026-04-18T09:02:16.917Z</time></trkpt><trkpt lat="42.0815417903613" lon="11.89971661716649"><ele>217.5</ele><time>2026-04-18T09:02:17.917Z</time></trkpt><trkpt lat="42.08160920443417" lon="11.899749092278581"><ele>218.0</ele><time>2026-04-18T09:02:18.917Z</time></trkpt><trkpt lat="42.08168201133977" lon="11.899793200481374"><ele>218.5</ele><time>2026-04-18T09:02:19.917Z</time></trkpt><trkpt lat="42.08174387567651" lon="11.899830541781384"><ele>219.0</ele><time>2026-04-18T09:02:20.917Z</time></trkpt><trkpt lat="42.08178782770938" lon="11.899921609139477"><ele>221.2</ele><time>2026-04-18T09:02:22.913Z</time></trkpt><trkpt lat="42.08176174476943" lon="11.900029269460743"><ele>223.39999999999998</ele><time>2026-04-18T09:02:24.909Z</time></trkpt><trkpt lat="42.08176319547427" lon="11.900138085817366"><ele>225.6</ele><time>2026-04-18T09:02:26.905Z</time></trkpt><trkpt lat="42.08171017564134" lon="11.900283651030477"><ele>227.8</ele><time>2026-04-18T09:02:28.901Z</time></trkpt><trkpt lat="42.08170852348005" lon="11.900461616727915"><ele>230.0</ele><time>2026-04-18T09:02:30.898Z</time></trkpt><trkpt lat="42.08171933186329" lon="11.900565469034502"><ele>231.2</ele><time>2026-04-18T09:02:31.897Z</time></trkpt><trkpt lat="42.08172416320264" lon="11.90068493430354"><ele>232.4</ele><time>2026-04-18T09:02:32.896Z</time></trkpt><trkpt lat="42.08171681107109" lon="11.900822702862131"><ele>233.60000000000002</ele><time>2026-04-18T09:02:33.894Z</time></trkpt><trkpt lat="42.081708806123224" lon="11.900958508968401"><ele>234.8</ele><time>2026-04-18T09:02:34.893Z</time></trkpt><trkpt lat="42.08170508111074" lon="11.901077410506085"><ele>236.0</ele><time>2026-04-18T09:02:35.892Z</time></trkpt><trkpt lat="42.08169630664065" lon="11.901181820541646"><ele>236.14285714285714</ele><time>2026-04-18T09:02:36.891Z</time></trkpt><trkpt lat="42.08168756454034" lon="11.901301351959923"><ele>236.28571428571428</ele><time>2026-04-18T09:02:37.89Z</time></trkpt><trkpt lat="42.081704495080345" lon="11.901409689057706"><ele>236.42857142857142</ele><time>2026-04-18T09:02:38.889Z</time></trkpt><trkpt lat="42.08173232718895" lon="11.901486763809515"><ele>236.57142857142856</ele><time>2026-04-18T09:02:39.888Z</time></trkpt><trkpt lat="42.08177305975778" lon="11.901553540396238"><ele>236.71428571428572</ele><time>2026-04-18T09:02:40.887Z</time></trkpt><trkpt lat="42.081812203310925" lon="11.901631193771566"><ele>236.85714285714283</ele><time>2026-04-18T09:02:41.887Z</time></trkpt><trkpt lat="42.0818659282972" lon="11.901710293492975"><ele>236.99999999999997</ele><time>2026-04-18T09:02:42.886Z</time></trkpt><trkpt lat="42.08196842268795" lon="11.90182821056494"><ele>236.2</ele><time>2026-04-18T09:02:44.885Z</time></trkpt><trkpt lat="42.082087183731375" lon="11.901893529548072"><ele>235.39999999999998</ele><time>2026-04-18T09:02:46.883Z</time></trkpt><trkpt lat="42.08216428284743" lon="11.901958803598161"><ele>234.60000000000002</ele><time>2026-04-18T09:02:47.883Z</time></trkpt><trkpt lat="42.082235869526045" lon="11.902019099543692"><ele>233.8</ele><time>2026-04-18T09:02:48.882Z</time></trkpt><trkpt lat="42.082313198296774" lon="11.902087088021043"><ele>233.0</ele><time>2026-04-18T09:02:49.882Z</time></trkpt><trkpt lat="42.08237923062296" lon="11.902160044862754"><ele>233.0</ele><time>2026-04-18T09:02:50.881Z</time></trkpt><trkpt lat="42.082428285576974" lon="11.902221021698766"><ele>233.0</ele><time>2026-04-18T09:02:51.879Z</time></trkpt><trkpt lat="42.082478890048264" lon="11.902283033582199"><ele>233.0</ele><time>2026-04-18T09:02:52.878Z</time></trkpt><trkpt lat="42.08253323502696" lon="11.90236549793704"><ele>233.0</ele><time>2026-04-18T09:02:53.878Z</time></trkpt><trkpt lat="42.08257719971293" lon="11.90245850880555"><ele>233.0</ele><time>2026-04-18T09:02:54.878Z</time></trkpt><trkpt lat="42.08260582211545" lon="11.90254552262446"><ele>233.0</ele><time>2026-04-18T09:02:55.878Z</time></trkpt><trkpt lat="42.08263025238681" lon="11.902642023134694"><ele>233.0</ele><time>2026-04-18T09:02:56.878Z</time></trkpt><trkpt lat="42.082668439695034" lon="11.902795537910517"><ele>236.0</ele><time>2026-04-18T09:02:58.877Z</time></trkpt><trkpt lat="42.08274385444629" lon="11.902932438024052"><ele>239.0</ele><time>2026-04-18T09:03:00.876Z</time></trkpt><trkpt lat="42.082851635725675" lon="11.902985058513682"><ele>242.0</ele><time>2026-04-18T09:03:02.876Z</time></trkpt><trkpt lat="42.082947351341296" lon="11.902990872328028"><ele>245.0</ele><time>2026-04-18T09:03:04.876Z</time></trkpt><trkpt lat="42.08302903611162" lon="11.902910309677248"><ele>248.0</ele><time>2026-04-18T09:03:06.875Z</time></trkpt><trkpt lat="42.08307545232536" lon="11.902736441451118"><ele>248.00000000000003</ele><time>2026-04-18T09:03:08.875Z</time></trkpt><trkpt lat="42.0830854905844" lon="11.902617224303125"><ele>248.0</ele><time>2026-04-18T09:03:09.875Z</time></trkpt><trkpt lat="42.08308936571305" lon="11.902508892333184"><ele>248.0</ele><time>2026-04-18T09:03:10.875Z</time></trkpt><trkpt lat="42.083122493163245" lon="11.90241190398506"><ele>248.0</ele><time>2026-04-18T09:03:11.875Z</time></trkpt><trkpt lat="42.08316031440047" lon="11.902340555741727"><ele>248.00000000000003</ele><time>2026-04-18T09:03:12.875Z</time></trkpt><trkpt lat="42.08319472942795" lon="11.902250258343456"><ele>248.0</ele><time>2026-04-18T09:03:13.875Z</time></trkpt><trkpt lat="42.08320972206979" lon="11.902140535984296"><ele>248.66666666666669</ele><time>2026-04-18T09:03:14.874Z</time></trkpt><trkpt lat="42.083211118060014" lon="11.902021306034273"><ele>249.33333333333334</ele><time>2026-04-18T09:03:15.874Z</time></trkpt><trkpt lat="42.08322593312261" lon="11.901914523634353"><ele>250.0</ele><time>2026-04-18T09:03:16.874Z</time></trkpt><trkpt lat="42.083244239576416" lon="11.90181352850288"><ele>250.66666666666669</ele><time>2026-04-18T09:03:17.874Z</time></trkpt><trkpt lat="42.08325025692753" lon="11.901716099439874"><ele>251.33333333333334</ele><time>2026-04-18T09:03:18.874Z</time></trkpt><trkpt lat="42.08326818447857" lon="11.901619876053783"><ele>252.0</ele><time>2026-04-18T09:03:19.874Z</time></trkpt><trkpt lat="42.08329325463522" lon="11.901515142924772"><ele>255.5</ele><time>2026-04-18T09:03:20.874Z</time></trkpt><trkpt lat="42.083338594684136" lon="11.901424617597922"><ele>259.0</ele><time>2026-04-18T09:03:21.874Z</time></trkpt><trkpt lat="42.08338926452279" lon="11.901330494970182"><ele>262.5</ele><time>2026-04-18T09:03:22.874Z</time></trkpt><trkpt lat="42.083442781324315" lon="11.90122819671269"><ele>266.0</ele><time>2026-04-18T09:03:23.874Z</time></trkpt><trkpt lat="42.08348042198954" lon="11.901137198587794"><ele>269.5</ele><time>2026-04-18T09:03:24.874Z</time></trkpt><trkpt lat="42.08353014554215" lon="11.901056650279175"><ele>273.0</ele><time>2026-04-18T09:03:25.874Z</time></trkpt><trkpt lat="42.08360004131216" lon="11.900993106045926"><ele>273.0</ele><time>2026-04-18T09:03:26.874Z</time></trkpt><trkpt lat="42.08367030721649" lon="11.900940319030447"><ele>273.0</ele><time>2026-04-18T09:03:27.873Z</time></trkpt><trkpt lat="42.08374321406934" lon="11.900880871853131"><ele>273.0</ele><time>2026-04-18T09:03:28.873Z</time></trkpt><trkpt lat="42.08381786911405" lon="11.900827985360628"><ele>273.0</ele><time>2026-04-18T09:03:29.873Z</time></trkpt><trkpt lat="42.08389699097028" lon="11.900797538235398"><ele>273.0</ele><time>2026-04-18T09:03:30.873Z</time></trkpt><trkpt lat="42.08397502325449" lon="11.900749336976272"><ele>273.0</ele><time>2026-04-18T09:03:31.873Z</time></trkpt><trkpt lat="42.0840304524122" lon="11.900699777359439"><ele>274.3333333333333</ele><time>2026-04-18T09:03:32.873Z</time></trkpt><trkpt lat="42.08414057079343" lon="11.90065006693745"><ele>275.6666666666667</ele><time>2026-04-18T09:03:34.873Z</time></trkpt><trkpt lat="42.08421909929142" lon="11.900681479416384"><ele>277.0</ele><time>2026-04-18T09:03:35.873Z</time></trkpt><trkpt lat="42.08428736090353" lon="11.900738024410604"><ele>278.33333333333337</ele><time>2026-04-18T09:03:36.873Z</time></trkpt><trkpt lat="42.08434354189798" lon="11.900808663075544"><ele>279.6666666666667</ele><time>2026-04-18T09:03:37.873Z</time></trkpt><trkpt lat="42.08438657844916" lon="11.900894534783935"><ele>281.0</ele><time>2026-04-18T09:03:38.873Z</time></trkpt><trkpt lat="42.084414364460926" lon="11.90097221788078"><ele>282.83333333333337</ele><time>2026-04-18T09:03:39.873Z</time></trkpt><trkpt lat="42.08442464867219" lon="11.90107219377248"><ele>284.6666666666667</ele><time>2026-04-18T09:03:40.873Z</time></trkpt><trkpt lat="42.08443892874158" lon="11.90117558500844"><ele>286.5</ele><time>2026-04-18T09:03:41.873Z</time></trkpt><trkpt lat="42.08447792417527" lon="11.901288288297849"><ele>288.3333333333333</ele><time>2026-04-18T09:03:42.873Z</time></trkpt><trkpt lat="42.08453182713482" lon="11.901377946586635"><ele>290.16666666666663</ele><time>2026-04-18T09:03:43.873Z</time></trkpt><trkpt lat="42.084583770192545" lon="11.901449156332683"><ele>292.0</ele><time>2026-04-18T09:03:44.873Z</time></trkpt><trkpt lat="42.084690223824914" lon="11.90150333189374"><ele>292.0</ele><time>2026-04-18T09:03:46.873Z</time></trkpt><trkpt lat="42.084830949514185" lon="11.901536454410632"><ele>292.0</ele><time>2026-04-18T09:03:48.873Z</time></trkpt><trkpt lat="42.08491656441952" lon="11.901542097925502"><ele>292.0</ele><time>2026-04-18T09:03:49.873Z</time></trkpt><trkpt lat="42.084990481168234" lon="11.901530140391415"><ele>292.0</ele><time>2026-04-18T09:03:50.873Z</time></trkpt><trkpt lat="42.08504492347942" lon="11.901481201977823"><ele>292.0</ele><time>2026-04-18T09:03:51.873Z</time></trkpt><trkpt lat="42.085121644282566" lon="11.901439971512076"><ele>292.66666666666663</ele><time>2026-04-18T09:03:52.873Z</time></trkpt><trkpt lat="42.08519440482487" lon="11.901412026578152"><ele>293.3333333333333</ele><time>2026-04-18T09:03:53.873Z</time></trkpt><trkpt lat="42.085277568947916" lon="11.901387371062198"><ele>294.0</ele><time>2026-04-18T09:03:54.873Z</time></trkpt><trkpt lat="42.08535069442046" lon="11.901372580144944"><ele>294.6666666666667</ele><time>2026-04-18T09:03:55.873Z</time></trkpt><trkpt lat="42.085426111198856" lon="11.901354135175358"><ele>295.33333333333337</ele><time>2026-04-18T09:03:56.873Z</time></trkpt><trkpt lat="42.08551868057595" lon="11.901334010315528"><ele>296.0</ele><time>2026-04-18T09:03:57.873Z</time></trkpt><trkpt lat="42.08561262174258" lon="11.90130366892929"><ele>296.0</ele><time>2026-04-18T09:03:58.872Z</time></trkpt><trkpt lat="42.085702618765644" lon="11.901261761755638"><ele>296.0</ele><time>2026-04-18T09:03:59.872Z</time></trkpt><trkpt lat="42.0857915385834" lon="11.90121280902325"><ele>296.0</ele><time>2026-04-18T09:04:00.872Z</time></trkpt><trkpt lat="42.0858782505042" lon="11.901181865570045"><ele>296.0</ele><time>2026-04-18T09:04:01.872Z</time></trkpt><trkpt lat="42.08596112089011" lon="11.90117041438965"><ele>296.0</ele><time>2026-04-18T09:04:02.872Z</time></trkpt><trkpt lat="42.086046729416296" lon="11.901192658394226"><ele>297.2</ele><time>2026-04-18T09:04:03.872Z</time></trkpt><trkpt lat="42.08613891640572" lon="11.9012456362748"><ele>298.40000000000003</ele><time>2026-04-18T09:04:04.872Z</time></trkpt><trkpt lat="42.086228392947966" lon="11.90131813792153"><ele>299.6</ele><time>2026-04-18T09:04:05.872Z</time></trkpt><trkpt lat="42.08631894742284" lon="11.90139924818233"><ele>300.8</ele><time>2026-04-18T09:04:06.872Z</time></trkpt><trkpt lat="42.0863969715345" lon="11.90147158731393"><ele>302.0</ele><time>2026-04-18T09:04:07.872Z</time></trkpt><trkpt lat="42.086469385477" lon="11.901547218023873"><ele>302.0</ele><time>2026-04-18T09:04:08.872Z</time></trkpt><trkpt lat="42.0865355370771" lon="11.901624856739023"><ele>302.0</ele><time>2026-04-18T09:04:09.872Z</time></trkpt><trkpt lat="42.08659582018044" lon="11.901688433098554"><ele>302.0</ele><time>2026-04-18T09:04:10.872Z</time></trkpt><trkpt lat="42.086659656746065" lon="11.901764244527277"><ele>302.0</ele><time>2026-04-18T09:04:11.872Z</time></trkpt><trkpt lat="42.0867016888486" lon="11.90185816794477"><ele>302.0</ele><time>2026-04-18T09:04:12.872Z</time></trkpt><trkpt lat="42.08676674510493" lon="11.901912378735643"><ele>302.0</ele><time>2026-04-18T09:04:13.872Z</time></trkpt><trkpt lat="42.08683209861705" lon="11.901955607846704"><ele>301.6</ele><time>2026-04-18T09:04:14.872Z</time></trkpt><trkpt lat="42.086900095248026" lon="11.901991950861982"><ele>301.2</ele><time>2026-04-18T09:04:15.872Z</time></trkpt><trkpt lat="42.086980989212606" lon="11.90202406829466"><ele>300.8</ele><time>2026-04-18T09:04:16.872Z</time></trkpt><trkpt lat="42.08707108588295" lon="11.902016123464477"><ele>300.4</ele><time>2026-04-18T09:04:17.872Z</time></trkpt><trkpt lat="42.0872064232572" lon="11.902036712488815"><ele>300.0</ele><time>2026-04-18T09:04:19.872Z</time></trkpt><trkpt lat="42.087292186479296" lon="11.902025556240375"><ele>300.0</ele><time>2026-04-18T09:04:20.872Z</time></trkpt><trkpt lat="42.08737057750539" lon="11.902026329963373"><ele>300.0</ele><time>2026-04-18T09:04:21.872Z</time></trkpt><trkpt lat="42.08745362162674" lon="11.902033028547752"><ele>300.0</ele><time>2026-04-18T09:04:22.872Z</time></trkpt><trkpt lat="42.0875304964801" lon="11.902041552506955"><ele>300.0</ele><time>2026-04-18T09:04:23.872Z</time></trkpt><trkpt lat="42.087642820452785" lon="11.902038928211697"><ele>300.0</ele><time>2026-04-18T09:04:25.872Z</time></trkpt><trkpt lat="42.087745520698704" lon="11.902114194273787"><ele>300.8</ele><time>2026-04-18T09:04:27.872Z</time></trkpt><trkpt lat="42.08785897500833" lon="11.902207680083714"><ele>301.6</ele><time>2026-04-18T09:04:29.872Z</time></trkpt><trkpt lat="42.087921119912885" lon="11.902268555622008"><ele>302.4</ele><time>2026-04-18T09:04:30.872Z</time></trkpt><trkpt lat="42.08799493717053" lon="11.902344788313385"><ele>303.2</ele><time>2026-04-18T09:04:31.872Z</time></trkpt><trkpt lat="42.088074003908034" lon="11.902400544824076"><ele>304.0</ele><time>2026-04-18T09:04:32.872Z</time></trkpt><trkpt lat="42.088136501802545" lon="11.902485220240576"><ele>304.0</ele><time>2026-04-18T09:04:33.872Z</time></trkpt><trkpt lat="42.08820103362852" lon="11.902561041033517"><ele>304.0</ele><time>2026-04-18T09:04:34.872Z</time></trkpt><trkpt lat="42.08826854615341" lon="11.902636852383758"><ele>304.0</ele><time>2026-04-18T09:04:35.872Z</time></trkpt><trkpt lat="42.088350488010626" lon="11.902706423951761"><ele>304.0</ele><time>2026-04-18T09:04:36.872Z</time></trkpt><trkpt lat="42.08843600374804" lon="11.902774732248877"><ele>304.0</ele><time>2026-04-18T09:04:37.872Z</time></trkpt><trkpt lat="42.08852131649803" lon="11.902834303848397"><ele>304.2</ele><time>2026-04-18T09:04:38.872Z</time></trkpt><trkpt lat="42.088603915975916" lon="11.902923006783796"><ele>304.4</ele><time>2026-04-18T09:04:39.872Z</time></trkpt><trkpt lat="42.088682212513106" lon="11.903000190624505"><ele>304.6</ele><time>2026-04-18T09:04:40.872Z</time></trkpt><trkpt lat="42.08876046790571" lon="11.90305179353215"><ele>304.8</ele><time>2026-04-18T09:04:41.872Z</time></trkpt><trkpt lat="42.088848866807304" lon="11.90310839626169"><ele>305.0</ele><time>2026-04-18T09:04:42.872Z</time></trkpt><trkpt lat="42.0889277467058" lon="11.903154423067615"><ele>305.0</ele><time>2026-04-18T09:04:43.872Z</time></trkpt><trkpt lat="42.088993846232746" lon="11.903184614320663"><ele>305.0</ele><time>2026-04-18T09:04:44.872Z</time></trkpt><trkpt lat="42.08906373967008" lon="11.903203200623652"><ele>305.0</ele><time>2026-04-18T09:04:45.872Z</time></trkpt><trkpt lat="42.089128412936695" lon="11.903238738225578"><ele>305.0</ele><time>2026-04-18T09:04:46.872Z</time></trkpt><trkpt lat="42.089189868751646" lon="11.90326067183812"><ele>305.0</ele><time>2026-04-18T09:04:47.872Z</time></trkpt><trkpt lat="42.08929932413742" lon="11.903282607794988"><ele>305.0</ele><time>2026-04-18T09:04:49.872Z</time></trkpt><trkpt lat="42.08940318326999" lon="11.903275723250257"><ele>306.8</ele><time>2026-04-18T09:04:51.872Z</time></trkpt><trkpt lat="42.08953270458257" lon="11.903232811647545"><ele>308.6</ele><time>2026-04-18T09:04:53.872Z</time></trkpt><trkpt lat="42.089600237394826" lon="11.903204291750384"><ele>310.4</ele><time>2026-04-18T09:04:54.871Z</time></trkpt><trkpt lat="42.089674551269034" lon="11.90317170868902"><ele>312.2</ele><time>2026-04-18T09:04:55.871Z</time></trkpt><trkpt lat="42.08974470101437" lon="11.903128674037323"><ele>314.0</ele><time>2026-04-18T09:04:56.871Z</time></trkpt><trkpt lat="42.08983205656771" lon="11.903077834001628"><ele>314.0</ele><time>2026-04-18T09:04:57.87Z</time></trkpt><trkpt lat="42.089923462492905" lon="11.903054044936818"><ele>314.0</ele><time>2026-04-18T09:04:58.869Z</time></trkpt><trkpt lat="42.09000922657745" lon="11.903049525582162"><ele>314.0</ele><time>2026-04-18T09:04:59.869Z</time></trkpt><trkpt lat="42.09008668194579" lon="11.903055967578402"><ele>314.0</ele><time>2026-04-18T09:05:00.87Z</time></trkpt><trkpt lat="42.09017118084075" lon="11.903082812638914"><ele>314.0</ele><time>2026-04-18T09:05:01.869Z</time></trkpt><trkpt lat="42.090269485299864" lon="11.903123997799309"><ele>314.0</ele><time>2026-04-18T09:05:02.869Z</time></trkpt><trkpt lat="42.09036202856827" lon="11.90316483901443"><ele>314.2</ele><time>2026-04-18T09:05:03.87Z</time></trkpt><trkpt lat="42.090461563679696" lon="11.903218407442138"><ele>314.4</ele><time>2026-04-18T09:05:04.869Z</time></trkpt><trkpt lat="42.09055268920708" lon="11.903247547582623"><ele>314.6</ele><time>2026-04-18T09:05:05.869Z</time></trkpt><trkpt lat="42.090657127161116" lon="11.9032782671815"><ele>314.8</ele><time>2026-04-18T09:05:06.869Z</time></trkpt><trkpt lat="42.090770015498876" lon="11.903304102518714"><ele>315.0</ele><time>2026-04-18T09:05:07.869Z</time></trkpt><trkpt lat="42.09087299943296" lon="11.903336020023954"><ele>315.0</ele><time>2026-04-18T09:05:08.869Z</time></trkpt><trkpt lat="42.0909814719278" lon="11.90338174788893"><ele>315.0</ele><time>2026-04-18T09:05:09.869Z</time></trkpt><trkpt lat="42.091083636718785" lon="11.903418013756266"><ele>315.0</ele><time>2026-04-18T09:05:10.87Z</time></trkpt><trkpt lat="42.09117724085065" lon="11.903460109318823"><ele>315.0</ele><time>2026-04-18T09:05:11.87Z</time></trkpt><trkpt lat="42.09124930811785" lon="11.903531337168145"><ele>315.0</ele><time>2026-04-18T09:05:12.87Z</time></trkpt><trkpt lat="42.09132155766879" lon="11.90358843539922"><ele>314.8333333333333</ele><time>2026-04-18T09:05:13.869Z</time></trkpt><trkpt lat="42.09136420655524" lon="11.903685896769957"><ele>314.6666666666667</ele><time>2026-04-18T09:05:14.869Z</time></trkpt><trkpt lat="42.09142680633271" lon="11.903755893602256"><ele>314.5</ele><time>2026-04-18T09:05:15.869Z</time></trkpt><trkpt lat="42.09147300196821" lon="11.903824649457714"><ele>314.33333333333337</ele><time>2026-04-18T09:05:17.869Z</time></trkpt><trkpt lat="42.09152298884238" lon="11.903903432214726"><ele>314.1666666666667</ele><time>2026-04-18T09:05:20.869Z</time></trkpt><trkpt lat="42.091583920520414" lon="11.903967539181522"><ele>314.0</ele><time>2026-04-18T09:05:22.869Z</time></trkpt><trkpt lat="42.091657074332645" lon="11.904076201844944"><ele>314.0</ele><time>2026-04-18T09:05:24.869Z</time></trkpt><trkpt lat="42.09172056389432" lon="11.904154080406975"><ele>314.0</ele><time>2026-04-18T09:05:25.869Z</time></trkpt><trkpt lat="42.09178868562574" lon="11.904246833959208"><ele>314.0</ele><time>2026-04-18T09:05:26.869Z</time></trkpt><trkpt lat="42.09185012849523" lon="11.904323584563548"><ele>314.0</ele><time>2026-04-18T09:05:27.869Z</time></trkpt><trkpt lat="42.09190737351694" lon="11.904415926271412"><ele>314.0</ele><time>2026-04-18T09:05:28.869Z</time></trkpt><trkpt lat="42.09198260790779" lon="11.904511252661381"><ele>311.8</ele><time>2026-04-18T09:05:29.869Z</time></trkpt><trkpt lat="42.092057185010745" lon="11.90461952802865"><ele>309.59999999999997</ele><time>2026-04-18T09:05:30.869Z</time></trkpt><trkpt lat="42.09213622705852" lon="11.904728772981436"><ele>307.4</ele><time>2026-04-18T09:05:31.869Z</time></trkpt><trkpt lat="42.092218461675984" lon="11.904834899020116"><ele>305.2</ele><time>2026-04-18T09:05:32.869Z</time></trkpt><trkpt lat="42.09229390582185" lon="11.904933777978355"><ele>303.0</ele><time>2026-04-18T09:05:33.869Z</time></trkpt><trkpt lat="42.09236514825277" lon="11.905031115225299"><ele>303.4</ele><time>2026-04-18T09:05:34.869Z</time></trkpt><trkpt lat="42.09243494396597" lon="11.905111284187493"><ele>303.8</ele><time>2026-04-18T09:05:35.869Z</time></trkpt><trkpt lat="42.09250223605445" lon="11.905185078602594"><ele>304.2</ele><time>2026-04-18T09:05:36.869Z</time></trkpt><trkpt lat="42.092583995900206" lon="11.90525167380995"><ele>304.6</ele><time>2026-04-18T09:05:37.869Z</time></trkpt><trkpt lat="42.09269047182782" lon="11.905303369070923"><ele>305.0</ele><time>2026-04-18T09:05:38.869Z</time></trkpt><trkpt lat="42.0927924189412" lon="11.905331553160805"><ele>305.0</ele><time>2026-04-18T09:05:39.869Z</time></trkpt><trkpt lat="42.092897787041714" lon="11.905372483878256"><ele>305.0</ele><time>2026-04-18T09:05:40.869Z</time></trkpt><trkpt lat="42.09301108008273" lon="11.90541696811047"><ele>305.0</ele><time>2026-04-18T09:05:41.869Z</time></trkpt><trkpt lat="42.09312990103979" lon="11.905441017739216"><ele>305.0</ele><time>2026-04-18T09:05:42.869Z</time></trkpt><trkpt lat="42.09324739991462" lon="11.905475069777072"><ele>305.75</ele><time>2026-04-18T09:05:43.869Z</time></trkpt><trkpt lat="42.093358797203415" lon="11.905542419050864"><ele>306.5</ele><time>2026-04-18T09:05:44.869Z</time></trkpt><trkpt lat="42.09347338005346" lon="11.905617018217379"><ele>307.25</ele><time>2026-04-18T09:05:45.869Z</time></trkpt><trkpt lat="42.09359121642242" lon="11.905682779858086"><ele>308.0</ele><time>2026-04-18T09:05:46.869Z</time></trkpt><trkpt lat="42.09370648951918" lon="11.90573117010072"><ele>308.0</ele><time>2026-04-18T09:05:47.869Z</time></trkpt><trkpt lat="42.09382034454303" lon="11.905757497630702"><ele>308.0</ele><time>2026-04-18T09:05:48.869Z</time></trkpt><trkpt lat="42.09393277154572" lon="11.905779875631293"><ele>308.0</ele><time>2026-04-18T09:05:49.869Z</time></trkpt><trkpt lat="42.09402734167853" lon="11.905844782652897"><ele>308.0</ele><time>2026-04-18T09:05:50.869Z</time></trkpt><trkpt lat="42.0941299695037" lon="11.905930617165366"><ele>308.6</ele><time>2026-04-18T09:05:51.869Z</time></trkpt><trkpt lat="42.094231523963295" lon="11.906004325781748"><ele>309.20000000000005</ele><time>2026-04-18T09:05:52.869Z</time></trkpt><trkpt lat="42.09432438782424" lon="11.906080796370505"><ele>309.8</ele><time>2026-04-18T09:05:53.869Z</time></trkpt><trkpt lat="42.09440079379881" lon="11.906159915967306"><ele>310.40000000000003</ele><time>2026-04-18T09:05:54.869Z</time></trkpt><trkpt lat="42.09447857956293" lon="11.906235811872085"><ele>311.0</ele><time>2026-04-18T09:05:55.869Z</time></trkpt><trkpt lat="42.09454817099836" lon="11.906318270063505"><ele>311.0</ele><time>2026-04-18T09:05:56.869Z</time></trkpt><trkpt lat="42.094600590618676" lon="11.906406690055686"><ele>311.0</ele><time>2026-04-18T09:05:57.869Z</time></trkpt><trkpt lat="42.09465810073911" lon="11.90654071339087"><ele>311.0</ele><time>2026-04-18T09:05:59.869Z</time></trkpt><trkpt lat="42.09467595985333" lon="11.90662516190569"><ele>311.0</ele><time>2026-04-18T09:06:00.869Z</time></trkpt><trkpt lat="42.094695356924035" lon="11.906712712519868"><ele>311.0</ele><time>2026-04-18T09:06:01.869Z</time></trkpt><trkpt lat="42.09472294137603" lon="11.906807135879886"><ele>311.0</ele><time>2026-04-18T09:06:02.869Z</time></trkpt><trkpt lat="42.094749417714006" lon="11.906899390104984"><ele>311.0</ele><time>2026-04-18T09:06:03.869Z</time></trkpt><trkpt lat="42.09478422974351" lon="11.90700614528814"><ele>311.0</ele><time>2026-04-18T09:06:04.869Z</time></trkpt><trkpt lat="42.09482001334425" lon="11.90712979141604"><ele>311.0</ele><time>2026-04-18T09:06:05.869Z</time></trkpt><trkpt lat="42.094862427468605" lon="11.907253314165944"><ele>311.0</ele><time>2026-04-18T09:06:06.869Z</time></trkpt><trkpt lat="42.094901075989284" lon="11.90734747743464"><ele>311.0</ele><time>2026-04-18T09:06:07.869Z</time></trkpt><trkpt lat="42.09493333700005" lon="11.907426091921009"><ele>311.0</ele><time>2026-04-18T09:06:08.869Z</time></trkpt><trkpt lat="42.094988309596665" lon="11.90753461876564"><ele>313.6</ele><time>2026-04-18T09:06:10.869Z</time></trkpt><trkpt lat="42.0950572627558" lon="11.907645156237031"><ele>316.20000000000005</ele><time>2026-04-18T09:06:12.869Z</time></trkpt><trkpt lat="42.09511339198094" lon="11.907715276953537"><ele>318.79999999999995</ele><time>2026-04-18T09:06:13.869Z</time></trkpt><trkpt lat="42.09518139247738" lon="11.90779002058297"><ele>321.4</ele><time>2026-04-18T09:06:14.868Z</time></trkpt><trkpt lat="42.09526401878982" lon="11.907857078209924"><ele>324.0</ele><time>2026-04-18T09:06:15.868Z</time></trkpt><trkpt lat="42.09532415715885" lon="11.90794823425446"><ele>324.0</ele><time>2026-04-18T09:06:16.868Z</time></trkpt><trkpt lat="42.095381246294" lon="11.908015030214528"><ele>324.0</ele><time>2026-04-18T09:06:17.868Z</time></trkpt><trkpt lat="42.09545010200054" lon="11.908066929714888"><ele>324.0</ele><time>2026-04-18T09:06:18.868Z</time></trkpt><trkpt lat="42.09549287653433" lon="11.908134453940116"><ele>324.0</ele><time>2026-04-18T09:06:19.868Z</time></trkpt><trkpt lat="42.095553921290396" lon="11.908207420809715"><ele>324.0</ele><time>2026-04-18T09:06:20.868Z</time></trkpt><trkpt lat="42.09562243153484" lon="11.90828714644381"><ele>324.0</ele><time>2026-04-18T09:06:21.868Z</time></trkpt><trkpt lat="42.0956846752912" lon="11.908381677465195"><ele>324.1666666666667</ele><time>2026-04-18T09:06:22.868Z</time></trkpt><trkpt lat="42.09574096538455" lon="11.908474828751954"><ele>324.3333333333333</ele><time>2026-04-18T09:06:23.868Z</time></trkpt><trkpt lat="42.09578939895766" lon="11.90855811491151"><ele>324.5</ele><time>2026-04-18T09:06:24.868Z</time></trkpt><trkpt lat="42.09583984468352" lon="11.908620639924317"><ele>324.66666666666663</ele><time>2026-04-18T09:06:25.868Z</time></trkpt><trkpt lat="42.09589926166361" lon="11.908677519878468"><ele>324.8333333333333</ele><time>2026-04-18T09:06:26.868Z</time></trkpt><trkpt lat="42.095963550854414" lon="11.908736625163883"><ele>325.0</ele><time>2026-04-18T09:06:27.868Z</time></trkpt><trkpt lat="42.09604015228676" lon="11.908885717001967"><ele>326.66666666666663</ele><time>2026-04-18T09:06:29.868Z</time></trkpt><trkpt lat="42.09607912014518" lon="11.908959541701709"><ele>328.3333333333333</ele><time>2026-04-18T09:06:30.868Z</time></trkpt><trkpt lat="42.09612470058342" lon="11.909039640358014"><ele>330.0</ele><time>2026-04-18T09:06:31.868Z</time></trkpt><trkpt lat="42.09616403134195" lon="11.909121155852569"><ele>331.6666666666667</ele><time>2026-04-18T09:06:32.868Z</time></trkpt><trkpt lat="42.09621014969878" lon="11.909211513548213"><ele>333.33333333333337</ele><time>2026-04-18T09:06:33.868Z</time></trkpt><trkpt lat="42.09626355848831" lon="11.909306037059261"><ele>335.0</ele><time>2026-04-18T09:06:34.868Z</time></trkpt><trkpt lat="42.0963080488749" lon="11.909398957707875"><ele>335.0</ele><time>2026-04-18T09:06:35.868Z</time></trkpt><trkpt lat="42.096370117026964" lon="11.909487613345902"><ele>335.0</ele><time>2026-04-18T09:06:36.868Z</time></trkpt><trkpt lat="42.09640778583535" lon="11.909570682807006"><ele>335.0</ele><time>2026-04-18T09:06:37.868Z</time></trkpt><trkpt lat="42.09645239321461" lon="11.909642349083606"><ele>335.0</ele><time>2026-04-18T09:06:38.868Z</time></trkpt><trkpt lat="42.096493086516794" lon="11.909731171519313"><ele>335.0</ele><time>2026-04-18T09:06:39.868Z</time></trkpt><trkpt lat="42.0965336288396" lon="11.909816357581642"><ele>335.0</ele><time>2026-04-18T09:06:40.868Z</time></trkpt><trkpt lat="42.096572867501706" lon="11.90989946759491"><ele>337.0</ele><time>2026-04-18T09:06:41.868Z</time></trkpt><trkpt lat="42.09661007796644" lon="11.90999019291964"><ele>339.0</ele><time>2026-04-18T09:06:42.868Z</time></trkpt><trkpt lat="42.09663962337711" lon="11.910074328126623"><ele>341.0</ele><time>2026-04-18T09:06:43.868Z</time></trkpt><trkpt lat="42.096689700920706" lon="11.910205116445256"><ele>343.0</ele><time>2026-04-18T09:06:45.868Z</time></trkpt><trkpt lat="42.09670973995622" lon="11.910342804383047"><ele>345.0</ele><time>2026-04-18T09:06:47.868Z</time></trkpt><trkpt lat="42.09675568796914" lon="11.91051648210879"><ele>345.2857142857143</ele><time>2026-04-18T09:06:49.868Z</time></trkpt><trkpt lat="42.096782785727136" lon="11.910605719820074"><ele>345.57142857142856</ele><time>2026-04-18T09:06:50.868Z</time></trkpt><trkpt lat="42.096810300058706" lon="11.910684351996283"><ele>345.8571428571429</ele><time>2026-04-18T09:06:51.868Z</time></trkpt><trkpt lat="42.096823977116706" lon="11.910773453140056"><ele>346.1428571428571</ele><time>2026-04-18T09:06:52.868Z</time></trkpt><trkpt lat="42.09682740513234" lon="11.91086652287096"><ele>346.4285714285714</ele><time>2026-04-18T09:06:53.868Z</time></trkpt><trkpt lat="42.096824979363625" lon="11.910952856753248"><ele>346.7142857142857</ele><time>2026-04-18T09:06:54.868Z</time></trkpt><trkpt lat="42.09682463388137" lon="11.91103842069752"><ele>347.0</ele><time>2026-04-18T09:06:55.868Z</time></trkpt><trkpt lat="42.096840064019034" lon="11.911126781426626"><ele>349.0</ele><time>2026-04-18T09:06:56.868Z</time></trkpt><trkpt lat="42.09686122595419" lon="11.911211039981323"><ele>351.0</ele><time>2026-04-18T09:06:57.868Z</time></trkpt><trkpt lat="42.09689425378612" lon="11.911378152142596"><ele>353.0</ele><time>2026-04-18T09:06:59.868Z</time></trkpt><trkpt lat="42.096925853978256" lon="11.911458442380049"><ele>355.0</ele><time>2026-04-18T09:07:00.868Z</time></trkpt><trkpt lat="42.096965950116214" lon="11.911530725084578"><ele>357.0</ele><time>2026-04-18T09:07:01.868Z</time></trkpt><trkpt lat="42.09703001736948" lon="11.911585380594946"><ele>359.0</ele><time>2026-04-18T09:07:02.868Z</time></trkpt><trkpt lat="42.09709897705326" lon="11.911640044068669"><ele>359.0</ele><time>2026-04-18T09:07:03.865Z</time></trkpt><trkpt lat="42.09714933015977" lon="11.911696653097671"><ele>359.0</ele><time>2026-04-18T09:07:04.866Z</time></trkpt><trkpt lat="42.09721761732182" lon="11.911844529929702"><ele>359.0</ele><time>2026-04-18T09:07:06.866Z</time></trkpt><trkpt lat="42.097229337808656" lon="11.912007031496145"><ele>359.0</ele><time>2026-04-18T09:07:08.865Z</time></trkpt><trkpt lat="42.09722190925422" lon="11.912097277452297"><ele>359.0</ele><time>2026-04-18T09:07:09.866Z</time></trkpt><trkpt lat="42.09721760841028" lon="11.912194422208824"><ele>360.0</ele><time>2026-04-18T09:07:10.866Z</time></trkpt><trkpt lat="42.09722680646599" lon="11.912329074066516"><ele>361.0</ele><time>2026-04-18T09:07:12.866Z</time></trkpt><trkpt lat="42.09722188906687" lon="11.912432113724137"><ele>362.0</ele><time>2026-04-18T09:07:14.865Z</time></trkpt><trkpt lat="42.09726688669061" lon="11.91253278423934"><ele>363.0</ele><time>2026-04-18T09:07:17.865Z</time></trkpt><trkpt lat="42.09731469233676" lon="11.912656320773086"><ele>364.0</ele><time>2026-04-18T09:07:19.865Z</time></trkpt><trkpt lat="42.09735884863477" lon="11.912749306430177"><ele>365.0</ele><time>2026-04-18T09:07:20.865Z</time></trkpt><trkpt lat="42.09739343772191" lon="11.912830531203475"><ele>365.33333333333337</ele><time>2026-04-18T09:07:21.865Z</time></trkpt><trkpt lat="42.0974662145773" lon="11.912948455683821"><ele>365.6666666666667</ele><time>2026-04-18T09:07:23.865Z</time></trkpt><trkpt lat="42.0975216443341" lon="11.913015020558765"><ele>366.0</ele><time>2026-04-18T09:07:25.865Z</time></trkpt><trkpt lat="42.09756692546114" lon="11.913086574697935"><ele>366.3333333333333</ele><time>2026-04-18T09:07:27.865Z</time></trkpt><trkpt lat="42.09756928633498" lon="11.913171912716168"><ele>366.66666666666663</ele><time>2026-04-18T09:07:29.865Z</time></trkpt><trkpt lat="42.097577803115755" lon="11.913335232088702"><ele>367.0</ele><time>2026-04-18T09:07:38.865Z</time></trkpt><trkpt lat="42.09760167830269" lon="11.913436136346439"><ele>367.0</ele><time>2026-04-18T09:07:39.865Z</time></trkpt><trkpt lat="42.09763587676756" lon="11.913528008685947"><ele>367.0</ele><time>2026-04-18T09:07:40.865Z</time></trkpt><trkpt lat="42.09765357054585" lon="11.913621401981228"><ele>367.0</ele><time>2026-04-18T09:07:41.865Z</time></trkpt><trkpt lat="42.09767429384288" lon="11.913704103164928"><ele>367.0</ele><time>2026-04-18T09:07:42.865Z</time></trkpt><trkpt lat="42.09770780165217" lon="11.913810331295373"><ele>367.0</ele><time>2026-04-18T09:07:43.865Z</time></trkpt><trkpt lat="42.09774490581302" lon="11.913904534902121"><ele>367.0</ele><time>2026-04-18T09:07:44.865Z</time></trkpt><trkpt lat="42.09777313443205" lon="11.91400804872815"><ele>367.0</ele><time>2026-04-18T09:07:45.865Z</time></trkpt><trkpt lat="42.097812129037905" lon="11.914093799676493"><ele>367.0</ele><time>2026-04-18T09:07:46.865Z</time></trkpt><trkpt lat="42.097870414243616" lon="11.914234121525174"><ele>367.0</ele><time>2026-04-18T09:07:48.865Z</time></trkpt><trkpt lat="42.09791730321082" lon="11.914315633791077"><ele>367.0</ele><time>2026-04-18T09:07:49.865Z</time></trkpt><trkpt lat="42.09798359744324" lon="11.91441984543157"><ele>367.0</ele><time>2026-04-18T09:07:50.866Z</time></trkpt><trkpt lat="42.098056573301015" lon="11.91452252103165"><ele>367.20000000000005</ele><time>2026-04-18T09:07:51.866Z</time></trkpt><trkpt lat="42.09813415974025" lon="11.914608321811635"><ele>367.4</ele><time>2026-04-18T09:07:52.866Z</time></trkpt><trkpt lat="42.09821073920024" lon="11.91468468408578"><ele>367.6</ele><time>2026-04-18T09:07:53.866Z</time></trkpt><trkpt lat="42.0982880241379" lon="11.91475758080595"><ele>367.79999999999995</ele><time>2026-04-18T09:07:54.866Z</time></trkpt><trkpt lat="42.09835278480753" lon="11.914846085400022"><ele>368.0</ele><time>2026-04-18T09:07:55.866Z</time></trkpt><trkpt lat="42.09840314530246" lon="11.914946162584284"><ele>366.4</ele><time>2026-04-18T09:07:56.866Z</time></trkpt><trkpt lat="42.09845057226573" lon="11.915047598782687"><ele>364.79999999999995</ele><time>2026-04-18T09:07:57.866Z</time></trkpt><trkpt lat="42.09849901928942" lon="11.915153298777147"><ele>363.2</ele><time>2026-04-18T09:07:58.866Z</time></trkpt><trkpt lat="42.0985682207994" lon="11.915233860862813"><ele>361.6</ele><time>2026-04-18T09:07:59.866Z</time></trkpt><trkpt lat="42.09863539680803" lon="11.91532765967906"><ele>360.0</ele><time>2026-04-18T09:08:00.866Z</time></trkpt><trkpt lat="42.09872908653179" lon="11.915379678303163"><ele>359.2</ele><time>2026-04-18T09:08:01.866Z</time></trkpt><trkpt lat="42.09882833008225" lon="11.915420970724801"><ele>358.4</ele><time>2026-04-18T09:08:02.866Z</time></trkpt><trkpt lat="42.09893926208079" lon="11.915455406572944"><ele>357.6</ele><time>2026-04-18T09:08:03.866Z</time></trkpt><trkpt lat="42.09904220795729" lon="11.915474398656619"><ele>356.8</ele><time>2026-04-18T09:08:04.866Z</time></trkpt><trkpt lat="42.09914519374837" lon="11.915504541856533"><ele>356.0</ele><time>2026-04-18T09:08:05.866Z</time></trkpt><trkpt lat="42.09925220069474" lon="11.915525343460935"><ele>355.0</ele><time>2026-04-18T09:08:06.866Z</time></trkpt><trkpt lat="42.09936590437448" lon="11.915548652951792"><ele>354.0</ele><time>2026-04-18T09:08:07.866Z</time></trkpt><trkpt lat="42.099476486104884" lon="11.915550686679692"><ele>353.0</ele><time>2026-04-18T09:08:08.866Z</time></trkpt><trkpt lat="42.09957737368651" lon="11.915555778844373"><ele>352.0</ele><time>2026-04-18T09:08:09.866Z</time></trkpt><trkpt lat="42.09967235448286" lon="11.915563051782874"><ele>351.0</ele><time>2026-04-18T09:08:10.865Z</time></trkpt><trkpt lat="42.09978237431623" lon="11.915595594871295"><ele>351.0</ele><time>2026-04-18T09:08:11.865Z</time></trkpt><trkpt lat="42.099894854834936" lon="11.915633082418514"><ele>351.0</ele><time>2026-04-18T09:08:12.865Z</time></trkpt><trkpt lat="42.10000047291473" lon="11.915676993866608"><ele>351.0</ele><time>2026-04-18T09:08:13.865Z</time></trkpt><trkpt lat="42.10010690902424" lon="11.915733879631297"><ele>351.0</ele><time>2026-04-18T09:08:14.865Z</time></trkpt><trkpt lat="42.10020842574041" lon="11.91579910533732"><ele>351.5</ele><time>2026-04-18T09:08:15.865Z</time></trkpt><trkpt lat="42.10031103034104" lon="11.91586614260214"><ele>352.0</ele><time>2026-04-18T09:08:16.865Z</time></trkpt><trkpt lat="42.10041707026373" lon="11.915931511289651"><ele>352.5</ele><time>2026-04-18T09:08:17.865Z</time></trkpt><trkpt lat="42.10052855980501" lon="11.91600279531175"><ele>353.0</ele><time>2026-04-18T09:08:18.865Z</time></trkpt><trkpt lat="42.100637484897476" lon="11.916069885927786"><ele>351.0</ele><time>2026-04-18T09:08:19.865Z</time></trkpt><trkpt lat="42.10074665052093" lon="11.916127108389007"><ele>349.0</ele><time>2026-04-18T09:08:20.865Z</time></trkpt><trkpt lat="42.100868133913934" lon="11.91617933537128"><ele>347.0</ele><time>2026-04-18T09:08:21.865Z</time></trkpt><trkpt lat="42.10097753275687" lon="11.916236861121616"><ele>345.0</ele><time>2026-04-18T09:08:22.865Z</time></trkpt><trkpt lat="42.10107736211593" lon="11.916282668513649"><ele>345.0</ele><time>2026-04-18T09:08:23.865Z</time></trkpt><trkpt lat="42.10118370168918" lon="11.916316336359138"><ele>345.0</ele><time>2026-04-18T09:08:24.865Z</time></trkpt><trkpt lat="42.101291491242705" lon="11.916380935232432"><ele>345.0</ele><time>2026-04-18T09:08:25.865Z</time></trkpt><trkpt lat="42.1014014750275" lon="11.916441473668657"><ele>345.0</ele><time>2026-04-18T09:08:26.865Z</time></trkpt><trkpt lat="42.10151295795408" lon="11.916509030641281"><ele>345.8</ele><time>2026-04-18T09:08:27.865Z</time></trkpt><trkpt lat="42.101618281684964" lon="11.916590762560425"><ele>346.6</ele><time>2026-04-18T09:08:28.865Z</time></trkpt><trkpt lat="42.10171135017502" lon="11.91667001836403"><ele>347.4</ele><time>2026-04-18T09:08:29.865Z</time></trkpt><trkpt lat="42.10179942173376" lon="11.916742736019128"><ele>348.2</ele><time>2026-04-18T09:08:30.865Z</time></trkpt><trkpt lat="42.10189078385606" lon="11.91681651894297"><ele>349.0</ele><time>2026-04-18T09:08:31.865Z</time></trkpt><trkpt lat="42.10198569299325" lon="11.916904823014297"><ele>346.79999999999995</ele><time>2026-04-18T09:08:32.865Z</time></trkpt><trkpt lat="42.10207053858233" lon="11.916997498713746"><ele>344.59999999999997</ele><time>2026-04-18T09:08:33.865Z</time></trkpt><trkpt lat="42.10215323948228" lon="11.917096910472921"><ele>342.4</ele><time>2026-04-18T09:08:34.865Z</time></trkpt><trkpt lat="42.10223777082524" lon="11.917203858584854"><ele>340.2</ele><time>2026-04-18T09:08:35.865Z</time></trkpt><trkpt lat="42.102315274074854" lon="11.91730920898265"><ele>338.0</ele><time>2026-04-18T09:08:36.865Z</time></trkpt><trkpt lat="42.10238995520626" lon="11.917424470162864"><ele>338.4</ele><time>2026-04-18T09:08:37.865Z</time></trkpt><trkpt lat="42.102469931799526" lon="11.917529711308802"><ele>338.79999999999995</ele><time>2026-04-18T09:08:38.865Z</time></trkpt><trkpt lat="42.10255589029538" lon="11.917622934870208"><ele>339.2</ele><time>2026-04-18T09:08:39.865Z</time></trkpt><trkpt lat="42.10263214011361" lon="11.917710944252244"><ele>339.6</ele><time>2026-04-18T09:08:40.865Z</time></trkpt><trkpt lat="42.10270286068087" lon="11.917792342983997"><ele>340.0</ele><time>2026-04-18T09:08:41.865Z</time></trkpt><trkpt lat="42.102765102666886" lon="11.917856921700817"><ele>340.0</ele><time>2026-04-18T09:08:42.865Z</time></trkpt><trkpt lat="42.10282791356865" lon="11.91791300936496"><ele>340.0</ele><time>2026-04-18T09:08:43.865Z</time></trkpt><trkpt lat="42.102884870883656" lon="11.91797748790279"><ele>340.0</ele><time>2026-04-18T09:08:44.865Z</time></trkpt><trkpt lat="42.102935520067106" lon="11.91805442978481"><ele>340.0</ele><time>2026-04-18T09:08:45.865Z</time></trkpt><trkpt lat="42.10299357212069" lon="11.918126913182904"><ele>340.0</ele><time>2026-04-18T09:08:46.865Z</time></trkpt><trkpt lat="42.1030419831669" lon="11.918222305444727"><ele>340.0</ele><time>2026-04-18T09:08:47.865Z</time></trkpt><trkpt lat="42.10309677735121" lon="11.918295535429358"><ele>340.0</ele><time>2026-04-18T09:08:48.865Z</time></trkpt><trkpt lat="42.1031568365288" lon="11.91838888211202"><ele>340.0</ele><time>2026-04-18T09:08:49.865Z</time></trkpt><trkpt lat="42.10320916975587" lon="11.918486685242604"><ele>340.0</ele><time>2026-04-18T09:08:50.865Z</time></trkpt><trkpt lat="42.10326752941561" lon="11.918579269739752"><ele>340.0</ele><time>2026-04-18T09:08:51.865Z</time></trkpt><trkpt lat="42.10333110650198" lon="11.918675613195317"><ele>340.0</ele><time>2026-04-18T09:08:52.865Z</time></trkpt><trkpt lat="42.10340266253883" lon="11.91877963428581"><ele>339.4</ele><time>2026-04-18T09:08:53.865Z</time></trkpt><trkpt lat="42.10347077457541" lon="11.918887847705117"><ele>338.8</ele><time>2026-04-18T09:08:54.865Z</time></trkpt><trkpt lat="42.103533489491944" lon="11.919012332180005"><ele>338.20000000000005</ele><time>2026-04-18T09:08:55.865Z</time></trkpt><trkpt lat="42.103585412384255" lon="11.91913999195945"><ele>337.6</ele><time>2026-04-18T09:08:56.865Z</time></trkpt><trkpt lat="42.103626314278124" lon="11.91925621461217"><ele>337.0</ele><time>2026-04-18T09:08:57.865Z</time></trkpt><trkpt lat="42.10363678283536" lon="11.91938639670657"><ele>336.8</ele><time>2026-04-18T09:08:58.865Z</time></trkpt><trkpt lat="42.10365134465183" lon="11.919515270433308"><ele>336.6</ele><time>2026-04-18T09:08:59.865Z</time></trkpt><trkpt lat="42.10366733019266" lon="11.919653855489702"><ele>336.40000000000003</ele><time>2026-04-18T09:09:00.865Z</time></trkpt><trkpt lat="42.1036774256903" lon="11.919783746105429"><ele>336.20000000000005</ele><time>2026-04-18T09:09:01.865Z</time></trkpt><trkpt lat="42.10367924553332" lon="11.91992285939027"><ele>336.0</ele><time>2026-04-18T09:09:02.865Z</time></trkpt><trkpt lat="42.10368348712486" lon="11.920062643486181"><ele>336.4</ele><time>2026-04-18T09:09:03.865Z</time></trkpt><trkpt lat="42.103665313538016" lon="11.920204620421696"><ele>336.8</ele><time>2026-04-18T09:09:04.865Z</time></trkpt><trkpt lat="42.10365320834004" lon="11.920342572213654"><ele>337.2</ele><time>2026-04-18T09:09:05.865Z</time></trkpt><trkpt lat="42.10365273043362" lon="11.920482299519636"><ele>337.59999999999997</ele><time>2026-04-18T09:09:06.865Z</time></trkpt><trkpt lat="42.10365368152008" lon="11.920612342131587"><ele>338.0</ele><time>2026-04-18T09:09:07.865Z</time></trkpt><trkpt lat="42.10365293687522" lon="11.920732272988458"><ele>338.0</ele><time>2026-04-18T09:09:08.863Z</time></trkpt><trkpt lat="42.103660545351644" lon="11.92086631138446"><ele>338.0</ele><time>2026-04-18T09:09:09.863Z</time></trkpt><trkpt lat="42.10367263661488" lon="11.920999803021413"><ele>338.0</ele><time>2026-04-18T09:09:10.863Z</time></trkpt><trkpt lat="42.10368142013625" lon="11.921121249786898"><ele>338.0</ele><time>2026-04-18T09:09:11.863Z</time></trkpt><trkpt lat="42.10369207883321" lon="11.921234535444176"><ele>338.0</ele><time>2026-04-18T09:09:12.863Z</time></trkpt><trkpt lat="42.10370700394806" lon="11.92134083208495"><ele>338.5</ele><time>2026-04-18T09:09:13.863Z</time></trkpt><trkpt lat="42.103720225036994" lon="11.921442801699587"><ele>339.0</ele><time>2026-04-18T09:09:14.864Z</time></trkpt><trkpt lat="42.103732388385865" lon="11.9215427349139"><ele>339.5</ele><time>2026-04-18T09:09:15.863Z</time></trkpt><trkpt lat="42.10374453690319" lon="11.921648148209078"><ele>340.0</ele><time>2026-04-18T09:09:16.863Z</time></trkpt><trkpt lat="42.10375750915339" lon="11.921758744305386"><ele>340.5</ele><time>2026-04-18T09:09:17.863Z</time></trkpt><trkpt lat="42.10375945220179" lon="11.921864620526208"><ele>341.0</ele><time>2026-04-18T09:09:18.863Z</time></trkpt><trkpt lat="42.10376766762206" lon="11.921963758024448"><ele>341.6</ele><time>2026-04-18T09:09:19.863Z</time></trkpt><trkpt lat="42.10378568086476" lon="11.922069692864774"><ele>342.20000000000005</ele><time>2026-04-18T09:09:20.864Z</time></trkpt><trkpt lat="42.10379287587264" lon="11.922188744714123"><ele>342.79999999999995</ele><time>2026-04-18T09:09:21.863Z</time></trkpt><trkpt lat="42.10381026603221" lon="11.922323832485937"><ele>343.4</ele><time>2026-04-18T09:09:22.863Z</time></trkpt><trkpt lat="42.1038259970485" lon="11.922448173668693"><ele>344.0</ele><time>2026-04-18T09:09:23.863Z</time></trkpt><trkpt lat="42.10384714154307" lon="11.922562435411791"><ele>344.0</ele><time>2026-04-18T09:09:24.863Z</time></trkpt><trkpt lat="42.103865821201616" lon="11.922686328801271"><ele>344.0</ele><time>2026-04-18T09:09:25.863Z</time></trkpt><trkpt lat="42.10388165895272" lon="11.922807801212354"><ele>344.0</ele><time>2026-04-18T09:09:26.863Z</time></trkpt><trkpt lat="42.10389421867542" lon="11.922919980309478"><ele>344.0</ele><time>2026-04-18T09:09:27.863Z</time></trkpt><trkpt lat="42.10390661270815" lon="11.92305235013387"><ele>344.0</ele><time>2026-04-18T09:09:28.863Z</time></trkpt><trkpt lat="42.103924364691274" lon="11.923179314173302"><ele>344.0</ele><time>2026-04-18T09:09:29.863Z</time></trkpt><trkpt lat="42.10394587908743" lon="11.923307780997298"><ele>344.0</ele><time>2026-04-18T09:09:30.863Z</time></trkpt><trkpt lat="42.10395169721659" lon="11.92344688627263"><ele>344.0</ele><time>2026-04-18T09:09:31.863Z</time></trkpt><trkpt lat="42.10396537472295" lon="11.923591166683144"><ele>344.0</ele><time>2026-04-18T09:09:32.863Z</time></trkpt><trkpt lat="42.10395842959592" lon="11.92373358364671"><ele>344.0</ele><time>2026-04-18T09:09:33.863Z</time></trkpt><trkpt lat="42.103968696420985" lon="11.92388535487164"><ele>344.25</ele><time>2026-04-18T09:09:34.863Z</time></trkpt><trkpt lat="42.10397585937308" lon="11.924028990789234"><ele>344.5</ele><time>2026-04-18T09:09:35.863Z</time></trkpt><trkpt lat="42.103978578310965" lon="11.92418945289093"><ele>344.75</ele><time>2026-04-18T09:09:36.863Z</time></trkpt><trkpt lat="42.10397052714907" lon="11.924346082428377"><ele>345.0</ele><time>2026-04-18T09:09:37.863Z</time></trkpt><trkpt lat="42.10396419956119" lon="11.924505370628594"><ele>345.5</ele><time>2026-04-18T09:09:38.863Z</time></trkpt><trkpt lat="42.10397912797443" lon="11.924669936557526"><ele>346.0</ele><time>2026-04-18T09:09:39.863Z</time></trkpt><trkpt lat="42.104005280451574" lon="11.924847259311534"><ele>346.5</ele><time>2026-04-18T09:09:40.863Z</time></trkpt><trkpt lat="42.10401410182183" lon="11.925023676698727"><ele>347.0</ele><time>2026-04-18T09:09:41.863Z</time></trkpt><trkpt lat="42.10402125007114" lon="11.925217210696184"><ele>347.25</ele><time>2026-04-18T09:09:42.863Z</time></trkpt><trkpt lat="42.104027333085604" lon="11.925386872965198"><ele>347.5</ele><time>2026-04-18T09:09:43.863Z</time></trkpt><trkpt lat="42.104041213183265" lon="11.925551810412616"><ele>347.75</ele><time>2026-04-18T09:09:44.863Z</time></trkpt><trkpt lat="42.10404198634528" lon="11.925723702314395"><ele>348.0</ele><time>2026-04-18T09:09:45.863Z</time></trkpt><trkpt lat="42.104042111191205" lon="11.925905324545731"><ele>348.0</ele><time>2026-04-18T09:09:46.863Z</time></trkpt><trkpt lat="42.10405805042889" lon="11.92608401910228"><ele>348.0</ele><time>2026-04-18T09:09:47.863Z</time></trkpt><trkpt lat="42.10406669526533" lon="11.926242681344496"><ele>348.0</ele><time>2026-04-18T09:09:48.863Z</time></trkpt><trkpt lat="42.104072912779436" lon="11.926395038466165"><ele>348.0</ele><time>2026-04-18T09:09:49.863Z</time></trkpt><trkpt lat="42.10408026106993" lon="11.926547180014126"><ele>351.25</ele><time>2026-04-18T09:09:50.863Z</time></trkpt><trkpt lat="42.1040839963151" lon="11.926704614710998"><ele>354.5</ele><time>2026-04-18T09:09:51.863Z</time></trkpt><trkpt lat="42.104095155788016" lon="11.926858453866574"><ele>357.75</ele><time>2026-04-18T09:09:52.863Z</time></trkpt><trkpt lat="42.1041177911034" lon="11.927013370437729"><ele>361.0</ele><time>2026-04-18T09:09:53.863Z</time></trkpt><trkpt lat="42.10413521723921" lon="11.927173509551784"><ele>361.0</ele><time>2026-04-18T09:09:54.863Z</time></trkpt><trkpt lat="42.10416042398909" lon="11.927340256540225"><ele>361.0</ele><time>2026-04-18T09:09:55.863Z</time></trkpt><trkpt lat="42.10419509420501" lon="11.927505309088609"><ele>361.0</ele><time>2026-04-18T09:09:56.863Z</time></trkpt><trkpt lat="42.10423014029649" lon="11.927662507396256"><ele>361.0</ele><time>2026-04-18T09:09:57.862Z</time></trkpt><trkpt lat="42.104279413796434" lon="11.927820587969963"><ele>360.25</ele><time>2026-04-18T09:09:58.862Z</time></trkpt><trkpt lat="42.10434339428177" lon="11.927958440421966"><ele>359.5</ele><time>2026-04-18T09:09:59.862Z</time></trkpt><trkpt lat="42.10438647227637" lon="11.928094445274345"><ele>358.75</ele><time>2026-04-18T09:10:00.862Z</time></trkpt><trkpt lat="42.104430912999796" lon="11.928236701177862"><ele>358.0</ele><time>2026-04-18T09:10:01.862Z</time></trkpt><trkpt lat="42.10446020130218" lon="11.928373604888746"><ele>358.79999999999995</ele><time>2026-04-18T09:10:02.862Z</time></trkpt><trkpt lat="42.10448860288758" lon="11.9284932742735"><ele>359.6</ele><time>2026-04-18T09:10:03.862Z</time></trkpt><trkpt lat="42.10452990550731" lon="11.928625754502757"><ele>360.4</ele><time>2026-04-18T09:10:04.862Z</time></trkpt><trkpt lat="42.10457178964257" lon="11.928758359828208"><ele>361.20000000000005</ele><time>2026-04-18T09:10:05.862Z</time></trkpt><trkpt lat="42.10461560014876" lon="11.92889229577978"><ele>362.0</ele><time>2026-04-18T09:10:06.862Z</time></trkpt><trkpt lat="42.1046509496277" lon="11.929000875891042"><ele>362.0</ele><time>2026-04-18T09:10:07.862Z</time></trkpt><trkpt lat="42.10469041261912" lon="11.929097209874787"><ele>362.0</ele><time>2026-04-18T09:10:08.862Z</time></trkpt><trkpt lat="42.10469970217614" lon="11.929214745983566"><ele>362.0</ele><time>2026-04-18T09:10:09.862Z</time></trkpt><trkpt lat="42.104670898984395" lon="11.92932414359616"><ele>362.0</ele><time>2026-04-18T09:10:10.862Z</time></trkpt><trkpt lat="42.104654411066036" lon="11.929452952595243"><ele>362.0</ele><time>2026-04-18T09:10:11.862Z</time></trkpt><trkpt lat="42.10462139853942" lon="11.929599795181687"><ele>363.5</ele><time>2026-04-18T09:10:12.862Z</time></trkpt><trkpt lat="42.10456543915183" lon="11.929715632701988"><ele>365.0</ele><time>2026-04-18T09:10:13.862Z</time></trkpt><trkpt lat="42.1045249934285" lon="11.929803839456913"><ele>366.5</ele><time>2026-04-18T09:10:14.862Z</time></trkpt><trkpt lat="42.10448136750286" lon="11.929897718525668"><ele>368.0</ele><time>2026-04-18T09:10:15.862Z</time></trkpt><trkpt lat="42.10442502007032" lon="11.92996656590125"><ele>369.5</ele><time>2026-04-18T09:10:16.862Z</time></trkpt><trkpt lat="42.1043795317589" lon="11.930038617111187"><ele>371.0</ele><time>2026-04-18T09:10:17.862Z</time></trkpt><trkpt lat="42.10433732904736" lon="11.930125254694644"><ele>371.6666666666667</ele><time>2026-04-18T09:10:18.862Z</time></trkpt><trkpt lat="42.1042734994967" lon="11.93020895455536"><ele>372.33333333333337</ele><time>2026-04-18T09:10:19.862Z</time></trkpt><trkpt lat="42.10422507582816" lon="11.930287273412858"><ele>373.0</ele><time>2026-04-18T09:10:20.862Z</time></trkpt><trkpt lat="42.104177769225316" lon="11.9303711860726"><ele>373.6666666666667</ele><time>2026-04-18T09:10:21.862Z</time></trkpt><trkpt lat="42.10411710316762" lon="11.93044129057091"><ele>374.3333333333333</ele><time>2026-04-18T09:10:22.862Z</time></trkpt><trkpt lat="42.10407874676633" lon="11.93051919796747"><ele>375.0</ele><time>2026-04-18T09:10:23.862Z</time></trkpt><trkpt lat="42.10405324867056" lon="11.930615952137048"><ele>375.6</ele><time>2026-04-18T09:10:24.862Z</time></trkpt><trkpt lat="42.10405847165678" lon="11.930726436503265"><ele>376.2</ele><time>2026-04-18T09:10:25.862Z</time></trkpt><trkpt lat="42.104071194134164" lon="11.930828671320711"><ele>376.79999999999995</ele><time>2026-04-18T09:10:26.862Z</time></trkpt><trkpt lat="42.104104669150296" lon="11.930957045224236"><ele>377.4</ele><time>2026-04-18T09:10:28.862Z</time></trkpt><trkpt lat="42.10416728385722" lon="11.931029628033865"><ele>378.0</ele><time>2026-04-18T09:12:15.858Z</time></trkpt><trkpt lat="42.09914519374837" lon="11.915504541856533"><ele>372.59999999999997</ele><time>2026-04-18T09:08:05.866Z</time></trkpt><trkpt lat="42.09925220069474" lon="11.915525343460935"><ele>367.2</ele><time>2026-04-18T09:08:06.866Z</time></trkpt><trkpt lat="42.09936590437448" lon="11.915548652951792"><ele>361.8</ele><time>2026-04-18T09:08:07.866Z</time></trkpt><trkpt lat="42.099476486104884" lon="11.915550686679692"><ele>356.4</ele><time>2026-04-18T09:08:08.866Z</time></trkpt><trkpt lat="42.09957737368651" lon="11.915555778844373"><ele>351.0</ele><time>2026-04-18T09:08:09.866Z</time></trkpt><trkpt lat="42.09967235448286" lon="11.915563051782874"><ele>351.0</ele><time>2026-04-18T09:08:10.865Z</time></trkpt><trkpt lat="42.09978237431623" lon="11.915595594871295"><ele>351.0</ele><time>2026-04-18T09:08:11.865Z</time></trkpt><trkpt lat="42.099894854834936" lon="11.915633082418514"><ele>351.0</ele><time>2026-04-18T09:08:12.865Z</time></trkpt><trkpt lat="42.10000047291473" lon="11.915676993866608"><ele>351.0</ele><time>2026-04-18T09:08:13.865Z</time></trkpt><trkpt lat="42.10010690902424" lon="11.915733879631297"><ele>351.5</ele><time>2026-04-18T09:08:14.865Z</time></trkpt><trkpt lat="42.10020842574041" lon="11.91579910533732"><ele>352.0</ele><time>2026-04-18T09:08:15.865Z</time></trkpt><trkpt lat="42.10031103034104" lon="11.91586614260214"><ele>352.5</ele><time>2026-04-18T09:08:16.865Z</time></trkpt><trkpt lat="42.10041707026373" lon="11.915931511289651"><ele>353.0</ele><time>2026-04-18T09:08:17.865Z</time></trkpt><trkpt lat="42.10052855980501" lon="11.91600279531175"><ele>351.0</ele><time>2026-04-18T09:08:18.865Z</time></trkpt><trkpt lat="42.100637484897476" lon="11.916069885927786"><ele>349.0</ele><time>2026-04-18T09:08:19.865Z</time></trkpt><trkpt lat="42.10074665052093" lon="11.916127108389007"><ele>347.0</ele><time>2026-04-18T09:08:20.865Z</time></trkpt><trkpt lat="42.100868133913934" lon="11.91617933537128"><ele>345.0</ele><time>2026-04-18T09:08:21.865Z</time></trkpt><trkpt lat="42.10097753275687" lon="11.916236861121616"><ele>345.0</ele><time>2026-04-18T09:08:22.865Z</time></trkpt><trkpt lat="42.10107736211593" lon="11.916282668513649"><ele>345.0</ele><time>2026-04-18T09:08:23.865Z</time></trkpt><trkpt lat="42.10118370168918" lon="11.916316336359138"><ele>345.0</ele><time>2026-04-18T09:08:24.865Z</time></trkpt><trkpt lat="42.101291491242705" lon="11.916380935232432"><ele>345.0</ele><time>2026-04-18T09:08:25.865Z</time></trkpt><trkpt lat="42.1014014750275" lon="11.916441473668657"><ele>345.0</ele><time>2026-04-18T09:08:26.865Z</time></trkpt><trkpt lat="42.10151295795408" lon="11.916509030641281"><ele>345.0</ele><time>2026-04-18T09:08:27.865Z</time></trkpt><trkpt lat="42.101618281684964" lon="11.916590762560425"><ele>345.0</ele><time>2026-04-18T09:08:28.865Z</time></trkpt><trkpt lat="42.10171135017502" lon="11.91667001836403"><ele>345.0</ele><time>2026-04-18T09:08:29.865Z</time></trkpt><trkpt lat="42.10179942173376" lon="11.916742736019128"><ele>343.6</ele><time>2026-04-18T09:08:30.865Z</time></trkpt><trkpt lat="42.10189078385606" lon="11.91681651894297"><ele>342.2</ele><time>2026-04-18T09:08:31.865Z</time></trkpt><trkpt lat="42.10198569299325" lon="11.916904823014297"><ele>340.79999999999995</ele><time>2026-04-18T09:08:32.865Z</time></trkpt><trkpt lat="42.10207053858233" lon="11.916997498713746"><ele>339.4</ele><time>2026-04-18T09:08:33.865Z</time></trkpt><trkpt lat="42.10215323948228" lon="11.917096910472921"><ele>338.0</ele><time>2026-04-18T09:08:34.865Z</time></trkpt><trkpt lat="42.10223777082524" lon="11.917203858584854"><ele>338.0</ele><time>2026-04-18T09:08:35.865Z</time></trkpt><trkpt lat="42.102315274074854" lon="11.91730920898265"><ele>338.0</ele><time>2026-04-18T09:08:36.865Z</time></trkpt><trkpt lat="42.10238995520626" lon="11.917424470162864"><ele>338.0</ele><time>2026-04-18T09:08:37.865Z</time></trkpt><trkpt lat="42.102469931799526" lon="11.917529711308802"><ele>338.0</ele><time>2026-04-18T09:08:38.865Z</time></trkpt><trkpt lat="42.10255589029538" lon="11.917622934870208"><ele>338.0</ele><time>2026-04-18T09:08:39.865Z</time></trkpt><trkpt lat="42.10263214011361" lon="11.917710944252244"><ele>338.33333333333337</ele><time>2026-04-18T09:08:40.865Z</time></trkpt><trkpt lat="42.10270286068087" lon="11.917792342983997"><ele>338.6666666666667</ele><time>2026-04-18T09:08:41.865Z</time></trkpt><trkpt lat="42.102765102666886" lon="11.917856921700817"><ele>339.0</ele><time>2026-04-18T09:08:42.865Z</time></trkpt><trkpt lat="42.10282791356865" lon="11.91791300936496"><ele>339.3333333333333</ele><time>2026-04-18T09:08:43.865Z</time></trkpt><trkpt lat="42.102884870883656" lon="11.91797748790279"><ele>339.66666666666663</ele><time>2026-04-18T09:08:44.865Z</time></trkpt><trkpt lat="42.102935520067106" lon="11.91805442978481"><ele>340.0</ele><time>2026-04-18T09:08:45.865Z</time></trkpt><trkpt lat="42.10299357212069" lon="11.918126913182904"><ele>340.0</ele><time>2026-04-18T09:08:46.865Z</time></trkpt><trkpt lat="42.1030419831669" lon="11.918222305444727"><ele>340.0</ele><time>2026-04-18T09:08:47.865Z</time></trkpt><trkpt lat="42.10309677735121" lon="11.918295535429358"><ele>340.0</ele><time>2026-04-18T09:08:48.865Z</time></trkpt><trkpt lat="42.1031568365288" lon="11.91838888211202"><ele>340.0</ele><time>2026-04-18T09:08:49.865Z</time></trkpt><trkpt lat="42.10320916975587" lon="11.918486685242604"><ele>340.0</ele><time>2026-04-18T09:08:50.865Z</time></trkpt><trkpt lat="42.10326752941561" lon="11.918579269739752"><ele>340.0</ele><time>2026-04-18T09:08:51.865Z</time></trkpt><trkpt lat="42.10333110650198" lon="11.918675613195317"><ele>339.4</ele><time>2026-04-18T09:08:52.865Z</time></trkpt><trkpt lat="42.10340266253883" lon="11.91877963428581"><ele>338.8</ele><time>2026-04-18T09:08:53.865Z</time></trkpt><trkpt lat="42.10347077457541" lon="11.918887847705117"><ele>338.20000000000005</ele><time>2026-04-18T09:08:54.865Z</time></trkpt><trkpt lat="42.103533489491944" lon="11.919012332180005"><ele>337.6</ele><time>2026-04-18T09:08:55.865Z</time></trkpt><trkpt lat="42.103585412384255" lon="11.91913999195945"><ele>337.0</ele><time>2026-04-18T09:08:56.865Z</time></trkpt><trkpt lat="42.103626314278124" lon="11.91925621461217"><ele>336.8</ele><time>2026-04-18T09:08:57.865Z</time></trkpt><trkpt lat="42.10363678283536" lon="11.91938639670657"><ele>336.6</ele><time>2026-04-18T09:08:58.865Z</time></trkpt><trkpt lat="42.10365134465183" lon="11.919515270433308"><ele>336.40000000000003</ele><time>2026-04-18T09:08:59.865Z</time></trkpt><trkpt lat="42.10366733019266" lon="11.919653855489702"><ele>336.20000000000005</ele><time>2026-04-18T09:09:00.865Z</time></trkpt><trkpt lat="42.1036774256903" lon="11.919783746105429"><ele>336.0</ele><time>2026-04-18T09:09:01.865Z</time></trkpt><trkpt lat="42.10367924553332" lon="11.91992285939027"><ele>336.0</ele><time>2026-04-18T09:09:02.865Z</time></trkpt><trkpt lat="42.10368348712486" lon="11.920062643486181"><ele>336.0</ele><time>2026-04-18T09:09:03.865Z</time></trkpt><trkpt lat="42.103665313538016" lon="11.920204620421696"><ele>336.0</ele><time>2026-04-18T09:09:04.865Z</time></trkpt><trkpt lat="42.10365320834004" lon="11.920342572213654"><ele>336.0</ele><time>2026-04-18T09:09:05.865Z</time></trkpt><trkpt lat="42.10365273043362" lon="11.920482299519636"><ele>336.0</ele><time>2026-04-18T09:09:06.865Z</time></trkpt><trkpt lat="42.10365368152008" lon="11.920612342131587"><ele>336.4</ele><time>2026-04-18T09:09:07.865Z</time></trkpt><trkpt lat="42.10365293687522" lon="11.920732272988458"><ele>336.8</ele><time>2026-04-18T09:09:08.863Z</time></trkpt><trkpt lat="42.103660545351644" lon="11.92086631138446"><ele>337.2</ele><time>2026-04-18T09:09:09.863Z</time></trkpt><trkpt lat="42.10367263661488" lon="11.920999803021413"><ele>337.59999999999997</ele><time>2026-04-18T09:09:10.863Z</time></trkpt><trkpt lat="42.10368142013625" lon="11.921121249786898"><ele>338.0</ele><time>2026-04-18T09:09:11.863Z</time></trkpt><trkpt lat="42.10369207883321" lon="11.921234535444176"><ele>338.5</ele><time>2026-04-18T09:09:12.863Z</time></trkpt><trkpt lat="42.10370700394806" lon="11.92134083208495"><ele>339.0</ele><time>2026-04-18T09:09:13.863Z</time></trkpt><trkpt lat="42.103720225036994" lon="11.921442801699587"><ele>339.5</ele><time>2026-04-18T09:09:14.864Z</time></trkpt><trkpt lat="42.103732388385865" lon="11.9215427349139"><ele>340.0</ele><time>2026-04-18T09:09:15.863Z</time></trkpt><trkpt lat="42.10374453690319" lon="11.921648148209078"><ele>340.5</ele><time>2026-04-18T09:09:16.863Z</time></trkpt><trkpt lat="42.10375750915339" lon="11.921758744305386"><ele>341.0</ele><time>2026-04-18T09:09:17.863Z</time></trkpt><trkpt lat="42.10375945220179" lon="11.921864620526208"><ele>341.5</ele><time>2026-04-18T09:09:18.863Z</time></trkpt><trkpt lat="42.10376766762206" lon="11.921963758024448"><ele>342.0</ele><time>2026-04-18T09:09:19.863Z</time></trkpt><trkpt lat="42.10378568086476" lon="11.922069692864774"><ele>342.5</ele><time>2026-04-18T09:09:20.864Z</time></trkpt><trkpt lat="42.10379287587264" lon="11.922188744714123"><ele>343.0</ele><time>2026-04-18T09:09:21.863Z</time></trkpt><trkpt lat="42.10381026603221" lon="11.922323832485937"><ele>343.5</ele><time>2026-04-18T09:09:22.863Z</time></trkpt><trkpt lat="42.1038259970485" lon="11.922448173668693"><ele>344.0</ele><time>2026-04-18T09:09:23.863Z</time></trkpt><trkpt lat="42.10384714154307" lon="11.922562435411791"><ele>344.0</ele><time>2026-04-18T09:09:24.863Z</time></trkpt><trkpt lat="42.103865821201616" lon="11.922686328801271"><ele>344.0</ele><time>2026-04-18T09:09:25.863Z</time></trkpt><trkpt lat="42.10388165895272" lon="11.922807801212354"><ele>344.0</ele><time>2026-04-18T09:09:26.863Z</time></trkpt><trkpt lat="42.10389421867542" lon="11.922919980309478"><ele>344.0</ele><time>2026-04-18T09:09:27.863Z</time></trkpt><trkpt lat="42.10390661270815" lon="11.92305235013387"><ele>344.0</ele><time>2026-04-18T09:09:28.863Z</time></trkpt><trkpt lat="42.103924364691274" lon="11.923179314173302"><ele>344.0</ele><time>2026-04-18T09:09:29.863Z</time></trkpt><trkpt lat="42.10394587908743" lon="11.923307780997298"><ele>344.0</ele><time>2026-04-18T09:09:30.863Z</time></trkpt><trkpt lat="42.10395169721659" lon="11.92344688627263"><ele>344.0</ele><time>2026-04-18T09:09:31.863Z</time></trkpt><trkpt lat="42.10396537472295" lon="11.923591166683144"><ele>344.0</ele><time>2026-04-18T09:09:32.863Z</time></trkpt><trkpt lat="42.10395842959592" lon="11.92373358364671"><ele>344.0</ele><time>2026-04-18T09:09:33.863Z</time></trkpt><trkpt lat="42.103968696420985" lon="11.92388535487164"><ele>344.25</ele><time>2026-04-18T09:09:34.863Z</time></trkpt><trkpt lat="42.10397585937308" lon="11.924028990789234"><ele>344.5</ele><time>2026-04-18T09:09:35.863Z</time></trkpt><trkpt lat="42.103978578310965" lon="11.92418945289093"><ele>344.75</ele><time>2026-04-18T09:09:36.863Z</time></trkpt><trkpt lat="42.10397052714907" lon="11.924346082428377"><ele>345.0</ele><time>2026-04-18T09:09:37.863Z</time></trkpt><trkpt lat="42.10396419956119" lon="11.924505370628594"><ele>345.5</ele><time>2026-04-18T09:09:38.863Z</time></trkpt><trkpt lat="42.10397912797443" lon="11.924669936557526"><ele>346.0</ele><time>2026-04-18T09:09:39.863Z</time></trkpt><trkpt lat="42.104005280451574" lon="11.924847259311534"><ele>346.5</ele><time>2026-04-18T09:09:40.863Z</time></trkpt><trkpt lat="42.10401410182183" lon="11.925023676698727"><ele>347.0</ele><time>2026-04-18T09:09:41.863Z</time></trkpt><trkpt lat="42.10402125007114" lon="11.925217210696184"><ele>347.25</ele><time>2026-04-18T09:09:42.863Z</time></trkpt><trkpt lat="42.104027333085604" lon="11.925386872965198"><ele>347.5</ele><time>2026-04-18T09:09:43.863Z</time></trkpt><trkpt lat="42.104041213183265" lon="11.925551810412616"><ele>347.75</ele><time>2026-04-18T09:09:44.863Z</time></trkpt><trkpt lat="42.10404198634528" lon="11.925723702314395"><ele>348.0</ele><time>2026-04-18T09:09:45.863Z</time></trkpt><trkpt lat="42.104042111191205" lon="11.925905324545731"><ele>348.0</ele><time>2026-04-18T09:09:46.863Z</time></trkpt><trkpt lat="42.10405805042889" lon="11.92608401910228"><ele>348.0</ele><time>2026-04-18T09:09:47.863Z</time></trkpt><trkpt lat="42.10406669526533" lon="11.926242681344496"><ele>348.0</ele><time>2026-04-18T09:09:48.863Z</time></trkpt><trkpt lat="42.104072912779436" lon="11.926395038466165"><ele>348.0</ele><time>2026-04-18T09:09:49.863Z</time></trkpt><trkpt lat="42.10408026106993" lon="11.926547180014126"><ele>351.25</ele><time>2026-04-18T09:09:50.863Z</time></trkpt><trkpt lat="42.1040839963151" lon="11.926704614710998"><ele>354.5</ele><time>2026-04-18T09:09:51.863Z</time></trkpt><trkpt lat="42.104095155788016" lon="11.926858453866574"><ele>357.75</ele><time>2026-04-18T09:09:52.863Z</time></trkpt><trkpt lat="42.1041177911034" lon="11.927013370437729"><ele>361.0</ele><time>2026-04-18T09:09:53.863Z</time></trkpt><trkpt lat="42.10413521723921" lon="11.927173509551784"><ele>361.0</ele><time>2026-04-18T09:09:54.863Z</time></trkpt><trkpt lat="42.10416042398909" lon="11.927340256540225"><ele>361.0</ele><time>2026-04-18T09:09:55.863Z</time></trkpt><trkpt lat="42.10419509420501" lon="11.927505309088609"><ele>361.0</ele><time>2026-04-18T09:09:56.863Z</time></trkpt><trkpt lat="42.10423014029649" lon="11.927662507396256"><ele>361.0</ele><time>2026-04-18T09:09:57.862Z</time></trkpt><trkpt lat="42.104279413796434" lon="11.927820587969963"><ele>360.25</ele><time>2026-04-18T09:09:58.862Z</time></trkpt><trkpt lat="42.10434339428177" lon="11.927958440421966"><ele>359.5</ele><time>2026-04-18T09:09:59.862Z</time></trkpt><trkpt lat="42.10438647227637" lon="11.928094445274345"><ele>358.75</ele><time>2026-04-18T09:10:00.862Z</time></trkpt><trkpt lat="42.104430912999796" lon="11.928236701177862"><ele>358.0</ele><time>2026-04-18T09:10:01.862Z</time></trkpt><trkpt lat="42.10446020130218" lon="11.928373604888746"><ele>358.79999999999995</ele><time>2026-04-18T09:10:02.862Z</time></trkpt><trkpt lat="42.10448860288758" lon="11.9284932742735"><ele>359.6</ele><time>2026-04-18T09:10:03.862Z</time></trkpt><trkpt lat="42.10452990550731" lon="11.928625754502757"><ele>360.4</ele><time>2026-04-18T09:10:04.862Z</time></trkpt><trkpt lat="42.10457178964257" lon="11.928758359828208"><ele>361.20000000000005</ele><time>2026-04-18T09:10:05.862Z</time></trkpt><trkpt lat="42.10461560014876" lon="11.92889229577978"><ele>362.0</ele><time>2026-04-18T09:10:06.862Z</time></trkpt><trkpt lat="42.1046509496277" lon="11.929000875891042"><ele>362.0</ele><time>2026-04-18T09:10:07.862Z</time></trkpt><trkpt lat="42.10469041261912" lon="11.929097209874787"><ele>362.0</ele><time>2026-04-18T09:10:08.862Z</time></trkpt><trkpt lat="42.10469970217614" lon="11.929214745983566"><ele>362.0</ele><time>2026-04-18T09:10:09.862Z</time></trkpt><trkpt lat="42.104670898984395" lon="11.92932414359616"><ele>362.0</ele><time>2026-04-18T09:10:10.862Z</time></trkpt><trkpt lat="42.104654411066036" lon="11.929452952595243"><ele>362.0</ele><time>2026-04-18T09:10:11.862Z</time></trkpt><trkpt lat="42.10462139853942" lon="11.929599795181687"><ele>363.5</ele><time>2026-04-18T09:10:12.862Z</time></trkpt><trkpt lat="42.10456543915183" lon="11.929715632701988"><ele>365.0</ele><time>2026-04-18T09:10:13.862Z</time></trkpt><trkpt lat="42.1045249934285" lon="11.929803839456913"><ele>366.5</ele><time>2026-04-18T09:10:14.862Z</time></trkpt><trkpt lat="42.10448136750286" lon="11.929897718525668"><ele>368.0</ele><time>2026-04-18T09:10:15.862Z</time></trkpt><trkpt lat="42.10442502007032" lon="11.92996656590125"><ele>369.5</ele><time>2026-04-18T09:10:16.862Z</time></trkpt><trkpt lat="42.1043795317589" lon="11.930038617111187"><ele>371.0</ele><time>2026-04-18T09:10:17.862Z</time></trkpt><trkpt lat="42.10433732904736" lon="11.930125254694644"><ele>371.6666666666667</ele><time>2026-04-18T09:10:18.862Z</time></trkpt><trkpt lat="42.1042734994967" lon="11.93020895455536"><ele>372.33333333333337</ele><time>2026-04-18T09:10:19.862Z</time></trkpt><trkpt lat="42.10422507582816" lon="11.930287273412858"><ele>373.0</ele><time>2026-04-18T09:10:20.862Z</time></trkpt><trkpt lat="42.104177769225316" lon="11.9303711860726"><ele>373.6666666666667</ele><time>2026-04-18T09:10:21.862Z</time></trkpt><trkpt lat="42.10411710316762" lon="11.93044129057091"><ele>374.3333333333333</ele><time>2026-04-18T09:10:22.862Z</time></trkpt><trkpt lat="42.10407874676633" lon="11.93051919796747"><ele>375.0</ele><time>2026-04-18T09:10:23.862Z</time></trkpt><trkpt lat="42.10405324867056" lon="11.930615952137048"><ele>375.6</ele><time>2026-04-18T09:10:24.862Z</time></trkpt><trkpt lat="42.10405847165678" lon="11.930726436503265"><ele>376.2</ele><time>2026-04-18T09:10:25.862Z</time></trkpt><trkpt lat="42.104071194134164" lon="11.930828671320711"><ele>376.79999999999995</ele><time>2026-04-18T09:10:26.862Z</time></trkpt><trkpt lat="42.104104669150296" lon="11.930957045224236"><ele>377.4</ele><time>2026-04-18T09:10:28.862Z</time></trkpt><trkpt lat="42.10416728385722" lon="11.931029628033865"><ele>378.0</ele><time>2026-04-18T09:12:15.858Z</time></trkpt><trkpt lat="42.104243702574486" lon="11.931139259810724"><ele>376.0</ele><time>2026-04-18T09:12:18.858Z</time></trkpt><trkpt lat="42.104310537090676" lon="11.931236222741905"><ele>374.0</ele><time>2026-04-18T09:12:19.858Z</time></trkpt><trkpt lat="42.10438334580006" lon="11.931321955037946"><ele>372.0</ele><time>2026-04-18T09:12:20.858Z</time></trkpt><trkpt lat="42.1044476290093" lon="11.931409125850248"><ele>370.0</ele><time>2026-04-18T09:12:21.858Z</time></trkpt><trkpt lat="42.10450306098295" lon="11.931492013154989"><ele>368.0</ele><time>2026-04-18T09:12:22.858Z</time></trkpt><trkpt lat="42.10456552041144" lon="11.931567974341283"><ele>368.0</ele><time>2026-04-18T09:12:23.858Z</time></trkpt><trkpt lat="42.10463566134907" lon="11.931654617234422"><ele>368.0</ele><time>2026-04-18T09:12:24.858Z</time></trkpt><trkpt lat="42.10471094907674" lon="11.931742199791945"><ele>368.0</ele><time>2026-04-18T09:12:25.858Z</time></trkpt><trkpt lat="42.104790046091836" lon="11.931826257052023"><ele>368.0</ele><time>2026-04-18T09:12:26.858Z</time></trkpt><trkpt lat="42.104877290226824" lon="11.931906285373165"><ele>368.0</ele><time>2026-04-18T09:12:27.858Z</time></trkpt><trkpt lat="42.10496966715557" lon="11.93200627571931"><ele>366.79999999999995</ele><time>2026-04-18T09:12:28.858Z</time></trkpt><trkpt lat="42.10505480323722" lon="11.932062526267153"><ele>365.6</ele><time>2026-04-18T09:12:29.858Z</time></trkpt><trkpt lat="42.105156090881195" lon="11.932095205040477"><ele>364.4</ele><time>2026-04-18T09:12:30.858Z</time></trkpt><trkpt lat="42.10525911342391" lon="11.932107337316266"><ele>363.20000000000005</ele><time>2026-04-18T09:12:31.858Z</time></trkpt><trkpt lat="42.10537577524872" lon="11.932114466498723"><ele>362.0</ele><time>2026-04-18T09:12:32.858Z</time></trkpt><trkpt lat="42.105491749240706" lon="11.932115397734178"><ele>362.0</ele><time>2026-04-18T09:12:33.858Z</time></trkpt><trkpt lat="42.10559591099382" lon="11.932113043062797"><ele>362.0</ele><time>2026-04-18T09:12:34.858Z</time></trkpt><trkpt lat="42.10569540693634" lon="11.93211386827634"><ele>362.0</ele><time>2026-04-18T09:12:35.858Z</time></trkpt><trkpt lat="42.10579771944166" lon="11.932113765887987"><ele>362.0</ele><time>2026-04-18T09:12:36.858Z</time></trkpt><trkpt lat="42.105893108940485" lon="11.932121180873004"><ele>362.0</ele><time>2026-04-18T09:12:37.858Z</time></trkpt><trkpt lat="42.10598784143809" lon="11.932125944410403"><ele>360.83333333333337</ele><time>2026-04-18T09:12:38.858Z</time></trkpt><trkpt lat="42.106078719395704" lon="11.932125924570379"><ele>359.6666666666667</ele><time>2026-04-18T09:12:39.858Z</time></trkpt><trkpt lat="42.10616757986593" lon="11.932120180108516"><ele>358.5</ele><time>2026-04-18T09:12:40.858Z</time></trkpt><trkpt lat="42.1062514141415" lon="11.932105214140483"><ele>357.3333333333333</ele><time>2026-04-18T09:12:41.858Z</time></trkpt><trkpt lat="42.10631487250261" lon="11.932101689601076"><ele>356.16666666666663</ele><time>2026-04-18T09:12:42.858Z</time></trkpt><trkpt lat="42.10639923945616" lon="11.932100368352035"><ele>355.0</ele><time>2026-04-18T09:12:44.858Z</time></trkpt><trkpt lat="42.10648320086089" lon="11.932107679503066"><ele>355.0</ele><time>2026-04-18T09:12:46.858Z</time></trkpt><trkpt lat="42.1065604920089" lon="11.932117152780517"><ele>355.0</ele><time>2026-04-18T09:12:47.858Z</time></trkpt><trkpt lat="42.106660408121904" lon="11.932124017398158"><ele>355.0</ele><time>2026-04-18T09:12:48.858Z</time></trkpt><trkpt lat="42.1067651824968" lon="11.9321501487477"><ele>355.0</ele><time>2026-04-18T09:12:49.858Z</time></trkpt><trkpt lat="42.106885471519114" lon="11.93217929529257"><ele>355.0</ele><time>2026-04-18T09:12:50.858Z</time></trkpt><trkpt lat="42.10699741614015" lon="11.932221965101652"><ele>354.25</ele><time>2026-04-18T09:12:51.858Z</time></trkpt><trkpt lat="42.107114161082045" lon="11.932279999804758"><ele>353.5</ele><time>2026-04-18T09:12:52.858Z</time></trkpt><trkpt lat="42.107218349408456" lon="11.932347554228258"><ele>352.75</ele><time>2026-04-18T09:12:53.858Z</time></trkpt><trkpt lat="42.10731854852753" lon="11.932424503767393"><ele>352.0</ele><time>2026-04-18T09:12:54.858Z</time></trkpt><trkpt lat="42.107428686628666" lon="11.932490473766963"><ele>353.5</ele><time>2026-04-18T09:12:55.858Z</time></trkpt><trkpt lat="42.107531077923454" lon="11.932586612235342"><ele>355.0</ele><time>2026-04-18T09:12:56.858Z</time></trkpt><trkpt lat="42.10765068410771" lon="11.93265517205837"><ele>356.5</ele><time>2026-04-18T09:12:57.858Z</time></trkpt><trkpt lat="42.10776911791848" lon="11.932719355475724"><ele>358.0</ele><time>2026-04-18T09:12:58.858Z</time></trkpt><trkpt lat="42.10788116898927" lon="11.93278800191066"><ele>358.0</ele><time>2026-04-18T09:12:59.858Z</time></trkpt><trkpt lat="42.1079651856072" lon="11.932867016640227"><ele>358.0</ele><time>2026-04-18T09:13:00.858Z</time></trkpt><trkpt lat="42.1080387748911" lon="11.932899098595461"><ele>358.0</ele><time>2026-04-18T09:13:01.858Z</time></trkpt><trkpt lat="42.10811932403523" lon="11.932944272533497"><ele>358.0</ele><time>2026-04-18T09:13:02.858Z</time></trkpt><trkpt lat="42.10821353061494" lon="11.932949317014621"><ele>358.0</ele><time>2026-04-18T09:13:03.858Z</time></trkpt><trkpt lat="42.108318428803905" lon="11.932946585972411"><ele>360.4</ele><time>2026-04-18T09:13:04.857Z</time></trkpt><trkpt lat="42.10842060633404" lon="11.932937071666911"><ele>362.79999999999995</ele><time>2026-04-18T09:13:05.857Z</time></trkpt><trkpt lat="42.10851227463581" lon="11.932910680980823"><ele>365.2</ele><time>2026-04-18T09:13:06.857Z</time></trkpt><trkpt lat="42.10860831713693" lon="11.932852883151467"><ele>367.6</ele><time>2026-04-18T09:13:07.857Z</time></trkpt><trkpt lat="42.10869878167934" lon="11.932767757835498"><ele>370.0</ele><time>2026-04-18T09:13:08.857Z</time></trkpt><trkpt lat="42.10879887132296" lon="11.93268601483474"><ele>370.0</ele><time>2026-04-18T09:13:09.857Z</time></trkpt><trkpt lat="42.10890378604893" lon="11.932601843674336"><ele>370.0</ele><time>2026-04-18T09:13:10.857Z</time></trkpt><trkpt lat="42.10900121980524" lon="11.932528686417989"><ele>370.0</ele><time>2026-04-18T09:13:11.857Z</time></trkpt><trkpt lat="42.109108601763" lon="11.932451560748765"><ele>370.0</ele><time>2026-04-18T09:13:12.857Z</time></trkpt><trkpt lat="42.10922211520022" lon="11.932376252341726"><ele>373.5</ele><time>2026-04-18T09:13:13.857Z</time></trkpt><trkpt lat="42.10933335760403" lon="11.932305820502915"><ele>377.0</ele><time>2026-04-18T09:13:14.857Z</time></trkpt><trkpt lat="42.10944811276389" lon="11.93223449493078"><ele>380.5</ele><time>2026-04-18T09:13:15.857Z</time></trkpt><trkpt lat="42.109567775725935" lon="11.932150576696602"><ele>384.0</ele><time>2026-04-18T09:13:16.857Z</time></trkpt><trkpt lat="42.109693788014056" lon="11.93205449727305"><ele>384.0</ele><time>2026-04-18T09:13:17.857Z</time></trkpt><trkpt lat="42.10980520888443" lon="11.93197779417123"><ele>384.0</ele><time>2026-04-18T09:13:18.857Z</time></trkpt><trkpt lat="42.10991971372805" lon="11.931903353362236"><ele>384.0</ele><time>2026-04-18T09:13:19.857Z</time></trkpt><trkpt lat="42.11003386473035" lon="11.931837301086372"><ele>384.0</ele><time>2026-04-18T09:13:20.856Z</time></trkpt><trkpt lat="42.110147588251415" lon="11.931776358145923"><ele>385.5</ele><time>2026-04-18T09:13:21.856Z</time></trkpt><trkpt lat="42.11028400251628" lon="11.931760477987872"><ele>387.0</ele><time>2026-04-18T09:13:22.856Z</time></trkpt><trkpt lat="42.11041331106325" lon="11.931756126516278"><ele>388.5</ele><time>2026-04-18T09:13:23.856Z</time></trkpt><trkpt lat="42.11053887853622" lon="11.931728319123314"><ele>390.0</ele><time>2026-04-18T09:13:24.856Z</time></trkpt><trkpt lat="42.11066317907291" lon="11.931685087936051"><ele>393.0</ele><time>2026-04-18T09:13:25.856Z</time></trkpt><trkpt lat="42.11078360388657" lon="11.931659907032788"><ele>396.0</ele><time>2026-04-18T09:13:26.856Z</time></trkpt><trkpt lat="42.11088728010026" lon="11.93163901782461"><ele>399.0</ele><time>2026-04-18T09:13:27.856Z</time></trkpt><trkpt lat="42.11097771666768" lon="11.931632582271675"><ele>402.0</ele><time>2026-04-18T09:13:28.856Z</time></trkpt><trkpt lat="42.1110520689351" lon="11.931628739486557"><ele>405.0</ele><time>2026-04-18T09:13:29.856Z</time></trkpt><trkpt lat="42.1111496789808" lon="11.931701160745517"><ele>404.2</ele><time>2026-04-18T09:13:31.856Z</time></trkpt><trkpt lat="42.11117233221112" lon="11.931795162949062"><ele>403.4</ele><time>2026-04-18T09:13:32.856Z</time></trkpt><trkpt lat="42.111232544207574" lon="11.931874188393904"><ele>402.6</ele><time>2026-04-18T09:13:33.856Z</time></trkpt><trkpt lat="42.111297878302096" lon="11.931989562696177"><ele>401.8</ele><time>2026-04-18T09:13:34.856Z</time></trkpt><trkpt lat="42.1113683801044" lon="11.932117020359938"><ele>401.0</ele><time>2026-04-18T09:13:35.856Z</time></trkpt><trkpt lat="42.11143920560964" lon="11.93224150713634"><ele>400.99999999999994</ele><time>2026-04-18T09:13:36.856Z</time></trkpt><trkpt lat="42.11148740281233" lon="11.932356536466752"><ele>401.0</ele><time>2026-04-18T09:13:37.856Z</time></trkpt><trkpt lat="42.111540059611215" lon="11.932436879027684"><ele>401.0</ele><time>2026-04-18T09:13:38.856Z</time></trkpt><trkpt lat="42.111601537550044" lon="11.932489085127512"><ele>401.0</ele><time>2026-04-18T09:13:39.856Z</time></trkpt><trkpt lat="42.11168154366117" lon="11.932509848753414"><ele>400.99999999999994</ele><time>2026-04-18T09:13:40.856Z</time></trkpt><trkpt lat="42.11177304537952" lon="11.932504462007117"><ele>401.0</ele><time>2026-04-18T09:13:41.856Z</time></trkpt><trkpt lat="42.11186866454506" lon="11.932457219783151"><ele>404.5</ele><time>2026-04-18T09:13:42.856Z</time></trkpt><trkpt lat="42.11197619718805" lon="11.932382499838148"><ele>408.0</ele><time>2026-04-18T09:13:43.856Z</time></trkpt><trkpt lat="42.112083479585365" lon="11.932309677562342"><ele>411.5</ele><time>2026-04-18T09:13:44.856Z</time></trkpt><trkpt lat="42.11219117551341" lon="11.932234514065115"><ele>415.0</ele><time>2026-04-18T09:13:45.856Z</time></trkpt><trkpt lat="42.11229989628324" lon="11.932189572119666"><ele>415.00000000000006</ele><time>2026-04-18T09:13:46.856Z</time></trkpt><trkpt lat="42.11239323672995" lon="11.932133487860426"><ele>415.0</ele><time>2026-04-18T09:13:47.856Z</time></trkpt><trkpt lat="42.11247398466333" lon="11.932107874251185"><ele>415.0</ele><time>2026-04-18T09:13:48.856Z</time></trkpt><trkpt lat="42.112547282988366" lon="11.932168915543517"><ele>415.0</ele><time>2026-04-18T09:13:49.856Z</time></trkpt><trkpt lat="42.11262586145336" lon="11.932220955568516"><ele>415.00000000000006</ele><time>2026-04-18T09:13:50.856Z</time></trkpt><trkpt lat="42.11270259823485" lon="11.932279378023317"><ele>415.0</ele><time>2026-04-18T09:13:51.856Z</time></trkpt><trkpt lat="42.11277888614411" lon="11.932337411173796"><ele>416.33333333333337</ele><time>2026-04-18T09:13:52.856Z</time></trkpt><trkpt lat="42.112856945009575" lon="11.932369786534581"><ele>417.6666666666667</ele><time>2026-04-18T09:13:53.856Z</time></trkpt><trkpt lat="42.112929330400654" lon="11.932443368611946"><ele>419.0</ele><time>2026-04-18T09:13:55.855Z</time></trkpt><trkpt lat="42.11300429911674" lon="11.932460848647494"><ele>420.33333333333337</ele><time>2026-04-18T09:13:57.855Z</time></trkpt><trkpt lat="42.11295406082573" lon="11.932562561860358"><ele>421.6666666666667</ele><time>2026-04-18T09:13:58.855Z</time></trkpt><trkpt lat="42.11293946485933" lon="11.932661632690818"><ele>423.0</ele><time>2026-04-18T09:14:00.855Z</time></trkpt><trkpt lat="42.11292353638013" lon="11.932749187733211"><ele>423.0</ele><time>2026-04-18T09:14:01.855Z</time></trkpt><trkpt lat="42.11290068039994" lon="11.932871218759676"><ele>423.0</ele><time>2026-04-18T09:14:02.855Z</time></trkpt><trkpt lat="42.11287783484641" lon="11.932993194317197"><ele>423.0</ele><time>2026-04-18T09:14:03.855Z</time></trkpt><trkpt lat="42.112873598369866" lon="11.933101048104719"><ele>423.0</ele><time>2026-04-18T09:14:04.855Z</time></trkpt><trkpt lat="42.11284958647905" lon="11.933207596356464"><ele>423.0</ele><time>2026-04-18T09:14:05.855Z</time></trkpt><trkpt lat="42.11282679416191" lon="11.933318826869666"><ele>423.0</ele><time>2026-04-18T09:14:06.855Z</time></trkpt><trkpt lat="42.11280124409563" lon="11.933451770306778"><ele>423.2</ele><time>2026-04-18T09:14:07.855Z</time></trkpt><trkpt lat="42.11277900778973" lon="11.933597879212133"><ele>423.4</ele><time>2026-04-18T09:14:08.855Z</time></trkpt><trkpt lat="42.11274495316303" lon="11.933730702684477"><ele>423.59999999999997</ele><time>2026-04-18T09:14:09.855Z</time></trkpt><trkpt lat="42.112714630858235" lon="11.933856348087376"><ele>423.79999999999995</ele><time>2026-04-18T09:14:10.855Z</time></trkpt><trkpt lat="42.112689893674755" lon="11.933988772092112"><ele>424.0</ele><time>2026-04-18T09:14:11.855Z</time></trkpt><trkpt lat="42.112672103227965" lon="11.934121085340411"><ele>423.0</ele><time>2026-04-18T09:14:12.855Z</time></trkpt><trkpt lat="42.1126388220547" lon="11.934257742830528"><ele>422.0</ele><time>2026-04-18T09:14:13.855Z</time></trkpt><trkpt lat="42.11261404610371" lon="11.934389022862854"><ele>421.0</ele><time>2026-04-18T09:14:14.855Z</time></trkpt><trkpt lat="42.11258964200004" lon="11.934508846502286"><ele>420.0</ele><time>2026-04-18T09:14:15.855Z</time></trkpt><trkpt lat="42.112560159775896" lon="11.934626227888552"><ele>419.0</ele><time>2026-04-18T09:14:16.855Z</time></trkpt><trkpt lat="42.11253218387488" lon="11.934735759571147"><ele>419.0</ele><time>2026-04-18T09:14:17.855Z</time></trkpt><trkpt lat="42.112519100899874" lon="11.934843448069685"><ele>419.0</ele><time>2026-04-18T09:14:18.855Z</time></trkpt><trkpt lat="42.11250373083215" lon="11.9349651613609"><ele>419.0</ele><time>2026-04-18T09:14:19.855Z</time></trkpt><trkpt lat="42.11246960928727" lon="11.935105390026688"><ele>419.0</ele><time>2026-04-18T09:14:20.855Z</time></trkpt><trkpt lat="42.112450742331816" lon="11.935256484446592"><ele>419.0</ele><time>2026-04-18T09:14:21.855Z</time></trkpt><trkpt lat="42.11242659213968" lon="11.935407579454813"><ele>415.0</ele><time>2026-04-18T09:14:22.855Z</time></trkpt><trkpt lat="42.11240364608011" lon="11.935552615474462"><ele>411.0</ele><time>2026-04-18T09:14:23.855Z</time></trkpt><trkpt lat="42.11237927200667" lon="11.935703603433693"><ele>407.0</ele><time>2026-04-18T09:14:24.855Z</time></trkpt><trkpt lat="42.112350237995926" lon="11.93584616566912"><ele>403.0</ele><time>2026-04-18T09:14:25.855Z</time></trkpt><trkpt lat="42.11231765334944" lon="11.935996610771427"><ele>402.4</ele><time>2026-04-18T09:14:26.855Z</time></trkpt><trkpt lat="42.11229345647398" lon="11.936145593063783"><ele>401.79999999999995</ele><time>2026-04-18T09:14:27.855Z</time></trkpt><trkpt lat="42.11227770822078" lon="11.936293591756117"><ele>401.2</ele><time>2026-04-18T09:14:28.855Z</time></trkpt><trkpt lat="42.112256792210516" lon="11.936432776587871"><ele>400.6</ele><time>2026-04-18T09:14:29.855Z</time></trkpt><trkpt lat="42.11222742945166" lon="11.93656287253632"><ele>400.0</ele><time>2026-04-18T09:14:30.855Z</time></trkpt><trkpt lat="42.11220512515712" lon="11.936686566010026"><ele>399.83333333333337</ele><time>2026-04-18T09:14:31.855Z</time></trkpt><trkpt lat="42.11218550020486" lon="11.936811237863205"><ele>399.6666666666667</ele><time>2026-04-18T09:14:32.855Z</time></trkpt><trkpt lat="42.11216522961588" lon="11.93692159417806"><ele>399.5</ele><time>2026-04-18T09:14:33.855Z</time></trkpt><trkpt lat="42.11214396079561" lon="11.93703404621151"><ele>399.33333333333337</ele><time>2026-04-18T09:14:34.855Z</time></trkpt><trkpt lat="42.11212543087333" lon="11.937152952191681"><ele>399.1666666666667</ele><time>2026-04-18T09:14:35.855Z</time></trkpt><trkpt lat="42.112117559130034" lon="11.93725849766681"><ele>399.0</ele><time>2026-04-18T09:14:36.855Z</time></trkpt><trkpt lat="42.11211858361037" lon="11.937357030151247"><ele>399.0</ele><time>2026-04-18T09:14:37.855Z</time></trkpt><trkpt lat="42.11212506212076" lon="11.937479143237864"><ele>399.0</ele><time>2026-04-18T09:14:38.855Z</time></trkpt><trkpt lat="42.1121514482605" lon="11.937599953351778"><ele>399.0</ele><time>2026-04-18T09:14:39.855Z</time></trkpt><trkpt lat="42.112169515849196" lon="11.937727903703342"><ele>399.0</ele><time>2026-04-18T09:14:40.855Z</time></trkpt><trkpt lat="42.11219035434709" lon="11.937875519598084"><ele>399.0</ele><time>2026-04-18T09:14:41.855Z</time></trkpt><trkpt lat="42.1122233469806" lon="11.938026779929084"><ele>398.6</ele><time>2026-04-18T09:14:42.855Z</time></trkpt><trkpt lat="42.11224747082077" lon="11.938168570594488"><ele>398.2</ele><time>2026-04-18T09:14:43.855Z</time></trkpt><trkpt lat="42.11224913176962" lon="11.938295308923315"><ele>397.8</ele><time>2026-04-18T09:14:44.855Z</time></trkpt><trkpt lat="42.1122645048764" lon="11.938401384754542"><ele>397.40000000000003</ele><time>2026-04-18T09:14:45.855Z</time></trkpt><trkpt lat="42.11228136401103" lon="11.938517717618259"><ele>397.0</ele><time>2026-04-18T09:14:46.855Z</time></trkpt><trkpt lat="42.11229905625764" lon="11.938639800072677"><ele>396.8</ele><time>2026-04-18T09:14:47.855Z</time></trkpt><trkpt lat="42.112313569724314" lon="11.938739947875652"><ele>396.6</ele><time>2026-04-18T09:14:48.855Z</time></trkpt><trkpt lat="42.1124700866515" lon="11.93878248931339"><ele>396.40000000000003</ele><time>2026-04-18T09:14:49.855Z</time></trkpt><trkpt lat="42.11256614886764" lon="11.938823126302285"><ele>396.20000000000005</ele><time>2026-04-18T09:14:50.855Z</time></trkpt><trkpt lat="42.11265692082546" lon="11.938867599233923"><ele>396.0</ele><time>2026-04-18T09:14:51.855Z</time></trkpt><trkpt lat="42.112730342941" lon="11.938920820507303"><ele>396.6666666666667</ele><time>2026-04-18T09:14:52.855Z</time></trkpt><trkpt lat="42.11280602946732" lon="11.938972967123142"><ele>397.33333333333337</ele><time>2026-04-18T09:14:53.855Z</time></trkpt><trkpt lat="42.11287648918331" lon="11.939017734468784"><ele>398.0</ele><time>2026-04-18T09:14:54.855Z</time></trkpt><trkpt lat="42.11294955916852" lon="11.93906639800116"><ele>398.6666666666667</ele><time>2026-04-18T09:14:55.855Z</time></trkpt><trkpt lat="42.11303846919969" lon="11.939119450410383"><ele>399.33333333333337</ele><time>2026-04-18T09:14:56.854Z</time></trkpt><trkpt lat="42.113125715931766" lon="11.939183337005865"><ele>400.0</ele><time>2026-04-18T09:14:57.854Z</time></trkpt><trkpt lat="42.11321983095913" lon="11.93926472644154"><ele>399.2</ele><time>2026-04-18T09:14:58.854Z</time></trkpt><trkpt lat="42.11330737729505" lon="11.939330626041897"><ele>398.4</ele><time>2026-04-18T09:14:59.854Z</time></trkpt><trkpt lat="42.113395397133104" lon="11.93939710141972"><ele>397.6</ele><time>2026-04-18T09:15:00.854Z</time></trkpt><trkpt lat="42.11349204198303" lon="11.939452900662221"><ele>396.8</ele><time>2026-04-18T09:15:01.854Z</time></trkpt><trkpt lat="42.11358677909935" lon="11.939481000394013"><ele>396.0</ele><time>2026-04-18T09:15:02.854Z</time></trkpt><trkpt lat="42.113669332013345" lon="11.939470003028646"><ele>396.0</ele><time>2026-04-18T09:15:03.854Z</time></trkpt><trkpt lat="42.11375323752995" lon="11.939462166742958"><ele>396.0</ele><time>2026-04-18T09:15:04.854Z</time></trkpt><trkpt lat="42.113836483298364" lon="11.939461030954577"><ele>396.0</ele><time>2026-04-18T09:15:05.854Z</time></trkpt><trkpt lat="42.11389586541931" lon="11.939509633590463"><ele>396.0</ele><time>2026-04-18T09:15:06.854Z</time></trkpt><trkpt lat="42.113941047920925" lon="11.939576461477856"><ele>396.0</ele><time>2026-04-18T09:15:07.854Z</time></trkpt><trkpt lat="42.11396857694326" lon="11.939678426158084"><ele>396.0</ele><time>2026-04-18T09:15:08.854Z</time></trkpt><trkpt lat="42.11399465088046" lon="11.939792043440761"><ele>396.0</ele><time>2026-04-18T09:15:09.854Z</time></trkpt><trkpt lat="42.11402382219574" lon="11.939915298160534"><ele>396.0</ele><time>2026-04-18T09:15:10.854Z</time></trkpt><trkpt lat="42.11404805282743" lon="11.940033154691218"><ele>396.0</ele><time>2026-04-18T09:15:11.854Z</time></trkpt><trkpt lat="42.114068918553144" lon="11.940155436296623"><ele>396.0</ele><time>2026-04-18T09:15:12.854Z</time></trkpt><trkpt lat="42.114085322020365" lon="11.940262680602144"><ele>396.0</ele><time>2026-04-18T09:15:13.854Z</time></trkpt><trkpt lat="42.11409655327313" lon="11.94036323628846"><ele>396.0</ele><time>2026-04-18T09:15:14.854Z</time></trkpt><trkpt lat="42.114181757439724" lon="11.940478816351527"><ele>397.3333333333333</ele><time>2026-04-18T09:15:16.854Z</time></trkpt><trkpt lat="42.11422255561891" lon="11.94054812257574"><ele>398.66666666666663</ele><time>2026-04-18T09:15:17.854Z</time></trkpt><trkpt lat="42.11425765715653" lon="11.940639937523262"><ele>400.0</ele><time>2026-04-18T09:15:18.854Z</time></trkpt><trkpt lat="42.11429475204068" lon="11.94076703266963"><ele>401.3333333333333</ele><time>2026-04-18T09:15:19.854Z</time></trkpt><trkpt lat="42.1143379631141" lon="11.940886579449687"><ele>402.66666666666663</ele><time>2026-04-18T09:15:20.854Z</time></trkpt><trkpt lat="42.11437108127846" lon="11.94099954935529"><ele>404.0</ele><time>2026-04-18T09:15:21.854Z</time></trkpt><trkpt lat="42.11439486974946" lon="11.941130746291256"><ele>404.0</ele><time>2026-04-18T09:15:22.854Z</time></trkpt><trkpt lat="42.1144071509202" lon="11.941266283329611"><ele>404.0</ele><time>2026-04-18T09:15:23.854Z</time></trkpt><trkpt lat="42.114412890190145" lon="11.94138134188926"><ele>404.0</ele><time>2026-04-18T09:15:24.854Z</time></trkpt><trkpt lat="42.11441311219308" lon="11.941496048817525"><ele>404.0</ele><time>2026-04-18T09:15:25.854Z</time></trkpt><trkpt lat="42.114413962976535" lon="11.94163365134102"><ele>404.0</ele><time>2026-04-18T09:15:26.852Z</time></trkpt><trkpt lat="42.114409441759655" lon="11.941743993684348"><ele>404.3333333333333</ele><time>2026-04-18T09:15:27.852Z</time></trkpt><trkpt lat="42.11439194642343" lon="11.941847098306175"><ele>404.66666666666663</ele><time>2026-04-18T09:15:28.852Z</time></trkpt><trkpt lat="42.114366390684204" lon="11.94194763183238"><ele>405.0</ele><time>2026-04-18T09:15:29.852Z</time></trkpt><trkpt lat="42.11433016856911" lon="11.94204673055276"><ele>405.33333333333337</ele><time>2026-04-18T09:15:30.852Z</time></trkpt><trkpt lat="42.11429625406393" lon="11.942135641957435"><ele>405.6666666666667</ele><time>2026-04-18T09:15:31.852Z</time></trkpt><trkpt lat="42.1142504443295" lon="11.942244980656673"><ele>406.0</ele><time>2026-04-18T09:15:33.852Z</time></trkpt><trkpt lat="42.114264296217236" lon="11.942328423038386"><ele>406.0</ele><time>2026-04-18T09:15:47.851Z</time></trkpt><trkpt lat="42.11433472280743" lon="11.942411366914593"><ele>406.0</ele><time>2026-04-18T09:15:49.851Z</time></trkpt><trkpt lat="42.11438696156093" lon="11.942498876383771"><ele>406.0</ele><time>2026-04-18T09:15:51.851Z</time></trkpt><trkpt lat="42.11446204884974" lon="11.942563994468584"><ele>406.0</ele><time>2026-04-18T09:15:53.851Z</time></trkpt><trkpt lat="42.114549234113035" lon="11.942642764377466"><ele>406.0</ele><time>2026-04-18T09:15:55.851Z</time></trkpt><trkpt lat="42.1146434210548" lon="11.942694540314625"><ele>404.83333333333337</ele><time>2026-04-18T09:15:57.851Z</time></trkpt><trkpt lat="42.11471892159703" lon="11.94269318582368"><ele>403.6666666666667</ele><time>2026-04-18T09:15:59.851Z</time></trkpt><trkpt lat="42.11479385225445" lon="11.942738902868024"><ele>402.5</ele><time>2026-04-18T09:16:02.851Z</time></trkpt><trkpt lat="42.11483781236334" lon="11.942824750243048"><ele>401.33333333333337</ele><time>2026-04-18T09:16:04.851Z</time></trkpt><trkpt lat="42.1148257440579" lon="11.94291845230266"><ele>400.1666666666667</ele><time>2026-04-18T09:16:06.851Z</time></trkpt><trkpt lat="42.11477336597453" lon="11.943042874239634"><ele>399.0</ele><time>2026-04-18T09:16:08.851Z</time></trkpt><trkpt lat="42.11474743121361" lon="11.943192458698103"><ele>399.0</ele><time>2026-04-18T09:16:10.851Z</time></trkpt><trkpt lat="42.11472840919414" lon="11.943317822148007"><ele>399.0</ele><time>2026-04-18T09:16:12.851Z</time></trkpt><trkpt lat="42.11470777527381" lon="11.943464502593667"><ele>399.0</ele><time>2026-04-18T09:16:14.851Z</time></trkpt><trkpt lat="42.11467412757802" lon="11.943576374359576"><ele>399.0</ele><time>2026-04-18T09:16:16.851Z</time></trkpt><trkpt lat="42.11461740616058" lon="11.943663754348272"><ele>399.0</ele><time>2026-04-18T09:16:19.851Z</time></trkpt><trkpt lat="42.11456736778876" lon="11.943769506056197"><ele>397.0</ele><time>2026-04-18T09:16:21.851Z</time></trkpt><trkpt lat="42.11452092307528" lon="11.943914639757097"><ele>395.0</ele><time>2026-04-18T09:16:23.851Z</time></trkpt><trkpt lat="42.11452270322143" lon="11.944033052553722"><ele>393.0</ele><time>2026-04-18T09:16:25.851Z</time></trkpt><trkpt lat="42.11455498128928" lon="11.944157853619874"><ele>391.0</ele><time>2026-04-18T09:16:27.851Z</time></trkpt><trkpt lat="42.114545226883315" lon="11.944251725695217"><ele>389.0</ele><time>2026-04-18T09:16:28.851Z</time></trkpt><trkpt lat="42.11452668092127" lon="11.944349596320775"><ele>387.0</ele><time>2026-04-18T09:16:29.851Z</time></trkpt><trkpt lat="42.114532080152394" lon="11.944516849750034"><ele>384.40000000000003</ele><time>2026-04-18T09:16:31.85Z</time></trkpt><trkpt lat="42.11453169435828" lon="11.944615274480554"><ele>381.8</ele><time>2026-04-18T09:16:32.85Z</time></trkpt><trkpt lat="42.114519719972584" lon="11.944725493697215"><ele>379.2</ele><time>2026-04-18T09:16:33.85Z</time></trkpt><trkpt lat="42.11449955133975" lon="11.94487107004993"><ele>376.6</ele><time>2026-04-18T09:16:35.85Z</time></trkpt><trkpt lat="42.11457037161356" lon="11.944935588172703"><ele>374.0</ele><time>2026-04-18T09:16:38.85Z</time></trkpt><trkpt lat="42.11467413721705" lon="11.944912613945904"><ele>374.0</ele><time>2026-04-18T09:16:41.85Z</time></trkpt><trkpt lat="42.11474114036194" lon="11.944872474476446"><ele>374.0</ele><time>2026-04-18T09:16:43.85Z</time></trkpt><trkpt lat="42.11478069971252" lon="11.944938690159283"><ele>374.0</ele><time>2026-04-18T09:16:45.85Z</time></trkpt><trkpt lat="42.114771789615354" lon="11.945042629727803"><ele>374.0</ele><time>2026-04-18T09:16:47.85Z</time></trkpt><trkpt lat="42.11472540659892" lon="11.945170006972672"><ele>374.0</ele><time>2026-04-18T09:16:49.85Z</time></trkpt><trkpt lat="42.114705851374616" lon="11.94528881099908"><ele>374.0</ele><time>2026-04-18T09:16:51.85Z</time></trkpt><trkpt lat="42.11471409606837" lon="11.94537510109836"><ele>372.1666666666667</ele><time>2026-04-18T09:16:52.85Z</time></trkpt><trkpt lat="42.114719108316834" lon="11.94547895114525"><ele>370.33333333333337</ele><time>2026-04-18T09:16:53.85Z</time></trkpt><trkpt lat="42.11471285027074" lon="11.945577113213986"><ele>368.5</ele><time>2026-04-18T09:16:54.85Z</time></trkpt><trkpt lat="42.11470076884365" lon="11.945683403156218"><ele>366.6666666666667</ele><time>2026-04-18T09:16:55.85Z</time></trkpt><trkpt lat="42.114685111603755" lon="11.945777062428794"><ele>364.8333333333333</ele><time>2026-04-18T09:16:56.85Z</time></trkpt><trkpt lat="42.1146552958623" lon="11.945913758854791"><ele>363.0</ele><time>2026-04-18T09:16:58.85Z</time></trkpt><trkpt lat="42.114636724824805" lon="11.946050233929865"><ele>362.0</ele><time>2026-04-18T09:17:00.85Z</time></trkpt><trkpt lat="42.11464258024347" lon="11.946238069237106"><ele>361.0</ele><time>2026-04-18T09:17:02.85Z</time></trkpt><trkpt lat="42.1146659508607" lon="11.946321628682561"><ele>360.0</ele><time>2026-04-18T09:17:03.85Z</time></trkpt><trkpt lat="42.11471248683389" lon="11.946462333046998"><ele>359.0</ele><time>2026-04-18T09:17:05.85Z</time></trkpt><trkpt lat="42.11475124415217" lon="11.946545503094471"><ele>358.0</ele><time>2026-04-18T09:17:06.85Z</time></trkpt><trkpt lat="42.1147818685876" lon="11.94662484738198"><ele>358.0</ele><time>2026-04-18T09:17:07.85Z</time></trkpt><trkpt lat="42.114832828704486" lon="11.946783419154615"><ele>358.0</ele><time>2026-04-18T09:17:09.85Z</time></trkpt><trkpt lat="42.11492361660724" lon="11.94690547600269"><ele>358.0</ele><time>2026-04-18T09:17:11.85Z</time></trkpt><trkpt lat="42.11499590396668" lon="11.947023376803882"><ele>358.0</ele><time>2026-04-18T09:17:13.85Z</time></trkpt><trkpt lat="42.11501720923906" lon="11.947123408356887"><ele>358.0</ele><time>2026-04-18T09:17:14.85Z</time></trkpt><trkpt lat="42.11502305845476" lon="11.947218685890979"><ele>359.8333333333333</ele><time>2026-04-18T09:17:15.85Z</time></trkpt><trkpt lat="42.115040464294545" lon="11.947309247179437"><ele>361.66666666666663</ele><time>2026-04-18T09:17:16.85Z</time></trkpt><trkpt lat="42.11505919085041" lon="11.947405278834674"><ele>363.5</ele><time>2026-04-18T09:17:17.85Z</time></trkpt><trkpt lat="42.11509788363195" lon="11.94749338697589"><ele>365.3333333333333</ele><time>2026-04-18T09:17:18.85Z</time></trkpt><trkpt lat="42.11515224462491" lon="11.94755540182206"><ele>367.1666666666667</ele><time>2026-04-18T09:17:19.85Z</time></trkpt><trkpt lat="42.115241024924295" lon="11.947645616580852"><ele>369.0</ele><time>2026-04-18T09:17:21.85Z</time></trkpt><trkpt lat="42.11526668674018" lon="11.94780231552771"><ele>369.0</ele><time>2026-04-18T09:17:23.85Z</time></trkpt><trkpt lat="42.11530960089404" lon="11.94790649088405"><ele>369.0</ele><time>2026-04-18T09:17:24.85Z</time></trkpt><trkpt lat="42.11534493900465" lon="11.948011005204227"><ele>369.0</ele><time>2026-04-18T09:17:25.85Z</time></trkpt><trkpt lat="42.11536903208609" lon="11.94812582518382"><ele>369.0</ele><time>2026-04-18T09:17:26.85Z</time></trkpt><trkpt lat="42.11540635699535" lon="11.948230811843843"><ele>369.0</ele><time>2026-04-18T09:17:27.85Z</time></trkpt><trkpt lat="42.115447135325255" lon="11.948302709306486"><ele>369.0</ele><time>2026-04-18T09:17:28.85Z</time></trkpt><trkpt lat="42.115519004049716" lon="11.948417784847523"><ele>368.0</ele><time>2026-04-18T09:17:30.85Z</time></trkpt><trkpt lat="42.115575832242435" lon="11.948540995826251"><ele>367.0</ele><time>2026-04-18T09:17:32.848Z</time></trkpt><trkpt lat="42.115587921328746" lon="11.948624900282626"><ele>366.0</ele><time>2026-04-18T09:17:33.848Z</time></trkpt><trkpt lat="42.11562673228841" lon="11.948750091504406"><ele>365.0</ele><time>2026-04-18T09:17:35.848Z</time></trkpt><trkpt lat="42.11566153480136" lon="11.948880012886349"><ele>364.0</ele><time>2026-04-18T09:17:37.848Z</time></trkpt><trkpt lat="42.115657535730556" lon="11.948995779487282"><ele>364.0</ele><time>2026-04-18T09:17:38.848Z</time></trkpt><trkpt lat="42.115659223227155" lon="11.949106925204998"><ele>364.0</ele><time>2026-04-18T09:17:39.848Z</time></trkpt><trkpt lat="42.11566026525127" lon="11.949221644089778"><ele>364.0</ele><time>2026-04-18T09:17:40.848Z</time></trkpt><trkpt lat="42.115659817838214" lon="11.949328005650129"><ele>364.0</ele><time>2026-04-18T09:17:41.848Z</time></trkpt><trkpt lat="42.115645280800244" lon="11.949439677862637"><ele>364.0</ele><time>2026-04-18T09:17:42.847Z</time></trkpt><trkpt lat="42.11561944917915" lon="11.94955339880902"><ele>364.0</ele><time>2026-04-18T09:17:43.847Z</time></trkpt><trkpt lat="42.1156030018592" lon="11.949675733404298"><ele>362.0</ele><time>2026-04-18T09:17:44.848Z</time></trkpt><trkpt lat="42.11559056641127" lon="11.949806608319554"><ele>360.0</ele><time>2026-04-18T09:17:45.848Z</time></trkpt><trkpt lat="42.11557299136605" lon="11.949925181608844"><ele>358.0</ele><time>2026-04-18T09:17:46.848Z</time></trkpt><trkpt lat="42.115551027743585" lon="11.950028440280011"><ele>356.0</ele><time>2026-04-18T09:17:47.848Z</time></trkpt><trkpt lat="42.11552177635593" lon="11.95017462006363"><ele>354.0</ele><time>2026-04-18T09:17:49.848Z</time></trkpt><trkpt lat="42.11559940919902" lon="11.950257739616545"><ele>353.2</ele><time>2026-04-18T09:17:51.848Z</time></trkpt><trkpt lat="42.11569584691575" lon="11.95027584255903"><ele>352.4</ele><time>2026-04-18T09:17:53.848Z</time></trkpt><trkpt lat="42.115802688625955" lon="11.950298058507123"><ele>351.6</ele><time>2026-04-18T09:17:55.848Z</time></trkpt><trkpt lat="42.11588828711488" lon="11.95034494839304"><ele>350.8</ele><time>2026-04-18T09:17:57.848Z</time></trkpt><trkpt lat="42.11597129793514" lon="11.950393436832469"><ele>350.0</ele><time>2026-04-18T09:17:59.848Z</time></trkpt><trkpt lat="42.11609092633845" lon="11.950441512240053"><ele>351.8</ele><time>2026-04-18T09:18:01.848Z</time></trkpt><trkpt lat="42.116200350505444" lon="11.95045290253098"><ele>353.6</ele><time>2026-04-18T09:18:03.848Z</time></trkpt><trkpt lat="42.116305506520156" lon="11.95045889900514"><ele>355.4</ele><time>2026-04-18T09:18:05.848Z</time></trkpt><trkpt lat="42.11639996703644" lon="11.950438694383736"><ele>357.2</ele><time>2026-04-18T09:18:07.848Z</time></trkpt><trkpt lat="42.11649190777094" lon="11.950440858684342"><ele>359.0</ele><time>2026-04-18T09:18:09.848Z</time></trkpt><trkpt lat="42.116561928521605" lon="11.95045007307884"><ele>359.1666666666667</ele><time>2026-04-18T09:18:11.848Z</time></trkpt><trkpt lat="42.11663311266139" lon="11.950494077289617"><ele>359.33333333333337</ele><time>2026-04-18T09:18:13.848Z</time></trkpt><trkpt lat="42.11671406637025" lon="11.950521659354273"><ele>359.5</ele><time>2026-04-18T09:18:15.848Z</time></trkpt><trkpt lat="42.116784317245965" lon="11.950546866809194"><ele>359.6666666666667</ele><time>2026-04-18T09:18:17.848Z</time></trkpt><trkpt lat="42.116855835484444" lon="11.950606943454932"><ele>359.8333333333333</ele><time>2026-04-18T09:18:19.848Z</time></trkpt><trkpt lat="42.11695403190903" lon="11.950631268428586"><ele>360.0</ele><time>2026-04-18T09:18:21.848Z</time></trkpt><trkpt lat="42.11704803502131" lon="11.950617080352853"><ele>360.0</ele><time>2026-04-18T09:18:23.847Z</time></trkpt><trkpt lat="42.117143052276255" lon="11.950625763986503"><ele>360.0</ele><time>2026-04-18T09:18:25.847Z</time></trkpt><trkpt lat="42.11720787003513" lon="11.950651430995958"><ele>360.0</ele><time>2026-04-18T09:18:27.847Z</time></trkpt><trkpt lat="42.11727349314543" lon="11.950708535954117"><ele>360.0</ele><time>2026-04-18T09:18:35.847Z</time></trkpt><trkpt lat="42.1173924225506" lon="11.950713953918855"><ele>360.0</ele><time>2026-04-18T09:18:37.847Z</time></trkpt><trkpt lat="42.11747903344201" lon="11.95071275406296"><ele>360.0</ele><time>2026-04-18T09:18:39.847Z</time></trkpt><trkpt lat="42.117555487065545" lon="11.95078603306081"><ele>359.8</ele><time>2026-04-18T09:18:41.847Z</time></trkpt><trkpt lat="42.117601803628666" lon="11.950926158468931"><ele>359.6</ele><time>2026-04-18T09:18:43.847Z</time></trkpt><trkpt lat="42.117578905709415" lon="11.951009449269486"><ele>359.4</ele><time>2026-04-18T09:18:44.847Z</time></trkpt><trkpt lat="42.11753624566044" lon="11.95117790107841"><ele>359.2</ele><time>2026-04-18T09:18:46.847Z</time></trkpt><trkpt lat="42.11753480278648" lon="11.951279642684696"><ele>359.0</ele><time>2026-04-18T09:18:47.847Z</time></trkpt><trkpt lat="42.11754496368143" lon="11.951371313686982"><ele>359.0</ele><time>2026-04-18T09:18:48.847Z</time></trkpt><trkpt lat="42.117566979447204" lon="11.951472853143487"><ele>359.0</ele><time>2026-04-18T09:18:49.847Z</time></trkpt><trkpt lat="42.11765165240025" lon="11.951546739013166"><ele>359.0</ele><time>2026-04-18T09:18:51.847Z</time></trkpt><trkpt lat="42.11777581564074" lon="11.951571622473384"><ele>359.0</ele><time>2026-04-18T09:18:53.847Z</time></trkpt><trkpt lat="42.11785168460468" lon="11.951610016157867"><ele>359.0</ele><time>2026-04-18T09:18:54.847Z</time></trkpt><trkpt lat="42.117935229563344" lon="11.951654198733005"><ele>359.0</ele><time>2026-04-18T09:18:55.847Z</time></trkpt><trkpt lat="42.118012553950926" lon="11.9516874898591"><ele>359.0</ele><time>2026-04-18T09:18:56.847Z</time></trkpt><trkpt lat="42.11809352446941" lon="11.951694104893896"><ele>359.0</ele><time>2026-04-18T09:18:57.847Z</time></trkpt><trkpt lat="42.11816405029274" lon="11.951708828469052"><ele>359.0</ele><time>2026-04-18T09:18:58.847Z</time></trkpt><trkpt lat="42.11824392541525" lon="11.951721244636634"><ele>359.0</ele><time>2026-04-18T09:18:59.847Z</time></trkpt><trkpt lat="42.11831605929497" lon="11.951755329003277"><ele>359.0</ele><time>2026-04-18T09:19:00.847Z</time></trkpt><trkpt lat="42.11837474245491" lon="11.951790503289207"><ele>359.2</ele><time>2026-04-18T09:19:01.847Z</time></trkpt><trkpt lat="42.11842749612205" lon="11.951838245384748"><ele>359.4</ele><time>2026-04-18T09:19:02.847Z</time></trkpt><trkpt lat="42.11854379522751" lon="11.951908296761077"><ele>359.6</ele><time>2026-04-18T09:19:04.847Z</time></trkpt><trkpt lat="42.118653334445106" lon="11.951980857145504"><ele>359.8</ele><time>2026-04-18T09:19:06.846Z</time></trkpt><trkpt lat="42.118718955494565" lon="11.95204284471775"><ele>360.0</ele><time>2026-04-18T09:19:07.846Z</time></trkpt><trkpt lat="42.11877877364535" lon="11.952102415760868"><ele>360.0</ele><time>2026-04-18T09:19:08.846Z</time></trkpt><trkpt lat="42.11883720579859" lon="11.952197923768882"><ele>360.0</ele><time>2026-04-18T09:19:09.846Z</time></trkpt><trkpt lat="42.118888551447455" lon="11.952288484745036"><ele>360.0</ele><time>2026-04-18T09:19:10.845Z</time></trkpt><trkpt lat="42.118927882189915" lon="11.952369809687633"><ele>360.0</ele><time>2026-04-18T09:19:11.845Z</time></trkpt><trkpt lat="42.11898873596505" lon="11.952514818003365"><ele>360.0</ele><time>2026-04-18T09:19:13.845Z</time></trkpt><trkpt lat="42.11906137079447" lon="11.95263750869156"><ele>360.0</ele><time>2026-04-18T09:19:15.845Z</time></trkpt><trkpt lat="42.119106511150925" lon="11.952754314893019"><ele>360.0</ele><time>2026-04-18T09:19:17.845Z</time></trkpt><trkpt lat="42.11912391818214" lon="11.952887661881315"><ele>360.0</ele><time>2026-04-18T09:19:19.844Z</time></trkpt><trkpt lat="42.11909211815877" lon="11.95300748915063"><ele>360.0</ele><time>2026-04-18T09:19:21.844Z</time></trkpt><trkpt lat="42.119004745667056" lon="11.953094769046988"><ele>360.0</ele><time>2026-04-18T09:19:23.844Z</time></trkpt><trkpt lat="42.11890930533688" lon="11.953149689562359"><ele>360.0</ele><time>2026-04-18T09:19:25.844Z</time></trkpt><trkpt lat="42.11884461316867" lon="11.953196537294414"><ele>360.0</ele><time>2026-04-18T09:19:27.844Z</time></trkpt><trkpt lat="42.118753182517615" lon="11.95321943689559"><ele>360.0</ele><time>2026-04-18T09:19:29.844Z</time></trkpt><trkpt lat="42.11862943880197" lon="11.953237724611498"><ele>360.0</ele><time>2026-04-18T09:19:31.844Z</time></trkpt><trkpt lat="42.118517296162835" lon="11.953266149473576"><ele>360.0</ele><time>2026-04-18T09:19:33.843Z</time></trkpt><trkpt lat="42.118431210993705" lon="11.953348933104579"><ele>360.5</ele><time>2026-04-18T09:19:35.843Z</time></trkpt><trkpt lat="42.11837983691733" lon="11.953399741838247"><ele>361.0</ele><time>2026-04-18T09:19:36.843Z</time></trkpt><trkpt lat="42.11831580981463" lon="11.953459358556781"><ele>361.5</ele><time>2026-04-18T09:19:37.843Z</time></trkpt><trkpt lat="42.11824595612799" lon="11.953523562666994"><ele>362.0</ele><time>2026-04-18T09:19:38.841Z</time></trkpt><trkpt lat="42.11816912808869" lon="11.95364052312216"><ele>362.5</ele><time>2026-04-18T09:19:40.841Z</time></trkpt><trkpt lat="42.11817534617115" lon="11.953729447564726"><ele>363.0</ele><time>2026-04-18T09:19:41.841Z</time></trkpt><trkpt lat="42.1181830876351" lon="11.953839464155402"><ele>363.0</ele><time>2026-04-18T09:19:42.841Z</time></trkpt><trkpt lat="42.11818971979847" lon="11.953951858790562"><ele>363.0</ele><time>2026-04-18T09:19:43.84Z</time></trkpt><trkpt lat="42.11814869481036" lon="11.9541220809984"><ele>363.0</ele><time>2026-04-18T09:19:45.841Z</time></trkpt><trkpt lat="42.11815013008333" lon="11.954281005088763"><ele>363.0</ele><time>2026-04-18T09:19:47.841Z</time></trkpt><trkpt lat="42.11816238957225" lon="11.954469421136652"><ele>363.3333333333333</ele><time>2026-04-18T09:19:49.841Z</time></trkpt><trkpt lat="42.1181655280106" lon="11.95455769552428"><ele>363.6666666666667</ele><time>2026-04-18T09:19:50.84Z</time></trkpt><trkpt lat="42.118174434401794" lon="11.954649737065585"><ele>364.0</ele><time>2026-04-18T09:19:51.84Z</time></trkpt><trkpt lat="42.11819274877989" lon="11.954792698808872"><ele>364.33333333333337</ele><time>2026-04-18T09:19:53.84Z</time></trkpt><trkpt lat="42.11821331625125" lon="11.954907148725184"><ele>364.6666666666667</ele><time>2026-04-18T09:19:55.84Z</time></trkpt><trkpt lat="42.11823200549994" lon="11.95499513535293"><ele>365.0</ele><time>2026-04-18T09:19:57.84Z</time></trkpt><trkpt lat="42.118260544026775" lon="11.955106903263617"><ele>364.0</ele><time>2026-04-18T09:20:00.84Z</time></trkpt><trkpt lat="42.11832729693848" lon="11.955193609504912"><ele>363.0</ele><time>2026-04-18T09:20:03.84Z</time></trkpt><trkpt lat="42.11841450820057" lon="11.955259905122192"><ele>362.0</ele><time>2026-04-18T09:20:05.84Z</time></trkpt><trkpt lat="42.11847630703624" lon="11.95531192066442"><ele>361.0</ele><time>2026-04-18T09:20:07.84Z</time></trkpt><trkpt lat="42.11854152943983" lon="11.955339608303623"><ele>360.0</ele><time>2026-04-18T09:20:09.84Z</time></trkpt><trkpt lat="42.11860832917363" lon="11.95537385177603"><ele>359.0</ele><time>2026-04-18T09:21:14.842Z</time></trkpt><trkpt lat="42.11866956995789" lon="11.955397853126197"><ele>359.0</ele><time>2026-04-18T09:21:21.842Z</time></trkpt><trkpt lat="42.118730473724284" lon="11.955452740966503"><ele>359.0</ele><time>2026-04-18T09:21:56.841Z</time></trkpt><trkpt lat="42.11880141453831" lon="11.95551485288534"><ele>359.0</ele><time>2026-04-18T09:21:58.84Z</time></trkpt><trkpt lat="42.1188906175458" lon="11.955569363848651"><ele>359.0</ele><time>2026-04-18T09:22:00.84Z</time></trkpt><trkpt lat="42.11895716077888" lon="11.955637315182088"><ele>359.0</ele><time>2026-04-18T09:22:02.84Z</time></trkpt><trkpt lat="42.11903566136463" lon="11.955702025952176"><ele>359.0</ele><time>2026-04-18T09:22:04.84Z</time></trkpt><trkpt lat="42.119099272918405" lon="11.955799143051197"><ele>357.5</ele><time>2026-04-18T09:22:06.84Z</time></trkpt><trkpt lat="42.11919091976209" lon="11.95590440948196"><ele>356.0</ele><time>2026-04-18T09:22:08.84Z</time></trkpt><trkpt lat="42.11927815103556" lon="11.955966988014925"><ele>354.5</ele><time>2026-04-18T09:22:10.84Z</time></trkpt><trkpt lat="42.119337763634796" lon="11.955998454805606"><ele>353.0</ele><time>2026-04-18T09:22:17.84Z</time></trkpt><trkpt lat="42.119412607506895" lon="11.956042669489797"><ele>351.5</ele><time>2026-04-18T09:22:51.839Z</time></trkpt><trkpt lat="42.11948145595831" lon="11.95608231322249"><ele>350.0</ele><time>2026-04-18T09:22:54.839Z</time></trkpt><trkpt lat="42.11954481355574" lon="11.956107563409697"><ele>350.0</ele><time>2026-04-18T09:22:56.839Z</time></trkpt><trkpt lat="42.119603894579" lon="11.956161453134882"><ele>350.0</ele><time>2026-04-18T09:22:58.839Z</time></trkpt><trkpt lat="42.11970808821365" lon="11.95624343216351"><ele>350.0</ele><time>2026-04-18T09:23:01.839Z</time></trkpt><trkpt lat="42.119772241018076" lon="11.95628239872216"><ele>350.0</ele><time>2026-04-18T09:23:02.839Z</time></trkpt><trkpt lat="42.11983270305717" lon="11.956334456155064"><ele>350.0</ele><time>2026-04-18T09:23:03.839Z</time></trkpt><trkpt lat="42.11989821750231" lon="11.956390669969101"><ele>350.0</ele><time>2026-04-18T09:23:04.839Z</time></trkpt><trkpt lat="42.119966526496235" lon="11.956441432808695"><ele>348.0</ele><time>2026-04-18T09:23:05.839Z</time></trkpt><trkpt lat="42.12003843261554" lon="11.956488683671608"><ele>346.0</ele><time>2026-04-18T09:23:07.839Z</time></trkpt><trkpt lat="42.12010287921024" lon="11.956519438575144"><ele>344.0</ele><time>2026-04-18T09:23:10.839Z</time></trkpt><trkpt lat="42.12018248520953" lon="11.95653378248341"><ele>342.0</ele><time>2026-04-18T09:23:13.839Z</time></trkpt><trkpt lat="42.1202773033501" lon="11.956580561429247"><ele>340.0</ele><time>2026-04-18T09:23:15.839Z</time></trkpt><trkpt lat="42.12034640812262" lon="11.956602699739815"><ele>338.0</ele><time>2026-04-18T09:23:17.839Z</time></trkpt><trkpt lat="42.120449780224476" lon="11.956625531486328"><ele>338.0</ele><time>2026-04-18T09:23:19.839Z</time></trkpt><trkpt lat="42.12052004749385" lon="11.956688072785361"><ele>338.0</ele><time>2026-04-18T09:23:21.839Z</time></trkpt><trkpt lat="42.12057152446397" lon="11.956792477439322"><ele>338.0</ele><time>2026-04-18T09:23:23.838Z</time></trkpt><trkpt lat="42.120561664089934" lon="11.956915151867268"><ele>338.0</ele><time>2026-04-18T09:23:25.838Z</time></trkpt><trkpt lat="42.120524276657164" lon="11.956985230521246"><ele>338.0</ele><time>2026-04-18T09:23:26.838Z</time></trkpt><trkpt lat="42.12046618946004" lon="11.957114616743128"><ele>338.0</ele><time>2026-04-18T09:23:28.838Z</time></trkpt><trkpt lat="42.120458724860384" lon="11.957231908143132"><ele>337.5</ele><time>2026-04-18T09:23:30.838Z</time></trkpt><trkpt lat="42.12047823602235" lon="11.95733939113467"><ele>337.0</ele><time>2026-04-18T09:23:32.838Z</time></trkpt><trkpt lat="42.120467368381064" lon="11.957466063339353"><ele>336.5</ele><time>2026-04-18T09:23:34.838Z</time></trkpt><trkpt lat="42.12044687707715" lon="11.957571623832605"><ele>336.0</ele><time>2026-04-18T09:23:36.838Z</time></trkpt><trkpt lat="42.120451756471816" lon="11.95766725733147"><ele>335.5</ele><time>2026-04-18T09:23:38.838Z</time></trkpt><trkpt lat="42.12043882204497" lon="11.957799604294603"><ele>335.0</ele><time>2026-04-18T09:23:40.838Z</time></trkpt><trkpt lat="42.120434109094084" lon="11.957938926166364"><ele>335.0</ele><time>2026-04-18T09:23:42.838Z</time></trkpt><trkpt lat="42.12041453424112" lon="11.95811274453844"><ele>335.0</ele><time>2026-04-18T09:23:44.838Z</time></trkpt><trkpt lat="42.12040671272719" lon="11.958216967882898"><ele>335.0</ele><time>2026-04-18T09:23:45.838Z</time></trkpt><trkpt lat="42.120404636908766" lon="11.958336801704059"><ele>335.0</ele><time>2026-04-18T09:23:46.838Z</time></trkpt><trkpt lat="42.120413269226674" lon="11.958460004524524"><ele>335.0</ele><time>2026-04-18T09:23:47.838Z</time></trkpt><trkpt lat="42.120430592557476" lon="11.958582746326641"><ele>336.2</ele><time>2026-04-18T09:23:48.838Z</time></trkpt><trkpt lat="42.12046259172326" lon="11.958705893293418"><ele>337.4</ele><time>2026-04-18T09:23:49.838Z</time></trkpt><trkpt lat="42.120510545017176" lon="11.958828562568142"><ele>338.6</ele><time>2026-04-18T09:23:50.837Z</time></trkpt><trkpt lat="42.12057384563684" lon="11.95894185840488"><ele>339.8</ele><time>2026-04-18T09:23:51.837Z</time></trkpt><trkpt lat="42.120641294627255" lon="11.959057501401038"><ele>341.0</ele><time>2026-04-18T09:23:52.837Z</time></trkpt><trkpt lat="42.120690027951376" lon="11.959191805722325"><ele>341.5</ele><time>2026-04-18T09:23:53.837Z</time></trkpt><trkpt lat="42.120720083926074" lon="11.959328184832781"><ele>342.0</ele><time>2026-04-18T09:23:54.837Z</time></trkpt><trkpt lat="42.120700226320196" lon="11.959484213074433"><ele>342.5</ele><time>2026-04-18T09:23:55.837Z</time></trkpt><trkpt lat="42.12065124312355" lon="11.95963480465179"><ele>343.0</ele><time>2026-04-18T09:23:56.837Z</time></trkpt><trkpt lat="42.120580075542065" lon="11.95978855666905"><ele>343.0</ele><time>2026-04-18T09:23:57.836Z</time></trkpt><trkpt lat="42.12052213610619" lon="11.959937911071933"><ele>343.0</ele><time>2026-04-18T09:23:58.836Z</time></trkpt><trkpt lat="42.12046050575352" lon="11.960070708612173"><ele>343.0</ele><time>2026-04-18T09:23:59.837Z</time></trkpt><trkpt lat="42.12045906662311" lon="11.960231574790075"><ele>343.0</ele><time>2026-04-18T09:24:00.836Z</time></trkpt><trkpt lat="42.12050557519524" lon="11.96040931546674"><ele>340.75</ele><time>2026-04-18T09:24:01.836Z</time></trkpt><trkpt lat="42.120574313356286" lon="11.960571365455927"><ele>338.5</ele><time>2026-04-18T09:24:02.836Z</time></trkpt><trkpt lat="42.1205977096829" lon="11.960722254420121"><ele>336.25</ele><time>2026-04-18T09:24:03.837Z</time></trkpt><trkpt lat="42.12059514142323" lon="11.960861051926358"><ele>334.0</ele><time>2026-04-18T09:24:04.837Z</time></trkpt><trkpt lat="42.12054765106697" lon="11.960984475307738"><ele>332.25</ele><time>2026-04-18T09:24:05.837Z</time></trkpt><trkpt lat="42.120455701370624" lon="11.961061782283855"><ele>330.5</ele><time>2026-04-18T09:24:06.837Z</time></trkpt><trkpt lat="42.12033351794541" lon="11.961113092778437"><ele>328.75</ele><time>2026-04-18T09:24:07.837Z</time></trkpt><trkpt lat="42.120215571681584" lon="11.961180869843558"><ele>327.0</ele><time>2026-04-18T09:24:08.837Z</time></trkpt><trkpt lat="42.120105304549675" lon="11.961221119289657"><ele>327.0</ele><time>2026-04-18T09:24:09.836Z</time></trkpt><trkpt lat="42.12001500694491" lon="11.961285770885604"><ele>327.0</ele><time>2026-04-18T09:24:10.836Z</time></trkpt><trkpt lat="42.119955556690904" lon="11.961395451618726"><ele>327.0</ele><time>2026-04-18T09:24:11.836Z</time></trkpt><trkpt lat="42.11990500510558" lon="11.961511409225249"><ele>327.0</ele><time>2026-04-18T09:24:12.836Z</time></trkpt><trkpt lat="42.119975128001784" lon="11.961702653691816"><ele>326.25</ele><time>2026-04-18T09:24:13.836Z</time></trkpt><trkpt lat="42.1200325241044" lon="11.961854182695777"><ele>325.5</ele><time>2026-04-18T09:24:14.836Z</time></trkpt><trkpt lat="42.12007517593077" lon="11.961993392685535"><ele>324.75</ele><time>2026-04-18T09:24:15.836Z</time></trkpt><trkpt lat="42.1200905004618" lon="11.962126400279983"><ele>324.0</ele><time>2026-04-18T09:24:16.836Z</time></trkpt><trkpt lat="42.120045192534256" lon="11.962268719265635"><ele>324.0</ele><time>2026-04-18T09:24:17.836Z</time></trkpt><trkpt lat="42.11997871823526" lon="11.962385850123775"><ele>324.0</ele><time>2026-04-18T09:24:18.836Z</time></trkpt><trkpt lat="42.119876154304855" lon="11.962472535319293"><ele>324.0</ele><time>2026-04-18T09:24:19.836Z</time></trkpt><trkpt lat="42.1197633445249" lon="11.962564602153067"><ele>324.0</ele><time>2026-04-18T09:24:20.836Z</time></trkpt><trkpt lat="42.119661067918024" lon="11.962653914126248"><ele>328.25</ele><time>2026-04-18T09:24:21.836Z</time></trkpt><trkpt lat="42.11957475792868" lon="11.962774238056262"><ele>332.5</ele><time>2026-04-18T09:24:22.836Z</time></trkpt><trkpt lat="42.119516853134606" lon="11.962929322151233"><ele>336.75</ele><time>2026-04-18T09:24:23.836Z</time></trkpt><trkpt lat="42.11948491045389" lon="11.96310510169042"><ele>341.0</ele><time>2026-04-18T09:24:24.836Z</time></trkpt><trkpt lat="42.11947864527261" lon="11.963287920598628"><ele>342.75</ele><time>2026-04-18T09:24:25.836Z</time></trkpt><trkpt lat="42.119524257358286" lon="11.963473383920693"><ele>344.5</ele><time>2026-04-18T09:24:26.836Z</time></trkpt><trkpt lat="42.11956305660936" lon="11.963666749048938"><ele>346.25</ele><time>2026-04-18T09:24:27.836Z</time></trkpt><trkpt lat="42.11961543900599" lon="11.963843434302825"><ele>348.0</ele><time>2026-04-18T09:24:28.836Z</time></trkpt><trkpt lat="42.11967290359168" lon="11.964027364425075"><ele>353.6666666666667</ele><time>2026-04-18T09:24:29.836Z</time></trkpt><trkpt lat="42.119727930223156" lon="11.96422057569918"><ele>359.33333333333337</ele><time>2026-04-18T09:24:30.836Z</time></trkpt><trkpt lat="42.11979151183878" lon="11.964410840718338"><ele>365.0</ele><time>2026-04-18T09:24:31.836Z</time></trkpt><trkpt lat="42.11987871008211" lon="11.9645766922206"><ele>362.5</ele><time>2026-04-18T09:24:32.836Z</time></trkpt><trkpt lat="42.11997082623739" lon="11.964745866280433"><ele>360.0</ele><time>2026-04-18T09:24:33.836Z</time></trkpt><trkpt lat="42.12006439944359" lon="11.964882285764919"><ele>357.5</ele><time>2026-04-18T09:24:34.836Z</time></trkpt><trkpt lat="42.120120039426986" lon="11.965036071704516"><ele>355.0</ele><time>2026-04-18T09:24:35.836Z</time></trkpt><trkpt lat="42.120163953453876" lon="11.965183056906476"><ele>355.0</ele><time>2026-04-18T09:24:36.836Z</time></trkpt><trkpt lat="42.1201741391168" lon="11.965342060223678"><ele>355.0</ele><time>2026-04-18T09:24:37.836Z</time></trkpt><trkpt lat="42.12015585957667" lon="11.965505142850455"><ele>355.0</ele><time>2026-04-18T09:24:38.836Z</time></trkpt><trkpt lat="42.12013954557728" lon="11.965685539881989"><ele>355.0</ele><time>2026-04-18T09:24:39.836Z</time></trkpt><trkpt lat="42.12015482049843" lon="11.965841840980936"><ele>358.0</ele><time>2026-04-18T09:24:40.836Z</time></trkpt><trkpt lat="42.120224761749995" lon="11.965996599507342"><ele>361.0</ele><time>2026-04-18T09:24:41.836Z</time></trkpt><trkpt lat="42.120311179574706" lon="11.966152356825187"><ele>364.0</ele><time>2026-04-18T09:24:42.836Z</time></trkpt><trkpt lat="42.12041449584148" lon="11.966303621135792"><ele>367.0</ele><time>2026-04-18T09:24:43.836Z</time></trkpt><trkpt lat="42.120496852270314" lon="11.966464517954893"><ele>367.0</ele><time>2026-04-18T09:24:44.836Z</time></trkpt><trkpt lat="42.12057756307638" lon="11.966618916430068"><ele>367.0</ele><time>2026-04-18T09:24:45.836Z</time></trkpt><trkpt lat="42.12064992549285" lon="11.966769879155219"><ele>367.0</ele><time>2026-04-18T09:24:46.836Z</time></trkpt><trkpt lat="42.12071396051231" lon="11.96690990134847"><ele>367.0</ele><time>2026-04-18T09:24:47.836Z</time></trkpt><trkpt lat="42.12076593961761" lon="11.967056822166992"><ele>362.25</ele><time>2026-04-18T09:24:48.836Z</time></trkpt><trkpt lat="42.120784381092335" lon="11.96722238650204"><ele>357.5</ele><time>2026-04-18T09:24:49.836Z</time></trkpt><trkpt lat="42.12078601796048" lon="11.967404134056272"><ele>352.75</ele><time>2026-04-18T09:24:50.836Z</time></trkpt><trkpt lat="42.12078809972439" lon="11.967595361835796"><ele>348.0</ele><time>2026-04-18T09:24:51.836Z</time></trkpt><trkpt lat="42.120796308844795" lon="11.96779966036813"><ele>347.5</ele><time>2026-04-18T09:24:52.836Z</time></trkpt><trkpt lat="42.12080348899257" lon="11.967978351181669"><ele>347.0</ele><time>2026-04-18T09:24:53.836Z</time></trkpt><trkpt lat="42.12080704559484" lon="11.968149448251094"><ele>346.5</ele><time>2026-04-18T09:24:54.836Z</time></trkpt><trkpt lat="42.12080371813293" lon="11.968315684492488"><ele>346.0</ele><time>2026-04-18T09:24:55.836Z</time></trkpt><trkpt lat="42.120764499927276" lon="11.968454776220918"><ele>347.0</ele><time>2026-04-18T09:24:56.836Z</time></trkpt><trkpt lat="42.12066903845656" lon="11.96856135722404"><ele>348.0</ele><time>2026-04-18T09:24:57.836Z</time></trkpt><trkpt lat="42.12056670502204" lon="11.968716856791467"><ele>349.0</ele><time>2026-04-18T09:24:58.836Z</time></trkpt><trkpt lat="42.120425501396554" lon="11.968844051891917"><ele>350.0</ele><time>2026-04-18T09:24:59.836Z</time></trkpt><trkpt lat="42.12029551013126" lon="11.968989642708177"><ele>350.0</ele><time>2026-04-18T09:25:00.836Z</time></trkpt><trkpt lat="42.12017846591081" lon="11.96911908305367"><ele>350.0</ele><time>2026-04-18T09:25:01.836Z</time></trkpt><trkpt lat="42.1200427113313" lon="11.969234523985763"><ele>350.0</ele><time>2026-04-18T09:25:02.836Z</time></trkpt><trkpt lat="42.11991985553955" lon="11.969373465053241"><ele>349.33333333333337</ele><time>2026-04-18T09:25:03.836Z</time></trkpt><trkpt lat="42.119793465501225" lon="11.96952435693779"><ele>348.6666666666667</ele><time>2026-04-18T09:25:04.836Z</time></trkpt><trkpt lat="42.11967362597651" lon="11.969681101146422"><ele>348.0</ele><time>2026-04-18T09:25:05.836Z</time></trkpt><trkpt lat="42.11956979015541" lon="11.969859883781224"><ele>345.3333333333333</ele><time>2026-04-18T09:25:06.836Z</time></trkpt><trkpt lat="42.119470629243686" lon="11.970057053373818"><ele>342.66666666666663</ele><time>2026-04-18T09:25:07.836Z</time></trkpt><trkpt lat="42.11939004967461" lon="11.970257207794575"><ele>340.0</ele><time>2026-04-18T09:25:08.836Z</time></trkpt><trkpt lat="42.11932404873323" lon="11.970433964559597"><ele>340.0</ele><time>2026-04-18T09:25:09.836Z</time></trkpt><trkpt lat="42.119264742005534" lon="11.97061658017532"><ele>340.0</ele><time>2026-04-18T09:25:10.836Z</time></trkpt><trkpt lat="42.119175445782425" lon="11.970784676771657"><ele>340.0</ele><time>2026-04-18T09:25:11.835Z</time></trkpt><trkpt lat="42.11906979646054" lon="11.97093631195378"><ele>339.66666666666663</ele><time>2026-04-18T09:25:12.835Z</time></trkpt><trkpt lat="42.119018155238116" lon="11.97115799147312"><ele>339.3333333333333</ele><time>2026-04-18T09:25:13.835Z</time></trkpt><trkpt lat="42.11881603436752" lon="11.971211164261991"><ele>339.0</ele><time>2026-04-18T09:25:14.835Z</time></trkpt><trkpt lat="42.11865167583111" lon="11.97127580877949"><ele>339.0</ele><time>2026-04-18T09:25:15.835Z</time></trkpt><trkpt lat="42.118491039818345" lon="11.971337685014703"><ele>339.0</ele><time>2026-04-18T09:25:16.835Z</time></trkpt><trkpt lat="42.118327741178156" lon="11.971376650197506"><ele>339.0</ele><time>2026-04-18T09:25:17.835Z</time></trkpt><trkpt lat="42.11817729919665" lon="11.971415772229225"><ele>339.3333333333333</ele><time>2026-04-18T09:25:18.835Z</time></trkpt><trkpt lat="42.118022936815166" lon="11.971477718028629"><ele>339.66666666666663</ele><time>2026-04-18T09:25:19.835Z</time></trkpt><trkpt lat="42.11787930919201" lon="11.971593574655056"><ele>340.0</ele><time>2026-04-18T09:25:20.835Z</time></trkpt><trkpt lat="42.117759977570124" lon="11.971730020878091"><ele>340.0</ele><time>2026-04-18T09:25:21.835Z</time></trkpt><trkpt lat="42.11761657052707" lon="11.97185514011801"><ele>340.0</ele><time>2026-04-18T09:25:22.835Z</time></trkpt><trkpt lat="42.11747943089181" lon="11.971983687116373"><ele>340.0</ele><time>2026-04-18T09:25:23.835Z</time></trkpt><trkpt lat="42.11734290020687" lon="11.972111244411389"><ele>343.66666666666663</ele><time>2026-04-18T09:25:24.835Z</time></trkpt><trkpt lat="42.117210681230404" lon="11.97225629567023"><ele>347.3333333333333</ele><time>2026-04-18T09:25:25.835Z</time></trkpt><trkpt lat="42.117074517457844" lon="11.972371936115728"><ele>351.0</ele><time>2026-04-18T09:25:26.835Z</time></trkpt><trkpt lat="42.11693662787441" lon="11.972492945116707"><ele>351.3333333333333</ele><time>2026-04-18T09:25:27.835Z</time></trkpt><trkpt lat="42.116798822221725" lon="11.972602416277883"><ele>351.66666666666663</ele><time>2026-04-18T09:25:28.835Z</time></trkpt><trkpt lat="42.11665296993413" lon="11.972722897613432"><ele>352.0</ele><time>2026-04-18T09:25:29.835Z</time></trkpt><trkpt lat="42.116522375249104" lon="11.972832408399617"><ele>352.0</ele><time>2026-04-18T09:25:30.835Z</time></trkpt><trkpt lat="42.116409607137236" lon="11.972952585663403"><ele>352.0</ele><time>2026-04-18T09:25:31.835Z</time></trkpt><trkpt lat="42.11630331153822" lon="11.973097518257479"><ele>352.0</ele><time>2026-04-18T09:25:32.835Z</time></trkpt><trkpt lat="42.11623039395882" lon="11.973279859418462"><ele>352.0</ele><time>2026-04-18T09:25:33.835Z</time></trkpt><trkpt lat="42.11618443130971" lon="11.973449112421637"><ele>351.0</ele><time>2026-04-18T09:25:34.835Z</time></trkpt><trkpt lat="42.11613325701274" lon="11.973608164309576"><ele>350.0</ele><time>2026-04-18T09:25:35.835Z</time></trkpt><trkpt lat="42.11607600245953" lon="11.97373381747304"><ele>349.0</ele><time>2026-04-18T09:25:36.835Z</time></trkpt><trkpt lat="42.11600726599837" lon="11.973842660965575"><ele>348.0</ele><time>2026-04-18T09:25:37.835Z</time></trkpt><trkpt lat="42.11594249578863" lon="11.97393997259286"><ele>347.0</ele><time>2026-04-18T09:25:38.835Z</time></trkpt><trkpt lat="42.115893017886" lon="11.974012065989145"><ele>347.0</ele><time>2026-04-18T09:25:39.835Z</time></trkpt><trkpt lat="42.11583863050828" lon="11.974085623798766"><ele>347.0</ele><time>2026-04-18T09:25:41.835Z</time></trkpt><trkpt lat="42.11579308403714" lon="11.9741476596719"><ele>347.0</ele><time>2026-04-18T09:26:18.832Z</time></trkpt><trkpt lat="42.11573097397127" lon="11.974230702407166"><ele>347.0</ele><time>2026-04-18T09:26:21.832Z</time></trkpt><trkpt lat="42.115684319709956" lon="11.974293080287111"><ele>347.0</ele><time>2026-04-18T09:26:28.832Z</time></trkpt><trkpt lat="42.11577459037786" lon="11.974478802688726"><ele>346.42857142857144</ele><time>2026-04-18T09:29:16.828Z</time></trkpt><trkpt lat="42.11583488492969" lon="11.974444261279979"><ele>345.85714285714283</ele><time>2026-04-18T09:31:45.824Z</time></trkpt><trkpt lat="42.11589943143002" lon="11.974421496051292"><ele>345.2857142857143</ele><time>2026-04-18T09:31:51.824Z</time></trkpt><trkpt lat="42.11595953246653" lon="11.97436348704684"><ele>344.7142857142857</ele><time>2026-04-18T09:31:59.824Z</time></trkpt><trkpt lat="42.11602164219811" lon="11.974320382796924"><ele>344.1428571428571</ele><time>2026-04-18T09:32:07.824Z</time></trkpt><trkpt lat="42.116090088838504" lon="11.974323464226485"><ele>343.57142857142856</ele><time>2026-04-18T09:32:14.823Z</time></trkpt><trkpt lat="42.11615941874534" lon="11.974324565647446"><ele>343.0</ele><time>2026-04-18T09:32:20.823Z</time></trkpt><trkpt lat="42.11622457825542" lon="11.974361505203582"><ele>343.0</ele><time>2026-04-18T09:32:26.822Z</time></trkpt><trkpt lat="42.11628409427405" lon="11.974420057328585"><ele>343.0</ele><time>2026-04-18T09:32:33.823Z</time></trkpt><trkpt lat="42.11634056771889" lon="11.974477816985452"><ele>343.0</ele><time>2026-04-18T09:32:39.823Z</time></trkpt><trkpt lat="42.11640182529314" lon="11.974529172652497"><ele>343.0</ele><time>2026-04-18T09:32:45.822Z</time></trkpt><trkpt lat="42.11646814181549" lon="11.974587549113446"><ele>343.0</ele><time>2026-04-18T09:32:52.822Z</time></trkpt><trkpt lat="42.11652808659091" lon="11.97462712261124"><ele>343.0</ele><time>2026-04-18T09:32:58.822Z</time></trkpt><trkpt lat="42.116541960930505" lon="11.9747133408538"><ele>343.0</ele><time>2026-04-18T09:33:07.822Z</time></trkpt><trkpt lat="42.11651113299422" lon="11.974792899871119"><ele>343.0</ele><time>2026-04-18T09:33:16.822Z</time></trkpt></trkseg><trkseg><trkpt lat="42.1158738054706" lon="11.97444636571754"><ele>343.0</ele><time>2026-04-18T12:23:56.883Z</time></trkpt><trkpt lat="42.11593909434895" lon="11.97431144055473"><ele>343.0</ele><time>2026-04-18T12:23:58.883Z</time></trkpt><trkpt lat="42.11592855272346" lon="11.974188041325403"><ele>343.0</ele><time>2026-04-18T12:24:00.883Z</time></trkpt><trkpt lat="42.11589927823299" lon="11.974076691637524"><ele>343.0</ele><time>2026-04-18T12:24:02.883Z</time></trkpt><trkpt lat="42.115962764098924" lon="11.973933891499039"><ele>343.0</ele><time>2026-04-18T12:24:04.882Z</time></trkpt><trkpt lat="42.11602549816127" lon="11.973833308070434"><ele>344.0</ele><time>2026-04-18T12:24:05.882Z</time></trkpt><trkpt lat="42.11609508902046" lon="11.973713056976514"><ele>345.0</ele><time>2026-04-18T12:24:06.882Z</time></trkpt><trkpt lat="42.11616108839431" lon="11.973573621011697"><ele>346.0</ele><time>2026-04-18T12:24:07.882Z</time></trkpt><trkpt lat="42.11622428426367" lon="11.973411237095814"><ele>347.0</ele><time>2026-04-18T12:24:08.882Z</time></trkpt><trkpt lat="42.11628080830684" lon="11.973237635685033"><ele>348.25</ele><time>2026-04-18T12:24:09.882Z</time></trkpt><trkpt lat="42.11635147051953" lon="11.973072128121753"><ele>349.5</ele><time>2026-04-18T12:24:10.882Z</time></trkpt><trkpt lat="42.116448852567025" lon="11.972930511752784"><ele>350.75</ele><time>2026-04-18T12:24:11.882Z</time></trkpt><trkpt lat="42.11656105344996" lon="11.972804623452106"><ele>352.0</ele><time>2026-04-18T12:24:12.882Z</time></trkpt><trkpt lat="42.116688234257786" lon="11.972691485513842"><ele>351.66666666666663</ele><time>2026-04-18T12:24:13.882Z</time></trkpt><trkpt lat="42.11686940976918" lon="11.972569976503262"><ele>351.3333333333333</ele><time>2026-04-18T12:24:14.882Z</time></trkpt><trkpt lat="42.11701213428728" lon="11.972443316327494"><ele>351.0</ele><time>2026-04-18T12:24:15.882Z</time></trkpt><trkpt lat="42.117161158326184" lon="11.972309404881882"><ele>351.0</ele><time>2026-04-18T12:24:16.882Z</time></trkpt><trkpt lat="42.1173106443489" lon="11.972174200245274"><ele>351.0</ele><time>2026-04-18T12:24:17.882Z</time></trkpt><trkpt lat="42.117454101245116" lon="11.97205257471161"><ele>351.0</ele><time>2026-04-18T12:24:18.882Z</time></trkpt><trkpt lat="42.11758291071712" lon="11.97193576257862"><ele>352.0</ele><time>2026-04-18T12:24:19.882Z</time></trkpt><trkpt lat="42.11771664436013" lon="11.97180504760143"><ele>353.0</ele><time>2026-04-18T12:24:20.882Z</time></trkpt><trkpt lat="42.11785311838471" lon="11.971664607090325"><ele>354.0</ele><time>2026-04-18T12:24:21.882Z</time></trkpt><trkpt lat="42.11798687862615" lon="11.971564955870464"><ele>354.0</ele><time>2026-04-18T12:24:22.882Z</time></trkpt><trkpt lat="42.11810187002717" lon="11.971454460891257"><ele>354.0</ele><time>2026-04-18T12:24:23.882Z</time></trkpt><trkpt lat="42.11823805428661" lon="11.971416196707645"><ele>354.0</ele><time>2026-04-18T12:24:24.882Z</time></trkpt><trkpt lat="42.11837336802791" lon="11.971378030727736"><ele>354.0</ele><time>2026-04-18T12:24:25.882Z</time></trkpt><trkpt lat="42.11852724615434" lon="11.97132368157225"><ele>349.0</ele><time>2026-04-18T12:24:26.882Z</time></trkpt><trkpt lat="42.11868772822553" lon="11.971280987919114"><ele>344.0</ele><time>2026-04-18T12:24:27.882Z</time></trkpt><trkpt lat="42.118822844297426" lon="11.971203269636082"><ele>339.0</ele><time>2026-04-18T12:24:28.882Z</time></trkpt><trkpt lat="42.1189454929481" lon="11.971106141889994"><ele>339.0</ele><time>2026-04-18T12:24:29.882Z</time></trkpt><trkpt lat="42.11905698332413" lon="11.970999885083133"><ele>339.0</ele><time>2026-04-18T12:24:30.882Z</time></trkpt><trkpt lat="42.11915935587111" lon="11.970872532709235"><ele>339.0</ele><time>2026-04-18T12:24:31.882Z</time></trkpt><trkpt lat="42.119248474716834" lon="11.970713260757304"><ele>339.0</ele><time>2026-04-18T12:24:32.882Z</time></trkpt><trkpt lat="42.119321762565704" lon="11.970537078375076"><ele>339.25</ele><time>2026-04-18T12:24:33.882Z</time></trkpt><trkpt lat="42.1193851801827" lon="11.97035899314599"><ele>339.5</ele><time>2026-04-18T12:24:34.882Z</time></trkpt><trkpt lat="42.11944019012376" lon="11.970189645608965"><ele>339.75</ele><time>2026-04-18T12:24:35.882Z</time></trkpt><trkpt lat="42.119515288679736" lon="11.97004729946735"><ele>340.0</ele><time>2026-04-18T12:24:36.882Z</time></trkpt><trkpt lat="42.11958613187472" lon="11.969903236162793"><ele>339.0</ele><time>2026-04-18T12:24:37.882Z</time></trkpt><trkpt lat="42.11967029378306" lon="11.969752645254347"><ele>338.0</ele><time>2026-04-18T12:24:38.882Z</time></trkpt><trkpt lat="42.119761471195574" lon="11.969613988449916"><ele>337.0</ele><time>2026-04-18T12:24:39.882Z</time></trkpt><trkpt lat="42.11985580973174" lon="11.969466205930756"><ele>336.0</ele><time>2026-04-18T12:24:40.882Z</time></trkpt><trkpt lat="42.11996444390735" lon="11.969345598804951"><ele>336.0</ele><time>2026-04-18T12:24:41.882Z</time></trkpt><trkpt lat="42.12008626846724" lon="11.969232030096684"><ele>336.0</ele><time>2026-04-18T12:24:42.882Z</time></trkpt><trkpt lat="42.12020703498879" lon="11.969118243002422"><ele>336.0</ele><time>2026-04-18T12:24:43.882Z</time></trkpt><trkpt lat="42.12032218401199" lon="11.96900564196264"><ele>336.0</ele><time>2026-04-18T12:24:44.881Z</time></trkpt><trkpt lat="42.12043171556876" lon="11.968883776054783"><ele>336.75</ele><time>2026-04-18T12:24:45.881Z</time></trkpt><trkpt lat="42.12054552224058" lon="11.968753891276275"><ele>337.5</ele><time>2026-04-18T12:24:46.881Z</time></trkpt><trkpt lat="42.12065568839981" lon="11.968629798812875"><ele>338.25</ele><time>2026-04-18T12:24:47.881Z</time></trkpt><trkpt lat="42.12074270140565" lon="11.968512198551654"><ele>339.0</ele><time>2026-04-18T12:24:48.881Z</time></trkpt><trkpt lat="42.12080326187121" lon="11.968383543866212"><ele>340.75</ele><time>2026-04-18T12:24:49.881Z</time></trkpt><trkpt lat="42.12085029606464" lon="11.96822486402345"><ele>342.5</ele><time>2026-04-18T12:24:50.881Z</time></trkpt><trkpt lat="42.12084903280461" lon="11.968027654048772"><ele>344.25</ele><time>2026-04-18T12:24:51.881Z</time></trkpt><trkpt lat="42.12084060822229" lon="11.967836299042343"><ele>346.0</ele><time>2026-04-18T12:24:52.881Z</time></trkpt><trkpt lat="42.12083830611707" lon="11.967621540546807"><ele>346.5</ele><time>2026-04-18T12:24:53.881Z</time></trkpt><trkpt lat="42.12082404949363" lon="11.967417494832544"><ele>347.0</ele><time>2026-04-18T12:24:54.881Z</time></trkpt><trkpt lat="42.12081835490451" lon="11.967233160871194"><ele>347.5</ele><time>2026-04-18T12:24:55.881Z</time></trkpt><trkpt lat="42.12079932895269" lon="11.967059972517124"><ele>348.0</ele><time>2026-04-18T12:24:56.881Z</time></trkpt><trkpt lat="42.1207645332013" lon="11.966902293842526"><ele>352.75</ele><time>2026-04-18T12:24:57.881Z</time></trkpt><trkpt lat="42.12070785197181" lon="11.966744770092973"><ele>357.5</ele><time>2026-04-18T12:24:58.881Z</time></trkpt><trkpt lat="42.12064463189782" lon="11.966590549376187"><ele>362.25</ele><time>2026-04-18T12:24:59.881Z</time></trkpt><trkpt lat="42.12055718955326" lon="11.966436325200965"><ele>367.0</ele><time>2026-04-18T12:25:00.881Z</time></trkpt><trkpt lat="42.12045789959328" lon="11.966289042408189"><ele>367.0</ele><time>2026-04-18T12:25:01.881Z</time></trkpt><trkpt lat="42.12037375016715" lon="11.966140733892189"><ele>367.0</ele><time>2026-04-18T12:25:02.881Z</time></trkpt><trkpt lat="42.12029794999544" lon="11.966003183151685"><ele>367.0</ele><time>2026-04-18T12:25:03.881Z</time></trkpt><trkpt lat="42.120220259611635" lon="11.965877695505997"><ele>367.0</ele><time>2026-04-18T12:25:04.881Z</time></trkpt><trkpt lat="42.120167030922396" lon="11.965732055672754"><ele>364.0</ele><time>2026-04-18T12:25:05.881Z</time></trkpt><trkpt lat="42.12017976303087" lon="11.96556432702921"><ele>361.0</ele><time>2026-04-18T12:25:06.881Z</time></trkpt><trkpt lat="42.12018893064203" lon="11.965381961223843"><ele>358.0</ele><time>2026-04-18T12:25:07.881Z</time></trkpt><trkpt lat="42.12020484391355" lon="11.965214749893365"><ele>355.0</ele><time>2026-04-18T12:25:08.881Z</time></trkpt><trkpt lat="42.12017901623614" lon="11.96505428996436"><ele>351.0</ele><time>2026-04-18T12:25:09.881Z</time></trkpt><trkpt lat="42.120113264829506" lon="11.964889860392551"><ele>347.0</ele><time>2026-04-18T12:25:10.881Z</time></trkpt><trkpt lat="42.120009889770806" lon="11.96472761092604"><ele>343.0</ele><time>2026-04-18T12:25:11.881Z</time></trkpt><trkpt lat="42.11991024313164" lon="11.964570445755438"><ele>344.25</ele><time>2026-04-18T12:25:12.881Z</time></trkpt><trkpt lat="42.11982068842136" lon="11.964408622391648"><ele>345.5</ele><time>2026-04-18T12:25:13.881Z</time></trkpt><trkpt lat="42.11976052470168" lon="11.96422750061385"><ele>346.75</ele><time>2026-04-18T12:25:14.881Z</time></trkpt><trkpt lat="42.11970458868663" lon="11.964043487367102"><ele>348.0</ele><time>2026-04-18T12:25:15.881Z</time></trkpt><trkpt lat="42.11965376602725" lon="11.963865820225113"><ele>348.0</ele><time>2026-04-18T12:25:16.881Z</time></trkpt><trkpt lat="42.11960176875079" lon="11.963703322521875"><ele>348.0</ele><time>2026-04-18T12:25:17.881Z</time></trkpt><trkpt lat="42.11956049312177" lon="11.963546918718038"><ele>348.0</ele><time>2026-04-18T12:25:18.881Z</time></trkpt><trkpt lat="42.119524370997695" lon="11.963394007983672"><ele>348.0</ele><time>2026-04-18T12:25:19.881Z</time></trkpt><trkpt lat="42.11952106470794" lon="11.963229986142709"><ele>346.25</ele><time>2026-04-18T12:25:20.881Z</time></trkpt><trkpt lat="42.11951737825241" lon="11.96303965749496"><ele>344.5</ele><time>2026-04-18T12:25:21.881Z</time></trkpt><trkpt lat="42.11957503451187" lon="11.962866674905554"><ele>342.75</ele><time>2026-04-18T12:25:22.881Z</time></trkpt><trkpt lat="42.11965747614034" lon="11.962726444029492"><ele>341.0</ele><time>2026-04-18T12:25:23.881Z</time></trkpt><trkpt lat="42.119760534899" lon="11.962604269767574"><ele>341.0</ele><time>2026-04-18T12:25:24.881Z</time></trkpt><trkpt lat="42.119888617628675" lon="11.962507536108324"><ele>341.0</ele><time>2026-04-18T12:25:25.881Z</time></trkpt><trkpt lat="42.12000196174951" lon="11.962383502115781"><ele>341.0</ele><time>2026-04-18T12:25:26.881Z</time></trkpt><trkpt lat="42.120082407153916" lon="11.962266445985916"><ele>341.0</ele><time>2026-04-18T12:25:27.881Z</time></trkpt><trkpt lat="42.12013002513599" lon="11.962106071487867"><ele>337.5</ele><time>2026-04-18T12:25:28.881Z</time></trkpt><trkpt lat="42.12011723340045" lon="11.961935387900157"><ele>334.0</ele><time>2026-04-18T12:25:29.88Z</time></trkpt><trkpt lat="42.12006312915104" lon="11.96177172316695"><ele>330.5</ele><time>2026-04-18T12:25:30.88Z</time></trkpt><trkpt lat="42.12000550296893" lon="11.96163035338996"><ele>327.0</ele><time>2026-04-18T12:25:31.88Z</time></trkpt><trkpt lat="42.11996342541735" lon="11.961501083580977"><ele>327.0</ele><time>2026-04-18T12:25:32.88Z</time></trkpt><trkpt lat="42.11998342342961" lon="11.96136907597435"><ele>327.0</ele><time>2026-04-18T12:25:33.88Z</time></trkpt><trkpt lat="42.12005099997678" lon="11.961261099294715"><ele>327.0</ele><time>2026-04-18T12:25:34.88Z</time></trkpt><trkpt lat="42.12016725054203" lon="11.961195768322412"><ele>327.0</ele><time>2026-04-18T12:25:35.88Z</time></trkpt><trkpt lat="42.12029481204328" lon="11.961164799852769"><ele>327.0</ele><time>2026-04-18T12:25:36.88Z</time></trkpt><trkpt lat="42.12042764580438" lon="11.9611251269648"><ele>327.0</ele><time>2026-04-18T12:25:37.88Z</time></trkpt><trkpt lat="42.12053242353476" lon="11.9610569607652"><ele>327.0</ele><time>2026-04-18T12:25:38.88Z</time></trkpt><trkpt lat="42.12061010268212" lon="11.960955025120464"><ele>327.0</ele><time>2026-04-18T12:25:39.88Z</time></trkpt><trkpt lat="42.120655021654024" lon="11.960832778230278"><ele>328.75</ele><time>2026-04-18T12:25:40.88Z</time></trkpt><trkpt lat="42.120653333259" lon="11.960655052665489"><ele>330.5</ele><time>2026-04-18T12:25:41.88Z</time></trkpt><trkpt lat="42.12059495066334" lon="11.960491085886613"><ele>332.25</ele><time>2026-04-18T12:25:42.88Z</time></trkpt><trkpt lat="42.120536642419864" lon="11.96033589272165"><ele>334.0</ele><time>2026-04-18T12:25:43.88Z</time></trkpt><trkpt lat="42.12049498943347" lon="11.960203461592881"><ele>334.0</ele><time>2026-04-18T12:25:44.88Z</time></trkpt><trkpt lat="42.120498259342156" lon="11.960052352634008"><ele>334.0</ele><time>2026-04-18T12:25:45.88Z</time></trkpt><trkpt lat="42.120533696507174" lon="11.959894054180094"><ele>334.0</ele><time>2026-04-18T12:25:46.88Z</time></trkpt><trkpt lat="42.12059703729124" lon="11.959745464691437"><ele>334.0</ele><time>2026-04-18T12:25:47.88Z</time></trkpt><trkpt lat="42.120657785390215" lon="11.959603642418609"><ele>335.75</ele><time>2026-04-18T12:25:48.88Z</time></trkpt><trkpt lat="42.12070904828545" lon="11.959473700461109"><ele>337.5</ele><time>2026-04-18T12:25:49.88Z</time></trkpt><trkpt lat="42.12072977573609" lon="11.95933671441567"><ele>339.25</ele><time>2026-04-18T12:25:50.88Z</time></trkpt><trkpt lat="42.12070679397892" lon="11.959182895631493"><ele>341.0</ele><time>2026-04-18T12:25:51.88Z</time></trkpt><trkpt lat="42.12065016597834" lon="11.959034502819733"><ele>341.0</ele><time>2026-04-18T12:25:52.88Z</time></trkpt><trkpt lat="42.1205651012041" lon="11.958884006538089"><ele>341.0</ele><time>2026-04-18T12:25:53.88Z</time></trkpt><trkpt lat="42.1204906543364" lon="11.958737127132334"><ele>341.0</ele><time>2026-04-18T12:25:54.88Z</time></trkpt><trkpt lat="42.12043315478158" lon="11.958599229664364"><ele>341.0</ele><time>2026-04-18T12:25:55.88Z</time></trkpt><trkpt lat="42.12040512643212" lon="11.958440239632571"><ele>339.5</ele><time>2026-04-18T12:25:56.88Z</time></trkpt><trkpt lat="42.12040342428236" lon="11.958276885104906"><ele>338.0</ele><time>2026-04-18T12:25:57.88Z</time></trkpt><trkpt lat="42.12041040306583" lon="11.958114805743966"><ele>336.5</ele><time>2026-04-18T12:25:58.88Z</time></trkpt><trkpt lat="42.120426177586694" lon="11.957942340105577"><ele>335.0</ele><time>2026-04-18T12:25:59.88Z</time></trkpt><trkpt lat="42.120443062754596" lon="11.957791137038404"><ele>335.0</ele><time>2026-04-18T12:26:00.88Z</time></trkpt><trkpt lat="42.120456685105204" lon="11.957645783550888"><ele>335.0</ele><time>2026-04-18T12:26:01.88Z</time></trkpt><trkpt lat="42.120465411212756" lon="11.957516183528394"><ele>335.0</ele><time>2026-04-18T12:26:02.88Z</time></trkpt><trkpt lat="42.12049456506559" lon="11.95742051329036"><ele>335.0</ele><time>2026-04-18T12:26:03.88Z</time></trkpt><trkpt lat="42.12049022029675" lon="11.957216530789387"><ele>335.0</ele><time>2026-04-18T12:26:05.88Z</time></trkpt><trkpt lat="42.1204810677762" lon="11.95711374419413"><ele>335.0</ele><time>2026-04-18T12:26:06.88Z</time></trkpt><trkpt lat="42.12056849253846" lon="11.956997928289228"><ele>335.0</ele><time>2026-04-18T12:26:08.88Z</time></trkpt><trkpt lat="42.120592886902436" lon="11.956908483138012"><ele>335.0</ele><time>2026-04-18T12:26:09.88Z</time></trkpt><trkpt lat="42.12061251678547" lon="11.956805071861382"><ele>335.0</ele><time>2026-04-18T12:26:10.88Z</time></trkpt><trkpt lat="42.120627432962245" lon="11.956696584733912"><ele>335.0</ele><time>2026-04-18T12:26:11.88Z</time></trkpt><trkpt lat="42.12063431143625" lon="11.956611293396358"><ele>335.0</ele><time>2026-04-18T12:26:12.88Z</time></trkpt><trkpt lat="42.12065404040579" lon="11.95651143568692"><ele>335.4</ele><time>2026-04-18T12:26:13.88Z</time></trkpt><trkpt lat="42.120684902384745" lon="11.956364818075969"><ele>335.8</ele><time>2026-04-18T12:26:15.88Z</time></trkpt><trkpt lat="42.12071451233715" lon="11.956226915424281"><ele>336.20000000000005</ele><time>2026-04-18T12:26:17.88Z</time></trkpt><trkpt lat="42.12075084241033" lon="11.956111854483785"><ele>336.6</ele><time>2026-04-18T12:26:19.88Z</time></trkpt><trkpt lat="42.120828405281195" lon="11.955989163142734"><ele>337.0</ele><time>2026-04-18T12:26:21.88Z</time></trkpt><trkpt lat="42.12091415028005" lon="11.95586646108939"><ele>337.0</ele><time>2026-04-18T12:26:23.88Z</time></trkpt><trkpt lat="42.12093298545099" lon="11.955782578972942"><ele>337.0</ele><time>2026-04-18T12:26:24.88Z</time></trkpt><trkpt lat="42.12095671566324" lon="11.955621132275285"><ele>337.0</ele><time>2026-04-18T12:26:26.88Z</time></trkpt><trkpt lat="42.12097528986696" lon="11.955525366591193"><ele>337.0</ele><time>2026-04-18T12:26:27.88Z</time></trkpt><trkpt lat="42.12099952650362" lon="11.955434075704751"><ele>337.0</ele><time>2026-04-18T12:26:28.879Z</time></trkpt><trkpt lat="42.121035771411414" lon="11.955360125528543"><ele>337.0</ele><time>2026-04-18T12:26:29.879Z</time></trkpt><trkpt lat="42.12110094293158" lon="11.955225419858143"><ele>337.0</ele><time>2026-04-18T12:26:31.879Z</time></trkpt><trkpt lat="42.12114259237945" lon="11.955112694973533"><ele>337.0</ele><time>2026-04-18T12:26:33.879Z</time></trkpt><trkpt lat="42.121186131240854" lon="11.955026005525685"><ele>337.0</ele><time>2026-04-18T12:26:44.879Z</time></trkpt><trkpt lat="42.12123831631327" lon="11.95490763382662"><ele>337.0</ele><time>2026-04-18T12:26:46.879Z</time></trkpt><trkpt lat="42.12127658238849" lon="11.954839387470347"><ele>337.0</ele><time>2026-04-18T12:26:47.879Z</time></trkpt><trkpt lat="42.1213331155306" lon="11.954777737199695"><ele>337.0</ele><time>2026-04-18T12:26:48.879Z</time></trkpt><trkpt lat="42.1213868679852" lon="11.954717511817433"><ele>337.28571428571433</ele><time>2026-04-18T12:26:49.879Z</time></trkpt><trkpt lat="42.121448877373325" lon="11.954661287169943"><ele>337.57142857142856</ele><time>2026-04-18T12:26:50.877Z</time></trkpt><trkpt lat="42.12151067185698" lon="11.954635957910599"><ele>337.8571428571429</ele><time>2026-04-18T12:26:51.877Z</time></trkpt><trkpt lat="42.12157998608924" lon="11.95461955163552"><ele>338.14285714285717</ele><time>2026-04-18T12:26:52.877Z</time></trkpt><trkpt lat="42.121643548968265" lon="11.954594553177373"><ele>338.42857142857144</ele><time>2026-04-18T12:26:53.877Z</time></trkpt><trkpt lat="42.12173186079343" lon="11.954609014456747"><ele>338.7142857142857</ele><time>2026-04-18T12:26:54.877Z</time></trkpt><trkpt lat="42.121801944830246" lon="11.95461622859641"><ele>339.0</ele><time>2026-04-18T12:26:55.877Z</time></trkpt><trkpt lat="42.12193230281399" lon="11.95465159263467"><ele>339.0</ele><time>2026-04-18T12:26:57.877Z</time></trkpt><trkpt lat="42.122011411281186" lon="11.954663275050521"><ele>339.0</ele><time>2026-04-18T12:26:58.877Z</time></trkpt><trkpt lat="42.12207789806911" lon="11.954650387791029"><ele>339.0</ele><time>2026-04-18T12:26:59.876Z</time></trkpt><trkpt lat="42.12214135431739" lon="11.954669125242624"><ele>339.0</ele><time>2026-04-18T12:27:00.876Z</time></trkpt><trkpt lat="42.122254814259946" lon="11.954677874737312"><ele>339.0</ele><time>2026-04-18T12:27:02.877Z</time></trkpt><trkpt lat="42.12236312148799" lon="11.954694678475922"><ele>339.0</ele><time>2026-04-18T12:27:04.877Z</time></trkpt><trkpt lat="42.12247323873541" lon="11.954700725357574"><ele>339.8333333333333</ele><time>2026-04-18T12:27:06.877Z</time></trkpt><trkpt lat="42.122539011431975" lon="11.954673096562908"><ele>340.6666666666667</ele><time>2026-04-18T12:27:07.877Z</time></trkpt><trkpt lat="42.12262286796833" lon="11.954688401856304"><ele>341.5</ele><time>2026-04-18T12:27:08.877Z</time></trkpt><trkpt lat="42.12270357327982" lon="11.954726443454309"><ele>342.33333333333337</ele><time>2026-04-18T12:27:09.877Z</time></trkpt><trkpt lat="42.12277251163969" lon="11.954783377711346"><ele>343.1666666666667</ele><time>2026-04-18T12:27:10.877Z</time></trkpt><trkpt lat="42.12282493865607" lon="11.954858593366477"><ele>344.0</ele><time>2026-04-18T12:27:11.877Z</time></trkpt><trkpt lat="42.1228819887048" lon="11.95491297345754"><ele>344.0</ele><time>2026-04-18T12:27:12.877Z</time></trkpt><trkpt lat="42.12296963677927" lon="11.9549726094429"><ele>344.0</ele><time>2026-04-18T12:27:14.877Z</time></trkpt><trkpt lat="42.123025753295614" lon="11.955021071576184"><ele>344.0</ele><time>2026-04-18T12:27:15.877Z</time></trkpt><trkpt lat="42.12314244602303" lon="11.955072806215854"><ele>344.0</ele><time>2026-04-18T12:27:17.877Z</time></trkpt><trkpt lat="42.12322043862435" lon="11.955065267516181"><ele>344.0</ele><time>2026-04-18T12:27:18.877Z</time></trkpt><trkpt lat="42.12330473520919" lon="11.955046632774916"><ele>345.14285714285717</ele><time>2026-04-18T12:27:19.876Z</time></trkpt><trkpt lat="42.12336507382669" lon="11.955001352101862"><ele>346.2857142857143</ele><time>2026-04-18T12:27:20.876Z</time></trkpt><trkpt lat="42.12341928845936" lon="11.95494025069407"><ele>347.42857142857144</ele><time>2026-04-18T12:27:21.876Z</time></trkpt><trkpt lat="42.123463761354145" lon="11.954850270167098"><ele>348.57142857142856</ele><time>2026-04-18T12:27:22.876Z</time></trkpt><trkpt lat="42.123503727098324" lon="11.954752010798208"><ele>349.7142857142857</ele><time>2026-04-18T12:27:23.876Z</time></trkpt><trkpt lat="42.12353185555288" lon="11.954661521989733"><ele>350.8571428571429</ele><time>2026-04-18T12:27:24.876Z</time></trkpt><trkpt lat="42.12355645437042" lon="11.954572939689276"><ele>352.0</ele><time>2026-04-18T12:27:25.876Z</time></trkpt><trkpt lat="42.123568773840695" lon="11.954470773234645"><ele>352.0</ele><time>2026-04-18T12:27:26.876Z</time></trkpt><trkpt lat="42.12356999721551" lon="11.954364535441982"><ele>352.0</ele><time>2026-04-18T12:27:27.876Z</time></trkpt><trkpt lat="42.123553334547935" lon="11.954250692480889"><ele>352.0</ele><time>2026-04-18T12:27:28.876Z</time></trkpt><trkpt lat="42.12353061443995" lon="11.95413536408414"><ele>352.0</ele><time>2026-04-18T12:27:29.876Z</time></trkpt><trkpt lat="42.12351981022965" lon="11.954028066030848"><ele>352.0</ele><time>2026-04-18T12:27:30.876Z</time></trkpt><trkpt lat="42.12352845671573" lon="11.95391559531483"><ele>352.0</ele><time>2026-04-18T12:27:31.876Z</time></trkpt><trkpt lat="42.123548542810425" lon="11.953786369336388"><ele>354.0</ele><time>2026-04-18T12:27:32.876Z</time></trkpt><trkpt lat="42.123552825544124" lon="11.953654785950105"><ele>356.0</ele><time>2026-04-18T12:27:33.876Z</time></trkpt><trkpt lat="42.12356887861084" lon="11.953519978430707"><ele>358.0</ele><time>2026-04-18T12:27:34.876Z</time></trkpt><trkpt lat="42.123581437659425" lon="11.953399084265616"><ele>360.0</ele><time>2026-04-18T12:27:35.876Z</time></trkpt><trkpt lat="42.123589102442814" lon="11.953305843261406"><ele>362.0</ele><time>2026-04-18T12:27:36.876Z</time></trkpt><trkpt lat="42.12362099387204" lon="11.953136111043213"><ele>363.1666666666667</ele><time>2026-04-18T12:27:38.876Z</time></trkpt><trkpt lat="42.12367037455411" lon="11.953031035647918"><ele>364.33333333333337</ele><time>2026-04-18T12:27:39.876Z</time></trkpt><trkpt lat="42.12370668490134" lon="11.95293034066965"><ele>365.5</ele><time>2026-04-18T12:27:40.876Z</time></trkpt><trkpt lat="42.12373314898572" lon="11.952813864306677"><ele>366.6666666666667</ele><time>2026-04-18T12:27:41.876Z</time></trkpt><trkpt lat="42.12374959695599" lon="11.95270772758137"><ele>367.8333333333333</ele><time>2026-04-18T12:27:42.876Z</time></trkpt><trkpt lat="42.12376460616407" lon="11.952603207064351"><ele>369.0</ele><time>2026-04-18T12:27:43.876Z</time></trkpt><trkpt lat="42.12380040654459" lon="11.952495603000063"><ele>370.6</ele><time>2026-04-18T12:27:44.876Z</time></trkpt><trkpt lat="42.12383044492543" lon="11.952372972094523"><ele>372.2</ele><time>2026-04-18T12:27:45.876Z</time></trkpt><trkpt lat="42.12385486867124" lon="11.952222206008319"><ele>373.8</ele><time>2026-04-18T12:27:46.876Z</time></trkpt><trkpt lat="42.12388550316091" lon="11.952099151728481"><ele>375.40000000000003</ele><time>2026-04-18T12:27:47.876Z</time></trkpt><trkpt lat="42.12390930523548" lon="11.951981148025675"><ele>377.0</ele><time>2026-04-18T12:27:48.876Z</time></trkpt><trkpt lat="42.123911833871965" lon="11.951865499308452"><ele>377.0</ele><time>2026-04-18T12:27:49.876Z</time></trkpt><trkpt lat="42.123915278743446" lon="11.951737323233765"><ele>377.0</ele><time>2026-04-18T12:27:50.876Z</time></trkpt><trkpt lat="42.12389595427931" lon="11.951627448630566"><ele>377.0</ele><time>2026-04-18T12:27:51.876Z</time></trkpt><trkpt lat="42.123872774110886" lon="11.951546949999797"><ele>377.0</ele><time>2026-04-18T12:27:52.876Z</time></trkpt><trkpt lat="42.12380016186403" lon="11.951462357876007"><ele>377.0</ele><time>2026-04-18T12:27:53.876Z</time></trkpt><trkpt lat="42.123731071524524" lon="11.951381509716324"><ele>377.0</ele><time>2026-04-18T12:27:54.876Z</time></trkpt><trkpt lat="42.12365082298834" lon="11.951305105051638"><ele>377.0</ele><time>2026-04-18T12:27:55.876Z</time></trkpt><trkpt lat="42.123583034342865" lon="11.951247212180993"><ele>377.0</ele><time>2026-04-18T12:27:56.876Z</time></trkpt><trkpt lat="42.123489283248645" lon="11.951213053154486"><ele>377.0</ele><time>2026-04-18T12:27:57.876Z</time></trkpt><trkpt lat="42.12336253757084" lon="11.95120710526625"><ele>377.0</ele><time>2026-04-18T12:27:59.876Z</time></trkpt><trkpt lat="42.12328953763428" lon="11.951137810552574"><ele>377.0</ele><time>2026-04-18T12:28:01.876Z</time></trkpt><trkpt lat="42.123267511218266" lon="11.950958656846499"><ele>376.40000000000003</ele><time>2026-04-18T12:28:03.876Z</time></trkpt><trkpt lat="42.123268731126075" lon="11.950818327927642"><ele>375.8</ele><time>2026-04-18T12:28:04.876Z</time></trkpt><trkpt lat="42.123257283352274" lon="11.95064647548696"><ele>375.2</ele><time>2026-04-18T12:28:05.876Z</time></trkpt><trkpt lat="42.12325277002849" lon="11.950489627721646"><ele>374.6</ele><time>2026-04-18T12:28:06.876Z</time></trkpt><trkpt lat="42.12324193628365" lon="11.950382021837818"><ele>374.0</ele><time>2026-04-18T12:28:07.876Z</time></trkpt><trkpt lat="42.12323228160571" lon="11.950298005506815"><ele>375.79999999999995</ele><time>2026-04-18T12:28:08.876Z</time></trkpt><trkpt lat="42.12316627691224" lon="11.950163665180261"><ele>377.59999999999997</ele><time>2026-04-18T12:28:10.876Z</time></trkpt><trkpt lat="42.12308826740501" lon="11.950127919130509"><ele>379.4</ele><time>2026-04-18T12:28:11.876Z</time></trkpt><trkpt lat="42.12297363318407" lon="11.950129969619468"><ele>381.2</ele><time>2026-04-18T12:28:13.876Z</time></trkpt><trkpt lat="42.1228960675415" lon="11.950026154221561"><ele>383.0</ele><time>2026-04-18T12:28:15.876Z</time></trkpt><trkpt lat="42.12287776871378" lon="11.949944874433031"><ele>383.0</ele><time>2026-04-18T12:28:16.876Z</time></trkpt><trkpt lat="42.12286609589038" lon="11.949845033900859"><ele>383.0</ele><time>2026-04-18T12:28:17.875Z</time></trkpt><trkpt lat="42.122856532278576" lon="11.949701408684174"><ele>383.0</ele><time>2026-04-18T12:28:18.875Z</time></trkpt><trkpt lat="42.12282671189842" lon="11.949587565522771"><ele>383.0</ele><time>2026-04-18T12:28:19.875Z</time></trkpt><trkpt lat="42.12277170300658" lon="11.949526507886159"><ele>383.0</ele><time>2026-04-18T12:28:20.875Z</time></trkpt><trkpt lat="42.12269319194939" lon="11.949493701658017"><ele>383.0</ele><time>2026-04-18T12:28:21.875Z</time></trkpt><trkpt lat="42.12260814844731" lon="11.949461441089122"><ele>383.0</ele><time>2026-04-18T12:28:22.875Z</time></trkpt><trkpt lat="42.12252394567801" lon="11.949434196527184"><ele>383.0</ele><time>2026-04-18T12:28:23.875Z</time></trkpt><trkpt lat="42.122459283196285" lon="11.949393286067599"><ele>383.0</ele><time>2026-04-18T12:28:24.875Z</time></trkpt><trkpt lat="42.12241240272324" lon="11.949328196627464"><ele>383.0</ele><time>2026-04-18T12:28:25.875Z</time></trkpt><trkpt lat="42.12237908763338" lon="11.94925158290452"><ele>383.0</ele><time>2026-04-18T12:28:26.875Z</time></trkpt><trkpt lat="42.12235015885468" lon="11.949143277630736"><ele>383.0</ele><time>2026-04-18T12:28:27.875Z</time></trkpt><trkpt lat="42.122326547290044" lon="11.949006394746567"><ele>385.83333333333337</ele><time>2026-04-18T12:28:28.875Z</time></trkpt><trkpt lat="42.12229724360167" lon="11.948880206440656"><ele>388.6666666666667</ele><time>2026-04-18T12:28:29.875Z</time></trkpt><trkpt lat="42.12225650841336" lon="11.948761730555983"><ele>391.5</ele><time>2026-04-18T12:28:30.875Z</time></trkpt><trkpt lat="42.12222910382008" lon="11.94866488707899"><ele>394.33333333333337</ele><time>2026-04-18T12:28:31.875Z</time></trkpt><trkpt lat="42.12218480076528" lon="11.9485909049463"><ele>397.1666666666667</ele><time>2026-04-18T12:28:32.875Z</time></trkpt><trkpt lat="42.122130608626364" lon="11.94851959868241"><ele>400.0</ele><time>2026-04-18T12:28:33.875Z</time></trkpt><trkpt lat="42.122094992795795" lon="11.948407984257429"><ele>398.4</ele><time>2026-04-18T12:28:34.875Z</time></trkpt><trkpt lat="42.122055241593074" lon="11.948293914555164"><ele>396.8</ele><time>2026-04-18T12:28:35.875Z</time></trkpt><trkpt lat="42.122018806023945" lon="11.948194468247012"><ele>395.20000000000005</ele><time>2026-04-18T12:28:36.875Z</time></trkpt><trkpt lat="42.121955400063364" lon="11.948046255310128"><ele>393.6</ele><time>2026-04-18T12:28:38.875Z</time></trkpt><trkpt lat="42.121899494217764" lon="11.947980567854973"><ele>392.0</ele><time>2026-04-18T12:28:39.875Z</time></trkpt><trkpt lat="42.12187416812295" lon="11.947867567910041"><ele>392.0</ele><time>2026-04-18T12:28:40.875Z</time></trkpt><trkpt lat="42.12186381546351" lon="11.947766277714043"><ele>392.0</ele><time>2026-04-18T12:28:41.875Z</time></trkpt><trkpt lat="42.12186958814158" lon="11.947655821884577"><ele>392.0</ele><time>2026-04-18T12:28:42.875Z</time></trkpt><trkpt lat="42.12188394050589" lon="11.947523188862723"><ele>392.0</ele><time>2026-04-18T12:28:43.875Z</time></trkpt><trkpt lat="42.12189652971755" lon="11.947405096861534"><ele>392.0</ele><time>2026-04-18T12:28:44.875Z</time></trkpt><trkpt lat="42.12194142140876" lon="11.947266262383266"><ele>392.0</ele><time>2026-04-18T12:28:46.875Z</time></trkpt><trkpt lat="42.12199896538516" lon="11.947189062846462"><ele>392.0</ele><time>2026-04-18T12:28:47.875Z</time></trkpt><trkpt lat="42.12206511551726" lon="11.947103646888655"><ele>392.0</ele><time>2026-04-18T12:28:48.875Z</time></trkpt><trkpt lat="42.12212921469465" lon="11.947021886972811"><ele>392.0</ele><time>2026-04-18T12:28:49.875Z</time></trkpt><trkpt lat="42.122204332431565" lon="11.946912684943227"><ele>392.0</ele><time>2026-04-18T12:28:51.875Z</time></trkpt><trkpt lat="42.122273453751056" lon="11.946787226869205"><ele>390.0</ele><time>2026-04-18T12:28:53.875Z</time></trkpt><trkpt lat="42.12233320916286" lon="11.946699359865281"><ele>388.0</ele><time>2026-04-18T12:28:54.875Z</time></trkpt><trkpt lat="42.122391298593286" lon="11.94661743928733"><ele>386.0</ele><time>2026-04-18T12:28:55.875Z</time></trkpt><trkpt lat="42.122465567670005" lon="11.946535696895284"><ele>384.0</ele><time>2026-04-18T12:28:56.873Z</time></trkpt><trkpt lat="42.12254221711353" lon="11.946420832040944"><ele>382.0</ele><time>2026-04-18T12:28:58.873Z</time></trkpt><trkpt lat="42.12254192618565" lon="11.946310136558342"><ele>382.0</ele><time>2026-04-18T12:28:59.873Z</time></trkpt><trkpt lat="42.12254742650912" lon="11.946185632237997"><ele>382.0</ele><time>2026-04-18T12:29:00.873Z</time></trkpt><trkpt lat="42.122539881321806" lon="11.946056953323275"><ele>382.0</ele><time>2026-04-18T12:29:01.873Z</time></trkpt><trkpt lat="42.122546221861285" lon="11.945925033995042"><ele>382.0</ele><time>2026-04-18T12:29:02.873Z</time></trkpt><trkpt lat="42.12256938768221" lon="11.94579234915073"><ele>382.0</ele><time>2026-04-18T12:29:03.873Z</time></trkpt><trkpt lat="42.12260211512638" lon="11.945660469918431"><ele>385.20000000000005</ele><time>2026-04-18T12:29:04.873Z</time></trkpt><trkpt lat="42.12265592823805" lon="11.945511222043766"><ele>388.4</ele><time>2026-04-18T12:29:05.873Z</time></trkpt><trkpt lat="42.12269792678215" lon="11.945382624719096"><ele>391.6</ele><time>2026-04-18T12:29:06.873Z</time></trkpt><trkpt lat="42.122731593016034" lon="11.945276418470506"><ele>394.79999999999995</ele><time>2026-04-18T12:29:07.873Z</time></trkpt><trkpt lat="42.122762017949874" lon="11.945193593799944"><ele>398.0</ele><time>2026-04-18T12:29:08.873Z</time></trkpt><trkpt lat="42.12282740724815" lon="11.945110886468262"><ele>397.99999999999994</ele><time>2026-04-18T12:29:10.873Z</time></trkpt><trkpt lat="42.122899230190214" lon="11.945074965438481"><ele>398.0</ele><time>2026-04-18T12:29:12.873Z</time></trkpt><trkpt lat="42.12297343935857" lon="11.945058461339213"><ele>398.0</ele><time>2026-04-18T12:29:13.873Z</time></trkpt><trkpt lat="42.12303947932159" lon="11.945037784200984"><ele>398.0</ele><time>2026-04-18T12:29:14.873Z</time></trkpt><trkpt lat="42.12311122816804" lon="11.94501782096611"><ele>397.99999999999994</ele><time>2026-04-18T12:29:15.873Z</time></trkpt><trkpt lat="42.123184749114436" lon="11.945027982653802"><ele>398.0</ele><time>2026-04-18T12:29:16.873Z</time></trkpt><trkpt lat="42.123278504436776" lon="11.945013661135768"><ele>396.0</ele><time>2026-04-18T12:29:18.873Z</time></trkpt><trkpt lat="42.1233166431692" lon="11.944935272101496"><ele>394.0</ele><time>2026-04-18T12:29:19.873Z</time></trkpt><trkpt lat="42.123304973364355" lon="11.944789265298398"><ele>392.0</ele><time>2026-04-18T12:29:21.873Z</time></trkpt><trkpt lat="42.123251197393756" lon="11.944656863453499"><ele>390.0</ele><time>2026-04-18T12:29:23.873Z</time></trkpt><trkpt lat="42.123217609199834" lon="11.94455232291308"><ele>388.0</ele><time>2026-04-18T12:29:24.873Z</time></trkpt><trkpt lat="42.12319227491634" lon="11.944424758843228"><ele>393.4</ele><time>2026-04-18T12:29:25.873Z</time></trkpt><trkpt lat="42.12318541518142" lon="11.944316002800486"><ele>398.79999999999995</ele><time>2026-04-18T12:29:26.873Z</time></trkpt><trkpt lat="42.12317061608041" lon="11.944193116116617"><ele>404.2</ele><time>2026-04-18T12:29:27.873Z</time></trkpt><trkpt lat="42.12317254714465" lon="11.944064052090084"><ele>409.6</ele><time>2026-04-18T12:29:28.873Z</time></trkpt><trkpt lat="42.123145804053785" lon="11.943891903975441"><ele>415.0</ele><time>2026-04-18T12:29:30.873Z</time></trkpt><trkpt lat="42.123122232145576" lon="11.943729790441745"><ele>416.8</ele><time>2026-04-18T12:29:32.873Z</time></trkpt><trkpt lat="42.12311811747148" lon="11.943615249502988"><ele>418.6</ele><time>2026-04-18T12:29:34.873Z</time></trkpt><trkpt lat="42.123151286213265" lon="11.943507399212514"><ele>420.4</ele><time>2026-04-18T12:29:36.873Z</time></trkpt><trkpt lat="42.12319320370091" lon="11.94342500495642"><ele>422.2</ele><time>2026-04-18T12:29:38.873Z</time></trkpt><trkpt lat="42.12328906111508" lon="11.943344683453097"><ele>424.0</ele><time>2026-04-18T12:29:40.873Z</time></trkpt><trkpt lat="42.1233743504968" lon="11.94328528948265"><ele>420.2</ele><time>2026-04-18T12:29:41.873Z</time></trkpt><trkpt lat="42.12343991975229" lon="11.943228365486895"><ele>416.4</ele><time>2026-04-18T12:29:42.872Z</time></trkpt><trkpt lat="42.123528380606025" lon="11.943159425839116"><ele>412.6</ele><time>2026-04-18T12:29:43.872Z</time></trkpt><trkpt lat="42.12362465214934" lon="11.94308588174042"><ele>408.8</ele><time>2026-04-18T12:29:44.872Z</time></trkpt><trkpt lat="42.123718879359814" lon="11.943038067299558"><ele>405.0</ele><time>2026-04-18T12:29:45.872Z</time></trkpt><trkpt lat="42.12379170267936" lon="11.942983779221704"><ele>405.0</ele><time>2026-04-18T12:29:46.872Z</time></trkpt><trkpt lat="42.12385143265019" lon="11.942913300425092"><ele>405.0</ele><time>2026-04-18T12:29:47.872Z</time></trkpt><trkpt lat="42.1238938283089" lon="11.94282386942216"><ele>405.0</ele><time>2026-04-18T12:29:48.872Z</time></trkpt><trkpt lat="42.12391995190395" lon="11.942726464400446"><ele>405.0</ele><time>2026-04-18T12:29:49.872Z</time></trkpt><trkpt lat="42.12388127299865" lon="11.942565159783681"><ele>405.0</ele><time>2026-04-18T12:29:51.872Z</time></trkpt><trkpt lat="42.12382490167064" lon="11.942469646090936"><ele>407.6666666666667</ele><time>2026-04-18T12:29:52.872Z</time></trkpt><trkpt lat="42.12376356598483" lon="11.94238770775637"><ele>410.33333333333337</ele><time>2026-04-18T12:29:53.872Z</time></trkpt><trkpt lat="42.12369562349712" lon="11.942328076955098"><ele>413.0</ele><time>2026-04-18T12:29:54.872Z</time></trkpt><trkpt lat="42.12364079227165" lon="11.942274546410648"><ele>415.6666666666667</ele><time>2026-04-18T12:29:55.872Z</time></trkpt><trkpt lat="42.12361324789619" lon="11.942127011099332"><ele>418.33333333333337</ele><time>2026-04-18T12:29:57.872Z</time></trkpt><trkpt lat="42.12361127042437" lon="11.942028609751041"><ele>421.0</ele><time>2026-04-18T12:29:58.872Z</time></trkpt><trkpt lat="42.12369860628552" lon="11.941879120528977"><ele>421.00000000000006</ele><time>2026-04-18T12:30:00.872Z</time></trkpt><trkpt lat="42.12378195909348" lon="11.941800669938228"><ele>421.0</ele><time>2026-04-18T12:30:01.872Z</time></trkpt><trkpt lat="42.12387649636103" lon="11.941743433353496"><ele>421.0</ele><time>2026-04-18T12:30:03.872Z</time></trkpt><trkpt lat="42.12394880018871" lon="11.941679320739976"><ele>421.0</ele><time>2026-04-18T12:30:05.872Z</time></trkpt><trkpt lat="42.123963162594784" lon="11.94158708791351"><ele>421.00000000000006</ele><time>2026-04-18T12:30:06.872Z</time></trkpt><trkpt lat="42.12394556184115" lon="11.941482117353074"><ele>421.0</ele><time>2026-04-18T12:30:07.872Z</time></trkpt><trkpt lat="42.12394159206869" lon="11.941392428782757"><ele>422.20000000000005</ele><time>2026-04-18T12:30:08.872Z</time></trkpt><trkpt lat="42.12402501946457" lon="11.941283989471895"><ele>423.40000000000003</ele><time>2026-04-18T12:30:10.872Z</time></trkpt><trkpt lat="42.12410299565657" lon="11.941221644434489"><ele>424.6</ele><time>2026-04-18T12:30:11.872Z</time></trkpt><trkpt lat="42.124172679879145" lon="11.941130189379463"><ele>425.8</ele><time>2026-04-18T12:30:13.872Z</time></trkpt><trkpt lat="42.12425782814829" lon="11.941114054600366"><ele>427.0</ele><time>2026-04-18T12:30:15.872Z</time></trkpt><trkpt lat="42.12433295693827" lon="11.94112281665054"><ele>421.0</ele><time>2026-04-18T12:30:16.872Z</time></trkpt><trkpt lat="42.124432084893144" lon="11.941120772154953"><ele>415.00000000000006</ele><time>2026-04-18T12:30:17.872Z</time></trkpt><trkpt lat="42.124526322894035" lon="11.941125830109371"><ele>409.0</ele><time>2026-04-18T12:30:18.872Z</time></trkpt><trkpt lat="42.12462573413791" lon="11.941154580066264"><ele>403.0</ele><time>2026-04-18T12:30:19.872Z</time></trkpt><trkpt lat="42.12472682512496" lon="11.941199342628044"><ele>397.0</ele><time>2026-04-18T12:30:20.872Z</time></trkpt><trkpt lat="42.12482649607878" lon="11.941242040566701"><ele>396.00000000000006</ele><time>2026-04-18T12:30:21.872Z</time></trkpt><trkpt lat="42.12491880457275" lon="11.941290381894113"><ele>395.0</ele><time>2026-04-18T12:30:22.872Z</time></trkpt><trkpt lat="42.12499626546019" lon="11.941299471148167"><ele>394.0</ele><time>2026-04-18T12:30:23.872Z</time></trkpt><trkpt lat="42.12505739525116" lon="11.941261400285768"><ele>393.0</ele><time>2026-04-18T12:30:24.872Z</time></trkpt><trkpt lat="42.125110762102906" lon="11.941204213518747"><ele>392.00000000000006</ele><time>2026-04-18T12:30:25.872Z</time></trkpt><trkpt lat="42.12511653275595" lon="11.941117470569333"><ele>391.0</ele><time>2026-04-18T12:30:26.872Z</time></trkpt><trkpt lat="42.1251108673415" lon="11.94100534010564"><ele>393.20000000000005</ele><time>2026-04-18T12:30:27.872Z</time></trkpt><trkpt lat="42.1251040853409" lon="11.940879908252644"><ele>395.40000000000003</ele><time>2026-04-18T12:30:28.872Z</time></trkpt><trkpt lat="42.12509309015709" lon="11.940762974302014"><ele>397.6</ele><time>2026-04-18T12:30:29.872Z</time></trkpt><trkpt lat="42.12512091466527" lon="11.94063217880857"><ele>399.8</ele><time>2026-04-18T12:30:31.872Z</time></trkpt><trkpt lat="42.12512855918003" lon="11.940475768307175"><ele>402.0</ele><time>2026-04-18T12:30:33.872Z</time></trkpt><trkpt lat="42.1251280604128" lon="11.940382386213734"><ele>402.0</ele><time>2026-04-18T12:30:34.872Z</time></trkpt><trkpt lat="42.12514559724949" lon="11.940255425652111"><ele>402.0</ele><time>2026-04-18T12:30:35.872Z</time></trkpt><trkpt lat="42.125162143594565" lon="11.94013801680069"><ele>402.0</ele><time>2026-04-18T12:30:36.872Z</time></trkpt><trkpt lat="42.12516430679999" lon="11.94002596084204"><ele>402.0</ele><time>2026-04-18T12:30:37.872Z</time></trkpt><trkpt lat="42.12520874303934" lon="11.939939428775062"><ele>402.0</ele><time>2026-04-18T12:30:38.872Z</time></trkpt><trkpt lat="42.12525140176928" lon="11.939861185099854"><ele>402.0</ele><time>2026-04-18T12:30:39.872Z</time></trkpt><trkpt lat="42.125257143917935" lon="11.939708057765134"><ele>403.8</ele><time>2026-04-18T12:30:41.871Z</time></trkpt><trkpt lat="42.1252178637487" lon="11.939553339643002"><ele>405.6</ele><time>2026-04-18T12:30:43.871Z</time></trkpt><trkpt lat="42.12522175654354" lon="11.939446442043657"><ele>407.40000000000003</ele><time>2026-04-18T12:30:44.871Z</time></trkpt><trkpt lat="42.12525875691252" lon="11.939363712792192"><ele>409.20000000000005</ele><time>2026-04-18T12:30:45.871Z</time></trkpt><trkpt lat="42.12531392652363" lon="11.939301864682621"><ele>411.0</ele><time>2026-04-18T12:30:46.871Z</time></trkpt><trkpt lat="42.12539544669649" lon="11.939162471402344"><ele>411.1666666666667</ele><time>2026-04-18T12:30:48.871Z</time></trkpt><trkpt lat="42.12543489595827" lon="11.939076544889327"><ele>411.33333333333337</ele><time>2026-04-18T12:30:49.871Z</time></trkpt><trkpt lat="42.12543197557296" lon="11.938918887241309"><ele>411.5</ele><time>2026-04-18T12:30:51.871Z</time></trkpt><trkpt lat="42.125393888893235" lon="11.938849049972141"><ele>411.6666666666667</ele><time>2026-04-18T12:30:52.871Z</time></trkpt><trkpt lat="42.125346657636335" lon="11.938774090979285"><ele>411.83333333333337</ele><time>2026-04-18T12:30:53.871Z</time></trkpt><trkpt lat="42.125277349728414" lon="11.938680817205672"><ele>412.0</ele><time>2026-04-18T12:30:54.871Z</time></trkpt><trkpt lat="42.125197528038015" lon="11.938587800741768"><ele>412.00000000000006</ele><time>2026-04-18T12:30:55.871Z</time></trkpt><trkpt lat="42.12513811563032" lon="11.93851325597925"><ele>412.0</ele><time>2026-04-18T12:30:56.871Z</time></trkpt><trkpt lat="42.12507968218031" lon="11.938453559164167"><ele>412.0</ele><time>2026-04-18T12:30:57.871Z</time></trkpt><trkpt lat="42.12501679641443" lon="11.938424218356538"><ele>412.0</ele><time>2026-04-18T12:30:58.871Z</time></trkpt><trkpt lat="42.12493205413853" lon="11.938324526885516"><ele>412.00000000000006</ele><time>2026-04-18T12:31:00.871Z</time></trkpt><trkpt lat="42.12489571770533" lon="11.93818313743149"><ele>412.0</ele><time>2026-04-18T12:31:02.869Z</time></trkpt><trkpt lat="42.12489383006644" lon="11.938083697630718"><ele>411.0</ele><time>2026-04-18T12:31:03.87Z</time></trkpt><trkpt lat="42.12492472189105" lon="11.937973012342923"><ele>410.0</ele><time>2026-04-18T12:31:04.87Z</time></trkpt><trkpt lat="42.12499123144809" lon="11.93790027522656"><ele>409.0</ele><time>2026-04-18T12:31:05.87Z</time></trkpt><trkpt lat="42.12506664678878" lon="11.937844634891295"><ele>408.0</ele><time>2026-04-18T12:31:06.87Z</time></trkpt><trkpt lat="42.12512483463413" lon="11.937763418014645"><ele>407.0</ele><time>2026-04-18T12:31:07.87Z</time></trkpt><trkpt lat="42.125177593587395" lon="11.937629170392716"><ele>408.5</ele><time>2026-04-18T12:31:09.869Z</time></trkpt><trkpt lat="42.12520804506276" lon="11.93748171686143"><ele>410.0</ele><time>2026-04-18T12:31:11.87Z</time></trkpt><trkpt lat="42.125242793630356" lon="11.937368289780647"><ele>411.5</ele><time>2026-04-18T12:31:12.869Z</time></trkpt><trkpt lat="42.125307149047465" lon="11.937223505412833"><ele>413.0</ele><time>2026-04-18T12:31:13.869Z</time></trkpt><trkpt lat="42.12536902103479" lon="11.937070851849995"><ele>413.0</ele><time>2026-04-18T12:31:14.869Z</time></trkpt><trkpt lat="42.125396173976576" lon="11.93693850372106"><ele>413.0</ele><time>2026-04-18T12:31:15.869Z</time></trkpt><trkpt lat="42.12543403953321" lon="11.936844816962088"><ele>413.0</ele><time>2026-04-18T12:31:16.869Z</time></trkpt><trkpt lat="42.125453166335774" lon="11.93673502369931"><ele>413.0</ele><time>2026-04-18T12:31:17.869Z</time></trkpt><trkpt lat="42.1254584856112" lon="11.936601349510498"><ele>413.0</ele><time>2026-04-18T12:31:18.869Z</time></trkpt><trkpt lat="42.12545709164122" lon="11.936454745510442"><ele>415.3333333333333</ele><time>2026-04-18T12:31:19.869Z</time></trkpt><trkpt lat="42.1254587656873" lon="11.936331690848588"><ele>417.66666666666663</ele><time>2026-04-18T12:31:20.869Z</time></trkpt><trkpt lat="42.12548175979149" lon="11.93623786704705"><ele>420.0</ele><time>2026-04-18T12:31:21.869Z</time></trkpt><trkpt lat="42.125512625570536" lon="11.93615736210515"><ele>422.33333333333337</ele><time>2026-04-18T12:31:22.869Z</time></trkpt><trkpt lat="42.12556776409087" lon="11.936073650230407"><ele>424.6666666666667</ele><time>2026-04-18T12:31:23.869Z</time></trkpt><trkpt lat="42.12566015880646" lon="11.936004702285716"><ele>427.0</ele><time>2026-04-18T12:31:25.869Z</time></trkpt><trkpt lat="42.12576494559307" lon="11.935924192549697"><ele>421.8</ele><time>2026-04-18T12:31:27.869Z</time></trkpt><trkpt lat="42.12580192230278" lon="11.935818053308356"><ele>416.6</ele><time>2026-04-18T12:31:28.869Z</time></trkpt><trkpt lat="42.12584071118406" lon="11.935673195167709"><ele>411.40000000000003</ele><time>2026-04-18T12:31:29.869Z</time></trkpt><trkpt lat="42.125870980581674" lon="11.935537600197737"><ele>406.20000000000005</ele><time>2026-04-18T12:31:30.869Z</time></trkpt><trkpt lat="42.125853489404975" lon="11.935423031331439"><ele>401.0</ele><time>2026-04-18T12:31:31.869Z</time></trkpt><trkpt lat="42.125811971655864" lon="11.935322236710567"><ele>401.0</ele><time>2026-04-18T12:31:32.869Z</time></trkpt><trkpt lat="42.125770758911514" lon="11.935208789787232"><ele>401.0</ele><time>2026-04-18T12:31:33.869Z</time></trkpt><trkpt lat="42.125743170067544" lon="11.935098609782012"><ele>401.0</ele><time>2026-04-18T12:31:34.869Z</time></trkpt><trkpt lat="42.1257086957217" lon="11.934950717698134"><ele>401.0</ele><time>2026-04-18T12:31:35.869Z</time></trkpt><trkpt lat="42.12566830460316" lon="11.934819426046252"><ele>401.0</ele><time>2026-04-18T12:31:36.869Z</time></trkpt><trkpt lat="42.12563053169802" lon="11.93474405273596"><ele>403.49999999999994</ele><time>2026-04-18T12:31:37.869Z</time></trkpt><trkpt lat="42.125523649660536" lon="11.934623343632524"><ele>406.0</ele><time>2026-04-18T12:31:39.869Z</time></trkpt><trkpt lat="42.125445431980374" lon="11.934556545840035"><ele>408.5</ele><time>2026-04-18T12:31:40.869Z</time></trkpt><trkpt lat="42.125401820134876" lon="11.934481751129196"><ele>411.0</ele><time>2026-04-18T12:31:41.869Z</time></trkpt><trkpt lat="42.12537854494828" lon="11.93439262247372"><ele>413.49999999999994</ele><time>2026-04-18T12:31:42.869Z</time></trkpt><trkpt lat="42.12537843207644" lon="11.934294762243503"><ele>416.0</ele><time>2026-04-18T12:31:45.869Z</time></trkpt><trkpt lat="42.12546237553824" lon="11.93415160691939"><ele>416.0</ele><time>2026-04-18T12:31:47.868Z</time></trkpt><trkpt lat="42.12556229821391" lon="11.93403741504245"><ele>416.0</ele><time>2026-04-18T12:31:48.868Z</time></trkpt><trkpt lat="42.125610810832505" lon="11.9339458138449"><ele>416.0</ele><time>2026-04-18T12:31:49.868Z</time></trkpt><trkpt lat="42.12564707704556" lon="11.933857347144228"><ele>416.0</ele><time>2026-04-18T12:31:50.868Z</time></trkpt><trkpt lat="42.12559304116886" lon="11.933668478176227"><ele>416.0</ele><time>2026-04-18T12:31:52.868Z</time></trkpt><trkpt lat="42.12557806714823" lon="11.933580809825976"><ele>416.0</ele><time>2026-04-18T12:31:53.868Z</time></trkpt><trkpt lat="42.12551165563901" lon="11.93344092033664"><ele>416.0</ele><time>2026-04-18T12:31:55.868Z</time></trkpt><trkpt lat="42.12545978469141" lon="11.93332202543076"><ele>416.0</ele><time>2026-04-18T12:31:56.868Z</time></trkpt><trkpt lat="42.12539064956607" lon="11.93317064026604"><ele>416.0</ele><time>2026-04-18T12:31:57.868Z</time></trkpt><trkpt lat="42.12534281661762" lon="11.933062301592388"><ele>415.0</ele><time>2026-04-18T12:31:58.868Z</time></trkpt><trkpt lat="42.12529664391396" lon="11.932980995328156"><ele>414.0</ele><time>2026-04-18T12:31:59.868Z</time></trkpt><trkpt lat="42.12526162728316" lon="11.93288312967046"><ele>413.0</ele><time>2026-04-18T12:32:01.868Z</time></trkpt><trkpt lat="42.125237281439624" lon="11.932721415375411"><ele>412.0</ele><time>2026-04-18T12:32:03.868Z</time></trkpt><trkpt lat="42.1251871004652" lon="11.932596234058495"><ele>411.0</ele><time>2026-04-18T12:32:05.868Z</time></trkpt><trkpt lat="42.125121525482236" lon="11.932513823842337"><ele>410.1666666666667</ele><time>2026-04-18T12:32:08.868Z</time></trkpt><trkpt lat="42.125083326514364" lon="11.932437321311895"><ele>409.33333333333337</ele><time>2026-04-18T12:32:11.868Z</time></trkpt><trkpt lat="42.12506117001506" lon="11.932355138307576"><ele>408.5</ele><time>2026-04-18T12:32:13.868Z</time></trkpt><trkpt lat="42.1251085399355" lon="11.932238667491829"><ele>407.6666666666667</ele><time>2026-04-18T12:32:15.868Z</time></trkpt><trkpt lat="42.12515455635794" lon="11.932164464508"><ele>406.83333333333337</ele><time>2026-04-18T12:32:16.868Z</time></trkpt><trkpt lat="42.12519185508785" lon="11.932075839339074"><ele>406.0</ele><time>2026-04-18T12:32:17.868Z</time></trkpt><trkpt lat="42.12526330815416" lon="11.931879136146195"><ele>406.00000000000006</ele><time>2026-04-18T12:32:20.868Z</time></trkpt><trkpt lat="42.12527869348056" lon="11.93175865979986"><ele>406.0</ele><time>2026-04-18T12:32:21.868Z</time></trkpt><trkpt lat="42.12528066821164" lon="11.9316432013458"><ele>406.0</ele><time>2026-04-18T12:32:22.868Z</time></trkpt><trkpt lat="42.125313869486746" lon="11.931524006478993"><ele>406.0</ele><time>2026-04-18T12:32:23.868Z</time></trkpt><trkpt lat="42.12533638042217" lon="11.931433827298727"><ele>406.00000000000006</ele><time>2026-04-18T12:32:24.868Z</time></trkpt><trkpt lat="42.12537768163177" lon="11.931349650461867"><ele>406.0</ele><time>2026-04-18T12:32:25.868Z</time></trkpt><trkpt lat="42.12540136832854" lon="11.931269115563342"><ele>406.8</ele><time>2026-04-18T12:32:26.868Z</time></trkpt><trkpt lat="42.125402905654006" lon="11.931132489055669"><ele>407.6</ele><time>2026-04-18T12:32:28.868Z</time></trkpt><trkpt lat="42.125384239237896" lon="11.931002081285449"><ele>408.4</ele><time>2026-04-18T12:32:30.868Z</time></trkpt><trkpt lat="42.125395283903124" lon="11.930908769766502"><ele>409.2</ele><time>2026-04-18T12:32:31.868Z</time></trkpt><trkpt lat="42.125413321973795" lon="11.930738186026558"><ele>410.0</ele><time>2026-04-18T12:32:33.868Z</time></trkpt><trkpt lat="42.12543529139967" lon="11.93064534084236"><ele>411.4</ele><time>2026-04-18T12:32:34.868Z</time></trkpt><trkpt lat="42.12548366972355" lon="11.930540220297965"><ele>412.8</ele><time>2026-04-18T12:32:35.868Z</time></trkpt><trkpt lat="42.12553809803094" lon="11.930436507720755"><ele>414.20000000000005</ele><time>2026-04-18T12:32:36.868Z</time></trkpt><trkpt lat="42.125594030614884" lon="11.930355577216316"><ele>415.6</ele><time>2026-04-18T12:32:37.868Z</time></trkpt><trkpt lat="42.12563654828392" lon="11.930270152247413"><ele>417.0</ele><time>2026-04-18T12:32:38.868Z</time></trkpt><trkpt lat="42.12567583847466" lon="11.930137373895635"><ele>419.0</ele><time>2026-04-18T12:32:40.868Z</time></trkpt><trkpt lat="42.125664204019145" lon="11.930029516841852"><ele>421.0</ele><time>2026-04-18T12:32:41.868Z</time></trkpt><trkpt lat="42.12565286937785" lon="11.929906281716807"><ele>423.0</ele><time>2026-04-18T12:32:42.868Z</time></trkpt><trkpt lat="42.12566221681477" lon="11.929798925292562"><ele>425.0</ele><time>2026-04-18T12:32:43.868Z</time></trkpt><trkpt lat="42.12567434963767" lon="11.929708905563608"><ele>427.0</ele><time>2026-04-18T12:32:44.868Z</time></trkpt><trkpt lat="42.125694477446174" lon="11.92961150159026"><ele>429.0</ele><time>2026-04-18T12:32:45.867Z</time></trkpt><trkpt lat="42.1257166419311" lon="11.929506880425487"><ele>429.0</ele><time>2026-04-18T12:32:46.867Z</time></trkpt><trkpt lat="42.12572040204562" lon="11.929390905119579"><ele>429.0</ele><time>2026-04-18T12:32:47.867Z</time></trkpt><trkpt lat="42.125706172331526" lon="11.929301191256053"><ele>429.0</ele><time>2026-04-18T12:32:48.867Z</time></trkpt><trkpt lat="42.125708598824666" lon="11.929214838469282"><ele>429.0</ele><time>2026-04-18T12:32:49.867Z</time></trkpt><trkpt lat="42.12564355663859" lon="11.929067790847455"><ele>429.0</ele><time>2026-04-18T12:32:51.867Z</time></trkpt><trkpt lat="42.125589818361455" lon="11.929000220854666"><ele>429.0</ele><time>2026-04-18T12:32:52.867Z</time></trkpt><trkpt lat="42.125508710355675" lon="11.928908632944989"><ele>428.79999999999995</ele><time>2026-04-18T12:32:54.867Z</time></trkpt><trkpt lat="42.12546672133785" lon="11.928815625237938"><ele>428.59999999999997</ele><time>2026-04-18T12:32:57.867Z</time></trkpt><trkpt lat="42.12544395431693" lon="11.928692226091368"><ele>428.4</ele><time>2026-04-18T12:32:59.867Z</time></trkpt><trkpt lat="42.125424994634706" lon="11.928541722043112"><ele>428.2</ele><time>2026-04-18T12:33:01.867Z</time></trkpt><trkpt lat="42.12544411014531" lon="11.928434391902458"><ele>428.0</ele><time>2026-04-18T12:33:03.867Z</time></trkpt><trkpt lat="42.1254451333235" lon="11.928299808358668"><ele>428.0</ele><time>2026-04-18T12:33:05.867Z</time></trkpt><trkpt lat="42.12538533045739" lon="11.928165990641677"><ele>427.99999999999994</ele><time>2026-04-18T12:33:07.867Z</time></trkpt><trkpt lat="42.12532690695945" lon="11.928106946440662"><ele>427.99999999999994</ele><time>2026-04-18T12:33:08.866Z</time></trkpt><trkpt lat="42.125248854972845" lon="11.928049183635851"><ele>428.0</ele><time>2026-04-18T12:33:09.867Z</time></trkpt><trkpt lat="42.12515091700595" lon="11.928000129694318"><ele>428.0</ele><time>2026-04-18T12:33:10.867Z</time></trkpt><trkpt lat="42.12508263577147" lon="11.927972451369888"><ele>428.0</ele><time>2026-04-18T12:33:11.867Z</time></trkpt><trkpt lat="42.12501768935262" lon="11.927843506053435"><ele>427.99999999999994</ele><time>2026-04-18T12:33:13.867Z</time></trkpt><trkpt lat="42.124998954856835" lon="11.92772839731181"><ele>427.99999999999994</ele><time>2026-04-18T12:33:15.866Z</time></trkpt><trkpt lat="42.124962122785746" lon="11.927593379977537"><ele>428.0</ele><time>2026-04-18T12:33:17.867Z</time></trkpt><trkpt lat="42.124942169323226" lon="11.92749609285893"><ele>428.0</ele><time>2026-04-18T12:33:19.866Z</time></trkpt><trkpt lat="42.12484264739689" lon="11.92742617686965"><ele>426.8333333333333</ele><time>2026-04-18T12:33:21.865Z</time></trkpt><trkpt lat="42.124774752586994" lon="11.927425280374532"><ele>425.66666666666663</ele><time>2026-04-18T12:33:22.865Z</time></trkpt><trkpt lat="42.12469670352031" lon="11.92743681224213"><ele>424.5</ele><time>2026-04-18T12:33:23.865Z</time></trkpt><trkpt lat="42.12463073204464" lon="11.927460934591167"><ele>423.33333333333337</ele><time>2026-04-18T12:33:24.865Z</time></trkpt><trkpt lat="42.12455732827363" lon="11.927500964161121"><ele>422.1666666666667</ele><time>2026-04-18T12:33:25.865Z</time></trkpt><trkpt lat="42.124476820642315" lon="11.927546323188906"><ele>421.0</ele><time>2026-04-18T12:33:26.865Z</time></trkpt><trkpt lat="42.12437126766731" lon="11.92763392584272"><ele>423.83333333333337</ele><time>2026-04-18T12:33:28.865Z</time></trkpt><trkpt lat="42.124305361147805" lon="11.927663761904302"><ele>426.6666666666667</ele><time>2026-04-18T12:33:29.865Z</time></trkpt><trkpt lat="42.1242233839716" lon="11.927732884955908"><ele>429.5</ele><time>2026-04-18T12:33:30.865Z</time></trkpt><trkpt lat="42.12414971625608" lon="11.927790929497997"><ele>432.33333333333337</ele><time>2026-04-18T12:33:31.865Z</time></trkpt><trkpt lat="42.12406848270513" lon="11.927862568572909"><ele>435.1666666666667</ele><time>2026-04-18T12:33:33.865Z</time></trkpt><trkpt lat="42.123975022093525" lon="11.927851858624853"><ele>438.0</ele><time>2026-04-18T12:33:36.865Z</time></trkpt><trkpt lat="42.12390651579902" lon="11.92783006239784"><ele>438.0</ele><time>2026-04-18T12:33:38.865Z</time></trkpt><trkpt lat="42.12383967343341" lon="11.927768985112024"><ele>438.0</ele><time>2026-04-18T12:33:40.865Z</time></trkpt><trkpt lat="42.12377722729039" lon="11.927721468170866"><ele>438.0</ele><time>2026-04-18T12:33:41.865Z</time></trkpt><trkpt lat="42.12370756451376" lon="11.927668373040847"><ele>438.0</ele><time>2026-04-18T12:33:42.865Z</time></trkpt><trkpt lat="42.123621858970445" lon="11.927609890445023"><ele>438.0</ele><time>2026-04-18T12:33:43.865Z</time></trkpt><trkpt lat="42.12355385435807" lon="11.927569795146457"><ele>438.0</ele><time>2026-04-18T12:33:44.865Z</time></trkpt><trkpt lat="42.12348582008775" lon="11.927536727508071"><ele>438.0</ele><time>2026-04-18T12:33:45.865Z</time></trkpt><trkpt lat="42.123427067869365" lon="11.927484980652396"><ele>438.0</ele><time>2026-04-18T12:33:46.865Z</time></trkpt><trkpt lat="42.12338813729702" lon="11.927416214778654"><ele>438.0</ele><time>2026-04-18T12:33:47.865Z</time></trkpt><trkpt lat="42.12335692904029" lon="11.92733181839622"><ele>438.0</ele><time>2026-04-18T12:33:48.865Z</time></trkpt><trkpt lat="42.12334931097129" lon="11.927245387614269"><ele>438.0</ele><time>2026-04-18T12:33:49.865Z</time></trkpt><trkpt lat="42.12335476050628" lon="11.927153213044429"><ele>438.0</ele><time>2026-04-18T12:33:50.865Z</time></trkpt><trkpt lat="42.12336458586906" lon="11.927049657369686"><ele>438.0</ele><time>2026-04-18T12:33:51.865Z</time></trkpt><trkpt lat="42.123336105119805" lon="11.926959827634398"><ele>438.0</ele><time>2026-04-18T12:33:52.865Z</time></trkpt><trkpt lat="42.12329200176136" lon="11.926895559645088"><ele>438.0</ele><time>2026-04-18T12:33:53.865Z</time></trkpt><trkpt lat="42.12322659725558" lon="11.926839869880702"><ele>438.0</ele><time>2026-04-18T12:33:54.865Z</time></trkpt><trkpt lat="42.12316260741779" lon="11.926791920507275"><ele>438.0</ele><time>2026-04-18T12:33:55.865Z</time></trkpt><trkpt lat="42.12308807972446" lon="11.926765546965806"><ele>438.0</ele><time>2026-04-18T12:33:56.865Z</time></trkpt><trkpt lat="42.12299952213386" lon="11.926776930307211"><ele>438.0</ele><time>2026-04-18T12:33:57.865Z</time></trkpt><trkpt lat="42.122924526503105" lon="11.926785957682615"><ele>437.0</ele><time>2026-04-18T12:33:58.865Z</time></trkpt><trkpt lat="42.122825831716696" lon="11.926795727794675"><ele>435.99999999999994</ele><time>2026-04-18T12:33:59.865Z</time></trkpt><trkpt lat="42.1227417969832" lon="11.926812144148078"><ele>434.99999999999994</ele><time>2026-04-18T12:34:00.865Z</time></trkpt><trkpt lat="42.12266508417023" lon="11.926829468133143"><ele>434.0</ele><time>2026-04-18T12:34:01.865Z</time></trkpt><trkpt lat="42.12253424612688" lon="11.926759437842996"><ele>433.0</ele><time>2026-04-18T12:34:03.865Z</time></trkpt><trkpt lat="42.122470464529165" lon="11.926712053912532"><ele>433.00000000000006</ele><time>2026-04-18T12:34:04.865Z</time></trkpt><trkpt lat="42.12238401271484" lon="11.9266662984548"><ele>433.0</ele><time>2026-04-18T12:34:06.864Z</time></trkpt><trkpt lat="42.12230437072825" lon="11.92669293580326"><ele>433.0</ele><time>2026-04-18T12:34:08.864Z</time></trkpt><trkpt lat="42.12221106047729" lon="11.92678711363658"><ele>433.0</ele><time>2026-04-18T12:34:10.864Z</time></trkpt><trkpt lat="42.12215151646973" lon="11.926834080939804"><ele>433.00000000000006</ele><time>2026-04-18T12:34:11.864Z</time></trkpt><trkpt lat="42.12209131397386" lon="11.926870474692"><ele>433.0</ele><time>2026-04-18T12:34:12.864Z</time></trkpt><trkpt lat="42.12197282658995" lon="11.926887486440922"><ele>436.0</ele><time>2026-04-18T12:34:14.864Z</time></trkpt><trkpt lat="42.121912870443566" lon="11.926913850687612"><ele>438.99999999999994</ele><time>2026-04-18T12:34:15.864Z</time></trkpt><trkpt lat="42.121782301645744" lon="11.92701919876282"><ele>441.99999999999994</ele><time>2026-04-18T12:34:17.864Z</time></trkpt><trkpt lat="42.121701874860925" lon="11.927136757933903"><ele>445.0</ele><time>2026-04-18T12:34:18.864Z</time></trkpt><trkpt lat="42.12163294029932" lon="11.92722593125687"><ele>448.0</ele><time>2026-04-18T12:34:19.864Z</time></trkpt><trkpt lat="42.12156210340551" lon="11.92731520083216"><ele>448.0</ele><time>2026-04-18T12:34:20.864Z</time></trkpt><trkpt lat="42.12149212130346" lon="11.927395857363969"><ele>447.99999999999994</ele><time>2026-04-18T12:34:21.864Z</time></trkpt><trkpt lat="42.12141715510296" lon="11.92748244592832"><ele>447.99999999999994</ele><time>2026-04-18T12:34:22.864Z</time></trkpt><trkpt lat="42.12135670587671" lon="11.927554755892029"><ele>448.0</ele><time>2026-04-18T12:34:23.864Z</time></trkpt><trkpt lat="42.12129622553903" lon="11.927644219654349"><ele>448.0</ele><time>2026-04-18T12:34:24.864Z</time></trkpt><trkpt lat="42.12124087871582" lon="11.927740011362797"><ele>448.50000000000006</ele><time>2026-04-18T12:34:25.864Z</time></trkpt><trkpt lat="42.12117881959822" lon="11.927812526963743"><ele>449.0</ele><time>2026-04-18T12:34:26.864Z</time></trkpt><trkpt lat="42.12112877411137" lon="11.927879875149532"><ele>449.5</ele><time>2026-04-18T12:34:27.864Z</time></trkpt><trkpt lat="42.12104985445493" lon="11.927907936914014"><ele>450.0</ele><time>2026-04-18T12:34:28.864Z</time></trkpt><trkpt lat="42.12095963639266" lon="11.927950898613846"><ele>450.50000000000006</ele><time>2026-04-18T12:34:29.864Z</time></trkpt><trkpt lat="42.12085158718298" lon="11.927989488678046"><ele>451.0</ele><time>2026-04-18T12:34:30.864Z</time></trkpt><trkpt lat="42.120738932028544" lon="11.928047029246716"><ele>452.1666666666667</ele><time>2026-04-18T12:34:31.864Z</time></trkpt><trkpt lat="42.12065591389041" lon="11.928096706103258"><ele>453.33333333333337</ele><time>2026-04-18T12:34:32.864Z</time></trkpt><trkpt lat="42.120594160891635" lon="11.928146459587904"><ele>454.5</ele><time>2026-04-18T12:34:33.864Z</time></trkpt><trkpt lat="42.12051651187677" lon="11.928156934430145"><ele>455.66666666666663</ele><time>2026-04-18T12:34:35.864Z</time></trkpt><trkpt lat="42.120496637210245" lon="11.928061344988464"><ele>456.8333333333333</ele><time>2026-04-18T12:34:37.864Z</time></trkpt><trkpt lat="42.12051517875181" lon="11.927916320836827"><ele>458.0</ele><time>2026-04-18T12:34:39.864Z</time></trkpt><trkpt lat="42.1205350059772" lon="11.927819413912468"><ele>457.99999999999994</ele><time>2026-04-18T12:34:40.864Z</time></trkpt><trkpt lat="42.120564445225966" lon="11.927724568535883"><ele>458.0</ele><time>2026-04-18T12:34:41.864Z</time></trkpt><trkpt lat="42.12059649245864" lon="11.927629262101869"><ele>458.0</ele><time>2026-04-18T12:34:42.864Z</time></trkpt><trkpt lat="42.12063298962416" lon="11.927525227030968"><ele>458.0</ele><time>2026-04-18T12:34:43.864Z</time></trkpt><trkpt lat="42.120658916846274" lon="11.927426416266561"><ele>457.99999999999994</ele><time>2026-04-18T12:34:44.864Z</time></trkpt><trkpt lat="42.12066074442766" lon="11.927322452052492"><ele>458.0</ele><time>2026-04-18T12:34:45.864Z</time></trkpt><trkpt lat="42.120647295284655" lon="11.927195608519755"><ele>457.79999999999995</ele><time>2026-04-18T12:34:46.864Z</time></trkpt><trkpt lat="42.12063017803261" lon="11.927079392683508"><ele>457.59999999999997</ele><time>2026-04-18T12:34:47.864Z</time></trkpt><trkpt lat="42.12060655857171" lon="11.926957550344174"><ele>457.40000000000003</ele><time>2026-04-18T12:34:48.864Z</time></trkpt><trkpt lat="42.12057981368766" lon="11.92683159862763"><ele>457.20000000000005</ele><time>2026-04-18T12:34:49.864Z</time></trkpt><trkpt lat="42.120550877604494" lon="11.926720433851038"><ele>457.0</ele><time>2026-04-18T12:34:50.864Z</time></trkpt><trkpt lat="42.12051702240064" lon="11.926583034664386"><ele>457.0</ele><time>2026-04-18T12:34:51.864Z</time></trkpt><trkpt lat="42.12048180822903" lon="11.926435714198677"><ele>457.0</ele><time>2026-04-18T12:34:52.864Z</time></trkpt><trkpt lat="42.120442011530564" lon="11.926292515576588"><ele>457.0</ele><time>2026-04-18T12:34:53.864Z</time></trkpt><trkpt lat="42.120386951501054" lon="11.926154727659155"><ele>457.0</ele><time>2026-04-18T12:34:54.864Z</time></trkpt><trkpt lat="42.12033851594465" lon="11.926017469559731"><ele>457.00000000000006</ele><time>2026-04-18T12:34:55.864Z</time></trkpt><trkpt lat="42.12030653011173" lon="11.925905806728695"><ele>457.0</ele><time>2026-04-18T12:34:56.864Z</time></trkpt><trkpt lat="42.12025697215499" lon="11.925803743278912"><ele>457.0</ele><time>2026-04-18T12:34:57.864Z</time></trkpt><trkpt lat="42.12025900199908" lon="11.925705837325232"><ele>457.0</ele><time>2026-04-18T12:34:58.864Z</time></trkpt><trkpt lat="42.12021707391769" lon="11.92560038176616"><ele>457.00000000000006</ele><time>2026-04-18T12:34:59.864Z</time></trkpt><trkpt lat="42.1201729885218" lon="11.925510137511894"><ele>457.0</ele><time>2026-04-18T12:35:00.864Z</time></trkpt><trkpt lat="42.12012026395147" lon="11.925419290749874"><ele>451.0</ele><time>2026-04-18T12:35:02.864Z</time></trkpt><trkpt lat="42.12007941918055" lon="11.925348632420713"><ele>451.0</ele><time>2026-04-18T12:35:05.863Z</time></trkpt></trkseg><trkseg><trkpt lat="42.11996325312865" lon="11.925365087243106"><ele>450.75</ele><time>2026-04-18T12:45:06.899Z</time></trkpt><trkpt lat="42.11985124343557" lon="11.925500097849707"><ele>450.5</ele><time>2026-04-18T12:45:08.899Z</time></trkpt><trkpt lat="42.11979264308391" lon="11.925607808050634"><ele>450.25</ele><time>2026-04-18T12:45:09.899Z</time></trkpt><trkpt lat="42.1197260885898" lon="11.925724600556734"><ele>450.0</ele><time>2026-04-18T12:45:10.899Z</time></trkpt><trkpt lat="42.11966498267003" lon="11.925844576391619"><ele>449.8</ele><time>2026-04-18T12:45:11.899Z</time></trkpt><trkpt lat="42.11959774069434" lon="11.925922864997085"><ele>449.6</ele><time>2026-04-18T12:45:12.899Z</time></trkpt><trkpt lat="42.119536767779316" lon="11.926033343449129"><ele>449.4</ele><time>2026-04-18T12:45:13.899Z</time></trkpt><trkpt lat="42.119464876007434" lon="11.926141948816372"><ele>449.2</ele><time>2026-04-18T12:45:14.899Z</time></trkpt><trkpt lat="42.11939824605354" lon="11.926258737582994"><ele>449.0</ele><time>2026-04-18T12:45:15.899Z</time></trkpt><trkpt lat="42.11933385161946" lon="11.926374693214587"><ele>449.0</ele><time>2026-04-18T12:45:16.899Z</time></trkpt><trkpt lat="42.11925465197591" lon="11.926493272516733"><ele>449.0</ele><time>2026-04-18T12:45:17.899Z</time></trkpt><trkpt lat="42.11918243364874" lon="11.926610677652324"><ele>449.0</ele><time>2026-04-18T12:45:18.899Z</time></trkpt><trkpt lat="42.119102773900416" lon="11.926731376119994"><ele>449.0</ele><time>2026-04-18T12:45:19.899Z</time></trkpt><trkpt lat="42.11898302603294" lon="11.926835108656082"><ele>448.0</ele><time>2026-04-18T12:45:20.899Z</time></trkpt><trkpt lat="42.11886235934042" lon="11.926921741594022"><ele>447.0</ele><time>2026-04-18T12:45:21.899Z</time></trkpt><trkpt lat="42.118758786480804" lon="11.927015467169907"><ele>446.0</ele><time>2026-04-18T12:45:22.899Z</time></trkpt><trkpt lat="42.11865821917618" lon="11.927098695807695"><ele>445.0</ele><time>2026-04-18T12:45:23.899Z</time></trkpt><trkpt lat="42.11855934808772" lon="11.927161736402763"><ele>445.0</ele><time>2026-04-18T12:45:24.899Z</time></trkpt><trkpt lat="42.118445367148176" lon="11.92720614207785"><ele>445.0</ele><time>2026-04-18T12:45:25.899Z</time></trkpt><trkpt lat="42.11832149221773" lon="11.927241621457926"><ele>445.0</ele><time>2026-04-18T12:45:26.899Z</time></trkpt><trkpt lat="42.11820868805162" lon="11.927241721799724"><ele>445.0</ele><time>2026-04-18T12:45:27.899Z</time></trkpt><trkpt lat="42.11812172514228" lon="11.92722980257229"><ele>445.0</ele><time>2026-04-18T12:45:28.899Z</time></trkpt><trkpt lat="42.11804281568358" lon="11.927226273293524"><ele>445.0</ele><time>2026-04-18T12:45:29.899Z</time></trkpt><trkpt lat="42.11797308031455" lon="11.92721706195428"><ele>445.0</ele><time>2026-04-18T12:45:30.899Z</time></trkpt><trkpt lat="42.11807257915812" lon="11.927253773087893"><ele>445.0</ele><time>2026-04-18T12:45:36.899Z</time></trkpt><trkpt lat="42.11816370591333" lon="11.927236301726616"><ele>445.0</ele><time>2026-04-18T12:45:37.899Z</time></trkpt><trkpt lat="42.118265221474786" lon="11.927237611404237"><ele>445.0</ele><time>2026-04-18T12:45:38.899Z</time></trkpt><trkpt lat="42.11835519680865" lon="11.927236981185827"><ele>445.00000000000006</ele><time>2026-04-18T12:45:39.899Z</time></trkpt><trkpt lat="42.11844247532169" lon="11.927223506791027"><ele>445.0</ele><time>2026-04-18T12:45:40.899Z</time></trkpt><trkpt lat="42.11851062644903" lon="11.927115971461292"><ele>445.0</ele><time>2026-04-18T12:45:42.899Z</time></trkpt><trkpt lat="42.11848840819167" lon="11.92702998366191"><ele>445.0</ele><time>2026-04-18T12:45:43.899Z</time></trkpt><trkpt lat="42.118441754754635" lon="11.926954664947182"><ele>445.00000000000006</ele><time>2026-04-18T12:45:44.898Z</time></trkpt><trkpt lat="42.11836547482643" lon="11.92688883144313"><ele>445.0</ele><time>2026-04-18T12:45:45.899Z</time></trkpt><trkpt lat="42.1182728078275" lon="11.926827029354172"><ele>444.2</ele><time>2026-04-18T12:45:46.899Z</time></trkpt><trkpt lat="42.11818837670258" lon="11.92676514859956"><ele>443.4</ele><time>2026-04-18T12:45:47.898Z</time></trkpt><trkpt lat="42.11812275950771" lon="11.926678830372007"><ele>442.6</ele><time>2026-04-18T12:45:48.898Z</time></trkpt><trkpt lat="42.118056461556016" lon="11.926570584596929"><ele>441.8</ele><time>2026-04-18T12:45:49.898Z</time></trkpt><trkpt lat="42.11799227824297" lon="11.926458384071305"><ele>441.0</ele><time>2026-04-18T12:45:50.898Z</time></trkpt><trkpt lat="42.11793401096152" lon="11.926345010256357"><ele>441.0</ele><time>2026-04-18T12:45:51.898Z</time></trkpt><trkpt lat="42.11788279581458" lon="11.926217757791788"><ele>441.0</ele><time>2026-04-18T12:45:52.898Z</time></trkpt><trkpt lat="42.117847254694105" lon="11.926096388946737"><ele>441.0</ele><time>2026-04-18T12:45:53.898Z</time></trkpt><trkpt lat="42.1178142912655" lon="11.925962758198535"><ele>441.0</ele><time>2026-04-18T12:45:54.898Z</time></trkpt><trkpt lat="42.11778536938541" lon="11.92585280988338"><ele>441.0</ele><time>2026-04-18T12:45:55.898Z</time></trkpt><trkpt lat="42.117769925129224" lon="11.925728604049507"><ele>439.6666666666667</ele><time>2026-04-18T12:45:56.898Z</time></trkpt><trkpt lat="42.11776393363266" lon="11.925638332886791"><ele>438.33333333333337</ele><time>2026-04-18T12:45:57.898Z</time></trkpt><trkpt lat="42.1177875185503" lon="11.925539357132303"><ele>437.0</ele><time>2026-04-18T12:45:58.898Z</time></trkpt><trkpt lat="42.11775697529014" lon="11.925437077841067"><ele>435.6666666666667</ele><time>2026-04-18T12:45:59.898Z</time></trkpt><trkpt lat="42.11771853018621" lon="11.92534590604399"><ele>434.33333333333337</ele><time>2026-04-18T12:46:00.898Z</time></trkpt><trkpt lat="42.11766813888852" lon="11.925248871707431"><ele>433.0</ele><time>2026-04-18T12:46:01.898Z</time></trkpt><trkpt lat="42.11759438779682" lon="11.925162768125002"><ele>432.99999999999994</ele><time>2026-04-18T12:46:02.898Z</time></trkpt><trkpt lat="42.1175201961896" lon="11.925117644977155"><ele>433.0</ele><time>2026-04-18T12:46:03.898Z</time></trkpt><trkpt lat="42.11745362373829" lon="11.925059359303528"><ele>433.0</ele><time>2026-04-18T12:46:04.898Z</time></trkpt><trkpt lat="42.11738759095676" lon="11.925020259176366"><ele>433.0</ele><time>2026-04-18T12:46:05.898Z</time></trkpt><trkpt lat="42.11731977706471" lon="11.925004189685357"><ele>433.0</ele><time>2026-04-18T12:46:06.898Z</time></trkpt><trkpt lat="42.117259486631596" lon="11.925075262860142"><ele>432.99999999999994</ele><time>2026-04-18T12:46:07.898Z</time></trkpt><trkpt lat="42.11719525746068" lon="11.925095609730297"><ele>433.0</ele><time>2026-04-18T12:46:08.898Z</time></trkpt><trkpt lat="42.11713020673021" lon="11.925108296373487"><ele>432.79999999999995</ele><time>2026-04-18T12:46:09.898Z</time></trkpt><trkpt lat="42.11705739558562" lon="11.92513830597628"><ele>432.59999999999997</ele><time>2026-04-18T12:46:10.898Z</time></trkpt><trkpt lat="42.1169723389506" lon="11.925114193871954"><ele>432.40000000000003</ele><time>2026-04-18T12:46:11.898Z</time></trkpt><trkpt lat="42.11691632447398" lon="11.925008115972236"><ele>432.20000000000005</ele><time>2026-04-18T12:46:12.898Z</time></trkpt><trkpt lat="42.11685157077675" lon="11.924926628004544"><ele>432.0</ele><time>2026-04-18T12:46:13.898Z</time></trkpt><trkpt lat="42.11676015783796" lon="11.924834745579814"><ele>430.0</ele><time>2026-04-18T12:46:14.898Z</time></trkpt><trkpt lat="42.11668534659992" lon="11.924738141408897"><ele>428.00000000000006</ele><time>2026-04-18T12:46:15.898Z</time></trkpt><trkpt lat="42.11661550666225" lon="11.924644597805084"><ele>426.0</ele><time>2026-04-18T12:46:16.898Z</time></trkpt><trkpt lat="42.11654970915418" lon="11.924530522612292"><ele>424.0</ele><time>2026-04-18T12:46:17.898Z</time></trkpt><trkpt lat="42.116490265784854" lon="11.924450086468845"><ele>422.0</ele><time>2026-04-18T12:46:18.898Z</time></trkpt><trkpt lat="42.116455206706" lon="11.924352116345048"><ele>421.66666666666663</ele><time>2026-04-18T12:46:19.898Z</time></trkpt><trkpt lat="42.11643155517589" lon="11.92425940396755"><ele>421.3333333333333</ele><time>2026-04-18T12:46:20.898Z</time></trkpt><trkpt lat="42.116402180148015" lon="11.924144857454252"><ele>421.0</ele><time>2026-04-18T12:46:21.898Z</time></trkpt><trkpt lat="42.116377803599185" lon="11.924023612457248"><ele>420.66666666666663</ele><time>2026-04-18T12:46:22.898Z</time></trkpt><trkpt lat="42.1163591509855" lon="11.92389457051357"><ele>420.3333333333333</ele><time>2026-04-18T12:46:23.898Z</time></trkpt><trkpt lat="42.11637396797104" lon="11.923769348448769"><ele>420.0</ele><time>2026-04-18T12:46:24.898Z</time></trkpt><trkpt lat="42.116408872259534" lon="11.923642802920634"><ele>420.0</ele><time>2026-04-18T12:46:25.898Z</time></trkpt><trkpt lat="42.11645546652978" lon="11.923501975107406"><ele>420.0</ele><time>2026-04-18T12:46:26.898Z</time></trkpt><trkpt lat="42.11650438134091" lon="11.923377848063048"><ele>420.0</ele><time>2026-04-18T12:46:27.898Z</time></trkpt><trkpt lat="42.116542789776695" lon="11.923250313428095"><ele>420.0</ele><time>2026-04-18T12:46:28.898Z</time></trkpt><trkpt lat="42.11659762254387" lon="11.92312832928399"><ele>420.0</ele><time>2026-04-18T12:46:29.898Z</time></trkpt><trkpt lat="42.11664341167336" lon="11.922999782728741"><ele>420.4</ele><time>2026-04-18T12:46:30.898Z</time></trkpt><trkpt lat="42.11669665058746" lon="11.922880718800286"><ele>420.8</ele><time>2026-04-18T12:46:31.898Z</time></trkpt><trkpt lat="42.1167544527278" lon="11.922769573245693"><ele>421.20000000000005</ele><time>2026-04-18T12:46:32.898Z</time></trkpt><trkpt lat="42.11678245091288" lon="11.922629250311694"><ele>421.6</ele><time>2026-04-18T12:46:33.897Z</time></trkpt><trkpt lat="42.11683183736742" lon="11.92247304788862"><ele>422.0</ele><time>2026-04-18T12:46:34.897Z</time></trkpt><trkpt lat="42.116864911376176" lon="11.922332303287053"><ele>424.40000000000003</ele><time>2026-04-18T12:46:35.897Z</time></trkpt><trkpt lat="42.116881738379035" lon="11.922195373919484"><ele>426.8</ele><time>2026-04-18T12:46:36.897Z</time></trkpt><trkpt lat="42.116920100577616" lon="11.922093956808158"><ele>429.2</ele><time>2026-04-18T12:46:37.897Z</time></trkpt><trkpt lat="42.116909297847954" lon="11.921938254171351"><ele>431.6</ele><time>2026-04-18T12:46:39.897Z</time></trkpt><trkpt lat="42.116863688946765" lon="11.921854255824922"><ele>434.0</ele><time>2026-04-18T12:46:40.897Z</time></trkpt><trkpt lat="42.11680770749241" lon="11.921769800096415"><ele>434.2</ele><time>2026-04-18T12:46:41.897Z</time></trkpt><trkpt lat="42.116754050869204" lon="11.921668508976166"><ele>434.4</ele><time>2026-04-18T12:46:42.897Z</time></trkpt><trkpt lat="42.11670554954678" lon="11.921547798837498"><ele>434.6</ele><time>2026-04-18T12:46:43.897Z</time></trkpt><trkpt lat="42.11663302132958" lon="11.921410949785589"><ele>434.8</ele><time>2026-04-18T12:46:44.897Z</time></trkpt><trkpt lat="42.11659735488471" lon="11.921260633885591"><ele>435.0</ele><time>2026-04-18T12:46:45.897Z</time></trkpt><trkpt lat="42.11654742822186" lon="11.921128140303166"><ele>435.0</ele><time>2026-04-18T12:46:46.897Z</time></trkpt><trkpt lat="42.11652811181968" lon="11.920982143432989"><ele>435.0</ele><time>2026-04-18T12:46:47.897Z</time></trkpt><trkpt lat="42.11655439691658" lon="11.920827198320753"><ele>435.0</ele><time>2026-04-18T12:46:48.897Z</time></trkpt><trkpt lat="42.116568299779416" lon="11.920654087719923"><ele>435.0</ele><time>2026-04-18T12:46:49.897Z</time></trkpt><trkpt lat="42.116573736277374" lon="11.920475689893218"><ele>435.0</ele><time>2026-04-18T12:46:50.897Z</time></trkpt><trkpt lat="42.116580912141664" lon="11.920297602849102"><ele>435.0</ele><time>2026-04-18T12:46:51.897Z</time></trkpt><trkpt lat="42.11658842193113" lon="11.920125237350065"><ele>435.0</ele><time>2026-04-18T12:46:52.897Z</time></trkpt><trkpt lat="42.11659434347238" lon="11.91996752959088"><ele>435.0</ele><time>2026-04-18T12:46:53.897Z</time></trkpt><trkpt lat="42.11661074073391" lon="11.91982555345716"><ele>434.2</ele><time>2026-04-18T12:46:54.897Z</time></trkpt><trkpt lat="42.116617684487835" lon="11.919688007513063"><ele>433.4</ele><time>2026-04-18T12:46:55.897Z</time></trkpt><trkpt lat="42.11663835163674" lon="11.919559105161847"><ele>432.6</ele><time>2026-04-18T12:46:56.897Z</time></trkpt><trkpt lat="42.11666755596667" lon="11.919441391183712"><ele>431.8</ele><time>2026-04-18T12:46:57.897Z</time></trkpt><trkpt lat="42.116665354355376" lon="11.919301671870395"><ele>431.0</ele><time>2026-04-18T12:46:58.897Z</time></trkpt><trkpt lat="42.116676141262154" lon="11.91916354486383"><ele>430.25</ele><time>2026-04-18T12:46:59.897Z</time></trkpt><trkpt lat="42.11666637724045" lon="11.91902920003888"><ele>429.5</ele><time>2026-04-18T12:47:00.897Z</time></trkpt><trkpt lat="42.116631551741015" lon="11.918909992675117"><ele>428.75</ele><time>2026-04-18T12:47:01.897Z</time></trkpt><trkpt lat="42.116528548517245" lon="11.918819212737793"><ele>428.0</ele><time>2026-04-18T12:47:02.897Z</time></trkpt><trkpt lat="42.11644573016752" lon="11.918679687556056"><ele>427.0</ele><time>2026-04-18T12:47:03.897Z</time></trkpt><trkpt lat="42.11634460697162" lon="11.918562297309247"><ele>426.0</ele><time>2026-04-18T12:47:04.897Z</time></trkpt><trkpt lat="42.11626410352833" lon="11.91842816520266"><ele>425.0</ele><time>2026-04-18T12:47:05.897Z</time></trkpt><trkpt lat="42.116161366489514" lon="11.91831103595072"><ele>424.0</ele><time>2026-04-18T12:47:06.897Z</time></trkpt><trkpt lat="42.116078780266925" lon="11.918174728545516"><ele>423.25</ele><time>2026-04-18T12:47:07.897Z</time></trkpt><trkpt lat="42.11599362281963" lon="11.918048111604284"><ele>422.5</ele><time>2026-04-18T12:47:08.897Z</time></trkpt><trkpt lat="42.115912174689726" lon="11.917920499967336"><ele>421.75</ele><time>2026-04-18T12:47:09.897Z</time></trkpt><trkpt lat="42.11582331449926" lon="11.917807069754852"><ele>421.0</ele><time>2026-04-18T12:47:10.897Z</time></trkpt><trkpt lat="42.11574897220158" lon="11.917694295225012"><ele>417.0</ele><time>2026-04-18T12:47:11.897Z</time></trkpt><trkpt lat="42.1156717610672" lon="11.917555978319639"><ele>413.0</ele><time>2026-04-18T12:47:12.897Z</time></trkpt><trkpt lat="42.115576689605476" lon="11.917447962151668"><ele>409.0</ele><time>2026-04-18T12:47:13.897Z</time></trkpt><trkpt lat="42.11549521509863" lon="11.917326439190868"><ele>405.0</ele><time>2026-04-18T12:47:14.897Z</time></trkpt><trkpt lat="42.115414996055385" lon="11.91721223506758"><ele>405.0</ele><time>2026-04-18T12:47:15.897Z</time></trkpt><trkpt lat="42.11533625665351" lon="11.917098525116344"><ele>405.0</ele><time>2026-04-18T12:47:16.897Z</time></trkpt><trkpt lat="42.115270240652094" lon="11.916989581086806"><ele>405.0</ele><time>2026-04-18T12:47:17.897Z</time></trkpt><trkpt lat="42.11519559291579" lon="11.916874274069043"><ele>405.0</ele><time>2026-04-18T12:47:18.897Z</time></trkpt><trkpt lat="42.115116345124726" lon="11.916747805244047"><ele>404.5</ele><time>2026-04-18T12:47:19.897Z</time></trkpt><trkpt lat="42.11505227357598" lon="11.916585743129712"><ele>404.0</ele><time>2026-04-18T12:47:20.897Z</time></trkpt><trkpt lat="42.1149940550738" lon="11.916440618028288"><ele>403.5</ele><time>2026-04-18T12:47:21.897Z</time></trkpt><trkpt lat="42.11492279454147" lon="11.916305157181347"><ele>403.0</ele><time>2026-04-18T12:47:22.897Z</time></trkpt><trkpt lat="42.11486428870988" lon="11.916149555226811"><ele>402.25</ele><time>2026-04-18T12:47:23.897Z</time></trkpt><trkpt lat="42.11481736599059" lon="11.915987377493082"><ele>401.5</ele><time>2026-04-18T12:47:24.897Z</time></trkpt><trkpt lat="42.114760643028" lon="11.915847043974836"><ele>400.75</ele><time>2026-04-18T12:47:25.897Z</time></trkpt><trkpt lat="42.114689396576125" lon="11.91571622129199"><ele>400.0</ele><time>2026-04-18T12:47:26.897Z</time></trkpt><trkpt lat="42.11463768567938" lon="11.915577690145083"><ele>400.00000000000006</ele><time>2026-04-18T12:47:27.897Z</time></trkpt><trkpt lat="42.11458532477285" lon="11.915445989676218"><ele>400.0</ele><time>2026-04-18T12:47:28.897Z</time></trkpt><trkpt lat="42.114556960820714" lon="11.91531745548601"><ele>400.0</ele><time>2026-04-18T12:47:29.897Z</time></trkpt><trkpt lat="42.114539280960216" lon="11.915202221358067"><ele>400.0</ele><time>2026-04-18T12:47:30.897Z</time></trkpt><trkpt lat="42.114528375129964" lon="11.915099507831894"><ele>400.00000000000006</ele><time>2026-04-18T12:47:31.897Z</time></trkpt><trkpt lat="42.114525567519614" lon="11.91500861379019"><ele>400.0</ele><time>2026-04-18T12:47:33.897Z</time></trkpt><trkpt lat="42.114528024893595" lon="11.91487577216009"><ele>399.2</ele><time>2026-04-18T12:47:37.897Z</time></trkpt><trkpt lat="42.114536112742826" lon="11.914698647754777"><ele>398.4</ele><time>2026-04-18T12:47:39.897Z</time></trkpt><trkpt lat="42.1145428524222" lon="11.914585036481549"><ele>397.6</ele><time>2026-04-18T12:47:40.897Z</time></trkpt><trkpt lat="42.11454065433172" lon="11.914473274738867"><ele>396.8</ele><time>2026-04-18T12:47:41.897Z</time></trkpt><trkpt lat="42.114509761405195" lon="11.914384419023973"><ele>396.0</ele><time>2026-04-18T12:47:42.897Z</time></trkpt><trkpt lat="42.11449204605985" lon="11.914279899363246"><ele>393.1666666666667</ele><time>2026-04-18T12:47:43.897Z</time></trkpt><trkpt lat="42.11447558638782" lon="11.914182788157069"><ele>390.3333333333333</ele><time>2026-04-18T12:47:44.897Z</time></trkpt><trkpt lat="42.11445879168012" lon="11.914083700216507"><ele>387.5</ele><time>2026-04-18T12:47:45.897Z</time></trkpt><trkpt lat="42.11438315911005" lon="11.914080234386011"><ele>384.66666666666663</ele><time>2026-04-18T12:47:46.897Z</time></trkpt><trkpt lat="42.11438397601241" lon="11.913913629285732"><ele>381.8333333333333</ele><time>2026-04-18T12:47:47.897Z</time></trkpt><trkpt lat="42.11432170984804" lon="11.91401377996781"><ele>379.0</ele><time>2026-04-18T12:47:48.897Z</time></trkpt><trkpt lat="42.114695784650756" lon="11.913565279630218"><ele>379.0</ele><time>2026-04-18T12:47:49.897Z</time></trkpt><trkpt lat="42.11468752739362" lon="11.913456080269828"><ele>379.0</ele><time>2026-04-18T12:47:50.895Z</time></trkpt><trkpt lat="42.11469632889464" lon="11.913366166915262"><ele>379.0</ele><time>2026-04-18T12:47:51.896Z</time></trkpt><trkpt lat="42.11470026039881" lon="11.913267977612131"><ele>379.0</ele><time>2026-04-18T12:47:52.896Z</time></trkpt><trkpt lat="42.11471376136204" lon="11.913154416339053"><ele>379.0</ele><time>2026-04-18T12:47:53.895Z</time></trkpt><trkpt lat="42.1147359236664" lon="11.913043419542122"><ele>379.0</ele><time>2026-04-18T12:47:54.895Z</time></trkpt><trkpt lat="42.11473899838165" lon="11.912929162479392"><ele>376.8333333333333</ele><time>2026-04-18T12:47:55.895Z</time></trkpt><trkpt lat="42.11473723236823" lon="11.91282784223579"><ele>374.66666666666663</ele><time>2026-04-18T12:47:56.895Z</time></trkpt><trkpt lat="42.11469744240576" lon="11.912720676849982"><ele>372.5</ele><time>2026-04-18T12:47:57.895Z</time></trkpt><trkpt lat="42.11466421628047" lon="11.91263891589293"><ele>370.3333333333333</ele><time>2026-04-18T12:47:58.895Z</time></trkpt><trkpt lat="42.114634746403254" lon="11.912549341851804"><ele>368.1666666666667</ele><time>2026-04-18T12:47:59.896Z</time></trkpt><trkpt lat="42.114599432781745" lon="11.91237281925968"><ele>366.0</ele><time>2026-04-18T12:48:01.895Z</time></trkpt><trkpt lat="42.114578463924815" lon="11.912264180855535"><ele>364.6</ele><time>2026-04-18T12:48:02.895Z</time></trkpt><trkpt lat="42.11457282239433" lon="11.912135465165594"><ele>363.20000000000005</ele><time>2026-04-18T12:48:03.895Z</time></trkpt><trkpt lat="42.11455061697192" lon="11.912029678158111"><ele>361.79999999999995</ele><time>2026-04-18T12:48:04.895Z</time></trkpt><trkpt lat="42.11455188232722" lon="11.911932085108939"><ele>360.4</ele><time>2026-04-18T12:48:05.895Z</time></trkpt><trkpt lat="42.114565757020955" lon="11.911830970705143"><ele>359.0</ele><time>2026-04-18T12:48:06.895Z</time></trkpt><trkpt lat="42.11452097083723" lon="11.911672397184285"><ele>357.5</ele><time>2026-04-18T12:48:08.895Z</time></trkpt><trkpt lat="42.114465209722376" lon="11.911613141161128"><ele>356.0</ele><time>2026-04-18T12:48:09.895Z</time></trkpt><trkpt lat="42.11439162083273" lon="11.91156289209022"><ele>354.5</ele><time>2026-04-18T12:48:10.895Z</time></trkpt><trkpt lat="42.11432636955495" lon="11.91151558324981"><ele>353.0</ele><time>2026-04-18T12:48:12.895Z</time></trkpt><trkpt lat="42.11421980298973" lon="11.91159446034907"><ele>351.5</ele><time>2026-04-18T12:48:15.895Z</time></trkpt><trkpt lat="42.11414419708152" lon="11.911609842430954"><ele>350.0</ele><time>2026-04-18T12:48:16.895Z</time></trkpt><trkpt lat="42.114056699659294" lon="11.911619855509029"><ele>349.8</ele><time>2026-04-18T12:48:17.895Z</time></trkpt><trkpt lat="42.11395734221637" lon="11.911632593071728"><ele>349.6</ele><time>2026-04-18T12:48:19.895Z</time></trkpt><trkpt lat="42.11389098931262" lon="11.911624685479126"><ele>349.4</ele><time>2026-04-18T12:48:21.895Z</time></trkpt><trkpt lat="42.1138008153094" lon="11.91164611677151"><ele>349.2</ele><time>2026-04-18T12:48:24.895Z</time></trkpt><trkpt lat="42.11366459245984" lon="11.911680836597512"><ele>349.0</ele><time>2026-04-18T12:48:26.895Z</time></trkpt><trkpt lat="42.11357816566489" lon="11.911714070008477"><ele>349.0</ele><time>2026-04-18T12:48:27.895Z</time></trkpt><trkpt lat="42.11349693745071" lon="11.911728726636648"><ele>349.0</ele><time>2026-04-18T12:48:28.895Z</time></trkpt><trkpt lat="42.113425297269174" lon="11.911744873611134"><ele>349.0</ele><time>2026-04-18T12:48:29.895Z</time></trkpt><trkpt lat="42.11334572024786" lon="11.91175721612133"><ele>349.0</ele><time>2026-04-18T12:48:30.895Z</time></trkpt><trkpt lat="42.11327291503066" lon="11.911740854712681"><ele>349.0</ele><time>2026-04-18T12:48:31.895Z</time></trkpt><trkpt lat="42.11318691709058" lon="11.911707405266593"><ele>349.0</ele><time>2026-04-18T12:48:32.895Z</time></trkpt><trkpt lat="42.11309687235678" lon="11.911679665412509"><ele>350.0</ele><time>2026-04-18T12:48:33.895Z</time></trkpt><trkpt lat="42.1130253625436" lon="11.911640577720117"><ele>351.0</ele><time>2026-04-18T12:48:34.895Z</time></trkpt><trkpt lat="42.11293526675519" lon="11.91160349273477"><ele>352.0</ele><time>2026-04-18T12:48:35.895Z</time></trkpt><trkpt lat="42.11286335023457" lon="11.911561766255959"><ele>353.0</ele><time>2026-04-18T12:48:36.895Z</time></trkpt><trkpt lat="42.112799971486204" lon="11.91153536342061"><ele>354.0</ele><time>2026-04-18T12:48:37.895Z</time></trkpt><trkpt lat="42.11272068785788" lon="11.911458508240386"><ele>355.0</ele><time>2026-04-18T12:48:39.895Z</time></trkpt><trkpt lat="42.112685873287795" lon="11.911361636702933"><ele>355.0</ele><time>2026-04-18T12:48:40.895Z</time></trkpt><trkpt lat="42.112673534658676" lon="11.911254281048762"><ele>355.0</ele><time>2026-04-18T12:48:41.895Z</time></trkpt><trkpt lat="42.112669088717674" lon="11.91114349810337"><ele>355.0</ele><time>2026-04-18T12:48:42.895Z</time></trkpt><trkpt lat="42.11263013601691" lon="11.911006244048416"><ele>355.0</ele><time>2026-04-18T12:48:44.895Z</time></trkpt><trkpt lat="42.112541352901125" lon="11.910901821390429"><ele>355.0</ele><time>2026-04-18T12:48:46.895Z</time></trkpt><trkpt lat="42.11242463903145" lon="11.91084811951264"><ele>352.2</ele><time>2026-04-18T12:48:48.895Z</time></trkpt><trkpt lat="42.112335778514705" lon="11.910829098991194"><ele>349.4</ele><time>2026-04-18T12:48:49.895Z</time></trkpt><trkpt lat="42.112242737477324" lon="11.910819875878236"><ele>346.6</ele><time>2026-04-18T12:48:50.895Z</time></trkpt><trkpt lat="42.11212997416639" lon="11.910817028780112"><ele>343.8</ele><time>2026-04-18T12:48:51.895Z</time></trkpt><trkpt lat="42.11202495115552" lon="11.910799696514626"><ele>341.0</ele><time>2026-04-18T12:48:52.895Z</time></trkpt><trkpt lat="42.11193788687468" lon="11.910769945984192"><ele>341.0</ele><time>2026-04-18T12:48:53.895Z</time></trkpt><trkpt lat="42.111862925665406" lon="11.91075599443689"><ele>341.0</ele><time>2026-04-18T12:48:54.895Z</time></trkpt><trkpt lat="42.11178486360461" lon="11.910759876518918"><ele>341.0</ele><time>2026-04-18T12:48:55.895Z</time></trkpt><trkpt lat="42.11169562587345" lon="11.910785377394637"><ele>341.0</ele><time>2026-04-18T12:48:56.895Z</time></trkpt><trkpt lat="42.11162312495825" lon="11.910821899295208"><ele>341.0</ele><time>2026-04-18T12:48:57.895Z</time></trkpt><trkpt lat="42.11155127194118" lon="11.910870083365992"><ele>341.0</ele><time>2026-04-18T12:48:58.895Z</time></trkpt><trkpt lat="42.11146771703091" lon="11.910922320630586"><ele>341.6666666666667</ele><time>2026-04-18T12:48:59.895Z</time></trkpt><trkpt lat="42.111397216359876" lon="11.910979609714747"><ele>342.33333333333337</ele><time>2026-04-18T12:49:00.895Z</time></trkpt><trkpt lat="42.111327632758076" lon="11.911012736218296"><ele>343.0</ele><time>2026-04-18T12:49:01.895Z</time></trkpt><trkpt lat="42.1112540189488" lon="11.911044865476148"><ele>343.6666666666667</ele><time>2026-04-18T12:49:02.895Z</time></trkpt><trkpt lat="42.11118123010852" lon="11.911077486400023"><ele>344.3333333333333</ele><time>2026-04-18T12:49:03.895Z</time></trkpt><trkpt lat="42.111088707297405" lon="11.911117796265213"><ele>345.0</ele><time>2026-04-18T12:49:04.895Z</time></trkpt><trkpt lat="42.11099795632933" lon="11.911183399460375"><ele>345.0</ele><time>2026-04-18T12:49:05.895Z</time></trkpt><trkpt lat="42.11091678913532" lon="11.911239898053974"><ele>345.0</ele><time>2026-04-18T12:49:06.895Z</time></trkpt><trkpt lat="42.11082966251204" lon="11.911278470741374"><ele>345.0</ele><time>2026-04-18T12:49:07.895Z</time></trkpt><trkpt lat="42.110740760996606" lon="11.9112887000793"><ele>345.0</ele><time>2026-04-18T12:49:08.895Z</time></trkpt><trkpt lat="42.110681524430596" lon="11.911259470852364"><ele>345.0</ele><time>2026-04-18T12:49:09.895Z</time></trkpt><trkpt lat="42.11062940093426" lon="11.911207430651702"><ele>345.0</ele><time>2026-04-18T12:49:11.895Z</time></trkpt><trkpt lat="42.11059757817538" lon="11.91112228100818"><ele>342.3333333333333</ele><time>2026-04-18T12:50:09.892Z</time></trkpt><trkpt lat="42.11054633046594" lon="11.911069314020393"><ele>339.6666666666667</ele><time>2026-04-18T12:50:43.892Z</time></trkpt><trkpt lat="42.11049834550185" lon="11.91099666631467"><ele>337.0</ele><time>2026-04-18T12:50:47.892Z</time></trkpt><trkpt lat="42.11042933160861" lon="11.910859093958361"><ele>334.33333333333337</ele><time>2026-04-18T12:50:49.892Z</time></trkpt><trkpt lat="42.11039712226471" lon="11.91078580086253"><ele>331.6666666666667</ele><time>2026-04-18T12:50:50.892Z</time></trkpt><trkpt lat="42.11033621431011" lon="11.910656460613225"><ele>329.0</ele><time>2026-04-18T12:50:52.892Z</time></trkpt><trkpt lat="42.1102766631189" lon="11.910532193512845"><ele>328.5</ele><time>2026-04-18T12:50:54.892Z</time></trkpt><trkpt lat="42.11020415289105" lon="11.91042505610725"><ele>328.0</ele><time>2026-04-18T12:50:56.892Z</time></trkpt><trkpt lat="42.110147042692816" lon="11.910331099876059"><ele>327.5</ele><time>2026-04-18T12:50:58.892Z</time></trkpt><trkpt lat="42.11010457469731" lon="11.91026659560322"><ele>327.0</ele><time>2026-04-18T12:50:59.892Z</time></trkpt><trkpt lat="42.11006913489242" lon="11.910194168131158"><ele>326.5</ele><time>2026-04-18T12:51:00.892Z</time></trkpt><trkpt lat="42.11002513172366" lon="11.91011855457017"><ele>326.0</ele><time>2026-04-18T12:51:02.892Z</time></trkpt><trkpt lat="42.11002775732025" lon="11.910018134359053"><ele>324.6</ele><time>2026-04-18T12:51:08.892Z</time></trkpt><trkpt lat="42.11004221926226" lon="11.909866630297099"><ele>323.20000000000005</ele><time>2026-04-18T12:51:10.892Z</time></trkpt><trkpt lat="42.110050914543535" lon="11.909751226653151"><ele>321.79999999999995</ele><time>2026-04-18T12:51:12.892Z</time></trkpt><trkpt lat="42.110071955532405" lon="11.90963114462017"><ele>320.4</ele><time>2026-04-18T12:51:14.892Z</time></trkpt><trkpt lat="42.11010891666035" lon="11.90950239652142"><ele>319.0</ele><time>2026-04-18T12:51:16.892Z</time></trkpt><trkpt lat="42.110129958021396" lon="11.909375976967793"><ele>316.4</ele><time>2026-04-18T12:51:18.892Z</time></trkpt><trkpt lat="42.11016077195022" lon="11.909236243929794"><ele>313.79999999999995</ele><time>2026-04-18T12:51:20.892Z</time></trkpt><trkpt lat="42.11018311386893" lon="11.909105445943164"><ele>311.20000000000005</ele><time>2026-04-18T12:51:22.892Z</time></trkpt><trkpt lat="42.11018129519089" lon="11.908952207092147"><ele>308.6</ele><time>2026-04-18T12:51:24.892Z</time></trkpt><trkpt lat="42.110200399426475" lon="11.90884903823216"><ele>306.0</ele><time>2026-04-18T12:51:26.892Z</time></trkpt><trkpt lat="42.11026067200665" lon="11.908749550793601"><ele>306.0</ele><time>2026-04-18T12:51:28.892Z</time></trkpt><trkpt lat="42.11031415405011" lon="11.90866442086546"><ele>306.0</ele><time>2026-04-18T12:51:30.892Z</time></trkpt><trkpt lat="42.11038744922708" lon="11.908597080981927"><ele>306.0</ele><time>2026-04-18T12:51:33.892Z</time></trkpt><trkpt lat="42.11044624062416" lon="11.908540969928756"><ele>306.0</ele><time>2026-04-18T12:51:34.892Z</time></trkpt><trkpt lat="42.1105073776088" lon="11.908498540841196"><ele>306.0</ele><time>2026-04-18T12:51:35.892Z</time></trkpt><trkpt lat="42.11057285244444" lon="11.908395348148904"><ele>306.0</ele><time>2026-04-18T12:51:37.892Z</time></trkpt><trkpt lat="42.11060522704524" lon="11.908276642541493"><ele>303.6666666666667</ele><time>2026-04-18T12:51:39.892Z</time></trkpt><trkpt lat="42.1106357317123" lon="11.908171820487073"><ele>301.3333333333333</ele><time>2026-04-18T12:51:41.892Z</time></trkpt><trkpt lat="42.110671011119585" lon="11.908052800499096"><ele>299.0</ele><time>2026-04-18T12:51:43.892Z</time></trkpt><trkpt lat="42.11070211305266" lon="11.907971897315935"><ele>296.66666666666663</ele><time>2026-04-18T12:51:44.892Z</time></trkpt><trkpt lat="42.11074724012799" lon="11.907896624613969"><ele>294.3333333333333</ele><time>2026-04-18T12:51:45.892Z</time></trkpt><trkpt lat="42.11078726905529" lon="11.907820041745525"><ele>292.0</ele><time>2026-04-18T12:51:46.892Z</time></trkpt><trkpt lat="42.110810653647505" lon="11.907734494393717"><ele>291.3333333333333</ele><time>2026-04-18T12:51:47.892Z</time></trkpt><trkpt lat="42.11082350946335" lon="11.907650880104432"><ele>290.66666666666663</ele><time>2026-04-18T12:51:48.892Z</time></trkpt><trkpt lat="42.11084410581267" lon="11.907567931375779"><ele>290.0</ele><time>2026-04-18T12:51:49.892Z</time></trkpt><trkpt lat="42.110877928949684" lon="11.907434623047537"><ele>289.3333333333333</ele><time>2026-04-18T12:51:51.892Z</time></trkpt><trkpt lat="42.11090092565056" lon="11.907276422256016"><ele>288.6666666666667</ele><time>2026-04-18T12:51:53.892Z</time></trkpt><trkpt lat="42.11092060348315" lon="11.907192242434103"><ele>288.0</ele><time>2026-04-18T12:51:54.892Z</time></trkpt><trkpt lat="42.1109427683551" lon="11.907108671080875"><ele>285.8</ele><time>2026-04-18T12:51:55.892Z</time></trkpt><trkpt lat="42.111008841951055" lon="11.907006952144018"><ele>283.6</ele><time>2026-04-18T12:51:57.892Z</time></trkpt><trkpt lat="42.11106036735444" lon="11.9068849199248"><ele>281.4</ele><time>2026-04-18T12:51:59.892Z</time></trkpt><trkpt lat="42.111077032442225" lon="11.906738944143923"><ele>279.2</ele><time>2026-04-18T12:52:01.892Z</time></trkpt><trkpt lat="42.11109577904871" lon="11.906601029371044"><ele>277.0</ele><time>2026-04-18T12:52:03.89Z</time></trkpt><trkpt lat="42.11108266501877" lon="11.906479639335739"><ele>274.66666666666663</ele><time>2026-04-18T12:52:05.89Z</time></trkpt><trkpt lat="42.11108075335058" lon="11.906394706767546"><ele>272.3333333333333</ele><time>2026-04-18T12:52:06.89Z</time></trkpt><trkpt lat="42.111065926926905" lon="11.906250009797988"><ele>270.0</ele><time>2026-04-18T12:52:08.889Z</time></trkpt><trkpt lat="42.11106197423985" lon="11.906163605621035"><ele>267.6666666666667</ele><time>2026-04-18T12:52:09.89Z</time></trkpt><trkpt lat="42.11105752880325" lon="11.906054816528918"><ele>265.33333333333337</ele><time>2026-04-18T12:52:10.89Z</time></trkpt><trkpt lat="42.11104354684325" lon="11.90593868675587"><ele>263.0</ele><time>2026-04-18T12:52:11.89Z</time></trkpt><trkpt lat="42.11103050564863" lon="11.905838524357858"><ele>261.2</ele><time>2026-04-18T12:52:12.89Z</time></trkpt><trkpt lat="42.11102759646878" lon="11.905731408294788"><ele>259.4</ele><time>2026-04-18T12:52:13.89Z</time></trkpt><trkpt lat="42.11100611548065" lon="11.905565280553263"><ele>257.59999999999997</ele><time>2026-04-18T12:52:15.89Z</time></trkpt><trkpt lat="42.11100015991865" lon="11.90548022880376"><ele>255.79999999999998</ele><time>2026-04-18T12:52:16.89Z</time></trkpt><trkpt lat="42.11097083098232" lon="11.90533155428964"><ele>254.0</ele><time>2026-04-18T12:52:18.89Z</time></trkpt><trkpt lat="42.110915141687514" lon="11.905185888319172"><ele>254.0</ele><time>2026-04-18T12:52:20.89Z</time></trkpt><trkpt lat="42.11087059097324" lon="11.905118114033288"><ele>253.99999999999997</ele><time>2026-04-18T12:52:21.89Z</time></trkpt><trkpt lat="42.11078683982659" lon="11.905059392660625"><ele>253.99999999999997</ele><time>2026-04-18T12:52:23.89Z</time></trkpt><trkpt lat="42.11070360266534" lon="11.905088924585721"><ele>254.0</ele><time>2026-04-18T12:52:25.89Z</time></trkpt><trkpt lat="42.11063649677979" lon="11.905154775445828"><ele>254.0</ele><time>2026-04-18T12:52:27.89Z</time></trkpt><trkpt lat="42.11053172665788" lon="11.905312944207411"><ele>252.50000000000003</ele><time>2026-04-18T12:52:29.89Z</time></trkpt><trkpt lat="42.11046497882395" lon="11.905396388485725"><ele>251.0</ele><time>2026-04-18T12:52:30.89Z</time></trkpt><trkpt lat="42.11040146114895" lon="11.905465449484183"><ele>249.5</ele><time>2026-04-18T12:52:31.89Z</time></trkpt><trkpt lat="42.11034456617104" lon="11.905504111089572"><ele>248.0</ele><time>2026-04-18T12:52:32.89Z</time></trkpt><trkpt lat="42.11027956632885" lon="11.905541596386442"><ele>246.50000000000003</ele><time>2026-04-18T12:52:33.89Z</time></trkpt><trkpt lat="42.11020970643044" lon="11.90555967138768"><ele>245.0</ele><time>2026-04-18T12:52:34.89Z</time></trkpt><trkpt lat="42.110116269520304" lon="11.90557579558801"><ele>245.0</ele><time>2026-04-18T12:52:36.89Z</time></trkpt><trkpt lat="42.11002476105339" lon="11.905557835047262"><ele>245.0</ele><time>2026-04-18T12:52:38.89Z</time></trkpt><trkpt lat="42.1099410861411" lon="11.905460691036918"><ele>245.0</ele><time>2026-04-18T12:52:40.89Z</time></trkpt><trkpt lat="42.10988258251456" lon="11.905384691522482"><ele>245.0</ele><time>2026-04-18T12:52:42.89Z</time></trkpt><trkpt lat="42.10980315274456" lon="11.905276781784766"><ele>245.0</ele><time>2026-04-18T12:52:44.89Z</time></trkpt><trkpt lat="42.109719298288404" lon="11.905182597055134"><ele>245.00000000000003</ele><time>2026-04-18T12:52:46.89Z</time></trkpt><trkpt lat="42.10961541038343" lon="11.905161576929842"><ele>245.0</ele><time>2026-04-18T12:52:48.89Z</time></trkpt><trkpt lat="42.10954592594898" lon="11.905143380874156"><ele>245.0</ele><time>2026-04-18T12:52:49.89Z</time></trkpt><trkpt lat="42.10948592924457" lon="11.905105835405447"><ele>245.0</ele><time>2026-04-18T12:52:50.89Z</time></trkpt><trkpt lat="42.10943171246762" lon="11.905038602517468"><ele>245.00000000000003</ele><time>2026-04-18T12:52:51.89Z</time></trkpt><trkpt lat="42.109366568877334" lon="11.904945007762121"><ele>245.0</ele><time>2026-04-18T12:52:52.89Z</time></trkpt><trkpt lat="42.10925883286471" lon="11.904861321162743"><ele>243.33333333333334</ele><time>2026-04-18T12:52:54.89Z</time></trkpt><trkpt lat="42.10919698991494" lon="11.904840715056869"><ele>241.66666666666669</ele><time>2026-04-18T12:52:55.89Z</time></trkpt><trkpt lat="42.10913091824217" lon="11.904820307185984"><ele>240.0</ele><time>2026-04-18T12:52:56.89Z</time></trkpt><trkpt lat="42.10903537095036" lon="11.904783251495036"><ele>238.33333333333331</ele><time>2026-04-18T12:52:58.89Z</time></trkpt><trkpt lat="42.10895936397391" lon="11.904682523609932"><ele>236.66666666666666</ele><time>2026-04-18T12:53:00.89Z</time></trkpt><trkpt lat="42.10888997320097" lon="11.904574482639164"><ele>235.0</ele><time>2026-04-18T12:53:02.89Z</time></trkpt><trkpt lat="42.10884205610838" lon="11.90451618055468"><ele>235.0</ele><time>2026-04-18T12:53:03.89Z</time></trkpt><trkpt lat="42.10879989578955" lon="11.904440709522515"><ele>235.0</ele><time>2026-04-18T12:53:04.89Z</time></trkpt><trkpt lat="42.10876273960279" lon="11.904368865323082"><ele>235.0</ele><time>2026-04-18T12:53:05.89Z</time></trkpt><trkpt lat="42.108693900678496" lon="11.904237822945237"><ele>235.0</ele><time>2026-04-18T12:53:07.89Z</time></trkpt><trkpt lat="42.10862659755992" lon="11.904140277813884"><ele>235.0</ele><time>2026-04-18T12:53:09.89Z</time></trkpt><trkpt lat="42.10856269885036" lon="11.904036143302143"><ele>232.2</ele><time>2026-04-18T12:53:11.89Z</time></trkpt><trkpt lat="42.10847554696002" lon="11.903951656109077"><ele>229.4</ele><time>2026-04-18T12:53:13.89Z</time></trkpt><trkpt lat="42.10843613060334" lon="11.903883368046014"><ele>226.60000000000002</ele><time>2026-04-18T12:53:14.89Z</time></trkpt><trkpt lat="42.10840123614593" lon="11.903773847391836"><ele>223.8</ele><time>2026-04-18T12:53:15.89Z</time></trkpt><trkpt lat="42.10833167308344" lon="11.903660108005548"><ele>221.0</ele><time>2026-04-18T12:53:17.889Z</time></trkpt><trkpt lat="42.108230965824355" lon="11.903623654536649"><ele>221.00000000000003</ele><time>2026-04-18T12:53:19.889Z</time></trkpt><trkpt lat="42.1081665337967" lon="11.903636061609655"><ele>221.0</ele><time>2026-04-18T12:53:20.889Z</time></trkpt><trkpt lat="42.10808314517766" lon="11.903641675850308"><ele>221.0</ele><time>2026-04-18T12:53:21.889Z</time></trkpt><trkpt lat="42.10798713202821" lon="11.90363841400052"><ele>221.0</ele><time>2026-04-18T12:53:22.889Z</time></trkpt><trkpt lat="42.1078881170802" lon="11.903605125929131"><ele>221.00000000000003</ele><time>2026-04-18T12:53:23.889Z</time></trkpt><trkpt lat="42.107820416686714" lon="11.903597115738426"><ele>221.0</ele><time>2026-04-18T12:53:24.889Z</time></trkpt><trkpt lat="42.10773242037309" lon="11.903657846395921"><ele>221.00000000000003</ele><time>2026-04-18T12:53:26.889Z</time></trkpt><trkpt lat="42.10767848827333" lon="11.903703743865167"><ele>221.0</ele><time>2026-04-18T12:53:27.889Z</time></trkpt><trkpt lat="42.10758041792196" lon="11.90376668777968"><ele>221.0</ele><time>2026-04-18T12:53:29.889Z</time></trkpt><trkpt lat="42.107494875748536" lon="11.903733633456252"><ele>221.0</ele><time>2026-04-18T12:53:31.889Z</time></trkpt><trkpt lat="42.10745400911729" lon="11.903649925554687"><ele>221.00000000000003</ele><time>2026-04-18T12:53:32.889Z</time></trkpt><trkpt lat="42.1074241310332" lon="11.90356972790013"><ele>221.0</ele><time>2026-04-18T12:53:33.889Z</time></trkpt><trkpt lat="42.10737560052578" lon="11.903476453871827"><ele>217.60000000000002</ele><time>2026-04-18T12:53:35.889Z</time></trkpt><trkpt lat="42.10728610363653" lon="11.903391125563157"><ele>214.20000000000002</ele><time>2026-04-18T12:53:37.889Z</time></trkpt><trkpt lat="42.10721612656264" lon="11.903276040776786"><ele>210.8</ele><time>2026-04-18T12:53:39.889Z</time></trkpt><trkpt lat="42.10719657739667" lon="11.903177928269276"><ele>207.39999999999998</ele><time>2026-04-18T12:53:40.889Z</time></trkpt><trkpt lat="42.107162321115695" lon="11.903080524173657"><ele>204.0</ele><time>2026-04-18T12:53:41.889Z</time></trkpt><trkpt lat="42.10711414141319" lon="11.90300425050098"><ele>204.0</ele><time>2026-04-18T12:53:42.889Z</time></trkpt><trkpt lat="42.107055026834644" lon="11.902932583731172"><ele>204.0</ele><time>2026-04-18T12:53:43.889Z</time></trkpt><trkpt lat="42.10699743138534" lon="11.90285466949509"><ele>204.0</ele><time>2026-04-18T12:53:44.889Z</time></trkpt><trkpt lat="42.10695479315364" lon="11.902784542459807"><ele>204.0</ele><time>2026-04-18T12:53:45.889Z</time></trkpt><trkpt lat="42.10691857093514" lon="11.90271502751495"><ele>204.0</ele><time>2026-04-18T12:53:46.889Z</time></trkpt><trkpt lat="42.10684463341018" lon="11.90261699232009"><ele>204.0</ele><time>2026-04-18T12:53:48.889Z</time></trkpt><trkpt lat="42.106770568081295" lon="11.902498553093688"><ele>201.79999999999998</ele><time>2026-04-18T12:53:50.889Z</time></trkpt><trkpt lat="42.10673621473954" lon="11.90240522144317"><ele>199.6</ele><time>2026-04-18T12:53:51.889Z</time></trkpt><trkpt lat="42.10671424631276" lon="11.902323724322045"><ele>197.4</ele><time>2026-04-18T12:53:52.889Z</time></trkpt><trkpt lat="42.106637647958046" lon="11.902228382598937"><ele>195.2</ele><time>2026-04-18T12:53:54.889Z</time></trkpt><trkpt lat="42.1065320860636" lon="11.902187249878313"><ele>193.0</ele><time>2026-04-18T12:53:56.889Z</time></trkpt><trkpt lat="42.10641715392624" lon="11.9022026197182"><ele>191.8</ele><time>2026-04-18T12:53:58.889Z</time></trkpt><trkpt lat="42.10630008910928" lon="11.902265629610714"><ele>190.60000000000002</ele><time>2026-04-18T12:54:00.889Z</time></trkpt><trkpt lat="42.10620799250649" lon="11.90235601194351"><ele>189.39999999999998</ele><time>2026-04-18T12:54:02.889Z</time></trkpt><trkpt lat="42.10611937100845" lon="11.902449895461766"><ele>188.2</ele><time>2026-04-18T12:54:04.889Z</time></trkpt><trkpt lat="42.10607078567686" lon="11.902506474754802"><ele>187.0</ele><time>2026-04-18T12:54:05.889Z</time></trkpt><trkpt lat="42.10597953019623" lon="11.902602885776595"><ele>187.0</ele><time>2026-04-18T12:54:07.889Z</time></trkpt><trkpt lat="42.10586305882155" lon="11.902610084095963"><ele>187.0</ele><time>2026-04-18T12:54:09.886Z</time></trkpt><trkpt lat="42.10575249734018" lon="11.902542880366537"><ele>187.0</ele><time>2026-04-18T12:54:11.887Z</time></trkpt><trkpt lat="42.105698152886866" lon="11.902467377555753"><ele>187.0</ele><time>2026-04-18T12:54:12.887Z</time></trkpt><trkpt lat="42.10565764201136" lon="11.902365177904516"><ele>187.0</ele><time>2026-04-18T12:54:13.887Z</time></trkpt><trkpt lat="42.1056191222472" lon="11.902271615393163"><ele>188.0</ele><time>2026-04-18T12:54:14.887Z</time></trkpt><trkpt lat="42.105576826808914" lon="11.902183764902196"><ele>189.0</ele><time>2026-04-18T12:54:15.887Z</time></trkpt><trkpt lat="42.10552611001074" lon="11.902117435429915"><ele>190.0</ele><time>2026-04-18T12:54:16.887Z</time></trkpt><trkpt lat="42.105483926365345" lon="11.902041187243528"><ele>191.0</ele><time>2026-04-18T12:54:17.886Z</time></trkpt><trkpt lat="42.10545087121252" lon="11.901922977240485"><ele>191.99999999999997</ele><time>2026-04-18T12:54:19.886Z</time></trkpt><trkpt lat="42.10538690105522" lon="11.901828751286633"><ele>193.0</ele><time>2026-04-18T12:54:21.886Z</time></trkpt><trkpt lat="42.10530944685257" lon="11.901736025720824"><ele>190.16666666666666</ele><time>2026-04-18T12:54:23.886Z</time></trkpt><trkpt lat="42.10529648797246" lon="11.901652366435401"><ele>187.33333333333331</ele><time>2026-04-18T12:54:25.886Z</time></trkpt><trkpt lat="42.10526152296093" lon="11.901566291581254"><ele>184.5</ele><time>2026-04-18T12:54:28.886Z</time></trkpt><trkpt lat="42.10530144235461" lon="11.901466511765062"><ele>181.66666666666666</ele><time>2026-04-18T12:54:30.886Z</time></trkpt><trkpt lat="42.10534766692777" lon="11.901391535837538"><ele>178.83333333333331</ele><time>2026-04-18T12:54:31.886Z</time></trkpt><trkpt lat="42.10538254120482" lon="11.901257975612602"><ele>176.0</ele><time>2026-04-18T12:54:33.886Z</time></trkpt><trkpt lat="42.10529959362459" lon="11.901159921907908"><ele>176.0</ele><time>2026-04-18T12:54:35.886Z</time></trkpt><trkpt lat="42.10518633307057" lon="11.90111181003777"><ele>176.0</ele><time>2026-04-18T12:54:37.886Z</time></trkpt><trkpt lat="42.105126616891724" lon="11.90106827041394"><ele>176.0</ele><time>2026-04-18T12:54:38.886Z</time></trkpt><trkpt lat="42.10507415207829" lon="11.901017202827113"><ele>176.0</ele><time>2026-04-18T12:54:39.886Z</time></trkpt><trkpt lat="42.10501173994295" lon="11.90093167497721"><ele>176.0</ele><time>2026-04-18T12:54:40.886Z</time></trkpt><trkpt lat="42.1049044963722" lon="11.900855525611318"><ele>172.4</ele><time>2026-04-18T12:54:42.886Z</time></trkpt><trkpt lat="42.104829357230315" lon="11.900854787347773"><ele>168.8</ele><time>2026-04-18T12:54:43.886Z</time></trkpt><trkpt lat="42.10474113315189" lon="11.900843316021094"><ele>165.20000000000002</ele><time>2026-04-18T12:54:44.886Z</time></trkpt><trkpt lat="42.10463585610057" lon="11.900823533937304"><ele>161.60000000000002</ele><time>2026-04-18T12:54:45.886Z</time></trkpt><trkpt lat="42.10454113386643" lon="11.900814740508926"><ele>158.0</ele><time>2026-04-18T12:54:46.886Z</time></trkpt><trkpt lat="42.10444827913646" lon="11.900808863498229"><ele>158.0</ele><time>2026-04-18T12:54:47.886Z</time></trkpt><trkpt lat="42.10435131830799" lon="11.900805253601963"><ele>158.0</ele><time>2026-04-18T12:54:48.886Z</time></trkpt><trkpt lat="42.104242167805815" lon="11.900802518647186"><ele>158.0</ele><time>2026-04-18T12:54:49.886Z</time></trkpt><trkpt lat="42.1041500522655" lon="11.900822470767821"><ele>158.0</ele><time>2026-04-18T12:54:50.886Z</time></trkpt><trkpt lat="42.104062933704924" lon="11.900847560602514"><ele>158.0</ele><time>2026-04-18T12:54:51.886Z</time></trkpt><trkpt lat="42.10399171666131" lon="11.90086130589899"><ele>158.0</ele><time>2026-04-18T12:54:52.886Z</time></trkpt><trkpt lat="42.10389357898781" lon="11.900874581146695"><ele>158.0</ele><time>2026-04-18T12:54:54.886Z</time></trkpt><trkpt lat="42.10379367203565" lon="11.900905842796858"><ele>158.0</ele><time>2026-04-18T12:54:57.886Z</time></trkpt><trkpt lat="42.10369504749501" lon="11.900974142572341"><ele>158.0</ele><time>2026-04-18T12:54:59.886Z</time></trkpt><trkpt lat="42.10360470956715" lon="11.90104842920121"><ele>158.0</ele><time>2026-04-18T12:55:01.886Z</time></trkpt><trkpt lat="42.10354020722671" lon="11.901058601843957"><ele>158.0</ele><time>2026-04-18T12:55:02.886Z</time></trkpt><trkpt lat="42.10343150585928" lon="11.901017314728977"><ele>158.0</ele><time>2026-04-18T12:55:04.886Z</time></trkpt><trkpt lat="42.1033427618632" lon="11.90096721864284"><ele>158.0</ele><time>2026-04-18T12:55:06.886Z</time></trkpt><trkpt lat="42.103259138221844" lon="11.900877070857558"><ele>158.0</ele><time>2026-04-18T12:55:08.886Z</time></trkpt><trkpt lat="42.103180793550834" lon="11.900788885109627"><ele>158.0</ele><time>2026-04-18T12:55:10.886Z</time></trkpt><trkpt lat="42.10313182950545" lon="11.900719054495578"><ele>160.8</ele><time>2026-04-18T12:55:11.886Z</time></trkpt><trkpt lat="42.10310464817905" lon="11.90062122238573"><ele>163.60000000000002</ele><time>2026-04-18T12:55:12.886Z</time></trkpt><trkpt lat="42.103080900701336" lon="11.9005201117438"><ele>166.39999999999998</ele><time>2026-04-18T12:55:14.886Z</time></trkpt><trkpt lat="42.10302609617667" lon="11.900423388194698"><ele>169.2</ele><time>2026-04-18T12:55:16.886Z</time></trkpt><trkpt lat="42.10297304077388" lon="11.900326017168142"><ele>172.0</ele><time>2026-04-18T12:55:18.886Z</time></trkpt><trkpt lat="42.1029118453378" lon="11.900183450224784"><ele>169.2</ele><time>2026-04-18T12:55:20.886Z</time></trkpt><trkpt lat="42.102878713510364" lon="11.900030751846725"><ele>166.39999999999998</ele><time>2026-04-18T12:55:22.886Z</time></trkpt><trkpt lat="42.10285774645593" lon="11.89994081539989"><ele>163.60000000000002</ele><time>2026-04-18T12:55:23.886Z</time></trkpt><trkpt lat="42.10280023882402" lon="11.899806435531666"><ele>160.8</ele><time>2026-04-18T12:55:25.886Z</time></trkpt><trkpt lat="42.10273833715521" lon="11.89967719510676"><ele>158.0</ele><time>2026-04-18T12:55:27.886Z</time></trkpt><trkpt lat="42.10264789522076" lon="11.899534830764589"><ele>158.0</ele><time>2026-04-18T12:55:29.886Z</time></trkpt><trkpt lat="42.10259423977413" lon="11.89944274178753"><ele>158.0</ele><time>2026-04-18T12:55:30.886Z</time></trkpt><trkpt lat="42.102542828178386" lon="11.89934811604804"><ele>158.0</ele><time>2026-04-18T12:55:31.886Z</time></trkpt><trkpt lat="42.1024853936455" lon="11.899241035083701"><ele>158.0</ele><time>2026-04-18T12:55:32.886Z</time></trkpt><trkpt lat="42.102443430637734" lon="11.899140060794439"><ele>158.0</ele><time>2026-04-18T12:55:33.886Z</time></trkpt><trkpt lat="42.10240077948833" lon="11.899058584075505"><ele>158.0</ele><time>2026-04-18T12:55:34.886Z</time></trkpt><trkpt lat="42.102335914323035" lon="11.89899632842279"><ele>158.5</ele><time>2026-04-18T12:55:35.886Z</time></trkpt><trkpt lat="42.10226452102337" lon="11.898934117525252"><ele>159.0</ele><time>2026-04-18T12:55:36.886Z</time></trkpt><trkpt lat="42.102191312795526" lon="11.898870017293223"><ele>159.5</ele><time>2026-04-18T12:55:38.886Z</time></trkpt><trkpt lat="42.10210617792085" lon="11.898866529282781"><ele>160.0</ele><time>2026-04-18T12:55:40.886Z</time></trkpt><trkpt lat="42.10204017188172" lon="11.898845210176269"><ele>160.5</ele><time>2026-04-18T12:55:41.886Z</time></trkpt><trkpt lat="42.10195424929081" lon="11.898807045809065"><ele>161.0</ele><time>2026-04-18T12:55:42.886Z</time></trkpt><trkpt lat="42.101894054641434" lon="11.89875660575953"><ele>161.0</ele><time>2026-04-18T12:55:43.886Z</time></trkpt><trkpt lat="42.10182567380907" lon="11.898623501017"><ele>161.0</ele><time>2026-04-18T12:55:45.886Z</time></trkpt><trkpt lat="42.1017606408841" lon="11.898498024693737"><ele>161.0</ele><time>2026-04-18T12:55:47.886Z</time></trkpt><trkpt lat="42.101705702712" lon="11.898449815544085"><ele>161.0</ele><time>2026-04-18T12:55:48.886Z</time></trkpt><trkpt lat="42.10165449429175" lon="11.898388553679409"><ele>161.0</ele><time>2026-04-18T12:55:49.886Z</time></trkpt><trkpt lat="42.101592370854355" lon="11.89832223454564"><ele>161.0</ele><time>2026-04-18T12:55:50.886Z</time></trkpt><trkpt lat="42.101529277860394" lon="11.898277023895684"><ele>160.0</ele><time>2026-04-18T12:55:51.886Z</time></trkpt><trkpt lat="42.10142835267223" lon="11.898217927233159"><ele>159.0</ele><time>2026-04-18T12:55:53.886Z</time></trkpt><trkpt lat="42.10137112476701" lon="11.898180345181853"><ele>158.0</ele><time>2026-04-18T12:55:54.886Z</time></trkpt><trkpt lat="42.101308209742314" lon="11.89814671446281"><ele>157.0</ele><time>2026-04-18T12:55:55.886Z</time></trkpt><trkpt lat="42.10124445411616" lon="11.898114154062188"><ele>156.0</ele><time>2026-04-18T12:55:56.886Z</time></trkpt><trkpt lat="42.10113842411843" lon="11.898024070311847"><ele>155.0</ele><time>2026-04-18T12:55:58.886Z</time></trkpt><trkpt lat="42.101079067397144" lon="11.897966301201283"><ele>155.0</ele><time>2026-04-18T12:55:59.886Z</time></trkpt><trkpt lat="42.1010291480127" lon="11.897900869047637"><ele>155.0</ele><time>2026-04-18T12:56:00.886Z</time></trkpt><trkpt lat="42.101015923987966" lon="11.897753786916017"><ele>155.0</ele><time>2026-04-18T12:56:02.886Z</time></trkpt><trkpt lat="42.10099642033642" lon="11.897663714949394"><ele>155.0</ele><time>2026-04-18T12:56:03.886Z</time></trkpt><trkpt lat="42.10095845682624" lon="11.897563922109917"><ele>155.0</ele><time>2026-04-18T12:56:04.886Z</time></trkpt><trkpt lat="42.10090783371769" lon="11.897462047106108"><ele>155.0</ele><time>2026-04-18T12:56:05.886Z</time></trkpt><trkpt lat="42.100844205030256" lon="11.89735955202351"><ele>154.8</ele><time>2026-04-18T12:56:06.886Z</time></trkpt><trkpt lat="42.100763669662555" lon="11.897270172989174"><ele>154.6</ele><time>2026-04-18T12:56:07.886Z</time></trkpt><trkpt lat="42.10067064956805" lon="11.897188122460017"><ele>154.4</ele><time>2026-04-18T12:56:08.886Z</time></trkpt><trkpt lat="42.100587242223966" lon="11.897108005855358"><ele>154.2</ele><time>2026-04-18T12:56:09.886Z</time></trkpt><trkpt lat="42.10051130749403" lon="11.897027746361902"><ele>154.0</ele><time>2026-04-18T12:56:10.886Z</time></trkpt><trkpt lat="42.100452300310224" lon="11.896969834365336"><ele>154.0</ele><time>2026-04-18T12:56:11.886Z</time></trkpt><trkpt lat="42.100391013860786" lon="11.896924395540573"><ele>154.0</ele><time>2026-04-18T12:56:12.886Z</time></trkpt><trkpt lat="42.10032305930079" lon="11.896881113877724"><ele>154.0</ele><time>2026-04-18T12:56:13.886Z</time></trkpt><trkpt lat="42.100248662621325" lon="11.896825518245661"><ele>154.0</ele><time>2026-04-18T12:56:14.884Z</time></trkpt><trkpt lat="42.10018950814784" lon="11.896779477503012"><ele>154.0</ele><time>2026-04-18T12:56:15.885Z</time></trkpt><trkpt lat="42.100138692097524" lon="11.896728427084556"><ele>154.0</ele><time>2026-04-18T12:56:16.884Z</time></trkpt><trkpt lat="42.10008082552003" lon="11.896675269152395"><ele>154.0</ele><time>2026-04-18T12:56:17.884Z</time></trkpt><trkpt lat="42.10001744846831" lon="11.896629146924184"><ele>153.33333333333334</ele><time>2026-04-18T12:56:18.884Z</time></trkpt><trkpt lat="42.09995681094326" lon="11.896579488221752"><ele>152.66666666666669</ele><time>2026-04-18T12:56:19.884Z</time></trkpt><trkpt lat="42.09989102930031" lon="11.896522644074071"><ele>152.0</ele><time>2026-04-18T12:56:20.884Z</time></trkpt><trkpt lat="42.09982637197701" lon="11.89644939741001"><ele>151.33333333333334</ele><time>2026-04-18T12:56:21.884Z</time></trkpt><trkpt lat="42.09975578025743" lon="11.896360720019922"><ele>150.66666666666666</ele><time>2026-04-18T12:56:22.884Z</time></trkpt><trkpt lat="42.099694863836994" lon="11.896271689017729"><ele>150.0</ele><time>2026-04-18T12:56:23.884Z</time></trkpt><trkpt lat="42.09964650314466" lon="11.896187142258638"><ele>150.0</ele><time>2026-04-18T12:56:24.883Z</time></trkpt><trkpt lat="42.09957014221716" lon="11.896049986075436"><ele>150.0</ele><time>2026-04-18T12:56:26.884Z</time></trkpt><trkpt lat="42.099519937245724" lon="11.89598983359556"><ele>150.0</ele><time>2026-04-18T12:56:27.884Z</time></trkpt><trkpt lat="42.09941060591884" lon="11.895941126896233"><ele>150.0</ele><time>2026-04-18T12:56:29.884Z</time></trkpt><trkpt lat="42.09934289594623" lon="11.895959642869965"><ele>150.0</ele><time>2026-04-18T12:56:30.884Z</time></trkpt><trkpt lat="42.09927704663989" lon="11.896003507109764"><ele>149.99999999999997</ele><time>2026-04-18T12:56:31.884Z</time></trkpt><trkpt lat="42.099204097066455" lon="11.89604862815428"><ele>150.0</ele><time>2026-04-18T12:56:32.884Z</time></trkpt><trkpt lat="42.09912886187788" lon="11.896073410635477"><ele>150.0</ele><time>2026-04-18T12:56:33.884Z</time></trkpt><trkpt lat="42.09906070784408" lon="11.896070351690138"><ele>150.0</ele><time>2026-04-18T12:56:34.884Z</time></trkpt><trkpt lat="42.09900145098149" lon="11.896026172871112"><ele>150.0</ele><time>2026-04-18T12:56:35.884Z</time></trkpt><trkpt lat="42.09894993538235" lon="11.895976145343163"><ele>149.99999999999997</ele><time>2026-04-18T12:56:36.884Z</time></trkpt><trkpt lat="42.098916229074206" lon="11.89590135766405"><ele>150.0</ele><time>2026-04-18T12:56:37.884Z</time></trkpt><trkpt lat="42.098896864987395" lon="11.89579824975084"><ele>148.0</ele><time>2026-04-18T12:56:38.884Z</time></trkpt><trkpt lat="42.098869473482836" lon="11.895708494829812"><ele>146.0</ele><time>2026-04-18T12:56:39.884Z</time></trkpt><trkpt lat="42.098830161763175" lon="11.895599859673506"><ele>144.0</ele><time>2026-04-18T12:56:40.884Z</time></trkpt><trkpt lat="42.098790597488176" lon="11.89551689584339"><ele>142.0</ele><time>2026-04-18T12:56:41.884Z</time></trkpt><trkpt lat="42.09875551279521" lon="11.8954303620982"><ele>140.0</ele><time>2026-04-18T12:56:42.884Z</time></trkpt><trkpt lat="42.09869888753726" lon="11.895324373779957"><ele>138.0</ele><time>2026-04-18T12:56:43.884Z</time></trkpt><trkpt lat="42.09861349216382" lon="11.89519100526977"><ele>138.0</ele><time>2026-04-18T12:56:44.884Z</time></trkpt><trkpt lat="42.09853290153058" lon="11.895088600527258"><ele>138.0</ele><time>2026-04-18T12:56:45.884Z</time></trkpt><trkpt lat="42.09845304370812" lon="11.89502050610231"><ele>138.0</ele><time>2026-04-18T12:56:46.884Z</time></trkpt><trkpt lat="42.0983685982702" lon="11.894970542636313"><ele>138.0</ele><time>2026-04-18T12:56:47.884Z</time></trkpt><trkpt lat="42.098269638972226" lon="11.894953140709482"><ele>138.0</ele><time>2026-04-18T12:56:48.884Z</time></trkpt><trkpt lat="42.098162138370604" lon="11.894925627826968"><ele>137.4</ele><time>2026-04-18T12:56:49.884Z</time></trkpt><trkpt lat="42.09806338539491" lon="11.894875574174042"><ele>136.8</ele><time>2026-04-18T12:56:50.884Z</time></trkpt><trkpt lat="42.09798053376898" lon="11.894817057487431"><ele>136.2</ele><time>2026-04-18T12:56:51.884Z</time></trkpt><trkpt lat="42.09788486637264" lon="11.894782521952113"><ele>135.6</ele><time>2026-04-18T12:56:52.884Z</time></trkpt><trkpt lat="42.09777925301676" lon="11.894733943481654"><ele>135.0</ele><time>2026-04-18T12:56:53.884Z</time></trkpt><trkpt lat="42.097689149923916" lon="11.894671377332909"><ele>135.0</ele><time>2026-04-18T12:56:54.884Z</time></trkpt><trkpt lat="42.09761706228476" lon="11.894615332131586"><ele>135.0</ele><time>2026-04-18T12:56:55.884Z</time></trkpt><trkpt lat="42.097562606607134" lon="11.894571325760245"><ele>135.0</ele><time>2026-04-18T12:56:56.884Z</time></trkpt><trkpt lat="42.09748685923072" lon="11.894520048372975"><ele>135.0</ele><time>2026-04-18T12:56:58.884Z</time></trkpt><trkpt lat="42.09738975223644" lon="11.894446799877606"><ele>135.0</ele><time>2026-04-18T12:57:00.884Z</time></trkpt><trkpt lat="42.09734187002366" lon="11.894385252424147"><ele>135.0</ele><time>2026-04-18T12:57:01.884Z</time></trkpt><trkpt lat="42.09728882202853" lon="11.89429241381826"><ele>134.4</ele><time>2026-04-18T12:57:02.884Z</time></trkpt><trkpt lat="42.097243112237955" lon="11.894197617734958"><ele>133.8</ele><time>2026-04-18T12:57:03.884Z</time></trkpt><trkpt lat="42.09718515817547" lon="11.894118248154248"><ele>133.2</ele><time>2026-04-18T12:57:04.884Z</time></trkpt><trkpt lat="42.09712382557275" lon="11.894045780763609"><ele>132.6</ele><time>2026-04-18T12:57:05.884Z</time></trkpt><trkpt lat="42.0970514624654" lon="11.893945642938561"><ele>132.0</ele><time>2026-04-18T12:57:07.884Z</time></trkpt><trkpt lat="42.09696127303696" lon="11.893862806783487"><ele>132.0</ele><time>2026-04-18T12:57:09.884Z</time></trkpt><trkpt lat="42.096908747790444" lon="11.89374658986908"><ele>132.0</ele><time>2026-04-18T12:57:10.884Z</time></trkpt><trkpt lat="42.09686360247749" lon="11.893648340434236"><ele>132.0</ele><time>2026-04-18T12:57:11.884Z</time></trkpt><trkpt lat="42.09681801766169" lon="11.893564004770104"><ele>132.0</ele><time>2026-04-18T12:57:12.884Z</time></trkpt><trkpt lat="42.096773666863776" lon="11.89350347702227"><ele>132.0</ele><time>2026-04-18T12:57:13.884Z</time></trkpt><trkpt lat="42.096687500706096" lon="11.89342762775696"><ele>132.0</ele><time>2026-04-18T12:57:15.884Z</time></trkpt><trkpt lat="42.096640851857735" lon="11.893340575516493"><ele>133.6</ele><time>2026-04-18T12:57:17.884Z</time></trkpt><trkpt lat="42.096571815535334" lon="11.893252388190882"><ele>135.2</ele><time>2026-04-18T12:57:19.884Z</time></trkpt><trkpt lat="42.09648647091737" lon="11.893225065691354"><ele>136.8</ele><time>2026-04-18T12:57:21.884Z</time></trkpt><trkpt lat="42.09640143772839" lon="11.893194658087491"><ele>138.4</ele><time>2026-04-18T12:57:23.884Z</time></trkpt><trkpt lat="42.09626924131984" lon="11.893137607480684"><ele>140.0</ele><time>2026-04-18T12:57:25.884Z</time></trkpt><trkpt lat="42.096169795641195" lon="11.893108750168103"><ele>140.0</ele><time>2026-04-18T12:57:26.884Z</time></trkpt><trkpt lat="42.09608898725044" lon="11.89306924529994"><ele>140.0</ele><time>2026-04-18T12:57:27.884Z</time></trkpt><trkpt lat="42.09600460985189" lon="11.892989650769168"><ele>140.0</ele><time>2026-04-18T12:57:29.884Z</time></trkpt><trkpt lat="42.0959961057913" lon="11.892848347121832"><ele>140.0</ele><time>2026-04-18T12:57:31.884Z</time></trkpt><trkpt lat="42.095982163850024" lon="11.892714188290293"><ele>140.0</ele><time>2026-04-18T12:57:33.884Z</time></trkpt><trkpt lat="42.09592499358062" lon="11.892632024982541"><ele>138.0</ele><time>2026-04-18T12:57:35.884Z</time></trkpt><trkpt lat="42.09587564354735" lon="11.892555085166126"><ele>136.0</ele><time>2026-04-18T12:57:37.884Z</time></trkpt><trkpt lat="42.09581024930984" lon="11.892484205394421"><ele>134.0</ele><time>2026-04-18T12:57:39.884Z</time></trkpt><trkpt lat="42.095736285494006" lon="11.892386152560501"><ele>132.0</ele><time>2026-04-18T12:57:41.884Z</time></trkpt><trkpt lat="42.095656929332606" lon="11.892315941389707"><ele>130.0</ele><time>2026-04-18T12:57:43.884Z</time></trkpt><trkpt lat="42.09553337776431" lon="11.892253784810359"><ele>133.83333333333334</ele><time>2026-04-18T12:57:45.884Z</time></trkpt><trkpt lat="42.09548089323771" lon="11.892197876757457"><ele>137.66666666666669</ele><time>2026-04-18T12:57:46.884Z</time></trkpt><trkpt lat="42.09543949310172" lon="11.892122763005935"><ele>141.5</ele><time>2026-04-18T12:57:47.884Z</time></trkpt><trkpt lat="42.095351556448094" lon="11.891977729662445"><ele>145.33333333333334</ele><time>2026-04-18T12:57:49.884Z</time></trkpt><trkpt lat="42.095286501488474" lon="11.891889864609631"><ele>149.16666666666666</ele><time>2026-04-18T12:57:50.884Z</time></trkpt><trkpt lat="42.09524038912504" lon="11.891824250799084"><ele>153.0</ele><time>2026-04-18T12:57:51.884Z</time></trkpt><trkpt lat="42.095159443627416" lon="11.891770275796612"><ele>152.6</ele><time>2026-04-18T12:57:53.884Z</time></trkpt><trkpt lat="42.09506934391276" lon="11.891732350693799"><ele>152.20000000000002</ele><time>2026-04-18T12:57:55.884Z</time></trkpt><trkpt lat="42.09495327965147" lon="11.891691497994902"><ele>151.8</ele><time>2026-04-18T12:57:57.884Z</time></trkpt><trkpt lat="42.09487522385157" lon="11.891663339585808"><ele>151.4</ele><time>2026-04-18T12:57:58.884Z</time></trkpt><trkpt lat="42.094804512134715" lon="11.891632182672888"><ele>151.0</ele><time>2026-04-18T12:57:59.884Z</time></trkpt><trkpt lat="42.09472610441672" lon="11.891607474266902"><ele>151.0</ele><time>2026-04-18T12:58:01.884Z</time></trkpt><trkpt lat="42.09470888070802" lon="11.891512070978157"><ele>151.0</ele><time>2026-04-18T12:58:03.884Z</time></trkpt><trkpt lat="42.09467972418845" lon="11.891406479133297"><ele>151.0</ele><time>2026-04-18T12:58:05.884Z</time></trkpt><trkpt lat="42.0946315295008" lon="11.891324515063985"><ele>151.0</ele><time>2026-04-18T12:58:06.884Z</time></trkpt><trkpt lat="42.09457576179803" lon="11.891227041871037"><ele>151.0</ele><time>2026-04-18T12:58:07.884Z</time></trkpt><trkpt lat="42.09446275352256" lon="11.891140862743763"><ele>151.0</ele><time>2026-04-18T12:58:09.884Z</time></trkpt><trkpt lat="42.09438797301437" lon="11.891125333639994"><ele>151.0</ele><time>2026-04-18T12:58:10.884Z</time></trkpt><trkpt lat="42.094313365108995" lon="11.89110108658557"><ele>151.0</ele><time>2026-04-18T12:58:11.884Z</time></trkpt><trkpt lat="42.09423487757345" lon="11.891065422831614"><ele>151.0</ele><time>2026-04-18T12:58:12.884Z</time></trkpt><trkpt lat="42.09416214856828" lon="11.891021312916958"><ele>151.0</ele><time>2026-04-18T12:58:13.883Z</time></trkpt><trkpt lat="42.094089770973504" lon="11.890961950601042"><ele>151.0</ele><time>2026-04-18T12:58:14.883Z</time></trkpt><trkpt lat="42.09402704038999" lon="11.890905167659017"><ele>150.8</ele><time>2026-04-18T12:58:15.883Z</time></trkpt><trkpt lat="42.093981349735095" lon="11.890835208824218"><ele>150.6</ele><time>2026-04-18T12:58:16.883Z</time></trkpt><trkpt lat="42.0938938748893" lon="11.89073668951322"><ele>150.4</ele><time>2026-04-18T12:58:18.883Z</time></trkpt><trkpt lat="42.09380371703896" lon="11.890652271329701"><ele>150.2</ele><time>2026-04-18T12:58:20.882Z</time></trkpt><trkpt lat="42.093725685803065" lon="11.890562173543683"><ele>150.0</ele><time>2026-04-18T12:58:36.882Z</time></trkpt><trkpt lat="42.09361499611154" lon="11.890452369630909"><ele>150.0</ele><time>2026-04-18T12:58:38.882Z</time></trkpt><trkpt lat="42.0935374917475" lon="11.890392774686436"><ele>150.0</ele><time>2026-04-18T12:58:39.882Z</time></trkpt><trkpt lat="42.09346887235865" lon="11.890357969346558"><ele>150.0</ele><time>2026-04-18T12:58:40.882Z</time></trkpt><trkpt lat="42.09336556991655" lon="11.890279019139754"><ele>150.0</ele><time>2026-04-18T12:58:42.882Z</time></trkpt><trkpt lat="42.09332192421082" lon="11.890205868373897"><ele>150.0</ele><time>2026-04-18T12:58:44.882Z</time></trkpt><trkpt lat="42.09320224163467" lon="11.890140739765986"><ele>151.16666666666666</ele><time>2026-04-18T12:58:46.882Z</time></trkpt><trkpt lat="42.093123960323815" lon="11.890094733180144"><ele>152.33333333333334</ele><time>2026-04-18T12:58:47.882Z</time></trkpt><trkpt lat="42.093048774723854" lon="11.890042781770918"><ele>153.5</ele><time>2026-04-18T12:58:48.882Z</time></trkpt><trkpt lat="42.09297667655001" lon="11.88998624957659"><ele>154.66666666666669</ele><time>2026-04-18T12:58:49.882Z</time></trkpt><trkpt lat="42.09291229800019" lon="11.88996762148113"><ele>155.83333333333334</ele><time>2026-04-18T12:58:51.882Z</time></trkpt><trkpt lat="42.09284461627794" lon="11.889977629801379"><ele>157.0</ele><time>2026-04-18T12:58:54.882Z</time></trkpt><trkpt lat="42.09275006853494" lon="11.890039268248996"><ele>157.0</ele><time>2026-04-18T12:58:56.882Z</time></trkpt><trkpt lat="42.092692783489525" lon="11.890084426281817"><ele>157.0</ele><time>2026-04-18T12:58:57.882Z</time></trkpt><trkpt lat="42.092605809078094" lon="11.890134595627597"><ele>157.0</ele><time>2026-04-18T12:58:59.882Z</time></trkpt><trkpt lat="42.09249832643917" lon="11.890177297529485"><ele>157.0</ele><time>2026-04-18T12:59:01.882Z</time></trkpt><trkpt lat="42.09242991994164" lon="11.890182666962426"><ele>157.0</ele><time>2026-04-18T12:59:02.882Z</time></trkpt><trkpt lat="42.09235467357173" lon="11.890166979979085"><ele>157.0</ele><time>2026-04-18T12:59:03.882Z</time></trkpt><trkpt lat="42.0922790048778" lon="11.890141874371295"><ele>155.6</ele><time>2026-04-18T12:59:04.882Z</time></trkpt><trkpt lat="42.09220775693762" lon="11.890128455739257"><ele>154.2</ele><time>2026-04-18T12:59:05.882Z</time></trkpt><trkpt lat="42.092089906800716" lon="11.890078674545292"><ele>152.8</ele><time>2026-04-18T12:59:07.881Z</time></trkpt><trkpt lat="42.092028941744545" lon="11.890047588089512"><ele>151.4</ele><time>2026-04-18T12:59:08.881Z</time></trkpt><trkpt lat="42.09192176198411" lon="11.890008348417417"><ele>150.0</ele><time>2026-04-18T12:59:10.881Z</time></trkpt><trkpt lat="42.09182741344808" lon="11.889973497499518"><ele>150.0</ele><time>2026-04-18T12:59:12.881Z</time></trkpt><trkpt lat="42.091757763990216" lon="11.88993339235566"><ele>150.0</ele><time>2026-04-18T12:59:14.881Z</time></trkpt><trkpt lat="42.09178156251595" lon="11.889809228548991"><ele>150.0</ele><time>2026-04-18T12:59:17.881Z</time></trkpt><trkpt lat="42.091803102440096" lon="11.8896710025799"><ele>150.0</ele><time>2026-04-18T12:59:19.881Z</time></trkpt><trkpt lat="42.0917882200774" lon="11.889520153879419"><ele>150.0</ele><time>2026-04-18T12:59:21.881Z</time></trkpt><trkpt lat="42.09175456890206" lon="11.889447374212116"><ele>150.0</ele><time>2026-04-18T12:59:22.881Z</time></trkpt><trkpt lat="42.09168769982415" lon="11.889295963992954"><ele>150.0</ele><time>2026-04-18T12:59:24.881Z</time></trkpt><trkpt lat="42.09166025455476" lon="11.889190575634613"><ele>150.0</ele><time>2026-04-18T12:59:25.881Z</time></trkpt><trkpt lat="42.09163857805699" lon="11.889039280476362"><ele>150.0</ele><time>2026-04-18T12:59:27.881Z</time></trkpt><trkpt lat="42.091612486714396" lon="11.88887206262422"><ele>151.0</ele><time>2026-04-18T12:59:29.881Z</time></trkpt><trkpt lat="42.091589278674846" lon="11.88877130367919"><ele>152.0</ele><time>2026-04-18T12:59:30.881Z</time></trkpt><trkpt lat="42.09154984494493" lon="11.888670393694117"><ele>153.0</ele><time>2026-04-18T12:59:31.881Z</time></trkpt><trkpt lat="42.09151443158316" lon="11.888573082012146"><ele>154.0</ele><time>2026-04-18T12:59:32.881Z</time></trkpt><trkpt lat="42.09147670889639" lon="11.888475640376024"><ele>155.0</ele><time>2026-04-18T12:59:33.881Z</time></trkpt><trkpt lat="42.091422848808165" lon="11.88838842437152"><ele>156.0</ele><time>2026-04-18T12:59:34.881Z</time></trkpt><trkpt lat="42.09136736984473" lon="11.88831531734055"><ele>156.0</ele><time>2026-04-18T12:59:35.881Z</time></trkpt><trkpt lat="42.09131138901469" lon="11.888255760756161"><ele>156.0</ele><time>2026-04-18T12:59:36.881Z</time></trkpt><trkpt lat="42.09124849187377" lon="11.88819739001965"><ele>156.0</ele><time>2026-04-18T12:59:37.881Z</time></trkpt><trkpt lat="42.09117958035295" lon="11.888141967114914"><ele>156.0</ele><time>2026-04-18T12:59:38.881Z</time></trkpt><trkpt lat="42.091106365155156" lon="11.888079336057721"><ele>156.0</ele><time>2026-04-18T12:59:39.881Z</time></trkpt><trkpt lat="42.091044652474736" lon="11.88804419720256"><ele>156.0</ele><time>2026-04-18T12:59:40.881Z</time></trkpt><trkpt lat="42.09098491486087" lon="11.888004943000684"><ele>156.0</ele><time>2026-04-18T12:59:41.881Z</time></trkpt><trkpt lat="42.09085489548626" lon="11.888000875129247"><ele>156.0</ele><time>2026-04-18T12:59:43.881Z</time></trkpt><trkpt lat="42.090784459007764" lon="11.888016392907327"><ele>156.0</ele><time>2026-04-18T12:59:44.881Z</time></trkpt><trkpt lat="42.09070406742205" lon="11.888038213944009"><ele>156.0</ele><time>2026-04-18T12:59:45.881Z</time></trkpt><trkpt lat="42.09061436481025" lon="11.888068773801663"><ele>156.0</ele><time>2026-04-18T12:59:46.881Z</time></trkpt><trkpt lat="42.090524816324354" lon="11.888071603202077"><ele>156.0</ele><time>2026-04-18T12:59:47.881Z</time></trkpt><trkpt lat="42.09045961680702" lon="11.888092681029507"><ele>156.0</ele><time>2026-04-18T12:59:48.881Z</time></trkpt><trkpt lat="42.0903858544509" lon="11.888082511760821"><ele>156.5</ele><time>2026-04-18T12:59:49.881Z</time></trkpt><trkpt lat="42.09030139095201" lon="11.888061352977328"><ele>157.0</ele><time>2026-04-18T12:59:50.881Z</time></trkpt><trkpt lat="42.0902342377996" lon="11.888015820711884"><ele>157.5</ele><time>2026-04-18T12:59:51.881Z</time></trkpt><trkpt lat="42.0901623011332" lon="11.887957531840046"><ele>158.0</ele><time>2026-04-18T12:59:52.881Z</time></trkpt><trkpt lat="42.090093358509904" lon="11.887906082081997"><ele>158.5</ele><time>2026-04-18T12:59:53.881Z</time></trkpt><trkpt lat="42.0899913585354" lon="11.887873666630753"><ele>159.0</ele><time>2026-04-18T12:59:55.881Z</time></trkpt><trkpt lat="42.08988989555121" lon="11.887855450550301"><ele>159.0</ele><time>2026-04-18T12:59:57.881Z</time></trkpt><trkpt lat="42.089793736198146" lon="11.88789143934487"><ele>159.0</ele><time>2026-04-18T12:59:59.881Z</time></trkpt><trkpt lat="42.089732903676556" lon="11.887929779864715"><ele>159.0</ele><time>2026-04-18T13:00:00.881Z</time></trkpt><trkpt lat="42.08966750585208" lon="11.887969492453097"><ele>159.0</ele><time>2026-04-18T13:00:01.881Z</time></trkpt><trkpt lat="42.08957613182331" lon="11.888068479627208"><ele>159.0</ele><time>2026-04-18T13:00:03.881Z</time></trkpt><trkpt lat="42.08953020908165" lon="11.888149854251449"><ele>159.0</ele><time>2026-04-18T13:00:04.881Z</time></trkpt><trkpt lat="42.08948355632755" lon="11.888225035865368"><ele>159.0</ele><time>2026-04-18T13:00:05.881Z</time></trkpt><trkpt lat="42.08944289384701" lon="11.888310551284361"><ele>159.0</ele><time>2026-04-18T13:00:06.881Z</time></trkpt><trkpt lat="42.08939057013114" lon="11.888395885772702"><ele>159.0</ele><time>2026-04-18T13:00:07.881Z</time></trkpt><trkpt lat="42.089333299329034" lon="11.888456358779504"><ele>159.0</ele><time>2026-04-18T13:00:08.881Z</time></trkpt><trkpt lat="42.089271970130255" lon="11.888517269577866"><ele>159.0</ele><time>2026-04-18T13:00:09.881Z</time></trkpt><trkpt lat="42.08920793208209" lon="11.888570933183315"><ele>159.0</ele><time>2026-04-18T13:00:10.881Z</time></trkpt><trkpt lat="42.08915047190392" lon="11.888608702090947"><ele>159.0</ele><time>2026-04-18T13:00:11.881Z</time></trkpt><trkpt lat="42.089078311507016" lon="11.888665405212121"><ele>159.83333333333334</ele><time>2026-04-18T13:00:12.881Z</time></trkpt><trkpt lat="42.08900956750706" lon="11.888710397188268"><ele>160.66666666666666</ele><time>2026-04-18T13:00:13.881Z</time></trkpt><trkpt lat="42.08894103303231" lon="11.888749381557314"><ele>161.5</ele><time>2026-04-18T13:00:14.881Z</time></trkpt><trkpt lat="42.08886760101407" lon="11.888794760381208"><ele>162.33333333333331</ele><time>2026-04-18T13:00:15.881Z</time></trkpt><trkpt lat="42.088786182306194" lon="11.888831545804459"><ele>163.16666666666666</ele><time>2026-04-18T13:00:16.881Z</time></trkpt><trkpt lat="42.088702876447684" lon="11.888858627250194"><ele>164.0</ele><time>2026-04-18T13:00:17.881Z</time></trkpt><trkpt lat="42.088626331273154" lon="11.888888816663515"><ele>164.0</ele><time>2026-04-18T13:00:18.881Z</time></trkpt><trkpt lat="42.088536457432326" lon="11.888979340279839"><ele>164.0</ele><time>2026-04-18T13:00:20.881Z</time></trkpt><trkpt lat="42.08850101664523" lon="11.88906066190553"><ele>164.0</ele><time>2026-04-18T13:00:21.881Z</time></trkpt><trkpt lat="42.08847266692633" lon="11.889144361643"><ele>164.0</ele><time>2026-04-18T13:00:22.881Z</time></trkpt><trkpt lat="42.08843316615944" lon="11.889233488150172"><ele>164.0</ele><time>2026-04-18T13:00:23.881Z</time></trkpt><trkpt lat="42.08838673761655" lon="11.889332648361592"><ele>164.0</ele><time>2026-04-18T13:00:24.881Z</time></trkpt><trkpt lat="42.088336808270306" lon="11.88942310361087"><ele>164.42857142857142</ele><time>2026-04-18T13:00:25.881Z</time></trkpt><trkpt lat="42.088288874707374" lon="11.889513923989027"><ele>164.85714285714286</ele><time>2026-04-18T13:00:26.879Z</time></trkpt><trkpt lat="42.088255355204346" lon="11.889597864998523"><ele>165.28571428571428</ele><time>2026-04-18T13:00:27.879Z</time></trkpt><trkpt lat="42.08822866567396" lon="11.889689468957648"><ele>165.71428571428572</ele><time>2026-04-18T13:00:28.879Z</time></trkpt><trkpt lat="42.08818581509275" lon="11.889772708155519"><ele>166.14285714285714</ele><time>2026-04-18T13:00:29.88Z</time></trkpt><trkpt lat="42.088145392662206" lon="11.889846312695473"><ele>166.57142857142856</ele><time>2026-04-18T13:00:30.879Z</time></trkpt><trkpt lat="42.08810619280551" lon="11.889925084045085"><ele>167.0</ele><time>2026-04-18T13:00:31.879Z</time></trkpt><trkpt lat="42.08806696492068" lon="11.890004121256379"><ele>167.0</ele><time>2026-04-18T13:00:32.879Z</time></trkpt><trkpt lat="42.08802897329444" lon="11.890090219113418"><ele>167.0</ele><time>2026-04-18T13:00:33.88Z</time></trkpt><trkpt lat="42.08800194681123" lon="11.890180672194667"><ele>167.0</ele><time>2026-04-18T13:00:34.88Z</time></trkpt><trkpt lat="42.087984401955154" lon="11.890271140040154"><ele>167.0</ele><time>2026-04-18T13:00:35.88Z</time></trkpt><trkpt lat="42.08798275129493" lon="11.89035832068677"><ele>167.0</ele><time>2026-04-18T13:00:36.88Z</time></trkpt><trkpt lat="42.08798168786456" lon="11.890447404864585"><ele>167.0</ele><time>2026-04-18T13:00:37.88Z</time></trkpt><trkpt lat="42.087968933776104" lon="11.890534636295373"><ele>167.0</ele><time>2026-04-18T13:00:38.88Z</time></trkpt><trkpt lat="42.08791214413063" lon="11.890637561965859"><ele>168.8</ele><time>2026-04-18T13:00:40.879Z</time></trkpt><trkpt lat="42.08785596793364" lon="11.890681882031648"><ele>170.6</ele><time>2026-04-18T13:00:41.879Z</time></trkpt><trkpt lat="42.087777070426704" lon="11.890737072442478"><ele>172.4</ele><time>2026-04-18T13:00:42.878Z</time></trkpt><trkpt lat="42.08768128060268" lon="11.890805429896169"><ele>174.20000000000002</ele><time>2026-04-18T13:00:43.878Z</time></trkpt><trkpt lat="42.08756928590302" lon="11.89085688514711"><ele>176.0</ele><time>2026-04-18T13:00:44.878Z</time></trkpt><trkpt lat="42.0874642416832" lon="11.890904182524926"><ele>176.5</ele><time>2026-04-18T13:00:45.878Z</time></trkpt><trkpt lat="42.08736747430678" lon="11.890963308797234"><ele>177.0</ele><time>2026-04-18T13:00:46.878Z</time></trkpt><trkpt lat="42.08728233135299" lon="11.891026071576011"><ele>177.5</ele><time>2026-04-18T13:00:47.878Z</time></trkpt><trkpt lat="42.08721853353359" lon="11.891070425231364"><ele>178.0</ele><time>2026-04-18T13:00:48.878Z</time></trkpt><trkpt lat="42.08715248432703" lon="11.891114050396116"><ele>178.5</ele><time>2026-04-18T13:00:49.878Z</time></trkpt><trkpt lat="42.08710096170528" lon="11.89117647379868"><ele>179.0</ele><time>2026-04-18T13:00:51.878Z</time></trkpt><trkpt lat="42.08706880891869" lon="11.891076563950948"><ele>178.0</ele><time>2026-04-18T13:01:00.878Z</time></trkpt><trkpt lat="42.087081618431895" lon="11.890911244451138"><ele>177.0</ele><time>2026-04-18T13:01:02.878Z</time></trkpt><trkpt lat="42.08709025158981" lon="11.890791888727778"><ele>176.0</ele><time>2026-04-18T13:01:03.878Z</time></trkpt><trkpt lat="42.087094195355796" lon="11.890701763382854"><ele>175.0</ele><time>2026-04-18T13:01:04.878Z</time></trkpt><trkpt lat="42.087096977504004" lon="11.890610905848911"><ele>174.0</ele><time>2026-04-18T13:01:05.878Z</time></trkpt><trkpt lat="42.08710749994688" lon="11.890524416949683"><ele>173.0</ele><time>2026-04-18T13:01:06.878Z</time></trkpt><trkpt lat="42.08715177268954" lon="11.89038306258549"><ele>173.0</ele><time>2026-04-18T13:01:08.877Z</time></trkpt><trkpt lat="42.087226069054104" lon="11.890296476113008"><ele>173.0</ele><time>2026-04-18T13:01:10.874Z</time></trkpt><trkpt lat="42.08726971057513" lon="11.890191708101561"><ele>173.0</ele><time>2026-04-18T13:01:12.871Z</time></trkpt><trkpt lat="42.08727222867153" lon="11.890015009630504"><ele>173.0</ele><time>2026-04-18T13:01:14.868Z</time></trkpt><trkpt lat="42.087255650755964" lon="11.889929231028322"><ele>173.0</ele><time>2026-04-18T13:01:15.866Z</time></trkpt><trkpt lat="42.08722005979983" lon="11.889791341006308"><ele>171.66666666666666</ele><time>2026-04-18T13:01:17.864Z</time></trkpt><trkpt lat="42.08715000982002" lon="11.88969297078758"><ele>170.33333333333331</ele><time>2026-04-18T13:01:19.862Z</time></trkpt><trkpt lat="42.08709276308881" lon="11.889643244547722"><ele>169.0</ele><time>2026-04-18T13:01:20.861Z</time></trkpt><trkpt lat="42.08700758839699" lon="11.889582173331492"><ele>167.66666666666666</ele><time>2026-04-18T13:01:21.86Z</time></trkpt><trkpt lat="42.08692962899331" lon="11.889524542250447"><ele>166.33333333333334</ele><time>2026-04-18T13:01:22.859Z</time></trkpt><trkpt lat="42.086860421748185" lon="11.889463344147702"><ele>165.0</ele><time>2026-04-18T13:01:23.858Z</time></trkpt><trkpt lat="42.086792837531476" lon="11.88940284314969"><ele>165.0</ele><time>2026-04-18T13:01:24.857Z</time></trkpt><trkpt lat="42.0867232809508" lon="11.889337006700753"><ele>165.0</ele><time>2026-04-18T13:01:25.857Z</time></trkpt><trkpt lat="42.08665038169528" lon="11.889271617207484"><ele>165.0</ele><time>2026-04-18T13:01:26.856Z</time></trkpt><trkpt lat="42.08657172797209" lon="11.889218763458969"><ele>165.0</ele><time>2026-04-18T13:01:27.855Z</time></trkpt><trkpt lat="42.08648055024617" lon="11.889181279039281"><ele>165.0</ele><time>2026-04-18T13:01:28.855Z</time></trkpt><trkpt lat="42.08639714710249" lon="11.889151556064984"><ele>165.0</ele><time>2026-04-18T13:01:29.854Z</time></trkpt><trkpt lat="42.086329670906466" lon="11.889109444519473"><ele>162.16666666666666</ele><time>2026-04-18T13:01:30.854Z</time></trkpt><trkpt lat="42.08627559043058" lon="11.889038076020492"><ele>159.33333333333334</ele><time>2026-04-18T13:01:31.853Z</time></trkpt><trkpt lat="42.08623434554526" lon="11.888954114868987"><ele>156.5</ele><time>2026-04-18T13:01:32.853Z</time></trkpt><trkpt lat="42.086190234206725" lon="11.888860904989482"><ele>153.66666666666669</ele><time>2026-04-18T13:01:33.852Z</time></trkpt><trkpt lat="42.08614795470622" lon="11.888775898121532"><ele>150.83333333333334</ele><time>2026-04-18T13:01:34.852Z</time></trkpt><trkpt lat="42.08610229603337" lon="11.888684092687944"><ele>148.0</ele><time>2026-04-18T13:01:35.852Z</time></trkpt><trkpt lat="42.08606033678976" lon="11.888598197029408"><ele>148.0</ele><time>2026-04-18T13:01:36.851Z</time></trkpt><trkpt lat="42.08601865695795" lon="11.888493966502455"><ele>148.0</ele><time>2026-04-18T13:01:37.851Z</time></trkpt><trkpt lat="42.08598754682083" lon="11.888396214341515"><ele>148.0</ele><time>2026-04-18T13:01:38.851Z</time></trkpt><trkpt lat="42.085958252928364" lon="11.888301989860631"><ele>148.0</ele><time>2026-04-18T13:01:39.85Z</time></trkpt><trkpt lat="42.08593163062934" lon="11.888223934221386"><ele>148.0</ele><time>2026-04-18T13:01:40.85Z</time></trkpt><trkpt lat="42.0858957304662" lon="11.888146332456861"><ele>148.0</ele><time>2026-04-18T13:01:41.85Z</time></trkpt><trkpt lat="42.08580394625354" lon="11.888033334415494"><ele>144.6</ele><time>2026-04-18T13:01:43.849Z</time></trkpt><trkpt lat="42.085727762442104" lon="11.887950363527887"><ele>141.20000000000002</ele><time>2026-04-18T13:01:44.849Z</time></trkpt><trkpt lat="42.085650676904756" lon="11.887866787184242"><ele>137.8</ele><time>2026-04-18T13:01:45.849Z</time></trkpt><trkpt lat="42.08559125398684" lon="11.887784677552947"><ele>134.4</ele><time>2026-04-18T13:01:46.849Z</time></trkpt><trkpt lat="42.08553681575029" lon="11.887664446182406"><ele>131.0</ele><time>2026-04-18T13:01:47.848Z</time></trkpt><trkpt lat="42.08548457934464" lon="11.887536196561559"><ele>130.2</ele><time>2026-04-18T13:01:48.848Z</time></trkpt><trkpt lat="42.08543005237662" lon="11.887397531798834"><ele>129.39999999999998</ele><time>2026-04-18T13:01:49.848Z</time></trkpt><trkpt lat="42.08538619957959" lon="11.88726182137014"><ele>128.6</ele><time>2026-04-18T13:01:50.848Z</time></trkpt><trkpt lat="42.08533782704457" lon="11.887146727801042"><ele>127.8</ele><time>2026-04-18T13:01:51.848Z</time></trkpt><trkpt lat="42.08529316065011" lon="11.887035263698609"><ele>127.0</ele><time>2026-04-18T13:01:52.848Z</time></trkpt><trkpt lat="42.085247408638104" lon="11.886898405830587"><ele>126.19999999999999</ele><time>2026-04-18T13:01:53.848Z</time></trkpt><trkpt lat="42.08520561266296" lon="11.88675264924391"><ele>125.39999999999999</ele><time>2026-04-18T13:01:54.847Z</time></trkpt><trkpt lat="42.08518037634897" lon="11.886614100531187"><ele>124.60000000000001</ele><time>2026-04-18T13:01:55.847Z</time></trkpt><trkpt lat="42.08515266470511" lon="11.886476142898594"><ele>123.80000000000001</ele><time>2026-04-18T13:01:56.847Z</time></trkpt><trkpt lat="42.08513199992146" lon="11.886352349297221"><ele>123.0</ele><time>2026-04-18T13:01:57.847Z</time></trkpt><trkpt lat="42.08511658879815" lon="11.886237393490909"><ele>123.0</ele><time>2026-04-18T13:01:58.847Z</time></trkpt><trkpt lat="42.08509216634229" lon="11.886135637342726"><ele>123.0</ele><time>2026-04-18T13:01:59.847Z</time></trkpt><trkpt lat="42.085077575228034" lon="11.886042954049048"><ele>123.0</ele><time>2026-04-18T13:02:00.847Z</time></trkpt><trkpt lat="42.08507295378911" lon="11.885941444068111"><ele>123.0</ele><time>2026-04-18T13:02:01.847Z</time></trkpt><trkpt lat="42.085083481391585" lon="11.885825481990018"><ele>123.0</ele><time>2026-04-18T13:02:02.847Z</time></trkpt><trkpt lat="42.08509689935641" lon="11.88569611698386"><ele>123.0</ele><time>2026-04-18T13:02:03.847Z</time></trkpt><trkpt lat="42.085115860819954" lon="11.885607851056307"><ele>122.33333333333333</ele><time>2026-04-18T13:02:04.846Z</time></trkpt><trkpt lat="42.085138805529496" lon="11.88551823475299"><ele>121.66666666666666</ele><time>2026-04-18T13:02:05.846Z</time></trkpt><trkpt lat="42.085160592698365" lon="11.885426536835471"><ele>121.0</ele><time>2026-04-18T13:02:06.846Z</time></trkpt><trkpt lat="42.08516927182843" lon="11.88528153533465"><ele>120.33333333333333</ele><time>2026-04-18T13:02:08.846Z</time></trkpt><trkpt lat="42.085201963996404" lon="11.885180477754085"><ele>119.66666666666666</ele><time>2026-04-18T13:02:10.846Z</time></trkpt><trkpt lat="42.08523013189426" lon="11.885037485536062"><ele>119.0</ele><time>2026-04-18T13:02:12.846Z</time></trkpt><trkpt lat="42.085220643705426" lon="11.884857748847441"><ele>117.33333333333333</ele><time>2026-04-18T13:02:14.846Z</time></trkpt><trkpt lat="42.085241579728645" lon="11.884772504564896"><ele>115.66666666666666</ele><time>2026-04-18T13:02:15.846Z</time></trkpt><trkpt lat="42.08526505941485" lon="11.884686095737619"><ele>114.0</ele><time>2026-04-18T13:02:16.846Z</time></trkpt><trkpt lat="42.08525097154136" lon="11.884523428947285"><ele>112.33333333333334</ele><time>2026-04-18T13:02:18.846Z</time></trkpt><trkpt lat="42.085203230134404" lon="11.884447227302486"><ele>110.66666666666667</ele><time>2026-04-18T13:02:19.846Z</time></trkpt><trkpt lat="42.08515032420457" lon="11.884379394506736"><ele>109.0</ele><time>2026-04-18T13:02:20.846Z</time></trkpt><trkpt lat="42.08509322479316" lon="11.88432623732617"><ele>107.50000000000001</ele><time>2026-04-18T13:02:21.846Z</time></trkpt><trkpt lat="42.08504167031424" lon="11.884258539973427"><ele>106.0</ele><time>2026-04-18T13:02:22.846Z</time></trkpt><trkpt lat="42.08500102780313" lon="11.884193737565568"><ele>104.5</ele><time>2026-04-18T13:02:23.846Z</time></trkpt><trkpt lat="42.08495479252123" lon="11.884126047374057"><ele>103.0</ele><time>2026-04-18T13:02:24.846Z</time></trkpt><trkpt lat="42.08489577435899" lon="11.884034954185154"><ele>101.50000000000001</ele><time>2026-04-18T13:02:25.846Z</time></trkpt><trkpt lat="42.084842973715475" lon="11.883962461218333"><ele>100.0</ele><time>2026-04-18T13:02:26.846Z</time></trkpt><trkpt lat="42.084765429629165" lon="11.883896403463092"><ele>98.8</ele><time>2026-04-18T13:02:28.845Z</time></trkpt><trkpt lat="42.08470255297548" lon="11.883867230516437"><ele>97.6</ele><time>2026-04-18T13:02:31.845Z</time></trkpt><trkpt lat="42.084616267574766" lon="11.883868975722763"><ele>96.4</ele><time>2026-04-18T13:02:35.845Z</time></trkpt><trkpt lat="42.08451357474079" lon="11.883854734318797"><ele>95.2</ele><time>2026-04-18T13:02:36.844Z</time></trkpt><trkpt lat="42.08440558276635" lon="11.883831883004621"><ele>94.0</ele><time>2026-04-18T13:02:37.844Z</time></trkpt><trkpt lat="42.084283325544355" lon="11.883839495653886"><ele>94.0</ele><time>2026-04-18T13:02:38.844Z</time></trkpt><trkpt lat="42.084154159471716" lon="11.883891787494042"><ele>94.0</ele><time>2026-04-18T13:02:39.844Z</time></trkpt><trkpt lat="42.08403922481523" lon="11.883931900843452"><ele>94.0</ele><time>2026-04-18T13:02:40.844Z</time></trkpt><trkpt lat="42.083925174248506" lon="11.883951683472153"><ele>94.0</ele><time>2026-04-18T13:02:41.844Z</time></trkpt><trkpt lat="42.08382408158415" lon="11.883974845296198"><ele>94.0</ele><time>2026-04-18T13:02:42.844Z</time></trkpt><trkpt lat="42.0837335947962" lon="11.884034633635773"><ele>94.0</ele><time>2026-04-18T13:02:43.844Z</time></trkpt><trkpt lat="42.083632344249814" lon="11.88411342258176"><ele>94.0</ele><time>2026-04-18T13:02:44.845Z</time></trkpt><trkpt lat="42.083523449013434" lon="11.884203028479945"><ele>94.0</ele><time>2026-04-18T13:02:45.844Z</time></trkpt><trkpt lat="42.08342105351275" lon="11.884288321456504"><ele>94.0</ele><time>2026-04-18T13:02:46.844Z</time></trkpt><trkpt lat="42.083307336287575" lon="11.884366469493127"><ele>94.0</ele><time>2026-04-18T13:02:47.844Z</time></trkpt><trkpt lat="42.08318715679011" lon="11.884449436936556"><ele>94.0</ele><time>2026-04-18T13:02:48.843Z</time></trkpt><trkpt lat="42.08306650194859" lon="11.884528756850376"><ele>94.0</ele><time>2026-04-18T13:02:49.843Z</time></trkpt><trkpt lat="42.08294936113489" lon="11.88460365751293"><ele>92.4</ele><time>2026-04-18T13:02:50.843Z</time></trkpt><trkpt lat="42.08284659005623" lon="11.88467353002734"><ele>90.80000000000001</ele><time>2026-04-18T13:02:51.843Z</time></trkpt><trkpt lat="42.082760626027444" lon="11.88474385101117"><ele>89.19999999999999</ele><time>2026-04-18T13:02:52.843Z</time></trkpt><trkpt lat="42.08267684281936" lon="11.884816487426848"><ele>87.6</ele><time>2026-04-18T13:02:53.843Z</time></trkpt><trkpt lat="42.0825944084253" lon="11.884885026634413"><ele>86.0</ele><time>2026-04-18T13:02:54.843Z</time></trkpt><trkpt lat="42.08254087922588" lon="11.884943464295292"><ele>86.0</ele><time>2026-04-18T13:02:55.843Z</time></trkpt><trkpt lat="42.08248327234916" lon="11.885079293023752"><ele>86.0</ele><time>2026-04-18T13:02:57.843Z</time></trkpt><trkpt lat="42.08244404041141" lon="11.885170939843709"><ele>86.0</ele><time>2026-04-18T13:02:59.843Z</time></trkpt><trkpt lat="42.082353292192735" lon="11.885179384189678"><ele>86.0</ele><time>2026-04-18T13:03:01.843Z</time></trkpt><trkpt lat="42.082266929998205" lon="11.885171169125728"><ele>86.0</ele><time>2026-04-18T13:03:02.843Z</time></trkpt><trkpt lat="42.082163983489245" lon="11.885188848378403"><ele>85.5</ele><time>2026-04-18T13:03:03.843Z</time></trkpt><trkpt lat="42.08204796481288" lon="11.885217781100893"><ele>85.0</ele><time>2026-04-18T13:03:04.843Z</time></trkpt><trkpt lat="42.08192990371596" lon="11.88526429000313"><ele>84.5</ele><time>2026-04-18T13:03:05.843Z</time></trkpt><trkpt lat="42.08181871399982" lon="11.885317554968086"><ele>84.0</ele><time>2026-04-18T13:03:06.843Z</time></trkpt><trkpt lat="42.08171610280936" lon="11.88537753170189"><ele>84.0</ele><time>2026-04-18T13:03:07.843Z</time></trkpt><trkpt lat="42.08161755100248" lon="11.885438494238297"><ele>84.0</ele><time>2026-04-18T13:03:08.843Z</time></trkpt><trkpt lat="42.08151535660831" lon="11.885519468222325"><ele>84.0</ele><time>2026-04-18T13:03:09.843Z</time></trkpt><trkpt lat="42.08142366540416" lon="11.885607608922696"><ele>84.0</ele><time>2026-04-18T13:03:10.843Z</time></trkpt><trkpt lat="42.08133417270923" lon="11.885704830685663"><ele>84.2</ele><time>2026-04-18T13:03:11.843Z</time></trkpt><trkpt lat="42.0812474642107" lon="11.885805328167008"><ele>84.4</ele><time>2026-04-18T13:03:12.843Z</time></trkpt><trkpt lat="42.08117550690046" lon="11.885900671678572"><ele>84.6</ele><time>2026-04-18T13:03:13.843Z</time></trkpt><trkpt lat="42.081104500620704" lon="11.885977453520136"><ele>84.8</ele><time>2026-04-18T13:03:14.843Z</time></trkpt><trkpt lat="42.08103763861687" lon="11.886032022098426"><ele>85.0</ele><time>2026-04-18T13:03:15.843Z</time></trkpt><trkpt lat="42.0809809051981" lon="11.886088562815758"><ele>84.33333333333333</ele><time>2026-04-18T13:03:16.843Z</time></trkpt><trkpt lat="42.080940947408976" lon="11.886173152456008"><ele>83.66666666666666</ele><time>2026-04-18T13:03:17.843Z</time></trkpt><trkpt lat="42.08091043424525" lon="11.886280027497968"><ele>83.0</ele><time>2026-04-18T13:03:18.843Z</time></trkpt><trkpt lat="42.08089162251474" lon="11.886392285036452"><ele>82.33333333333333</ele><time>2026-04-18T13:03:19.843Z</time></trkpt><trkpt lat="42.08087375508661" lon="11.886475135860966"><ele>81.66666666666667</ele><time>2026-04-18T13:03:20.843Z</time></trkpt><trkpt lat="42.08082005898052" lon="11.886578485875336"><ele>81.0</ele><time>2026-04-18T13:03:22.843Z</time></trkpt><trkpt lat="42.08074760178895" lon="11.886620138456507"><ele>80.66666666666667</ele><time>2026-04-18T13:03:24.843Z</time></trkpt><trkpt lat="42.08067880212018" lon="11.886645949794135"><ele>80.33333333333333</ele><time>2026-04-18T13:03:26.843Z</time></trkpt><trkpt lat="42.08059358356957" lon="11.886669964473088"><ele>80.0</ele><time>2026-04-18T13:03:28.843Z</time></trkpt><trkpt lat="42.0805114302879" lon="11.886754253440403"><ele>79.66666666666666</ele><time>2026-04-18T13:03:30.843Z</time></trkpt><trkpt lat="42.08045774430771" lon="11.88681408275021"><ele>79.33333333333333</ele><time>2026-04-18T13:03:31.843Z</time></trkpt><trkpt lat="42.080348297721564" lon="11.886856308765896"><ele>79.0</ele><time>2026-04-18T13:03:33.843Z</time></trkpt><trkpt lat="42.08024974527947" lon="11.886856295691228"><ele>79.0</ele><time>2026-04-18T13:03:34.843Z</time></trkpt><trkpt lat="42.08014871880091" lon="11.886842985088345"><ele>79.0</ele><time>2026-04-18T13:03:35.843Z</time></trkpt><trkpt lat="42.08002868624168" lon="11.886859166822381"><ele>79.0</ele><time>2026-04-18T13:03:36.843Z</time></trkpt><trkpt lat="42.07991957324415" lon="11.88688709339163"><ele>79.0</ele><time>2026-04-18T13:03:37.843Z</time></trkpt><trkpt lat="42.07984051349525" lon="11.886875318202451"><ele>79.0</ele><time>2026-04-18T13:03:38.843Z</time></trkpt><trkpt lat="42.079769426425926" lon="11.886800386091315"><ele>78.4</ele><time>2026-04-18T13:03:39.843Z</time></trkpt><trkpt lat="42.07969959734625" lon="11.886701734973519"><ele>77.80000000000001</ele><time>2026-04-18T13:03:40.843Z</time></trkpt><trkpt lat="42.07961605254226" lon="11.886620140477849"><ele>77.19999999999999</ele><time>2026-04-18T13:03:41.843Z</time></trkpt><trkpt lat="42.07953877821537" lon="11.886588383948009"><ele>76.6</ele><time>2026-04-18T13:03:42.843Z</time></trkpt><trkpt lat="42.0794500928644" lon="11.886590882055032"><ele>76.0</ele><time>2026-04-18T13:03:43.843Z</time></trkpt><trkpt lat="42.079332524967484" lon="11.886606015592347"><ele>76.0</ele><time>2026-04-18T13:03:44.843Z</time></trkpt><trkpt lat="42.07923197960333" lon="11.886590952990682"><ele>76.0</ele><time>2026-04-18T13:03:45.843Z</time></trkpt><trkpt lat="42.07914633921085" lon="11.886542639843835"><ele>76.0</ele><time>2026-04-18T13:03:46.843Z</time></trkpt><trkpt lat="42.07908029362171" lon="11.886485293062725"><ele>76.0</ele><time>2026-04-18T13:03:47.843Z</time></trkpt><trkpt lat="42.079020251637594" lon="11.886435508545253"><ele>76.0</ele><time>2026-04-18T13:03:48.843Z</time></trkpt><trkpt lat="42.07896638293426" lon="11.88638379130377"><ele>76.0</ele><time>2026-04-18T13:03:49.843Z</time></trkpt><trkpt lat="42.07891564765749" lon="11.886328041719302"><ele>76.39999999999999</ele><time>2026-04-18T13:03:50.843Z</time></trkpt><trkpt lat="42.07886174767232" lon="11.886231904003155"><ele>76.8</ele><time>2026-04-18T13:03:51.843Z</time></trkpt><trkpt lat="42.07880197924659" lon="11.88612461288752"><ele>77.19999999999999</ele><time>2026-04-18T13:03:52.843Z</time></trkpt><trkpt lat="42.07873671972442" lon="11.886017622155887"><ele>77.6</ele><time>2026-04-18T13:03:53.843Z</time></trkpt><trkpt lat="42.07866479985587" lon="11.885904615328348"><ele>78.0</ele><time>2026-04-18T13:03:54.843Z</time></trkpt><trkpt lat="42.07858457445475" lon="11.885789833144441"><ele>77.5</ele><time>2026-04-18T13:03:55.843Z</time></trkpt><trkpt lat="42.07849356325528" lon="11.885681925625384"><ele>77.0</ele><time>2026-04-18T13:03:56.843Z</time></trkpt><trkpt lat="42.07839653808638" lon="11.88558038739754"><ele>76.5</ele><time>2026-04-18T13:03:57.843Z</time></trkpt><trkpt lat="42.07828983659349" lon="11.885481027160195"><ele>76.0</ele><time>2026-04-18T13:03:58.843Z</time></trkpt><trkpt lat="42.07817824286678" lon="11.88536103038405"><ele>76.0</ele><time>2026-04-18T13:03:59.843Z</time></trkpt><trkpt lat="42.07807460849626" lon="11.885258576084619"><ele>76.0</ele><time>2026-04-18T13:04:00.843Z</time></trkpt><trkpt lat="42.07798870172401" lon="11.885160230275636"><ele>76.0</ele><time>2026-04-18T13:04:01.843Z</time></trkpt><trkpt lat="42.07788592262262" lon="11.88507560618832"><ele>76.0</ele><time>2026-04-18T13:04:02.843Z</time></trkpt><trkpt lat="42.07778242798011" lon="11.884991137112719"><ele>76.2</ele><time>2026-04-18T13:04:03.843Z</time></trkpt><trkpt lat="42.077675864733656" lon="11.884944040308866"><ele>76.39999999999999</ele><time>2026-04-18T13:04:04.843Z</time></trkpt><trkpt lat="42.077580576429966" lon="11.884904160777472"><ele>76.6</ele><time>2026-04-18T13:04:05.843Z</time></trkpt><trkpt lat="42.0774796389548" lon="11.884871125666029"><ele>76.8</ele><time>2026-04-18T13:04:06.843Z</time></trkpt><trkpt lat="42.077373955532934" lon="11.884808975087395"><ele>77.0</ele><time>2026-04-18T13:04:07.843Z</time></trkpt><trkpt lat="42.07727194481748" lon="11.884753631490694"><ele>77.0</ele><time>2026-04-18T13:04:08.843Z</time></trkpt><trkpt lat="42.07718543427876" lon="11.884722431567258"><ele>77.0</ele><time>2026-04-18T13:04:09.843Z</time></trkpt><trkpt lat="42.07710158871545" lon="11.884733730896912"><ele>77.0</ele><time>2026-04-18T13:04:10.843Z</time></trkpt><trkpt lat="42.077008665579505" lon="11.884790332261568"><ele>77.0</ele><time>2026-04-18T13:04:11.843Z</time></trkpt><trkpt lat="42.076915807699905" lon="11.884824355139608"><ele>77.0</ele><time>2026-04-18T13:04:12.843Z</time></trkpt><trkpt lat="42.07681743874476" lon="11.884856892114573"><ele>77.0</ele><time>2026-04-18T13:04:13.843Z</time></trkpt><trkpt lat="42.07673088323562" lon="11.884863094178714"><ele>77.0</ele><time>2026-04-18T13:04:14.843Z</time></trkpt><trkpt lat="42.07663354295196" lon="11.884822135292271"><ele>77.0</ele><time>2026-04-18T13:04:15.843Z</time></trkpt><trkpt lat="42.076531512803385" lon="11.88478293457108"><ele>77.0</ele><time>2026-04-18T13:04:16.843Z</time></trkpt><trkpt lat="42.076434886788206" lon="11.88473491594207"><ele>77.0</ele><time>2026-04-18T13:04:17.843Z</time></trkpt><trkpt lat="42.07634798791602" lon="11.884705673589767"><ele>76.8</ele><time>2026-04-18T13:04:18.843Z</time></trkpt><trkpt lat="42.07624704378879" lon="11.884689833208112"><ele>76.6</ele><time>2026-04-18T13:04:19.843Z</time></trkpt><trkpt lat="42.076131738514874" lon="11.88464957512578"><ele>76.39999999999999</ele><time>2026-04-18T13:04:20.843Z</time></trkpt><trkpt lat="42.07602292524901" lon="11.884607130344358"><ele>76.2</ele><time>2026-04-18T13:04:21.843Z</time></trkpt><trkpt lat="42.07591674439605" lon="11.884579799088705"><ele>76.0</ele><time>2026-04-18T13:04:22.843Z</time></trkpt><trkpt lat="42.075807682623186" lon="11.884567510286967"><ele>76.75</ele><time>2026-04-18T13:04:23.843Z</time></trkpt><trkpt lat="42.07568731318966" lon="11.884560476721518"><ele>77.5</ele><time>2026-04-18T13:04:24.843Z</time></trkpt><trkpt lat="42.075556784336264" lon="11.884543757256063"><ele>78.25</ele><time>2026-04-18T13:04:25.843Z</time></trkpt><trkpt lat="42.07543046910905" lon="11.884514605212628"><ele>79.0</ele><time>2026-04-18T13:04:26.843Z</time></trkpt><trkpt lat="42.07531327509672" lon="11.884484591420884"><ele>79.0</ele><time>2026-04-18T13:04:27.843Z</time></trkpt><trkpt lat="42.075213399982275" lon="11.884483412799604"><ele>79.0</ele><time>2026-04-18T13:04:28.843Z</time></trkpt><trkpt lat="42.075115690929735" lon="11.884502878961538"><ele>79.0</ele><time>2026-04-18T13:04:29.843Z</time></trkpt><trkpt lat="42.07500445696866" lon="11.884500608769793"><ele>79.0</ele><time>2026-04-18T13:04:30.843Z</time></trkpt><trkpt lat="42.0748916349209" lon="11.884504091751573"><ele>79.0</ele><time>2026-04-18T13:04:31.843Z</time></trkpt><trkpt lat="42.07477748878737" lon="11.88449002917564"><ele>79.25</ele><time>2026-04-18T13:04:32.843Z</time></trkpt><trkpt lat="42.07466710100487" lon="11.884442560117858"><ele>79.5</ele><time>2026-04-18T13:04:33.843Z</time></trkpt><trkpt lat="42.07455308884224" lon="11.884400428630501"><ele>79.75</ele><time>2026-04-18T13:04:34.843Z</time></trkpt><trkpt lat="42.07444848570871" lon="11.884340460219262"><ele>80.0</ele><time>2026-04-18T13:04:35.843Z</time></trkpt><trkpt lat="42.07433196958201" lon="11.884294989871815"><ele>80.0</ele><time>2026-04-18T13:04:36.843Z</time></trkpt><trkpt lat="42.07420420949778" lon="11.884271617491637"><ele>80.0</ele><time>2026-04-18T13:04:37.843Z</time></trkpt><trkpt lat="42.07407028471079" lon="11.884237948917283"><ele>80.0</ele><time>2026-04-18T13:04:38.842Z</time></trkpt><trkpt lat="42.073937286483336" lon="11.884192552689147"><ele>80.0</ele><time>2026-04-18T13:04:39.842Z</time></trkpt><trkpt lat="42.07381520521969" lon="11.884159401780547"><ele>78.4</ele><time>2026-04-18T13:04:40.842Z</time></trkpt><trkpt lat="42.073713782532494" lon="11.884153844700561"><ele>76.8</ele><time>2026-04-18T13:04:41.842Z</time></trkpt><trkpt lat="42.0736139673924" lon="11.884170874338125"><ele>75.2</ele><time>2026-04-18T13:04:42.842Z</time></trkpt><trkpt lat="42.07353029269111" lon="11.884197678816223"><ele>73.6</ele><time>2026-04-18T13:04:43.842Z</time></trkpt><trkpt lat="42.073453809697426" lon="11.884181589291378"><ele>72.0</ele><time>2026-04-18T13:04:44.842Z</time></trkpt><trkpt lat="42.07336581845738" lon="11.884176803975175"><ele>72.25</ele><time>2026-04-18T13:04:45.842Z</time></trkpt><trkpt lat="42.07326063895044" lon="11.884193111498188"><ele>72.5</ele><time>2026-04-18T13:04:46.842Z</time></trkpt><trkpt lat="42.07314543012824" lon="11.884231804173949"><ele>72.75</ele><time>2026-04-18T13:04:47.842Z</time></trkpt><trkpt lat="42.073040471143365" lon="11.884283881842226"><ele>73.0</ele><time>2026-04-18T13:04:48.842Z</time></trkpt><trkpt lat="42.07292957835682" lon="11.884318192403258"><ele>72.25</ele><time>2026-04-18T13:04:49.842Z</time></trkpt><trkpt lat="42.07282446879488" lon="11.88432236074996"><ele>71.5</ele><time>2026-04-18T13:04:50.841Z</time></trkpt><trkpt lat="42.072695448668505" lon="11.884289945310584"><ele>70.75</ele><time>2026-04-18T13:04:51.841Z</time></trkpt><trkpt lat="42.07256416131133" lon="11.884271272489096"><ele>70.0</ele><time>2026-04-18T13:04:52.841Z</time></trkpt><trkpt lat="42.072443565481905" lon="11.88427017095858"><ele>68.8</ele><time>2026-04-18T13:04:53.841Z</time></trkpt><trkpt lat="42.07232811107703" lon="11.884280147719377"><ele>67.6</ele><time>2026-04-18T13:04:54.841Z</time></trkpt><trkpt lat="42.072237509350494" lon="11.88428434600709"><ele>66.4</ele><time>2026-04-18T13:04:55.841Z</time></trkpt><trkpt lat="42.072141990967985" lon="11.884292713323395"><ele>65.2</ele><time>2026-04-18T13:04:56.841Z</time></trkpt><trkpt lat="42.072036351314836" lon="11.884311044135204"><ele>64.0</ele><time>2026-04-18T13:04:57.841Z</time></trkpt><trkpt lat="42.07193220887717" lon="11.884359718670451"><ele>63.99999999999999</ele><time>2026-04-18T13:04:58.841Z</time></trkpt><trkpt lat="42.07183993482296" lon="11.884427326783799"><ele>64.0</ele><time>2026-04-18T13:04:59.841Z</time></trkpt><trkpt lat="42.07177958557024" lon="11.884487115581818"><ele>64.0</ele><time>2026-04-18T13:05:00.841Z</time></trkpt><trkpt lat="42.07170935676664" lon="11.884550701924237"><ele>64.0</ele><time>2026-04-18T13:05:02.841Z</time></trkpt><trkpt lat="42.07167039020694" lon="11.884626175981692"><ele>63.99999999999999</ele><time>2026-04-18T13:05:38.841Z</time></trkpt><trkpt lat="42.07160498654458" lon="11.884613004966718"><ele>64.0</ele><time>2026-04-18T13:06:06.84Z</time></trkpt><trkpt lat="42.07148198354637" lon="11.884616287893461"><ele>63.6</ele><time>2026-04-18T13:06:08.84Z</time></trkpt><trkpt lat="42.07138543759489" lon="11.884608569609084"><ele>63.2</ele><time>2026-04-18T13:06:09.84Z</time></trkpt><trkpt lat="42.07127683389538" lon="11.884602763053856"><ele>62.800000000000004</ele><time>2026-04-18T13:06:10.84Z</time></trkpt><trkpt lat="42.0711647494457" lon="11.884601256838017"><ele>62.400000000000006</ele><time>2026-04-18T13:06:11.84Z</time></trkpt><trkpt lat="42.071065030795246" lon="11.884639901231626"><ele>62.0</ele><time>2026-04-18T13:06:12.84Z</time></trkpt><trkpt lat="42.070975185876556" lon="11.884696689464585"><ele>62.0</ele><time>2026-04-18T13:06:13.84Z</time></trkpt><trkpt lat="42.07088540933015" lon="11.884725058342251"><ele>62.0</ele><time>2026-04-18T13:06:14.84Z</time></trkpt><trkpt lat="42.070797989494295" lon="11.884747661458153"><ele>62.0</ele><time>2026-04-18T13:06:15.84Z</time></trkpt><trkpt lat="42.07069681627614" lon="11.884744808525618"><ele>62.0</ele><time>2026-04-18T13:06:16.84Z</time></trkpt><trkpt lat="42.07059678907525" lon="11.884727882756911"><ele>62.0</ele><time>2026-04-18T13:06:17.84Z</time></trkpt><trkpt lat="42.07049328852258" lon="11.884711616402901"><ele>62.0</ele><time>2026-04-18T13:06:18.84Z</time></trkpt><trkpt lat="42.07038695067617" lon="11.884704311413921"><ele>62.0</ele><time>2026-04-18T13:06:19.84Z</time></trkpt><trkpt lat="42.070285946952204" lon="11.884688598333975"><ele>62.0</ele><time>2026-04-18T13:06:20.84Z</time></trkpt><trkpt lat="42.07018608309888" lon="11.884626954757188"><ele>62.0</ele><time>2026-04-18T13:06:21.84Z</time></trkpt><trkpt lat="42.07007148192031" lon="11.884618327390395"><ele>62.0</ele><time>2026-04-18T13:06:22.84Z</time></trkpt><trkpt lat="42.069956557624586" lon="11.884613188670928"><ele>61.2</ele><time>2026-04-18T13:06:23.84Z</time></trkpt><trkpt lat="42.069833978912705" lon="11.884611475609939"><ele>60.400000000000006</ele><time>2026-04-18T13:06:24.84Z</time></trkpt><trkpt lat="42.069730133893394" lon="11.884608037097143"><ele>59.599999999999994</ele><time>2026-04-18T13:06:25.84Z</time></trkpt><trkpt lat="42.069634434282456" lon="11.884594994442331"><ele>58.8</ele><time>2026-04-18T13:06:26.84Z</time></trkpt><trkpt lat="42.069545768088375" lon="11.884562269497568"><ele>58.0</ele><time>2026-04-18T13:06:27.84Z</time></trkpt><trkpt lat="42.069466461350345" lon="11.884520275111981"><ele>58.0</ele><time>2026-04-18T13:06:28.84Z</time></trkpt><trkpt lat="42.0694015944842" lon="11.884465111907964"><ele>58.0</ele><time>2026-04-18T13:06:29.84Z</time></trkpt><trkpt lat="42.069328360376296" lon="11.884389933779762"><ele>58.0</ele><time>2026-04-18T13:06:30.84Z</time></trkpt><trkpt lat="42.06924480818374" lon="11.884327835321045"><ele>58.0</ele><time>2026-04-18T13:06:31.84Z</time></trkpt><trkpt lat="42.06915607108922" lon="11.884286999256712"><ele>58.0</ele><time>2026-04-18T13:06:32.84Z</time></trkpt><trkpt lat="42.06905647236106" lon="11.88430608726631"><ele>57.4</ele><time>2026-04-18T13:06:33.84Z</time></trkpt><trkpt lat="42.068951557265926" lon="11.88431335033555"><ele>56.8</ele><time>2026-04-18T13:06:34.84Z</time></trkpt><trkpt lat="42.06884708384705" lon="11.884326779787491"><ele>56.2</ele><time>2026-04-18T13:06:35.84Z</time></trkpt><trkpt lat="42.06874520299131" lon="11.88431215959922"><ele>55.6</ele><time>2026-04-18T13:06:36.84Z</time></trkpt><trkpt lat="42.068637760841526" lon="11.88431304619146"><ele>55.0</ele><time>2026-04-18T13:06:37.84Z</time></trkpt><trkpt lat="42.06853544046592" lon="11.884297044198973"><ele>55.0</ele><time>2026-04-18T13:06:38.84Z</time></trkpt><trkpt lat="42.06843320806235" lon="11.884271579736014"><ele>55.0</ele><time>2026-04-18T13:06:39.84Z</time></trkpt><trkpt lat="42.068318334037464" lon="11.884237706404765"><ele>55.0</ele><time>2026-04-18T13:06:40.84Z</time></trkpt><trkpt lat="42.06819700704987" lon="11.884201209263923"><ele>55.0</ele><time>2026-04-18T13:06:41.84Z</time></trkpt><trkpt lat="42.06806798035625" lon="11.884185447481753"><ele>55.25</ele><time>2026-04-18T13:06:42.84Z</time></trkpt><trkpt lat="42.06793846503762" lon="11.88414040548908"><ele>55.5</ele><time>2026-04-18T13:06:43.84Z</time></trkpt><trkpt lat="42.06780753508052" lon="11.884111371948883"><ele>55.75</ele><time>2026-04-18T13:06:44.839Z</time></trkpt><trkpt lat="42.06767464332311" lon="11.884054268262465"><ele>56.0</ele><time>2026-04-18T13:06:45.839Z</time></trkpt><trkpt lat="42.06753084330176" lon="11.884018026286258"><ele>55.5</ele><time>2026-04-18T13:06:46.839Z</time></trkpt><trkpt lat="42.06738467312611" lon="11.883987697303176"><ele>55.0</ele><time>2026-04-18T13:06:47.839Z</time></trkpt><trkpt lat="42.06723891570902" lon="11.883973690364975"><ele>54.5</ele><time>2026-04-18T13:06:48.838Z</time></trkpt><trkpt lat="42.06710799061277" lon="11.883951128364949"><ele>54.0</ele><time>2026-04-18T13:06:49.838Z</time></trkpt><trkpt lat="42.06699007888016" lon="11.883923535902584"><ele>54.0</ele><time>2026-04-18T13:06:50.839Z</time></trkpt><trkpt lat="42.06687286308937" lon="11.883911011389177"><ele>54.0</ele><time>2026-04-18T13:06:51.839Z</time></trkpt><trkpt lat="42.06674110688916" lon="11.883926743294241"><ele>54.0</ele><time>2026-04-18T13:06:52.839Z</time></trkpt><trkpt lat="42.06659646580374" lon="11.88396183703644"><ele>54.0</ele><time>2026-04-18T13:06:53.839Z</time></trkpt><trkpt lat="42.06643966144765" lon="11.884010195943183"><ele>54.33333333333333</ele><time>2026-04-18T13:06:54.838Z</time></trkpt><trkpt lat="42.066283891596164" lon="11.884069870196578"><ele>54.666666666666664</ele><time>2026-04-18T13:06:55.838Z</time></trkpt><trkpt lat="42.066129534612124" lon="11.884129654866298"><ele>55.0</ele><time>2026-04-18T13:06:56.838Z</time></trkpt><trkpt lat="42.06599446658686" lon="11.884179089570747"><ele>55.0</ele><time>2026-04-18T13:06:57.838Z</time></trkpt><trkpt lat="42.065862092375355" lon="11.884224553316923"><ele>55.0</ele><time>2026-04-18T13:06:58.838Z</time></trkpt><trkpt lat="42.065725969947984" lon="11.8842689999645"><ele>55.0</ele><time>2026-04-18T13:06:59.838Z</time></trkpt><trkpt lat="42.065592995943696" lon="11.884321211158971"><ele>55.0</ele><time>2026-04-18T13:07:00.838Z</time></trkpt><trkpt lat="42.06544463710526" lon="11.884380608882898"><ele>54.0</ele><time>2026-04-18T13:07:01.838Z</time></trkpt><trkpt lat="42.065295553761224" lon="11.88444104332332"><ele>53.0</ele><time>2026-04-18T13:07:02.838Z</time></trkpt><trkpt lat="42.06516051832587" lon="11.88448753856039"><ele>52.0</ele><time>2026-04-18T13:07:03.838Z</time></trkpt><trkpt lat="42.065039078870576" lon="11.88452925789861"><ele>51.0</ele><time>2026-04-18T13:07:04.838Z</time></trkpt><trkpt lat="42.06490724109795" lon="11.884580256574157"><ele>50.0</ele><time>2026-04-18T13:07:05.838Z</time></trkpt><trkpt lat="42.064782220155834" lon="11.88460602103004"><ele>49.0</ele><time>2026-04-18T13:07:06.838Z</time></trkpt><trkpt lat="42.064672634860536" lon="11.88464124236517"><ele>48.0</ele><time>2026-04-18T13:07:07.838Z</time></trkpt><trkpt lat="42.064571298494556" lon="11.884670478729708"><ele>47.0</ele><time>2026-04-18T13:07:08.838Z</time></trkpt><trkpt lat="42.064458029507435" lon="11.884722537832154"><ele>47.0</ele><time>2026-04-18T13:07:09.838Z</time></trkpt><trkpt lat="42.064324138886924" lon="11.884737425383"><ele>47.0</ele><time>2026-04-18T13:07:10.838Z</time></trkpt><trkpt lat="42.06418015701212" lon="11.884771752638175"><ele>47.0</ele><time>2026-04-18T13:07:11.838Z</time></trkpt><trkpt lat="42.064035710530675" lon="11.884813092225578"><ele>47.0</ele><time>2026-04-18T13:07:12.838Z</time></trkpt><trkpt lat="42.06389871881432" lon="11.884843031519441"><ele>47.0</ele><time>2026-04-18T13:07:13.838Z</time></trkpt><trkpt lat="42.063762972805286" lon="11.884869744174585"><ele>47.0</ele><time>2026-04-18T13:07:14.838Z</time></trkpt><trkpt lat="42.06363882548553" lon="11.88489599972924"><ele>47.0</ele><time>2026-04-18T13:07:15.838Z</time></trkpt><trkpt lat="42.06352502348111" lon="11.884913880282827"><ele>47.0</ele><time>2026-04-18T13:07:16.838Z</time></trkpt><trkpt lat="42.06341052531391" lon="11.884920023640055"><ele>47.0</ele><time>2026-04-18T13:07:17.838Z</time></trkpt><trkpt lat="42.06329331381455" lon="11.884916353156898"><ele>47.0</ele><time>2026-04-18T13:07:18.838Z</time></trkpt><trkpt lat="42.063168782686866" lon="11.884905419260212"><ele>47.0</ele><time>2026-04-18T13:07:19.838Z</time></trkpt><trkpt lat="42.06304265831297" lon="11.884889179384173"><ele>47.0</ele><time>2026-04-18T13:07:20.838Z</time></trkpt><trkpt lat="42.06290971662826" lon="11.884857831793175"><ele>46.5</ele><time>2026-04-18T13:07:21.838Z</time></trkpt><trkpt lat="42.062772633152164" lon="11.884826029861266"><ele>46.0</ele><time>2026-04-18T13:07:22.838Z</time></trkpt><trkpt lat="42.06263649074557" lon="11.884796398809382"><ele>45.5</ele><time>2026-04-18T13:07:23.838Z</time></trkpt><trkpt lat="42.06251207644659" lon="11.88476207595307"><ele>45.0</ele><time>2026-04-18T13:07:24.838Z</time></trkpt><trkpt lat="42.06239807265263" lon="11.884745152828474"><ele>46.2</ele><time>2026-04-18T13:07:25.838Z</time></trkpt><trkpt lat="42.06228974529016" lon="11.884718786797256"><ele>47.4</ele><time>2026-04-18T13:07:26.838Z</time></trkpt><trkpt lat="42.06218564132671" lon="11.884680651714502"><ele>48.599999999999994</ele><time>2026-04-18T13:07:27.838Z</time></trkpt><trkpt lat="42.06209717809624" lon="11.884599727047085"><ele>49.8</ele><time>2026-04-18T13:07:28.838Z</time></trkpt><trkpt lat="42.061994655578864" lon="11.884520460153995"><ele>51.0</ele><time>2026-04-18T13:07:29.838Z</time></trkpt><trkpt lat="42.06188422200371" lon="11.884429144988177"><ele>51.0</ele><time>2026-04-18T13:07:30.838Z</time></trkpt><trkpt lat="42.06175959020661" lon="11.884354375010364"><ele>51.0</ele><time>2026-04-18T13:07:31.838Z</time></trkpt><trkpt lat="42.06165422747856" lon="11.884247630525447"><ele>51.0</ele><time>2026-04-18T13:07:32.838Z</time></trkpt><trkpt lat="42.06154988231809" lon="11.884174049657798"><ele>51.0</ele><time>2026-04-18T13:07:33.838Z</time></trkpt><trkpt lat="42.06144532386779" lon="11.884105992071843"><ele>48.5</ele><time>2026-04-18T13:07:34.838Z</time></trkpt><trkpt lat="42.06133165772548" lon="11.884029549863136"><ele>46.0</ele><time>2026-04-18T13:07:35.838Z</time></trkpt><trkpt lat="42.061210766638325" lon="11.883944838143512"><ele>43.5</ele><time>2026-04-18T13:07:36.838Z</time></trkpt><trkpt lat="42.0610925956903" lon="11.883870691960253"><ele>41.0</ele><time>2026-04-18T13:07:37.838Z</time></trkpt><trkpt lat="42.06096248803858" lon="11.883812833353204"><ele>41.0</ele><time>2026-04-18T13:07:38.838Z</time></trkpt><trkpt lat="42.060839137286884" lon="11.883745801230324"><ele>41.0</ele><time>2026-04-18T13:07:39.838Z</time></trkpt><trkpt lat="42.06071991730326" lon="11.883699797450824"><ele>41.0</ele><time>2026-04-18T13:07:40.838Z</time></trkpt><trkpt lat="42.060593456883765" lon="11.883637068084637"><ele>41.0</ele><time>2026-04-18T13:07:41.838Z</time></trkpt><trkpt lat="42.06047486290965" lon="11.883571848691412"><ele>40.75</ele><time>2026-04-18T13:07:42.838Z</time></trkpt><trkpt lat="42.060355530696846" lon="11.883508305980719"><ele>40.5</ele><time>2026-04-18T13:07:43.838Z</time></trkpt><trkpt lat="42.0602342135283" lon="11.883443596494017"><ele>40.25</ele><time>2026-04-18T13:07:44.838Z</time></trkpt><trkpt lat="42.06011512690582" lon="11.883379687536422"><ele>40.0</ele><time>2026-04-18T13:07:45.838Z</time></trkpt><trkpt lat="42.06000732481303" lon="11.883322897286305"><ele>39.5</ele><time>2026-04-18T13:07:46.838Z</time></trkpt><trkpt lat="42.059904608698304" lon="11.883274296750864"><ele>39.0</ele><time>2026-04-18T13:07:47.838Z</time></trkpt><trkpt lat="42.05980145934997" lon="11.883232904760284"><ele>38.5</ele><time>2026-04-18T13:07:48.838Z</time></trkpt><trkpt lat="42.05968502723576" lon="11.883210157931744"><ele>38.0</ele><time>2026-04-18T13:07:49.838Z</time></trkpt><trkpt lat="42.05954959270793" lon="11.88323342077103"><ele>38.0</ele><time>2026-04-18T13:07:50.838Z</time></trkpt><trkpt lat="42.05941768689911" lon="11.883269956219147"><ele>38.0</ele><time>2026-04-18T13:07:51.838Z</time></trkpt><trkpt lat="42.05928678276828" lon="11.8833279702393"><ele>38.0</ele><time>2026-04-18T13:07:52.838Z</time></trkpt><trkpt lat="42.05914696375154" lon="11.883386359060637"><ele>38.0</ele><time>2026-04-18T13:07:53.838Z</time></trkpt><trkpt lat="42.05902141091352" lon="11.883427104977079"><ele>37.5</ele><time>2026-04-18T13:07:54.838Z</time></trkpt><trkpt lat="42.05891062394084" lon="11.883461749475503"><ele>37.0</ele><time>2026-04-18T13:07:55.838Z</time></trkpt><trkpt lat="42.05878737406185" lon="11.883483274806531"><ele>36.5</ele><time>2026-04-18T13:07:56.838Z</time></trkpt><trkpt lat="42.05866647620539" lon="11.883527951325242"><ele>36.0</ele><time>2026-04-18T13:07:57.838Z</time></trkpt><trkpt lat="42.05853359677812" lon="11.883575502811357"><ele>36.0</ele><time>2026-04-18T13:07:58.837Z</time></trkpt><trkpt lat="42.0584032441696" lon="11.883614608951447"><ele>36.0</ele><time>2026-04-18T13:07:59.837Z</time></trkpt><trkpt lat="42.0582754607704" lon="11.883660808772026"><ele>36.0</ele><time>2026-04-18T13:08:00.837Z</time></trkpt><trkpt lat="42.05816178213838" lon="11.883704163901358"><ele>36.0</ele><time>2026-04-18T13:08:01.837Z</time></trkpt><trkpt lat="42.05804528585427" lon="11.883748350512548"><ele>35.25</ele><time>2026-04-18T13:08:02.837Z</time></trkpt><trkpt lat="42.05791858464078" lon="11.88378760304888"><ele>34.5</ele><time>2026-04-18T13:08:03.837Z</time></trkpt><trkpt lat="42.057781865973745" lon="11.883829877222215"><ele>33.75</ele><time>2026-04-18T13:08:04.837Z</time></trkpt><trkpt lat="42.05764631577834" lon="11.883874390614022"><ele>33.0</ele><time>2026-04-18T13:08:05.837Z</time></trkpt><trkpt lat="42.05752454940287" lon="11.88391642619932"><ele>32.5</ele><time>2026-04-18T13:08:06.837Z</time></trkpt><trkpt lat="42.057417699889115" lon="11.88395571918388"><ele>32.0</ele><time>2026-04-18T13:08:07.837Z</time></trkpt><trkpt lat="42.05730586530551" lon="11.883999402418265"><ele>31.5</ele><time>2026-04-18T13:08:08.837Z</time></trkpt><trkpt lat="42.05719310362188" lon="11.884029057051452"><ele>31.0</ele><time>2026-04-18T13:08:09.837Z</time></trkpt><trkpt lat="42.05706051870564" lon="11.884067994036702"><ele>31.0</ele><time>2026-04-18T13:08:10.837Z</time></trkpt><trkpt lat="42.056942037690476" lon="11.8841138617722"><ele>31.0</ele><time>2026-04-18T13:08:11.837Z</time></trkpt><trkpt lat="42.05681162483509" lon="11.884160996864049"><ele>31.0</ele><time>2026-04-18T13:08:12.837Z</time></trkpt><trkpt lat="42.05668813267833" lon="11.884196872629161"><ele>31.0</ele><time>2026-04-18T13:08:13.837Z</time></trkpt><trkpt lat="42.05657018182783" lon="11.884236934407204"><ele>31.0</ele><time>2026-04-18T13:08:14.837Z</time></trkpt><trkpt lat="42.05643839801245" lon="11.88427167556235"><ele>31.0</ele><time>2026-04-18T13:08:15.837Z</time></trkpt><trkpt lat="42.056305217483796" lon="11.884317208869003"><ele>31.0</ele><time>2026-04-18T13:08:16.837Z</time></trkpt><trkpt lat="42.05617931384816" lon="11.88436687698685"><ele>31.0</ele><time>2026-04-18T13:08:17.837Z</time></trkpt><trkpt lat="42.05604427080561" lon="11.884405436089294"><ele>31.0</ele><time>2026-04-18T13:08:18.837Z</time></trkpt><trkpt lat="42.055903521005725" lon="11.884451090930837"><ele>31.0</ele><time>2026-04-18T13:08:19.837Z</time></trkpt><trkpt lat="42.05576719496061" lon="11.884503725246486"><ele>31.0</ele><time>2026-04-18T13:08:20.837Z</time></trkpt><trkpt lat="42.05562969527297" lon="11.884556668084896"><ele>31.0</ele><time>2026-04-18T13:08:21.837Z</time></trkpt><trkpt lat="42.05549406111646" lon="11.884596865633226"><ele>31.0</ele><time>2026-04-18T13:08:22.837Z</time></trkpt><trkpt lat="42.05537420804951" lon="11.884633448951464"><ele>31.0</ele><time>2026-04-18T13:08:23.837Z</time></trkpt><trkpt lat="42.05526485572104" lon="11.884679299882562"><ele>31.0</ele><time>2026-04-18T13:08:24.837Z</time></trkpt><trkpt lat="42.055147385857786" lon="11.884724072097091"><ele>31.0</ele><time>2026-04-18T13:08:25.837Z</time></trkpt><trkpt lat="42.055019688597405" lon="11.884760310119669"><ele>30.75</ele><time>2026-04-18T13:08:26.837Z</time></trkpt><trkpt lat="42.05488709375346" lon="11.884801536784266"><ele>30.5</ele><time>2026-04-18T13:08:27.837Z</time></trkpt><trkpt lat="42.054744187450645" lon="11.884847147898066"><ele>30.25</ele><time>2026-04-18T13:08:28.837Z</time></trkpt><trkpt lat="42.05459788472083" lon="11.884889497138873"><ele>30.0</ele><time>2026-04-18T13:08:29.837Z</time></trkpt><trkpt lat="42.05445909269263" lon="11.884941596102866"><ele>30.0</ele><time>2026-04-18T13:08:30.837Z</time></trkpt><trkpt lat="42.05433088775245" lon="11.884984091751859"><ele>30.0</ele><time>2026-04-18T13:08:31.837Z</time></trkpt><trkpt lat="42.05419159186668" lon="11.885026003385967"><ele>30.0</ele><time>2026-04-18T13:08:32.837Z</time></trkpt><trkpt lat="42.05404975144313" lon="11.885070077066402"><ele>30.0</ele><time>2026-04-18T13:08:33.837Z</time></trkpt><trkpt lat="42.05391878947873" lon="11.88511103749671"><ele>29.25</ele><time>2026-04-18T13:08:34.837Z</time></trkpt><trkpt lat="42.05379352761282" lon="11.885160281335747"><ele>28.5</ele><time>2026-04-18T13:08:35.837Z</time></trkpt><trkpt lat="42.05365470674082" lon="11.885183024876252"><ele>27.75</ele><time>2026-04-18T13:08:36.837Z</time></trkpt><trkpt lat="42.05352986307417" lon="11.8852105679862"><ele>27.0</ele><time>2026-04-18T13:08:37.837Z</time></trkpt><trkpt lat="42.05341351566224" lon="11.88523327124512"><ele>27.0</ele><time>2026-04-18T13:08:38.837Z</time></trkpt><trkpt lat="42.053294751454935" lon="11.885209269075196"><ele>27.0</ele><time>2026-04-18T13:08:39.837Z</time></trkpt><trkpt lat="42.05317042188712" lon="11.885177879260132"><ele>27.0</ele><time>2026-04-18T13:08:40.837Z</time></trkpt><trkpt lat="42.053040911492936" lon="11.885135542848"><ele>27.0</ele><time>2026-04-18T13:08:41.837Z</time></trkpt><trkpt lat="42.052903433539576" lon="11.885112493552041"><ele>27.0</ele><time>2026-04-18T13:08:42.837Z</time></trkpt><trkpt lat="42.05278973186214" lon="11.885043033516167"><ele>27.0</ele><time>2026-04-18T13:08:43.837Z</time></trkpt><trkpt lat="42.052675190839615" lon="11.884997541740374"><ele>27.0</ele><time>2026-04-18T13:08:44.837Z</time></trkpt><trkpt lat="42.05255996526807" lon="11.884976400419927"><ele>27.0</ele><time>2026-04-18T13:08:45.837Z</time></trkpt><trkpt lat="42.05244800859743" lon="11.884932814392341"><ele>26.5</ele><time>2026-04-18T13:08:46.837Z</time></trkpt><trkpt lat="42.05231707477447" lon="11.884948961136125"><ele>26.0</ele><time>2026-04-18T13:08:47.837Z</time></trkpt><trkpt lat="42.0521858242686" lon="11.884953404586302"><ele>25.5</ele><time>2026-04-18T13:08:48.837Z</time></trkpt><trkpt lat="42.05204772481389" lon="11.884970427111647"><ele>25.0</ele><time>2026-04-18T13:08:49.837Z</time></trkpt><trkpt lat="42.05191945585815" lon="11.88499716996884"><ele>25.0</ele><time>2026-04-18T13:08:50.835Z</time></trkpt><trkpt lat="42.05178812110356" lon="11.885002137072565"><ele>25.0</ele><time>2026-04-18T13:08:51.835Z</time></trkpt><trkpt lat="42.05165569073689" lon="11.885026202437334"><ele>25.0</ele><time>2026-04-18T13:08:52.835Z</time></trkpt><trkpt lat="42.05151859480201" lon="11.885045043874094"><ele>25.0</ele><time>2026-04-18T13:08:53.835Z</time></trkpt><trkpt lat="42.05139022271103" lon="11.88506236234148"><ele>24.75</ele><time>2026-04-18T13:08:54.835Z</time></trkpt><trkpt lat="42.051261975591295" lon="11.88508719506601"><ele>24.5</ele><time>2026-04-18T13:08:55.835Z</time></trkpt><trkpt lat="42.051137006553596" lon="11.885113388563486"><ele>24.25</ele><time>2026-04-18T13:08:56.835Z</time></trkpt><trkpt lat="42.051026850358035" lon="11.885133912666351"><ele>24.0</ele><time>2026-04-18T13:08:57.835Z</time></trkpt><trkpt lat="42.05091786488138" lon="11.885151581465832"><ele>23.799999999999997</ele><time>2026-04-18T13:08:58.835Z</time></trkpt><trkpt lat="42.05081617861874" lon="11.885168382900925"><ele>23.599999999999998</ele><time>2026-04-18T13:08:59.835Z</time></trkpt><trkpt lat="42.05071821629926" lon="11.885182497639477"><ele>23.4</ele><time>2026-04-18T13:09:00.835Z</time></trkpt><trkpt lat="42.05062862831372" lon="11.885155396396629"><ele>23.2</ele><time>2026-04-18T13:09:01.835Z</time></trkpt><trkpt lat="42.050556166757566" lon="11.8851595962257"><ele>23.0</ele><time>2026-04-18T13:09:02.835Z</time></trkpt><trkpt lat="42.050455491998626" lon="11.885122141001872"><ele>23.166666666666668</ele><time>2026-04-18T13:09:04.834Z</time></trkpt><trkpt lat="42.05036803295147" lon="11.885093049680759"><ele>23.333333333333336</ele><time>2026-04-18T13:09:43.834Z</time></trkpt><trkpt lat="42.05030023796198" lon="11.885069954741343"><ele>23.5</ele><time>2026-04-18T13:09:44.834Z</time></trkpt><trkpt lat="42.05022646024161" lon="11.885043568726392"><ele>23.666666666666668</ele><time>2026-04-18T13:09:45.834Z</time></trkpt><trkpt lat="42.05014603428495" lon="11.885014805035588"><ele>23.833333333333332</ele><time>2026-04-18T13:09:46.834Z</time></trkpt><trkpt lat="42.050056721283525" lon="11.88498457303707"><ele>24.0</ele><time>2026-04-18T13:09:47.834Z</time></trkpt><trkpt lat="42.049964161351994" lon="11.884954468310879"><ele>23.0</ele><time>2026-04-18T13:09:48.834Z</time></trkpt><trkpt lat="42.04986642286581" lon="11.884922679282251"><ele>22.0</ele><time>2026-04-18T13:09:49.834Z</time></trkpt><trkpt lat="42.04976068604557" lon="11.884907095177883"><ele>21.0</ele><time>2026-04-18T13:09:50.834Z</time></trkpt><trkpt lat="42.04965396560589" lon="11.884857789662995"><ele>20.0</ele><time>2026-04-18T13:09:51.834Z</time></trkpt><trkpt lat="42.04954362508066" lon="11.884832672775472"><ele>19.0</ele><time>2026-04-18T13:09:52.834Z</time></trkpt><trkpt lat="42.049430487653616" lon="11.884789038576697"><ele>19.0</ele><time>2026-04-18T13:09:53.834Z</time></trkpt><trkpt lat="42.04931054982653" lon="11.88474196888122"><ele>19.0</ele><time>2026-04-18T13:09:54.834Z</time></trkpt><trkpt lat="42.049187547396464" lon="11.884700374881255"><ele>19.0</ele><time>2026-04-18T13:09:55.834Z</time></trkpt><trkpt lat="42.04906324622763" lon="11.884667333711139"><ele>19.0</ele><time>2026-04-18T13:09:56.834Z</time></trkpt><trkpt lat="42.04893559183661" lon="11.884639583522059"><ele>18.5</ele><time>2026-04-18T13:09:57.834Z</time></trkpt><trkpt lat="42.048805192257994" lon="11.884595233356944"><ele>18.0</ele><time>2026-04-18T13:09:58.834Z</time></trkpt><trkpt lat="42.048673106202514" lon="11.884549864551172"><ele>17.5</ele><time>2026-04-18T13:09:59.834Z</time></trkpt><trkpt lat="42.04853261153067" lon="11.884497191467768"><ele>17.0</ele><time>2026-04-18T13:10:00.834Z</time></trkpt><trkpt lat="42.048394135187344" lon="11.884454120079477"><ele>16.75</ele><time>2026-04-18T13:10:01.834Z</time></trkpt><trkpt lat="42.048267442137885" lon="11.884419333124788"><ele>16.5</ele><time>2026-04-18T13:10:02.834Z</time></trkpt><trkpt lat="42.04814000207859" lon="11.884383546682193"><ele>16.25</ele><time>2026-04-18T13:10:03.834Z</time></trkpt><trkpt lat="42.048016807266464" lon="11.884354016139929"><ele>16.0</ele><time>2026-04-18T13:10:04.834Z</time></trkpt><trkpt lat="42.047900232707846" lon="11.884296775864033"><ele>16.0</ele><time>2026-04-18T13:10:05.834Z</time></trkpt><trkpt lat="42.047777299745476" lon="11.884264384123242"><ele>16.0</ele><time>2026-04-18T13:10:06.834Z</time></trkpt><trkpt lat="42.04766205472963" lon="11.884223992249341"><ele>16.0</ele><time>2026-04-18T13:10:07.833Z</time></trkpt><trkpt lat="42.047550962238994" lon="11.884170170192068"><ele>16.0</ele><time>2026-04-18T13:10:08.833Z</time></trkpt><trkpt lat="42.04744571621535" lon="11.884125540127942"><ele>16.0</ele><time>2026-04-18T13:10:09.833Z</time></trkpt><trkpt lat="42.04732855923149" lon="11.884091682824424"><ele>16.0</ele><time>2026-04-18T13:10:10.833Z</time></trkpt><trkpt lat="42.04721377882807" lon="11.884067072006125"><ele>16.0</ele><time>2026-04-18T13:10:11.833Z</time></trkpt><trkpt lat="42.047102461871084" lon="11.884052498399456"><ele>16.0</ele><time>2026-04-18T13:10:12.833Z</time></trkpt><trkpt lat="42.04699302545957" lon="11.884050131948651"><ele>16.0</ele><time>2026-04-18T13:10:13.833Z</time></trkpt><trkpt lat="42.046873932051675" lon="11.88406875263206"><ele>16.0</ele><time>2026-04-18T13:10:14.833Z</time></trkpt><trkpt lat="42.046751940802835" lon="11.884098335176153"><ele>16.0</ele><time>2026-04-18T13:10:15.833Z</time></trkpt><trkpt lat="42.046636131121716" lon="11.884093117386342"><ele>16.0</ele><time>2026-04-18T13:10:16.833Z</time></trkpt><trkpt lat="42.04651874553772" lon="11.884109990432872"><ele>15.25</ele><time>2026-04-18T13:10:17.833Z</time></trkpt><trkpt lat="42.046407328555134" lon="11.884081191487658"><ele>14.5</ele><time>2026-04-18T13:10:18.833Z</time></trkpt><trkpt lat="42.046301280915536" lon="11.884017747359394"><ele>13.75</ele><time>2026-04-18T13:10:19.833Z</time></trkpt><trkpt lat="42.04619675583454" lon="11.883944749298758"><ele>13.0</ele><time>2026-04-18T13:10:20.833Z</time></trkpt><trkpt lat="42.046091954117514" lon="11.883887900798522"><ele>12.999999999999998</ele><time>2026-04-18T13:10:21.833Z</time></trkpt><trkpt lat="42.04599599883623" lon="11.88383682704236"><ele>13.0</ele><time>2026-04-18T13:10:22.833Z</time></trkpt><trkpt lat="42.04591916088176" lon="11.883771849605068"><ele>13.0</ele><time>2026-04-18T13:10:23.833Z</time></trkpt><trkpt lat="42.04583682246989" lon="11.883723964056284"><ele>13.0</ele><time>2026-04-18T13:10:24.833Z</time></trkpt><trkpt lat="42.0457595727128" lon="11.883678116570701"><ele>12.999999999999998</ele><time>2026-04-18T13:10:25.833Z</time></trkpt><trkpt lat="42.045688446396234" lon="11.883630139148307"><ele>13.0</ele><time>2026-04-18T13:10:26.833Z</time></trkpt><trkpt lat="42.04562480444437" lon="11.88357830287982"><ele>12.999999999999998</ele><time>2026-04-18T13:10:27.833Z</time></trkpt><trkpt lat="42.04557041006433" lon="11.883515779389889"><ele>13.0</ele><time>2026-04-18T13:10:28.833Z</time></trkpt><trkpt lat="42.04550039604253" lon="11.883377237220367"><ele>13.0</ele><time>2026-04-18T13:10:30.833Z</time></trkpt><trkpt lat="42.04547033394479" lon="11.883283514406914"><ele>13.0</ele><time>2026-04-18T13:10:31.833Z</time></trkpt><trkpt lat="42.04543863609418" lon="11.883180688097367"><ele>12.999999999999998</ele><time>2026-04-18T13:10:32.833Z</time></trkpt><trkpt lat="42.04539208777526" lon="11.883078045785513"><ele>13.0</ele><time>2026-04-18T13:10:33.833Z</time></trkpt><trkpt lat="42.04536332456389" lon="11.882963622707813"><ele>13.2</ele><time>2026-04-18T13:10:34.833Z</time></trkpt><trkpt lat="42.045319861601534" lon="11.882836270809758"><ele>13.4</ele><time>2026-04-18T13:10:35.833Z</time></trkpt><trkpt lat="42.04528740104016" lon="11.882723230371552"><ele>13.599999999999998</ele><time>2026-04-18T13:10:36.833Z</time></trkpt><trkpt lat="42.04525297808009" lon="11.882598786729424"><ele>13.799999999999999</ele><time>2026-04-18T13:10:37.833Z</time></trkpt><trkpt lat="42.04522374674397" lon="11.882471603892679"><ele>14.0</ele><time>2026-04-18T13:10:38.833Z</time></trkpt><trkpt lat="42.04518131691832" lon="11.882339819742302"><ele>14.6</ele><time>2026-04-18T13:10:39.833Z</time></trkpt><trkpt lat="42.04513019353521" lon="11.882213347898531"><ele>15.2</ele><time>2026-04-18T13:10:40.833Z</time></trkpt><trkpt lat="42.045085496980015" lon="11.882081549873119"><ele>15.799999999999999</ele><time>2026-04-18T13:10:41.833Z</time></trkpt><trkpt lat="42.045044992305066" lon="11.88195346533634"><ele>16.4</ele><time>2026-04-18T13:10:42.833Z</time></trkpt><trkpt lat="42.04500658574594" lon="11.881824043360002"><ele>17.0</ele><time>2026-04-18T13:10:43.833Z</time></trkpt><trkpt lat="42.0449734523263" lon="11.881694453693152"><ele>16.6</ele><time>2026-04-18T13:10:44.833Z</time></trkpt><trkpt lat="42.044937485529616" lon="11.881577158418139"><ele>16.2</ele><time>2026-04-18T13:10:45.833Z</time></trkpt><trkpt lat="42.04490353652965" lon="11.881447591789577"><ele>15.8</ele><time>2026-04-18T13:10:46.833Z</time></trkpt><trkpt lat="42.04488071365304" lon="11.8813051469294"><ele>15.4</ele><time>2026-04-18T13:10:47.833Z</time></trkpt><trkpt lat="42.04489195546878" lon="11.881168703035772"><ele>15.0</ele><time>2026-04-18T13:10:48.833Z</time></trkpt><trkpt lat="42.04488732433681" lon="11.881020897496729"><ele>16.6</ele><time>2026-04-18T13:10:49.833Z</time></trkpt><trkpt lat="42.04489419256965" lon="11.880872757378462"><ele>18.2</ele><time>2026-04-18T13:10:50.833Z</time></trkpt><trkpt lat="42.04489900355964" lon="11.880725664864237"><ele>19.799999999999997</ele><time>2026-04-18T13:10:51.833Z</time></trkpt><trkpt lat="42.04491195417924" lon="11.880582530832331"><ele>21.4</ele><time>2026-04-18T13:10:52.833Z</time></trkpt><trkpt lat="42.0449248919847" lon="11.880443100253315"><ele>23.0</ele><time>2026-04-18T13:10:53.833Z</time></trkpt><trkpt lat="42.04494931459816" lon="11.880314018687663"><ele>23.0</ele><time>2026-04-18T13:10:54.833Z</time></trkpt><trkpt lat="42.044950217382045" lon="11.88020094477117"><ele>23.0</ele><time>2026-04-18T13:10:55.833Z</time></trkpt><trkpt lat="42.04495266252291" lon="11.880083013600952"><ele>23.0</ele><time>2026-04-18T13:10:56.831Z</time></trkpt><trkpt lat="42.044946613014844" lon="11.879953807633408"><ele>23.0</ele><time>2026-04-18T13:10:57.832Z</time></trkpt><trkpt lat="42.044946007965684" lon="11.879809718857524"><ele>23.0</ele><time>2026-04-18T13:10:58.832Z</time></trkpt><trkpt lat="42.04494878200119" lon="11.879677464773783"><ele>24.0</ele><time>2026-04-18T13:10:59.832Z</time></trkpt><trkpt lat="42.04495278452789" lon="11.879560000829281"><ele>25.0</ele><time>2026-04-18T13:11:00.831Z</time></trkpt><trkpt lat="42.04496343223257" lon="11.879457494284177"><ele>25.999999999999996</ele><time>2026-04-18T13:11:01.831Z</time></trkpt><trkpt lat="42.04496299655562" lon="11.879309843270825"><ele>27.0</ele><time>2026-04-18T13:11:03.832Z</time></trkpt><trkpt lat="42.04495305659326" lon="11.879220516926114"><ele>28.0</ele><time>2026-04-18T13:11:06.831Z</time></trkpt><trkpt lat="42.04481557329439" lon="11.879232634201108"><ele>28.0</ele><time>2026-04-18T13:11:07.831Z</time></trkpt><trkpt lat="42.04472630908104" lon="11.879240031065704"><ele>27.999999999999996</ele><time>2026-04-18T13:11:08.832Z</time></trkpt><trkpt lat="42.04463397962048" lon="11.879256128647043"><ele>27.999999999999996</ele><time>2026-04-18T13:11:09.832Z</time></trkpt><trkpt lat="42.04453730798581" lon="11.879263692004512"><ele>28.0</ele><time>2026-04-18T13:11:10.832Z</time></trkpt><trkpt lat="42.044435098480726" lon="11.87927994945135"><ele>28.0</ele><time>2026-04-18T13:11:11.832Z</time></trkpt><trkpt lat="42.044333975025104" lon="11.879284704634758"><ele>28.0</ele><time>2026-04-18T13:11:12.832Z</time></trkpt><trkpt lat="42.04423406288012" lon="11.87930105878962"><ele>27.999999999999996</ele><time>2026-04-18T13:11:13.832Z</time></trkpt><trkpt lat="42.044128396166776" lon="11.879326585677584"><ele>27.999999999999996</ele><time>2026-04-18T13:11:14.832Z</time></trkpt><trkpt lat="42.044037218425565" lon="11.879344447933564"><ele>28.0</ele><time>2026-04-18T13:11:15.832Z</time></trkpt><trkpt lat="42.043944236039145" lon="11.87936580130166"><ele>28.0</ele><time>2026-04-18T13:11:16.832Z</time></trkpt><trkpt lat="42.04384806623202" lon="11.87938484926648"><ele>27.666666666666668</ele><time>2026-04-18T13:11:17.832Z</time></trkpt><trkpt lat="42.04376671632134" lon="11.879392544250283"><ele>27.333333333333336</ele><time>2026-04-18T13:11:18.831Z</time></trkpt><trkpt lat="42.04368437165504" lon="11.879408319718094"><ele>27.0</ele><time>2026-04-18T13:11:19.831Z</time></trkpt><trkpt lat="42.043598589474534" lon="11.879429851986144"><ele>26.666666666666664</ele><time>2026-04-18T13:11:20.831Z</time></trkpt><trkpt lat="42.043512727081925" lon="11.879447450019818"><ele>26.333333333333332</ele><time>2026-04-18T13:11:21.831Z</time></trkpt><trkpt lat="42.04342080299474" lon="11.879464681736055"><ele>26.0</ele><time>2026-04-18T13:11:22.831Z</time></trkpt><trkpt lat="42.04332499788685" lon="11.87948319993495"><ele>25.200000000000003</ele><time>2026-04-18T13:11:23.831Z</time></trkpt><trkpt lat="42.04322670086469" lon="11.879504047514498"><ele>24.400000000000002</ele><time>2026-04-18T13:11:24.831Z</time></trkpt><trkpt lat="42.04313458744962" lon="11.879512684111218"><ele>23.6</ele><time>2026-04-18T13:11:25.831Z</time></trkpt><trkpt lat="42.04304487483711" lon="11.8795250138613"><ele>22.8</ele><time>2026-04-18T13:11:26.831Z</time></trkpt><trkpt lat="42.042958875591744" lon="11.879543320409313"><ele>22.0</ele><time>2026-04-18T13:11:27.831Z</time></trkpt><trkpt lat="42.04286928591195" lon="11.879567307289568"><ele>22.0</ele><time>2026-04-18T13:11:28.831Z</time></trkpt><trkpt lat="42.04278457924757" lon="11.87958140042145"><ele>22.0</ele><time>2026-04-18T13:11:29.831Z</time></trkpt><trkpt lat="42.04269269336243" lon="11.879597492675199"><ele>22.0</ele><time>2026-04-18T13:11:30.831Z</time></trkpt><trkpt lat="42.042591817876136" lon="11.879617201957084"><ele>22.0</ele><time>2026-04-18T13:11:31.831Z</time></trkpt><trkpt lat="42.04248920443376" lon="11.879624594147831"><ele>22.0</ele><time>2026-04-18T13:11:32.831Z</time></trkpt><trkpt lat="42.04238546408375" lon="11.879636533727261"><ele>21.400000000000002</ele><time>2026-04-18T13:11:33.831Z</time></trkpt><trkpt lat="42.04227892674246" lon="11.879654697258891"><ele>20.8</ele><time>2026-04-18T13:11:34.831Z</time></trkpt><trkpt lat="42.04217853150326" lon="11.87967364520959"><ele>20.2</ele><time>2026-04-18T13:11:35.831Z</time></trkpt><trkpt lat="42.04207714603969" lon="11.879707882056914"><ele>19.6</ele><time>2026-04-18T13:11:36.831Z</time></trkpt><trkpt lat="42.041967906006974" lon="11.879729188373998"><ele>19.0</ele><time>2026-04-18T13:11:37.831Z</time></trkpt><trkpt lat="42.041865700560315" lon="11.87974091238321"><ele>19.0</ele><time>2026-04-18T13:11:38.831Z</time></trkpt><trkpt lat="42.04175793588397" lon="11.879765233500894"><ele>19.0</ele><time>2026-04-18T13:11:39.831Z</time></trkpt><trkpt lat="42.041651313017276" lon="11.879779040845134"><ele>19.0</ele><time>2026-04-18T13:11:40.831Z</time></trkpt><trkpt lat="42.041552411601366" lon="11.879798384326673"><ele>19.0</ele><time>2026-04-18T13:11:41.831Z</time></trkpt><trkpt lat="42.04145819057335" lon="11.87981344453299"><ele>19.0</ele><time>2026-04-18T13:11:42.831Z</time></trkpt><trkpt lat="42.04136369331414" lon="11.879828950250683"><ele>18.2</ele><time>2026-04-18T13:11:43.831Z</time></trkpt><trkpt lat="42.041270975686416" lon="11.87984947051081"><ele>17.4</ele><time>2026-04-18T13:11:44.831Z</time></trkpt><trkpt lat="42.0411788857227" lon="11.87986589467935"><ele>16.6</ele><time>2026-04-18T13:11:45.831Z</time></trkpt><trkpt lat="42.04108879909108" lon="11.879892210116902"><ele>15.8</ele><time>2026-04-18T13:11:46.831Z</time></trkpt><trkpt lat="42.040992044637406" lon="11.879923392745365"><ele>15.0</ele><time>2026-04-18T13:11:47.831Z</time></trkpt><trkpt lat="42.04090290525747" lon="11.87995404137225"><ele>15.0</ele><time>2026-04-18T13:11:48.831Z</time></trkpt><trkpt lat="42.04081612514305" lon="11.879982708255033"><ele>15.0</ele><time>2026-04-18T13:11:49.831Z</time></trkpt><trkpt lat="42.04073195523597" lon="11.880007279683994"><ele>15.0</ele><time>2026-04-18T13:11:50.831Z</time></trkpt><trkpt lat="42.04064558239898" lon="11.880032849224111"><ele>15.0</ele><time>2026-04-18T13:11:51.831Z</time></trkpt><trkpt lat="42.04055333459097" lon="11.880076014572511"><ele>15.0</ele><time>2026-04-18T13:11:52.831Z</time></trkpt><trkpt lat="42.04045986597098" lon="11.880112089069849"><ele>14.0</ele><time>2026-04-18T13:11:53.831Z</time></trkpt><trkpt lat="42.040363948709846" lon="11.880148869862856"><ele>13.0</ele><time>2026-04-18T13:11:54.831Z</time></trkpt><trkpt lat="42.04026636093546" lon="11.880190151662637"><ele>12.0</ele><time>2026-04-18T13:11:55.831Z</time></trkpt><trkpt lat="42.04016867183692" lon="11.880230445381983"><ele>11.0</ele><time>2026-04-18T13:11:56.831Z</time></trkpt><trkpt lat="42.04008139075427" lon="11.880257614681337"><ele>10.0</ele><time>2026-04-18T13:11:57.831Z</time></trkpt><trkpt lat="42.040004877778806" lon="11.880284424282932"><ele>10.0</ele><time>2026-04-18T13:11:58.831Z</time></trkpt><trkpt lat="42.03991858708844" lon="11.880303574862678"><ele>10.0</ele><time>2026-04-18T13:12:00.831Z</time></trkpt><trkpt lat="42.03996945678806" lon="11.880469638520733"><ele>10.0</ele><time>2026-04-18T13:12:01.831Z</time></trkpt><trkpt lat="42.039979762338724" lon="11.880569781447383"><ele>10.0</ele><time>2026-04-18T13:12:02.831Z</time></trkpt><trkpt lat="42.03999321931789" lon="11.880700547695604"><ele>10.0</ele><time>2026-04-18T13:12:03.831Z</time></trkpt><trkpt lat="42.040007606446544" lon="11.88084035265354"><ele>9.4</ele><time>2026-04-18T13:12:04.831Z</time></trkpt><trkpt lat="42.04002096571505" lon="11.880970169372484"><ele>8.8</ele><time>2026-04-18T13:12:05.831Z</time></trkpt><trkpt lat="42.040019771318995" lon="11.881099771740239"><ele>8.2</ele><time>2026-04-18T13:12:06.831Z</time></trkpt><trkpt lat="42.040058422969786" lon="11.881224555449961"><ele>7.6</ele><time>2026-04-18T13:12:07.831Z</time></trkpt><trkpt lat="42.040080604113896" lon="11.881343355266251"><ele>7.0</ele><time>2026-04-18T13:12:08.831Z</time></trkpt><trkpt lat="42.04009500544465" lon="11.881451878759286"><ele>7.0</ele><time>2026-04-18T13:12:09.831Z</time></trkpt><trkpt lat="42.040091284705625" lon="11.88155910854403"><ele>6.999999999999999</ele><time>2026-04-18T13:12:10.831Z</time></trkpt><trkpt lat="42.04006178310921" lon="11.88170088705591"><ele>6.999999999999999</ele><time>2026-04-18T13:12:12.831Z</time></trkpt><trkpt lat="42.03990489056536" lon="11.881660193151918"><ele>7.0</ele><time>2026-04-18T13:12:14.831Z</time></trkpt><trkpt lat="42.039835340767084" lon="11.881606872788664"><ele>7.0</ele><time>2026-04-18T13:12:15.831Z</time></trkpt><trkpt lat="42.039754202838765" lon="11.881546867285886"><ele>6.199999999999999</ele><time>2026-04-18T13:12:16.831Z</time></trkpt><trkpt lat="42.03966470016832" lon="11.881481361326571"><ele>5.3999999999999995</ele><time>2026-04-18T13:12:17.831Z</time></trkpt><trkpt lat="42.03957158994094" lon="11.881420032484504"><ele>4.6</ele><time>2026-04-18T13:12:18.831Z</time></trkpt><trkpt lat="42.039471249898774" lon="11.88135719997889"><ele>3.8</ele><time>2026-04-18T13:12:19.831Z</time></trkpt><trkpt lat="42.03937818529443" lon="11.881295098459546"><ele>3.0</ele><time>2026-04-18T13:12:20.831Z</time></trkpt><trkpt lat="42.03927740427347" lon="11.881227311991166"><ele>3.0</ele><time>2026-04-18T13:12:21.831Z</time></trkpt><trkpt lat="42.03917394320548" lon="11.881155320923284"><ele>3.0</ele><time>2026-04-18T13:12:22.831Z</time></trkpt><trkpt lat="42.03906588130022" lon="11.881091139921905"><ele>3.0</ele><time>2026-04-18T13:12:23.831Z</time></trkpt><trkpt lat="42.038968688595055" lon="11.881013733629787"><ele>3.0</ele><time>2026-04-18T13:12:24.831Z</time></trkpt><trkpt lat="42.03887759951209" lon="11.880918753233779"><ele>3.0</ele><time>2026-04-18T13:12:25.831Z</time></trkpt><trkpt lat="42.03881274687287" lon="11.880791998353397"><ele>3.0</ele><time>2026-04-18T13:12:26.831Z</time></trkpt><trkpt lat="42.03877090183811" lon="11.880642311447602"><ele>3.0</ele><time>2026-04-18T13:12:27.831Z</time></trkpt><trkpt lat="42.038742314694105" lon="11.88048814650314"><ele>3.0</ele><time>2026-04-18T13:12:28.831Z</time></trkpt><trkpt lat="42.03871885305358" lon="11.880330885870874"><ele>3.0</ele><time>2026-04-18T13:12:29.83Z</time></trkpt><trkpt lat="42.03870798046661" lon="11.880166863864025"><ele>3.0</ele><time>2026-04-18T13:12:30.83Z</time></trkpt><trkpt lat="42.038698253059366" lon="11.879991758602758"><ele>3.0</ele><time>2026-04-18T13:12:31.83Z</time></trkpt><trkpt lat="42.03867960785719" lon="11.879812821879836"><ele>3.0</ele><time>2026-04-18T13:12:32.83Z</time></trkpt><trkpt lat="42.03865994659026" lon="11.879634030431438"><ele>3.25</ele><time>2026-04-18T13:12:33.83Z</time></trkpt><trkpt lat="42.03864334925929" lon="11.879458193312615"><ele>3.5</ele><time>2026-04-18T13:12:34.83Z</time></trkpt><trkpt lat="42.03862359878535" lon="11.879278944408416"><ele>3.75</ele><time>2026-04-18T13:12:35.83Z</time></trkpt><trkpt lat="42.03859948753114" lon="11.879098650267617"><ele>4.0</ele><time>2026-04-18T13:12:36.83Z</time></trkpt><trkpt lat="42.038579350423845" lon="11.878919836999907"><ele>4.0</ele><time>2026-04-18T13:12:37.83Z</time></trkpt><trkpt lat="42.038561886067306" lon="11.878737944630155"><ele>4.0</ele><time>2026-04-18T13:12:38.83Z</time></trkpt><trkpt lat="42.03854964556009" lon="11.87855146777948"><ele>4.0</ele><time>2026-04-18T13:12:39.83Z</time></trkpt><trkpt lat="42.038528734539895" lon="11.87836470428394"><ele>4.0</ele><time>2026-04-18T13:12:40.83Z</time></trkpt><trkpt lat="42.03850317764773" lon="11.8781962626736"><ele>4.5</ele><time>2026-04-18T13:12:41.83Z</time></trkpt><trkpt lat="42.038473305537664" lon="11.878041464020933"><ele>5.0</ele><time>2026-04-18T13:12:42.83Z</time></trkpt><trkpt lat="42.03843922784197" lon="11.877886312086567"><ele>5.5</ele><time>2026-04-18T13:12:43.83Z</time></trkpt><trkpt lat="42.03841915078206" lon="11.877719001997102"><ele>6.0</ele><time>2026-04-18T13:12:44.83Z</time></trkpt><trkpt lat="42.038381814364925" lon="11.877552701372306"><ele>6.0</ele><time>2026-04-18T13:12:45.83Z</time></trkpt><trkpt lat="42.03834656030581" lon="11.87738511667752"><ele>6.0</ele><time>2026-04-18T13:12:46.83Z</time></trkpt><trkpt lat="42.03830524409562" lon="11.877217860670559"><ele>6.0</ele><time>2026-04-18T13:12:47.83Z</time></trkpt><trkpt lat="42.03828285555102" lon="11.877043816444598"><ele>6.0</ele><time>2026-04-18T13:12:48.83Z</time></trkpt><trkpt lat="42.03824932136971" lon="11.876877748435733"><ele>4.75</ele><time>2026-04-18T13:12:49.83Z</time></trkpt><trkpt lat="42.03821048588389" lon="11.87671459360509"><ele>3.5</ele><time>2026-04-18T13:12:50.83Z</time></trkpt><trkpt lat="42.03817904554235" lon="11.876549996397413"><ele>2.25</ele><time>2026-04-18T13:12:51.83Z</time></trkpt><trkpt lat="42.03814730991951" lon="11.876386823780972"><ele>1.0</ele><time>2026-04-18T13:12:52.83Z</time></trkpt><trkpt lat="42.03811566935262" lon="11.876221250478391"><ele>1.0</ele><time>2026-04-18T13:12:53.83Z</time></trkpt><trkpt lat="42.03807823542113" lon="11.876051312737415"><ele>1.0</ele><time>2026-04-18T13:12:54.83Z</time></trkpt><trkpt lat="42.03807349330558" lon="11.875877661077288"><ele>1.0</ele><time>2026-04-18T13:12:55.83Z</time></trkpt><trkpt lat="42.03804061632618" lon="11.875714663676204"><ele>1.0</ele><time>2026-04-18T13:12:56.83Z</time></trkpt><trkpt lat="42.03800979930345" lon="11.875549603119246"><ele>1.25</ele><time>2026-04-18T13:12:57.83Z</time></trkpt><trkpt lat="42.0379756098567" lon="11.875386644844323"><ele>1.5</ele><time>2026-04-18T13:12:58.83Z</time></trkpt><trkpt lat="42.03794483180015" lon="11.875219178812488"><ele>1.75</ele><time>2026-04-18T13:12:59.83Z</time></trkpt><trkpt lat="42.037913237415786" lon="11.875049335750195"><ele>2.0</ele><time>2026-04-18T13:13:00.83Z</time></trkpt><trkpt lat="42.03787939926218" lon="11.87487523531307"><ele>2.25</ele><time>2026-04-18T13:13:01.83Z</time></trkpt><trkpt lat="42.03784463748072" lon="11.874698649324767"><ele>2.5</ele><time>2026-04-18T13:13:02.828Z</time></trkpt><trkpt lat="42.03780518510819" lon="11.874518652892794"><ele>2.75</ele><time>2026-04-18T13:13:03.828Z</time></trkpt><trkpt lat="42.03777562343702" lon="11.87435046745188"><ele>3.0</ele><time>2026-04-18T13:13:04.828Z</time></trkpt><trkpt lat="42.037739732740945" lon="11.874184441076144"><ele>3.0</ele><time>2026-04-18T13:13:05.828Z</time></trkpt><trkpt lat="42.03770793700809" lon="11.874017735157025"><ele>3.0</ele><time>2026-04-18T13:13:06.828Z</time></trkpt><trkpt lat="42.03767763106938" lon="11.873845915294044"><ele>3.0</ele><time>2026-04-18T13:13:07.828Z</time></trkpt><trkpt lat="42.03764704230375" lon="11.873674561240781"><ele>3.0</ele><time>2026-04-18T13:13:08.828Z</time></trkpt><trkpt lat="42.03761904751534" lon="11.87351226766072"><ele>3.0</ele><time>2026-04-18T13:13:09.827Z</time></trkpt><trkpt lat="42.03758722262496" lon="11.873355696825893"><ele>3.0</ele><time>2026-04-18T13:13:10.827Z</time></trkpt><trkpt lat="42.03756634366263" lon="11.873186314806574"><ele>3.0</ele><time>2026-04-18T13:13:11.828Z</time></trkpt><trkpt lat="42.03753608073793" lon="11.873021738228033"><ele>3.0</ele><time>2026-04-18T13:13:12.828Z</time></trkpt><trkpt lat="42.037505326720066" lon="11.872854490926361"><ele>3.0</ele><time>2026-04-18T13:13:13.828Z</time></trkpt><trkpt lat="42.037473889150164" lon="11.872685653374436"><ele>3.0</ele><time>2026-04-18T13:13:14.827Z</time></trkpt><trkpt lat="42.03744205484671" lon="11.872514760435273"><ele>3.0</ele><time>2026-04-18T13:13:15.828Z</time></trkpt><trkpt lat="42.03741030786616" lon="11.872343875934247"><ele>3.0</ele><time>2026-04-18T13:13:16.828Z</time></trkpt><trkpt lat="42.037377929058074" lon="11.872169388004265"><ele>3.0</ele><time>2026-04-18T13:13:17.828Z</time></trkpt><trkpt lat="42.03734594374019" lon="11.871993734092259"><ele>3.0</ele><time>2026-04-18T13:13:18.828Z</time></trkpt><trkpt lat="42.03731314533512" lon="11.87181640704702"><ele>3.0</ele><time>2026-04-18T13:13:19.828Z</time></trkpt><trkpt lat="42.03728102178636" lon="11.871642728695164"><ele>3.0</ele><time>2026-04-18T13:13:20.828Z</time></trkpt><trkpt lat="42.03725003682606" lon="11.871469359004934"><ele>3.0</ele><time>2026-04-18T13:13:21.828Z</time></trkpt><trkpt lat="42.037224227855745" lon="11.871297273421666"><ele>3.0</ele><time>2026-04-18T13:13:22.828Z</time></trkpt><trkpt lat="42.03719749142843" lon="11.8711238501175"><ele>3.0</ele><time>2026-04-18T13:13:23.828Z</time></trkpt><trkpt lat="42.03715997956574" lon="11.870951023441549"><ele>3.0</ele><time>2026-04-18T13:13:24.828Z</time></trkpt><trkpt lat="42.03711280139552" lon="11.870781563966997"><ele>3.75</ele><time>2026-04-18T13:13:25.828Z</time></trkpt><trkpt lat="42.03705396988514" lon="11.870620758859507"><ele>4.5</ele><time>2026-04-18T13:13:26.828Z</time></trkpt><trkpt lat="42.036984334689514" lon="11.870464246801928"><ele>5.25</ele><time>2026-04-18T13:13:27.828Z</time></trkpt><trkpt lat="42.036910397200046" lon="11.870308496066222"><ele>6.0</ele><time>2026-04-18T13:13:28.828Z</time></trkpt><trkpt lat="42.036828868595386" lon="11.870154805757316"><ele>6.75</ele><time>2026-04-18T13:13:29.828Z</time></trkpt><trkpt lat="42.036750199755346" lon="11.869998643293814"><ele>7.5</ele><time>2026-04-18T13:13:30.828Z</time></trkpt><trkpt lat="42.03667658305755" lon="11.869836591254357"><ele>8.25</ele><time>2026-04-18T13:13:31.828Z</time></trkpt><trkpt lat="42.03660183048695" lon="11.869677578192112"><ele>9.0</ele><time>2026-04-18T13:13:32.828Z</time></trkpt><trkpt lat="42.0365315325386" lon="11.869524936604815"><ele>9.0</ele><time>2026-04-18T13:13:33.828Z</time></trkpt><trkpt lat="42.03646184894747" lon="11.869380425539948"><ele>9.0</ele><time>2026-04-18T13:13:34.828Z</time></trkpt><trkpt lat="42.03640137418906" lon="11.869242875389663"><ele>9.0</ele><time>2026-04-18T13:13:35.828Z</time></trkpt><trkpt lat="42.036336017865644" lon="11.86910348747251"><ele>9.0</ele><time>2026-04-18T13:13:36.828Z</time></trkpt><trkpt lat="42.03627888136267" lon="11.868964664742172"><ele>10.75</ele><time>2026-04-18T13:13:37.827Z</time></trkpt><trkpt lat="42.03622378876002" lon="11.868821744234785"><ele>12.5</ele><time>2026-04-18T13:13:38.827Z</time></trkpt><trkpt lat="42.03616983213639" lon="11.868670418522347"><ele>14.25</ele><time>2026-04-18T13:13:39.827Z</time></trkpt><trkpt lat="42.0361173609777" lon="11.868520648159851"><ele>16.0</ele><time>2026-04-18T13:13:40.827Z</time></trkpt><trkpt lat="42.03606816880643" lon="11.868370697599108"><ele>16.8</ele><time>2026-04-18T13:13:41.827Z</time></trkpt><trkpt lat="42.0360182461187" lon="11.86822830257131"><ele>17.6</ele><time>2026-04-18T13:13:42.827Z</time></trkpt><trkpt lat="42.035978492290404" lon="11.868097604793602"><ele>18.4</ele><time>2026-04-18T13:13:43.827Z</time></trkpt><trkpt lat="42.03596277553079" lon="11.867956954737322"><ele>19.2</ele><time>2026-04-18T13:13:44.827Z</time></trkpt><trkpt lat="42.03591775738217" lon="11.867830704618402"><ele>20.0</ele><time>2026-04-18T13:13:45.827Z</time></trkpt><trkpt lat="42.03590186723321" lon="11.867690355505042"><ele>20.2</ele><time>2026-04-18T13:13:46.827Z</time></trkpt><trkpt lat="42.035871721403595" lon="11.867557993951904"><ele>20.4</ele><time>2026-04-18T13:13:47.827Z</time></trkpt><trkpt lat="42.03583968719933" lon="11.86741906422634"><ele>20.6</ele><time>2026-04-18T13:13:48.827Z</time></trkpt><trkpt lat="42.03580900260429" lon="11.867273451614707"><ele>20.8</ele><time>2026-04-18T13:13:49.827Z</time></trkpt><trkpt lat="42.035783151591424" lon="11.867129366606067"><ele>21.0</ele><time>2026-04-18T13:13:50.827Z</time></trkpt><trkpt lat="42.035737302845256" lon="11.866986850738654"><ele>21.0</ele><time>2026-04-18T13:13:51.827Z</time></trkpt><trkpt lat="42.03570526454785" lon="11.866843631011395"><ele>21.0</ele><time>2026-04-18T13:13:52.827Z</time></trkpt><trkpt lat="42.03566708839118" lon="11.866704410990467"><ele>21.0</ele><time>2026-04-18T13:13:53.827Z</time></trkpt><trkpt lat="42.0356246402969" lon="11.866565503882637"><ele>21.0</ele><time>2026-04-18T13:13:54.827Z</time></trkpt><trkpt lat="42.035615080180094" lon="11.866410126778163"><ele>21.0</ele><time>2026-04-18T13:13:55.827Z</time></trkpt><trkpt lat="42.035581411242774" lon="11.86626649207851"><ele>20.5</ele><time>2026-04-18T13:13:56.827Z</time></trkpt><trkpt lat="42.0355513831628" lon="11.866119617306586"><ele>20.0</ele><time>2026-04-18T13:13:57.827Z</time></trkpt><trkpt lat="42.0355135790576" lon="11.865969526865564"><ele>19.5</ele><time>2026-04-18T13:13:58.827Z</time></trkpt><trkpt lat="42.03548202988143" lon="11.865816419603515"><ele>19.0</ele><time>2026-04-18T13:13:59.827Z</time></trkpt><trkpt lat="42.03544553378136" lon="11.865670703142998"><ele>19.2</ele><time>2026-04-18T13:14:00.827Z</time></trkpt><trkpt lat="42.0354171880892" lon="11.86553180322756"><ele>19.4</ele><time>2026-04-18T13:14:01.827Z</time></trkpt><trkpt lat="42.03539035665425" lon="11.86540163763458"><ele>19.6</ele><time>2026-04-18T13:14:02.827Z</time></trkpt><trkpt lat="42.03536254801063" lon="11.865271693379725"><ele>19.8</ele><time>2026-04-18T13:14:03.827Z</time></trkpt><trkpt lat="42.03533622908494" lon="11.865150280592612"><ele>20.0</ele><time>2026-04-18T13:14:04.827Z</time></trkpt><trkpt lat="42.03530826599334" lon="11.865030108599411"><ele>20.0</ele><time>2026-04-18T13:14:05.827Z</time></trkpt><trkpt lat="42.03527386345788" lon="11.864900342863933"><ele>20.0</ele><time>2026-04-18T13:14:06.827Z</time></trkpt><trkpt lat="42.03524996086127" lon="11.864764474817813"><ele>20.0</ele><time>2026-04-18T13:14:07.827Z</time></trkpt><trkpt lat="42.0352237518945" lon="11.864631314254458"><ele>20.0</ele><time>2026-04-18T13:14:08.827Z</time></trkpt><trkpt lat="42.03523106980452" lon="11.864486538549519"><ele>20.0</ele><time>2026-04-18T13:14:09.827Z</time></trkpt><trkpt lat="42.03520945746725" lon="11.864358974310168"><ele>20.166666666666668</ele><time>2026-04-18T13:14:10.827Z</time></trkpt><trkpt lat="42.03518622396778" lon="11.864237690816156"><ele>20.333333333333336</ele><time>2026-04-18T13:14:11.827Z</time></trkpt><trkpt lat="42.03516057962572" lon="11.864116787108888"><ele>20.5</ele><time>2026-04-18T13:14:12.827Z</time></trkpt><trkpt lat="42.035137864613866" lon="11.864011024701597"><ele>20.666666666666668</ele><time>2026-04-18T13:14:13.827Z</time></trkpt><trkpt lat="42.03511548015508" lon="11.863913331591492"><ele>20.833333333333332</ele><time>2026-04-18T13:14:14.827Z</time></trkpt><trkpt lat="42.035096124543614" lon="11.863830800742853"><ele>21.0</ele><time>2026-04-18T13:14:15.827Z</time></trkpt><trkpt lat="42.03508121641313" lon="11.863745351082926"><ele>21.0</ele><time>2026-04-18T13:14:16.827Z</time></trkpt><trkpt lat="42.03506384558148" lon="11.863607499515101"><ele>21.0</ele><time>2026-04-18T13:14:18.827Z</time></trkpt><trkpt lat="42.035041709851086" lon="11.86348531022682"><ele>21.0</ele><time>2026-04-18T13:14:20.827Z</time></trkpt><trkpt lat="42.035004280716244" lon="11.863337680196222"><ele>21.0</ele><time>2026-04-18T13:14:22.827Z</time></trkpt><trkpt lat="42.03496275491538" lon="11.86317200921208"><ele>21.0</ele><time>2026-04-18T13:14:24.827Z</time></trkpt><trkpt lat="42.03494525835378" lon="11.863067288956312"><ele>19.5</ele><time>2026-04-18T13:14:25.827Z</time></trkpt><trkpt lat="42.034927812134924" lon="11.862962535892612"><ele>18.0</ele><time>2026-04-18T13:14:26.827Z</time></trkpt><trkpt lat="42.03491112774073" lon="11.862858223291383"><ele>16.5</ele><time>2026-04-18T13:14:27.827Z</time></trkpt><trkpt lat="42.0348908677434" lon="11.862746277090801"><ele>15.0</ele><time>2026-04-18T13:14:28.827Z</time></trkpt><trkpt lat="42.03489640095181" lon="11.86262904017448"><ele>13.5</ele><time>2026-04-18T13:14:29.827Z</time></trkpt><trkpt lat="42.03487752852181" lon="11.862523027745711"><ele>12.0</ele><time>2026-04-18T13:14:30.827Z</time></trkpt><trkpt lat="42.03485738379719" lon="11.862423400049119"><ele>10.666666666666666</ele><time>2026-04-18T13:14:31.827Z</time></trkpt><trkpt lat="42.03483336673753" lon="11.862325558477245"><ele>9.333333333333334</ele><time>2026-04-18T13:14:32.827Z</time></trkpt><trkpt lat="42.034808165615594" lon="11.862232118165558"><ele>8.0</ele><time>2026-04-18T13:14:33.827Z</time></trkpt><trkpt lat="42.03478828830232" lon="11.862137908991764"><ele>6.666666666666666</ele><time>2026-04-18T13:14:34.827Z</time></trkpt><trkpt lat="42.03476661385427" lon="11.86203876452109"><ele>5.333333333333333</ele><time>2026-04-18T13:14:35.827Z</time></trkpt><trkpt lat="42.034770474942995" lon="11.861922216569473"><ele>4.0</ele><time>2026-04-18T13:14:36.827Z</time></trkpt><trkpt lat="42.03475302796122" lon="11.861813363028293"><ele>3.6666666666666665</ele><time>2026-04-18T13:14:37.827Z</time></trkpt><trkpt lat="42.03474670257569" lon="11.861712208606987"><ele>3.333333333333333</ele><time>2026-04-18T13:14:38.827Z</time></trkpt><trkpt lat="42.034741196474506" lon="11.861596950217868"><ele>3.0</ele><time>2026-04-18T13:14:39.827Z</time></trkpt><trkpt lat="42.03472973404125" lon="11.861477939697451"><ele>2.6666666666666665</ele><time>2026-04-18T13:14:40.827Z</time></trkpt><trkpt lat="42.03470802936443" lon="11.861368359090003"><ele>2.333333333333333</ele><time>2026-04-18T13:14:41.827Z</time></trkpt><trkpt lat="42.03469295128002" lon="11.8612519254953"><ele>2.0</ele><time>2026-04-18T13:14:42.827Z</time></trkpt><trkpt lat="42.034677391905674" lon="11.861117916954848"><ele>2.0</ele><time>2026-04-18T13:14:43.827Z</time></trkpt><trkpt lat="42.034663270512745" lon="11.860991010565675"><ele>2.0</ele><time>2026-04-18T13:14:44.827Z</time></trkpt><trkpt lat="42.03465350199291" lon="11.860845950867287"><ele>2.0</ele><time>2026-04-18T13:14:45.827Z</time></trkpt><trkpt lat="42.03463380681029" lon="11.860693977819098"><ele>2.0</ele><time>2026-04-18T13:14:46.827Z</time></trkpt><trkpt lat="42.0346124847995" lon="11.860536965418545"><ele>2.0</ele><time>2026-04-18T13:14:47.826Z</time></trkpt><trkpt lat="42.03458814561772" lon="11.860379688215033"><ele>2.0</ele><time>2026-04-18T13:14:48.826Z</time></trkpt><trkpt lat="42.03459140113952" lon="11.860206061554289"><ele>2.0</ele><time>2026-04-18T13:14:49.826Z</time></trkpt><trkpt lat="42.03458379045566" lon="11.860035019518307"><ele>2.0</ele><time>2026-04-18T13:14:50.826Z</time></trkpt><trkpt lat="42.034572198992386" lon="11.85985609963094"><ele>2.0</ele><time>2026-04-18T13:14:51.826Z</time></trkpt><trkpt lat="42.03455260461927" lon="11.859674419275777"><ele>2.0</ele><time>2026-04-18T13:14:52.826Z</time></trkpt><trkpt lat="42.03452816933759" lon="11.859490707924861"><ele>2.0</ele><time>2026-04-18T13:14:53.826Z</time></trkpt><trkpt lat="42.0345023091003" lon="11.85930697590987"><ele>2.0</ele><time>2026-04-18T13:14:54.826Z</time></trkpt><trkpt lat="42.03447967764768" lon="11.859117997586763"><ele>2.0</ele><time>2026-04-18T13:14:55.826Z</time></trkpt><trkpt lat="42.03445384659359" lon="11.858928628487119"><ele>2.0</ele><time>2026-04-18T13:14:56.826Z</time></trkpt><trkpt lat="42.03443034492926" lon="11.858737956575386"><ele>2.0</ele><time>2026-04-18T13:14:57.826Z</time></trkpt><trkpt lat="42.03439854700445" lon="11.858549089575801"><ele>2.0</ele><time>2026-04-18T13:14:58.826Z</time></trkpt><trkpt lat="42.03435951318028" lon="11.858362913115412"><ele>2.0</ele><time>2026-04-18T13:14:59.826Z</time></trkpt><trkpt lat="42.034312771862766" lon="11.858175730279886"><ele>2.25</ele><time>2026-04-18T13:15:00.826Z</time></trkpt><trkpt lat="42.034264943603006" lon="11.857985275178713"><ele>2.5</ele><time>2026-04-18T13:15:01.826Z</time></trkpt><trkpt lat="42.0342171131943" lon="11.85779815823915"><ele>2.75</ele><time>2026-04-18T13:15:02.826Z</time></trkpt><trkpt lat="42.03417186965229" lon="11.857614565971096"><ele>3.0</ele><time>2026-04-18T13:15:03.826Z</time></trkpt><trkpt lat="42.034130293732126" lon="11.857456061404896"><ele>2.25</ele><time>2026-04-18T13:15:04.826Z</time></trkpt><trkpt lat="42.03409335415529" lon="11.85729668995393"><ele>1.5</ele><time>2026-04-18T13:15:05.826Z</time></trkpt><trkpt lat="42.034052918044075" lon="11.857137046837227"><ele>0.75</ele><time>2026-04-18T13:15:06.826Z</time></trkpt><trkpt lat="42.034013681644225" lon="11.856967087832887"><ele>0.0</ele><time>2026-04-18T13:15:07.826Z</time></trkpt><trkpt lat="42.03397306078104" lon="11.856792335804217"><ele>0.5</ele><time>2026-04-18T13:15:08.824Z</time></trkpt><trkpt lat="42.03392394689345" lon="11.856617422417928"><ele>1.0</ele><time>2026-04-18T13:15:09.824Z</time></trkpt><trkpt lat="42.03388216232798" lon="11.85644089716909"><ele>1.5</ele><time>2026-04-18T13:15:10.824Z</time></trkpt><trkpt lat="42.033844898328994" lon="11.85626350573106"><ele>2.0</ele><time>2026-04-18T13:15:11.824Z</time></trkpt><trkpt lat="42.03380625337688" lon="11.856091001696091"><ele>2.5</ele><time>2026-04-18T13:15:12.824Z</time></trkpt><trkpt lat="42.03376910362882" lon="11.8559201373564"><ele>3.0</ele><time>2026-04-18T13:15:13.824Z</time></trkpt><trkpt lat="42.03374029414551" lon="11.85574864494229"><ele>3.5</ele><time>2026-04-18T13:15:14.824Z</time></trkpt><trkpt lat="42.0337153358363" lon="11.855567977299447"><ele>4.0</ele><time>2026-04-18T13:15:15.824Z</time></trkpt><trkpt lat="42.0336916038707" lon="11.855389990794341"><ele>4.0</ele><time>2026-04-18T13:15:16.824Z</time></trkpt><trkpt lat="42.033682137482394" lon="11.855204347509655"><ele>4.0</ele><time>2026-04-18T13:15:17.823Z</time></trkpt><trkpt lat="42.03365964141681" lon="11.855020559406992"><ele>4.0</ele><time>2026-04-18T13:15:18.824Z</time></trkpt><trkpt lat="42.033637681054216" lon="11.854841147748543"><ele>4.0</ele><time>2026-04-18T13:15:19.824Z</time></trkpt><trkpt lat="42.0336150045573" lon="11.854655885325982"><ele>4.75</ele><time>2026-04-18T13:15:20.824Z</time></trkpt><trkpt lat="42.03359357940939" lon="11.854480846370537"><ele>5.5</ele><time>2026-04-18T13:15:21.824Z</time></trkpt><trkpt lat="42.03357220950055" lon="11.85430625827505"><ele>6.25</ele><time>2026-04-18T13:15:22.824Z</time></trkpt><trkpt lat="42.03355085770527" lon="11.854130483671039"><ele>7.0</ele><time>2026-04-18T13:15:23.824Z</time></trkpt><trkpt lat="42.03352886238446" lon="11.853955999380425"><ele>7.25</ele><time>2026-04-18T13:15:24.824Z</time></trkpt><trkpt lat="42.033506682156826" lon="11.853781810126387"><ele>7.5</ele><time>2026-04-18T13:15:25.824Z</time></trkpt><trkpt lat="42.03348442852694" lon="11.853607044570671"><ele>7.75</ele><time>2026-04-18T13:15:26.824Z</time></trkpt><trkpt lat="42.03346101643371" lon="11.853423181334229"><ele>8.0</ele><time>2026-04-18T13:15:27.824Z</time></trkpt><trkpt lat="42.03343967205547" lon="11.85324685367657"><ele>8.75</ele><time>2026-04-18T13:15:28.824Z</time></trkpt><trkpt lat="42.03341937748095" lon="11.853078797460771"><ele>9.5</ele><time>2026-04-18T13:15:29.824Z</time></trkpt><trkpt lat="42.033400315161806" lon="11.852920946041245"><ele>10.25</ele><time>2026-04-18T13:15:30.824Z</time></trkpt><trkpt lat="42.0333821777334" lon="11.85277075250453"><ele>11.0</ele><time>2026-04-18T13:15:31.824Z</time></trkpt><trkpt lat="42.033363637517276" lon="11.852617224262856"><ele>11.600000000000001</ele><time>2026-04-18T13:15:32.824Z</time></trkpt><trkpt lat="42.03332971032401" lon="11.8524717087021"><ele>12.2</ele><time>2026-04-18T13:15:33.824Z</time></trkpt><trkpt lat="42.03332850859446" lon="11.852318308444628"><ele>12.799999999999999</ele><time>2026-04-18T13:15:34.824Z</time></trkpt><trkpt lat="42.033306742867914" lon="11.852172962449846"><ele>13.399999999999999</ele><time>2026-04-18T13:15:35.824Z</time></trkpt><trkpt lat="42.03330239839716" lon="11.85202746100993"><ele>14.0</ele><time>2026-04-18T13:15:36.824Z</time></trkpt><trkpt lat="42.03327738564748" lon="11.851890398561629"><ele>13.0</ele><time>2026-04-18T13:15:37.824Z</time></trkpt><trkpt lat="42.033261804109664" lon="11.851745163918517"><ele>11.999999999999998</ele><time>2026-04-18T13:15:38.824Z</time></trkpt><trkpt lat="42.033246945927125" lon="11.85160220951078"><ele>11.0</ele><time>2026-04-18T13:15:39.824Z</time></trkpt><trkpt lat="42.03322302961462" lon="11.85145356514844"><ele>10.0</ele><time>2026-04-18T13:15:40.824Z</time></trkpt><trkpt lat="42.03318937274799" lon="11.851301338698674"><ele>9.0</ele><time>2026-04-18T13:15:41.824Z</time></trkpt><trkpt lat="42.0331664557121" lon="11.85114229902118"><ele>9.0</ele><time>2026-04-18T13:15:42.824Z</time></trkpt><trkpt lat="42.03313706047051" lon="11.85098372652637"><ele>9.0</ele><time>2026-04-18T13:15:43.824Z</time></trkpt><trkpt lat="42.03311232433355" lon="11.850822190698532"><ele>9.0</ele><time>2026-04-18T13:15:44.824Z</time></trkpt><trkpt lat="42.03308360286211" lon="11.850663114391999"><ele>9.0</ele><time>2026-04-18T13:15:45.824Z</time></trkpt><trkpt lat="42.033054254238436" lon="11.850498042488665"><ele>8.75</ele><time>2026-04-18T13:15:46.824Z</time></trkpt><trkpt lat="42.03302127483701" lon="11.850327785254834"><ele>8.5</ele><time>2026-04-18T13:15:47.824Z</time></trkpt><trkpt lat="42.032989455948446" lon="11.850152259473512"><ele>8.25</ele><time>2026-04-18T13:15:48.824Z</time></trkpt><trkpt lat="42.032961174282775" lon="11.849968817695169"><ele>8.0</ele><time>2026-04-18T13:15:49.824Z</time></trkpt><trkpt lat="42.03293273161311" lon="11.849785272834222"><ele>7.75</ele><time>2026-04-18T13:15:50.824Z</time></trkpt><trkpt lat="42.03289979901803" lon="11.84960534006135"><ele>7.5</ele><time>2026-04-18T13:15:51.824Z</time></trkpt><trkpt lat="42.032862079368385" lon="11.849417024860932"><ele>7.25</ele><time>2026-04-18T13:15:52.824Z</time></trkpt><trkpt lat="42.03285724586005" lon="11.849223981935834"><ele>7.0</ele><time>2026-04-18T13:15:53.824Z</time></trkpt><trkpt lat="42.0328268076326" lon="11.849038422511176"><ele>7.0</ele><time>2026-04-18T13:15:54.824Z</time></trkpt><trkpt lat="42.03279442324368" lon="11.84886568798608"><ele>7.0</ele><time>2026-04-18T13:15:55.824Z</time></trkpt><trkpt lat="42.03276397395594" lon="11.848689477031499"><ele>7.0</ele><time>2026-04-18T13:15:56.824Z</time></trkpt><trkpt lat="42.03273008225626" lon="11.848506664469811"><ele>7.0</ele><time>2026-04-18T13:15:57.823Z</time></trkpt><trkpt lat="42.03270145241805" lon="11.848335924804108"><ele>7.199999999999999</ele><time>2026-04-18T13:15:58.823Z</time></trkpt><trkpt lat="42.03267846252997" lon="11.84817851409557"><ele>7.3999999999999995</ele><time>2026-04-18T13:15:59.823Z</time></trkpt><trkpt lat="42.03265856444028" lon="11.848038927898203"><ele>7.6000000000000005</ele><time>2026-04-18T13:16:00.823Z</time></trkpt><trkpt lat="42.03264040273524" lon="11.847915631537365"><ele>7.800000000000001</ele><time>2026-04-18T13:16:01.823Z</time></trkpt><trkpt lat="42.03262321461323" lon="11.847800361558841"><ele>8.0</ele><time>2026-04-18T13:16:02.823Z</time></trkpt><trkpt lat="42.03260699375286" lon="11.84770021601851"><ele>7.800000000000001</ele><time>2026-04-18T13:16:03.823Z</time></trkpt><trkpt lat="42.03257637656096" lon="11.847550401557584"><ele>7.6000000000000005</ele><time>2026-04-18T13:16:05.823Z</time></trkpt><trkpt lat="42.032552609071075" lon="11.847428043087124"><ele>7.3999999999999995</ele><time>2026-04-18T13:16:07.823Z</time></trkpt><trkpt lat="42.03251396825769" lon="11.84733368818122"><ele>7.199999999999999</ele><time>2026-04-18T13:16:28.823Z</time></trkpt><trkpt lat="42.032500110077784" lon="11.847195145103974"><ele>7.0</ele><time>2026-04-18T13:16:30.823Z</time></trkpt><trkpt lat="42.0324842940955" lon="11.847101598003785"><ele>6.8</ele><time>2026-04-18T13:16:31.823Z</time></trkpt><trkpt lat="42.03246567183594" lon="11.846998231180633"><ele>6.6</ele><time>2026-04-18T13:16:32.823Z</time></trkpt><trkpt lat="42.03243114913677" lon="11.846891263202696"><ele>6.3999999999999995</ele><time>2026-04-18T13:16:33.823Z</time></trkpt><trkpt lat="42.03241160711854" lon="11.846767635619482"><ele>6.199999999999999</ele><time>2026-04-18T13:16:34.823Z</time></trkpt><trkpt lat="42.032390966762186" lon="11.846637453839707"><ele>6.0</ele><time>2026-04-18T13:16:35.823Z</time></trkpt><trkpt lat="42.03237492616464" lon="11.846506850054906"><ele>6.0</ele><time>2026-04-18T13:16:36.823Z</time></trkpt><trkpt lat="42.03234990611624" lon="11.846371586665713"><ele>6.0</ele><time>2026-04-18T13:16:37.823Z</time></trkpt><trkpt lat="42.032324521073846" lon="11.846228636592498"><ele>6.0</ele><time>2026-04-18T13:16:38.823Z</time></trkpt><trkpt lat="42.0322966289646" lon="11.846079464102136"><ele>6.0</ele><time>2026-04-18T13:16:39.823Z</time></trkpt><trkpt lat="42.032270916483384" lon="11.845928015948557"><ele>6.0</ele><time>2026-04-18T13:16:40.823Z</time></trkpt><trkpt lat="42.03224239874072" lon="11.84577734022583"><ele>6.25</ele><time>2026-04-18T13:16:41.823Z</time></trkpt><trkpt lat="42.032233843412556" lon="11.845620867847545"><ele>6.5</ele><time>2026-04-18T13:16:42.823Z</time></trkpt><trkpt lat="42.03220859762487" lon="11.845462435986027"><ele>6.75</ele><time>2026-04-18T13:16:43.823Z</time></trkpt><trkpt lat="42.03218379915009" lon="11.8453010294399"><ele>7.0</ele><time>2026-04-18T13:16:44.823Z</time></trkpt><trkpt lat="42.03215417379494" lon="11.845136493345116"><ele>7.5</ele><time>2026-04-18T13:16:45.823Z</time></trkpt><trkpt lat="42.032129624778435" lon="11.844966414603812"><ele>8.0</ele><time>2026-04-18T13:16:46.823Z</time></trkpt><trkpt lat="42.03211580914802" lon="11.844788036981633"><ele>8.5</ele><time>2026-04-18T13:16:47.823Z</time></trkpt><trkpt lat="42.032113641182505" lon="11.844609420809181"><ele>9.0</ele><time>2026-04-18T13:16:48.823Z</time></trkpt><trkpt lat="42.0321287312404" lon="11.844433033259586"><ele>9.0</ele><time>2026-04-18T13:16:49.823Z</time></trkpt><trkpt lat="42.03214876827528" lon="11.844257949684609"><ele>9.0</ele><time>2026-04-18T13:16:50.823Z</time></trkpt><trkpt lat="42.03215918254697" lon="11.844075593016589"><ele>9.0</ele><time>2026-04-18T13:16:51.823Z</time></trkpt><trkpt lat="42.03217081215694" lon="11.843900007861773"><ele>9.0</ele><time>2026-04-18T13:16:52.823Z</time></trkpt><trkpt lat="42.03218433395191" lon="11.843720615163754"><ele>9.0</ele><time>2026-04-18T13:16:53.823Z</time></trkpt><trkpt lat="42.03219509842208" lon="11.843542365034315"><ele>9.0</ele><time>2026-04-18T13:16:54.823Z</time></trkpt><trkpt lat="42.03221031759207" lon="11.843361257137905"><ele>9.0</ele><time>2026-04-18T13:16:55.823Z</time></trkpt><trkpt lat="42.03222075609394" lon="11.84318231197798"><ele>9.0</ele><time>2026-04-18T13:16:56.823Z</time></trkpt><trkpt lat="42.032240077893405" lon="11.842999545744314"><ele>9.0</ele><time>2026-04-18T13:16:57.823Z</time></trkpt><trkpt lat="42.03225225865911" lon="11.842820813721"><ele>9.0</ele><time>2026-04-18T13:16:58.823Z</time></trkpt><trkpt lat="42.032268250339726" lon="11.842637886771307"><ele>9.0</ele><time>2026-04-18T13:16:59.823Z</time></trkpt><trkpt lat="42.032274532029724" lon="11.842460292972358"><ele>9.0</ele><time>2026-04-18T13:17:00.823Z</time></trkpt><trkpt lat="42.03228510542754" lon="11.842307484857836"><ele>9.0</ele><time>2026-04-18T13:17:01.823Z</time></trkpt><trkpt lat="42.032302240197" lon="11.842165895149925"><ele>9.0</ele><time>2026-04-18T13:17:02.822Z</time></trkpt><trkpt lat="42.03231726068631" lon="11.842034386379344"><ele>9.0</ele><time>2026-04-18T13:17:03.822Z</time></trkpt><trkpt lat="42.0323235339417" lon="11.841898188818805"><ele>9.0</ele><time>2026-04-18T13:17:04.822Z</time></trkpt><trkpt lat="42.03233102745664" lon="11.841767739153646"><ele>9.0</ele><time>2026-04-18T13:17:05.822Z</time></trkpt><trkpt lat="42.032341318491284" lon="11.841658662598983"><ele>9.166666666666666</ele><time>2026-04-18T13:17:06.822Z</time></trkpt><trkpt lat="42.03234467207558" lon="11.841553551434819"><ele>9.333333333333334</ele><time>2026-04-18T13:17:07.822Z</time></trkpt><trkpt lat="42.0323737181975" lon="11.841471550850153"><ele>9.5</ele><time>2026-04-18T13:17:08.822Z</time></trkpt><trkpt lat="42.03237650762316" lon="11.84138356141297"><ele>9.666666666666668</ele><time>2026-04-18T13:17:09.822Z</time></trkpt><trkpt lat="42.03238523419783" lon="11.841256366748661"><ele>9.833333333333334</ele><time>2026-04-18T13:17:11.822Z</time></trkpt><trkpt lat="42.03238506686691" lon="11.841141489706073"><ele>10.0</ele><time>2026-04-18T13:17:49.82Z</time></trkpt><trkpt lat="42.03240133956928" lon="11.840969874973487"><ele>10.2</ele><time>2026-04-18T13:17:51.82Z</time></trkpt><trkpt lat="42.032412054144494" lon="11.840856879668264"><ele>10.4</ele><time>2026-04-18T13:17:52.82Z</time></trkpt><trkpt lat="42.03238870352876" lon="11.840736620561344"><ele>10.600000000000001</ele><time>2026-04-18T13:17:53.82Z</time></trkpt><trkpt lat="42.03239795290185" lon="11.840606911849418"><ele>10.8</ele><time>2026-04-18T13:17:54.82Z</time></trkpt><trkpt lat="42.03241979035109" lon="11.840473987535125"><ele>11.0</ele><time>2026-04-18T13:17:55.82Z</time></trkpt><trkpt lat="42.032443393615885" lon="11.840327795455517"><ele>12.0</ele><time>2026-04-18T13:17:56.819Z</time></trkpt><trkpt lat="42.032494375115526" lon="11.840180664021071"><ele>13.0</ele><time>2026-04-18T13:17:57.819Z</time></trkpt><trkpt lat="42.0325178963464" lon="11.840020842935536"><ele>14.0</ele><time>2026-04-18T13:17:58.819Z</time></trkpt><trkpt lat="42.03252655565291" lon="11.839851368016571"><ele>15.0</ele><time>2026-04-18T13:17:59.819Z</time></trkpt><trkpt lat="42.032555654427696" lon="11.839687636715071"><ele>15.25</ele><time>2026-04-18T13:18:00.819Z</time></trkpt><trkpt lat="42.03258716847676" lon="11.839524133685433"><ele>15.5</ele><time>2026-04-18T13:18:01.819Z</time></trkpt><trkpt lat="42.03263096443481" lon="11.839354909210693"><ele>15.75</ele><time>2026-04-18T13:18:02.819Z</time></trkpt><trkpt lat="42.03266591061872" lon="11.839176618710077"><ele>16.0</ele><time>2026-04-18T13:18:03.819Z</time></trkpt><trkpt lat="42.032692088693224" lon="11.838990024544875"><ele>16.666666666666664</ele><time>2026-04-18T13:18:04.819Z</time></trkpt><trkpt lat="42.03274003842049" lon="11.838802631378305"><ele>17.333333333333332</ele><time>2026-04-18T13:18:05.819Z</time></trkpt><trkpt lat="42.03278632414708" lon="11.838608055191992"><ele>18.0</ele><time>2026-04-18T13:18:06.819Z</time></trkpt><trkpt lat="42.03283057230649" lon="11.838409109225834"><ele>18.0</ele><time>2026-04-18T13:18:07.819Z</time></trkpt><trkpt lat="42.03288167059459" lon="11.838207353428507"><ele>18.0</ele><time>2026-04-18T13:18:08.819Z</time></trkpt><trkpt lat="42.03294467704637" lon="11.838022854317419"><ele>18.0</ele><time>2026-04-18T13:18:09.819Z</time></trkpt><trkpt lat="42.03301105002071" lon="11.837845696312375"><ele>18.0</ele><time>2026-04-18T13:18:10.819Z</time></trkpt><trkpt lat="42.03307445819607" lon="11.837661994106217"><ele>18.0</ele><time>2026-04-18T13:18:11.819Z</time></trkpt><trkpt lat="42.03314318441563" lon="11.837476542094757"><ele>18.0</ele><time>2026-04-18T13:18:12.819Z</time></trkpt><trkpt lat="42.033207894516195" lon="11.837295405286058"><ele>17.75</ele><time>2026-04-18T13:18:13.819Z</time></trkpt><trkpt lat="42.03327212087539" lon="11.83712933812811"><ele>17.5</ele><time>2026-04-18T13:18:14.819Z</time></trkpt><trkpt lat="42.03332838960111" lon="11.83697486303524"><ele>17.25</ele><time>2026-04-18T13:18:15.819Z</time></trkpt><trkpt lat="42.033410554443904" lon="11.836837146278524"><ele>17.0</ele><time>2026-04-18T13:18:16.819Z</time></trkpt><trkpt lat="42.033482563917026" lon="11.836676444338597"><ele>16.333333333333336</ele><time>2026-04-18T13:18:17.819Z</time></trkpt><trkpt lat="42.033546253742564" lon="11.836501868128055"><ele>15.666666666666668</ele><time>2026-04-18T13:18:18.819Z</time></trkpt><trkpt lat="42.0336387501945" lon="11.836334047130974"><ele>15.0</ele><time>2026-04-18T13:18:19.819Z</time></trkpt><trkpt lat="42.033728078499635" lon="11.836154911492281"><ele>15.0</ele><time>2026-04-18T13:18:20.819Z</time></trkpt><trkpt lat="42.033821541838385" lon="11.835975535158502"><ele>15.0</ele><time>2026-04-18T13:18:21.819Z</time></trkpt><trkpt lat="42.0339161136803" lon="11.835794067519844"><ele>15.0</ele><time>2026-04-18T13:18:22.819Z</time></trkpt><trkpt lat="42.03401134254569" lon="11.835619453695136"><ele>14.333333333333332</ele><time>2026-04-18T13:18:23.819Z</time></trkpt><trkpt lat="42.034114010775056" lon="11.835430727086402"><ele>13.666666666666666</ele><time>2026-04-18T13:18:24.819Z</time></trkpt><trkpt lat="42.034220367002945" lon="11.835244356393604"><ele>13.0</ele><time>2026-04-18T13:18:25.819Z</time></trkpt><trkpt lat="42.034330861129966" lon="11.835059802117723"><ele>12.0</ele><time>2026-04-18T13:18:26.819Z</time></trkpt><trkpt lat="42.03444379582445" lon="11.83487895669282"><ele>11.0</ele><time>2026-04-18T13:18:27.819Z</time></trkpt><trkpt lat="42.034548600024536" lon="11.834699012758538"><ele>10.0</ele><time>2026-04-18T13:18:28.819Z</time></trkpt><trkpt lat="42.034666134687434" lon="11.834521088638116"><ele>10.0</ele><time>2026-04-18T13:18:29.819Z</time></trkpt><trkpt lat="42.034779257455895" lon="11.834360483112055"><ele>10.0</ele><time>2026-04-18T13:18:30.819Z</time></trkpt><trkpt lat="42.034888888038665" lon="11.834195176920877"><ele>10.0</ele><time>2026-04-18T13:18:31.819Z</time></trkpt><trkpt lat="42.03500234828792" lon="11.834020985774542"><ele>9.0</ele><time>2026-04-18T13:18:32.819Z</time></trkpt><trkpt lat="42.0351348480031" lon="11.833860524762176"><ele>8.0</ele><time>2026-04-18T13:18:33.819Z</time></trkpt><trkpt lat="42.03525057285836" lon="11.833682685868895"><ele>7.0</ele><time>2026-04-18T13:18:34.819Z</time></trkpt><trkpt lat="42.03539154182439" lon="11.833553415555764"><ele>6.0</ele><time>2026-04-18T13:18:35.819Z</time></trkpt><trkpt lat="42.03552623064159" lon="11.833402922145604"><ele>5.0</ele><time>2026-04-18T13:18:36.819Z</time></trkpt><trkpt lat="42.03568313148542" lon="11.833302666834502"><ele>4.0</ele><time>2026-04-18T13:18:37.819Z</time></trkpt><trkpt lat="42.035851380012765" lon="11.833230176608225"><ele>4.0</ele><time>2026-04-18T13:18:38.819Z</time></trkpt><trkpt lat="42.03602404695388" lon="11.83318242069334"><ele>4.0</ele><time>2026-04-18T13:18:39.819Z</time></trkpt><trkpt lat="42.03619282676628" lon="11.833153928356444"><ele>4.0</ele><time>2026-04-18T13:18:40.819Z</time></trkpt><trkpt lat="42.03635890175421" lon="11.833127413074703"><ele>4.0</ele><time>2026-04-18T13:18:41.819Z</time></trkpt><trkpt lat="42.03652420994559" lon="11.83308999767199"><ele>4.0</ele><time>2026-04-18T13:18:42.819Z</time></trkpt><trkpt lat="42.03669847855803" lon="11.833041250526975"><ele>4.0</ele><time>2026-04-18T13:18:43.819Z</time></trkpt><trkpt lat="42.03687049644885" lon="11.832996975212666"><ele>4.333333333333333</ele><time>2026-04-18T13:18:44.819Z</time></trkpt><trkpt lat="42.03703427891725" lon="11.832955484056871"><ele>4.666666666666667</ele><time>2026-04-18T13:18:45.819Z</time></trkpt><trkpt lat="42.03719652264876" lon="11.832903759561905"><ele>5.0</ele><time>2026-04-18T13:18:46.819Z</time></trkpt><trkpt lat="42.03735920525791" lon="11.832834972735528"><ele>5.333333333333334</ele><time>2026-04-18T13:18:47.819Z</time></trkpt><trkpt lat="42.03752288745504" lon="11.832744385865068"><ele>5.666666666666667</ele><time>2026-04-18T13:18:48.819Z</time></trkpt><trkpt lat="42.03768505429005" lon="11.83264080090605"><ele>6.0</ele><time>2026-04-18T13:18:49.819Z</time></trkpt><trkpt lat="42.03783943509071" lon="11.832524607874591"><ele>4.333333333333333</ele><time>2026-04-18T13:18:50.819Z</time></trkpt><trkpt lat="42.03800240015275" lon="11.832391263662684"><ele>2.6666666666666665</ele><time>2026-04-18T13:18:51.819Z</time></trkpt><trkpt lat="42.038146197496985" lon="11.832248757750401"><ele>1.0</ele><time>2026-04-18T13:18:52.819Z</time></trkpt><trkpt lat="42.038286741975845" lon="11.832091642776783"><ele>1.3333333333333333</ele><time>2026-04-18T13:18:53.819Z</time></trkpt><trkpt lat="42.03842046453098" lon="11.831928108917996"><ele>1.6666666666666665</ele><time>2026-04-18T13:18:54.819Z</time></trkpt><trkpt lat="42.03854324989568" lon="11.831748769920674"><ele>2.0</ele><time>2026-04-18T13:18:55.819Z</time></trkpt><trkpt lat="42.03865586201116" lon="11.831566575240084"><ele>2.0</ele><time>2026-04-18T13:18:56.819Z</time></trkpt><trkpt lat="42.03876297000701" lon="11.831386915526794"><ele>2.0</ele><time>2026-04-18T13:18:57.819Z</time></trkpt><trkpt lat="42.03886538320651" lon="11.831204345180888"><ele>2.0</ele><time>2026-04-18T13:18:58.819Z</time></trkpt><trkpt lat="42.038970987864424" lon="11.831021492309281"><ele>2.0</ele><time>2026-04-18T13:18:59.819Z</time></trkpt><trkpt lat="42.039074506487054" lon="11.830833328722244"><ele>2.0</ele><time>2026-04-18T13:19:00.819Z</time></trkpt><trkpt lat="42.039185103711254" lon="11.83063935851416"><ele>2.0</ele><time>2026-04-18T13:19:01.819Z</time></trkpt><trkpt lat="42.03929493772972" lon="11.830447238576285"><ele>2.0</ele><time>2026-04-18T13:19:02.819Z</time></trkpt><trkpt lat="42.039399883279145" lon="11.830256921636963"><ele>2.0</ele><time>2026-04-18T13:19:03.819Z</time></trkpt><trkpt lat="42.03950811922504" lon="11.830068598881441"><ele>2.0</ele><time>2026-04-18T13:19:04.819Z</time></trkpt><trkpt lat="42.03961054561074" lon="11.82988983865844"><ele>1.3333333333333333</ele><time>2026-04-18T13:19:05.819Z</time></trkpt><trkpt lat="42.03970758362105" lon="11.829719191965637"><ele>0.6666666666666666</ele><time>2026-04-18T13:19:06.818Z</time></trkpt><trkpt lat="42.03980209153049" lon="11.82956242536135"><ele>0.0</ele><time>2026-04-18T13:19:07.818Z</time></trkpt><trkpt lat="42.03990212711895" lon="11.829406015122515"><ele>0.3333333333333333</ele><time>2026-04-18T13:19:08.818Z</time></trkpt><trkpt lat="42.04002905860032" lon="11.829290176266431"><ele>0.6666666666666666</ele><time>2026-04-18T13:19:09.818Z</time></trkpt><trkpt lat="42.04015415971715" lon="11.82915467024265"><ele>1.0</ele><time>2026-04-18T13:19:10.818Z</time></trkpt><trkpt lat="42.04029664622834" lon="11.829046780777304"><ele>1.0</ele><time>2026-04-18T13:19:11.818Z</time></trkpt><trkpt lat="42.04044138681222" lon="11.828933669370427"><ele>1.0</ele><time>2026-04-18T13:19:12.818Z</time></trkpt><trkpt lat="42.04057920426581" lon="11.82881997556697"><ele>1.0</ele><time>2026-04-18T13:19:13.818Z</time></trkpt><trkpt lat="42.040719782333134" lon="11.828712669141371"><ele>1.0</ele><time>2026-04-18T13:19:14.818Z</time></trkpt><trkpt lat="42.04086669186047" lon="11.82860062566587"><ele>1.0</ele><time>2026-04-18T13:19:15.818Z</time></trkpt><trkpt lat="42.04101041465605" lon="11.828486542320546"><ele>1.0</ele><time>2026-04-18T13:19:16.818Z</time></trkpt><trkpt lat="42.04115280783744" lon="11.828368768211343"><ele>1.0</ele><time>2026-04-18T13:19:17.818Z</time></trkpt><trkpt lat="42.04129951590479" lon="11.828248915135703"><ele>1.0</ele><time>2026-04-18T13:19:18.818Z</time></trkpt><trkpt lat="42.04144159079728" lon="11.828141978304151"><ele>1.0</ele><time>2026-04-18T13:19:19.818Z</time></trkpt><trkpt lat="42.0415919227847" lon="11.828035205463236"><ele>1.6666666666666665</ele><time>2026-04-18T13:19:20.817Z</time></trkpt><trkpt lat="42.041749473593185" lon="11.827931198038868"><ele>2.3333333333333335</ele><time>2026-04-18T13:19:21.817Z</time></trkpt><trkpt lat="42.04190672556235" lon="11.827835300221656"><ele>3.0</ele><time>2026-04-18T13:19:22.817Z</time></trkpt><trkpt lat="42.04206308032366" lon="11.827751276030293"><ele>3.0</ele><time>2026-04-18T13:19:23.817Z</time></trkpt><trkpt lat="42.04222766709568" lon="11.82767421988625"><ele>3.0</ele><time>2026-04-18T13:19:24.817Z</time></trkpt><trkpt lat="42.04239497226702" lon="11.827610835884022"><ele>3.0</ele><time>2026-04-18T13:19:25.817Z</time></trkpt><trkpt lat="42.04256559632537" lon="11.827557008983911"><ele>3.333333333333333</ele><time>2026-04-18T13:19:26.817Z</time></trkpt><trkpt lat="42.04274384441092" lon="11.827496969925683"><ele>3.6666666666666665</ele><time>2026-04-18T13:19:27.817Z</time></trkpt><trkpt lat="42.0429205643225" lon="11.827436902595814"><ele>4.0</ele><time>2026-04-18T13:19:28.817Z</time></trkpt><trkpt lat="42.043097795614926" lon="11.827384762255193"><ele>4.0</ele><time>2026-04-18T13:19:29.817Z</time></trkpt><trkpt lat="42.04327580808894" lon="11.827335241135062"><ele>4.0</ele><time>2026-04-18T13:19:30.817Z</time></trkpt><trkpt lat="42.043451398801615" lon="11.827280212797705"><ele>4.0</ele><time>2026-04-18T13:19:31.817Z</time></trkpt><trkpt lat="42.04361248374261" lon="11.827229024493718"><ele>4.5</ele><time>2026-04-18T13:19:32.817Z</time></trkpt><trkpt lat="42.04376307058173" lon="11.82718331117183"><ele>5.0</ele><time>2026-04-18T13:19:33.817Z</time></trkpt><trkpt lat="42.04390224668103" lon="11.827143171158232"><ele>5.5</ele><time>2026-04-18T13:19:34.817Z</time></trkpt><trkpt lat="42.0440326785124" lon="11.82710668098411"><ele>6.0</ele><time>2026-04-18T13:19:35.817Z</time></trkpt><trkpt lat="42.044153100482696" lon="11.827070779609315"><ele>6.4</ele><time>2026-04-18T13:19:36.817Z</time></trkpt><trkpt lat="42.04425554603019" lon="11.827032122108454"><ele>6.8</ele><time>2026-04-18T13:19:37.817Z</time></trkpt><trkpt lat="42.044330315646434" lon="11.827001652019316"><ele>7.200000000000001</ele><time>2026-04-18T13:19:38.816Z</time></trkpt><trkpt lat="42.044434377655016" lon="11.826940905170176"><ele>7.6000000000000005</ele><time>2026-04-18T13:19:40.816Z</time></trkpt><trkpt lat="42.04453617331833" lon="11.826994619360871"><ele>8.0</ele><time>2026-04-18T13:19:42.816Z</time></trkpt><trkpt lat="42.044630471988405" lon="11.826980565030993"><ele>6.800000000000001</ele><time>2026-04-18T13:19:44.816Z</time></trkpt><trkpt lat="42.04466309834387" lon="11.826807283927774"><ele>5.6000000000000005</ele><time>2026-04-18T13:19:46.816Z</time></trkpt><trkpt lat="42.04464560258374" lon="11.82669784671758"><ele>4.4</ele><time>2026-04-18T13:19:47.816Z</time></trkpt><trkpt lat="42.044676038647935" lon="11.8265965686593"><ele>3.2</ele><time>2026-04-18T13:19:48.816Z</time></trkpt><trkpt lat="42.04472750653907" lon="11.826481803705292"><ele>2.0</ele><time>2026-04-18T13:19:49.816Z</time></trkpt><trkpt lat="42.04479365951585" lon="11.826356357689034"><ele>2.0</ele><time>2026-04-18T13:19:50.816Z</time></trkpt><trkpt lat="42.04487835694917" lon="11.826233611673064"><ele>2.0</ele><time>2026-04-18T13:19:51.816Z</time></trkpt><trkpt lat="42.04494627886896" lon="11.82608646833713"><ele>2.0</ele><time>2026-04-18T13:19:52.816Z</time></trkpt><trkpt lat="42.04502416286899" lon="11.825933450265548"><ele>2.0</ele><time>2026-04-18T13:19:53.816Z</time></trkpt><trkpt lat="42.045108107166584" lon="11.825785795961563"><ele>1.6666666666666665</ele><time>2026-04-18T13:19:54.816Z</time></trkpt><trkpt lat="42.04520115410344" lon="11.825633418609579"><ele>1.3333333333333333</ele><time>2026-04-18T13:19:55.816Z</time></trkpt><trkpt lat="42.045294578721354" lon="11.82547429082617"><ele>1.0</ele><time>2026-04-18T13:19:56.816Z</time></trkpt><trkpt lat="42.04538549315135" lon="11.825305153262708"><ele>1.0</ele><time>2026-04-18T13:19:57.816Z</time></trkpt><trkpt lat="42.04548059899412" lon="11.825140343614944"><ele>1.0</ele><time>2026-04-18T13:19:58.816Z</time></trkpt><trkpt lat="42.045583354402446" lon="11.824980775942434"><ele>1.0</ele><time>2026-04-18T13:19:59.816Z</time></trkpt><trkpt lat="42.045687146762894" lon="11.824826148389791"><ele>2.3333333333333335</ele><time>2026-04-18T13:20:00.816Z</time></trkpt><trkpt lat="42.04579674262853" lon="11.824671664324384"><ele>3.666666666666667</ele><time>2026-04-18T13:20:01.816Z</time></trkpt><trkpt lat="42.0459083346965" lon="11.824514245282966"><ele>5.0</ele><time>2026-04-18T13:20:02.816Z</time></trkpt><trkpt lat="42.046022499940975" lon="11.82435297820349"><ele>4.666666666666667</ele><time>2026-04-18T13:20:03.816Z</time></trkpt><trkpt lat="42.04613904796924" lon="11.82419057195528"><ele>4.333333333333333</ele><time>2026-04-18T13:20:04.816Z</time></trkpt><trkpt lat="42.04625484281923" lon="11.82402878258373"><ele>4.0</ele><time>2026-04-18T13:20:05.816Z</time></trkpt><trkpt lat="42.04637773228426" lon="11.823861618314663"><ele>4.0</ele><time>2026-04-18T13:20:06.816Z</time></trkpt><trkpt lat="42.04650576143041" lon="11.823691224356173"><ele>4.0</ele><time>2026-04-18T13:20:07.816Z</time></trkpt><trkpt lat="42.04662661448018" lon="11.823513115527652"><ele>4.0</ele><time>2026-04-18T13:20:08.816Z</time></trkpt><trkpt lat="42.04675237535383" lon="11.823342839643471"><ele>4.333333333333333</ele><time>2026-04-18T13:20:09.816Z</time></trkpt><trkpt lat="42.04687893899731" lon="11.823153509778113"><ele>4.666666666666667</ele><time>2026-04-18T13:20:10.816Z</time></trkpt><trkpt lat="42.0470076713493" lon="11.8229775411193"><ele>5.0</ele><time>2026-04-18T13:20:11.816Z</time></trkpt><trkpt lat="42.04713744163434" lon="11.822797005592637"><ele>5.0</ele><time>2026-04-18T13:20:12.816Z</time></trkpt><trkpt lat="42.04727295761165" lon="11.822617507209667"><ele>5.0</ele><time>2026-04-18T13:20:13.816Z</time></trkpt><trkpt lat="42.04740470024158" lon="11.822434808290874"><ele>5.0</ele><time>2026-04-18T13:20:14.816Z</time></trkpt><trkpt lat="42.047533802094065" lon="11.822263571827767"><ele>5.0</ele><time>2026-04-18T13:20:15.816Z</time></trkpt><trkpt lat="42.04764917089934" lon="11.822096596696694"><ele>5.0</ele><time>2026-04-18T13:20:16.816Z</time></trkpt><trkpt lat="42.04775506693865" lon="11.82192931418632"><ele>5.0</ele><time>2026-04-18T13:20:17.816Z</time></trkpt><trkpt lat="42.04786308459796" lon="11.821778953273245"><ele>4.666666666666667</ele><time>2026-04-18T13:20:18.816Z</time></trkpt><trkpt lat="42.047995049576684" lon="11.821625133087398"><ele>4.333333333333333</ele><time>2026-04-18T13:20:19.816Z</time></trkpt><trkpt lat="42.0481215703281" lon="11.821469355122845"><ele>4.0</ele><time>2026-04-18T13:20:20.816Z</time></trkpt><trkpt lat="42.04825886577118" lon="11.821339616883556"><ele>5.0</ele><time>2026-04-18T13:20:21.816Z</time></trkpt><trkpt lat="42.04840363860503" lon="11.821208132408621"><ele>6.0</ele><time>2026-04-18T13:20:22.816Z</time></trkpt><trkpt lat="42.0485573850824" lon="11.821092616987654"><ele>7.0</ele><time>2026-04-18T13:20:23.816Z</time></trkpt><trkpt lat="42.04871528796213" lon="11.820996944012837"><ele>6.666666666666667</ele><time>2026-04-18T13:20:24.816Z</time></trkpt><trkpt lat="42.04887823049228" lon="11.820914647638793"><ele>6.333333333333334</ele><time>2026-04-18T13:20:25.816Z</time></trkpt><trkpt lat="42.04904846498494" lon="11.820846343342987"><ele>6.0</ele><time>2026-04-18T13:20:26.816Z</time></trkpt><trkpt lat="42.0492270316357" lon="11.82080988478663"><ele>5.666666666666667</ele><time>2026-04-18T13:20:27.816Z</time></trkpt><trkpt lat="42.049404326191485" lon="11.820771530020773"><ele>5.333333333333334</ele><time>2026-04-18T13:20:28.816Z</time></trkpt><trkpt lat="42.04958315328804" lon="11.820721761397788"><ele>5.0</ele><time>2026-04-18T13:20:29.816Z</time></trkpt><trkpt lat="42.0497595850151" lon="11.820681014671715"><ele>5.0</ele><time>2026-04-18T13:20:30.816Z</time></trkpt><trkpt lat="42.049942800916575" lon="11.820633915935701"><ele>5.0</ele><time>2026-04-18T13:20:31.816Z</time></trkpt><trkpt lat="42.05012234749852" lon="11.820591482776669"><ele>5.0</ele><time>2026-04-18T13:20:32.816Z</time></trkpt><trkpt lat="42.05030914245851" lon="11.820542605160144"><ele>4.666666666666667</ele><time>2026-04-18T13:20:33.816Z</time></trkpt><trkpt lat="42.05049392626329" lon="11.820497617636516"><ele>4.333333333333333</ele><time>2026-04-18T13:20:34.816Z</time></trkpt><trkpt lat="42.05067413619719" lon="11.820461430483823"><ele>4.0</ele><time>2026-04-18T13:20:35.816Z</time></trkpt><trkpt lat="42.050850598248296" lon="11.820444445389725"><ele>4.0</ele><time>2026-04-18T13:20:36.816Z</time></trkpt><trkpt lat="42.05103161043801" lon="11.820434236499427"><ele>4.0</ele><time>2026-04-18T13:20:37.816Z</time></trkpt><trkpt lat="42.051209879763455" lon="11.820428801824407"><ele>4.0</ele><time>2026-04-18T13:20:38.816Z</time></trkpt><trkpt lat="42.05137722805285" lon="11.820421634944909"><ele>4.0</ele><time>2026-04-18T13:20:39.816Z</time></trkpt><trkpt lat="42.05153510697726" lon="11.820412886218612"><ele>4.0</ele><time>2026-04-18T13:20:40.816Z</time></trkpt><trkpt lat="42.05169214056362" lon="11.820405628656786"><ele>4.0</ele><time>2026-04-18T13:20:41.816Z</time></trkpt><trkpt lat="42.051847752045916" lon="11.820394816190337"><ele>4.0</ele><time>2026-04-18T13:20:42.816Z</time></trkpt><trkpt lat="42.0520101341324" lon="11.820384233052335"><ele>4.0</ele><time>2026-04-18T13:20:43.816Z</time></trkpt><trkpt lat="42.05217508262564" lon="11.820373120118564"><ele>4.0</ele><time>2026-04-18T13:20:44.816Z</time></trkpt><trkpt lat="42.05233394745034" lon="11.820367969656807"><ele>4.333333333333333</ele><time>2026-04-18T13:20:45.816Z</time></trkpt><trkpt lat="42.05249271777775" lon="11.820362039966627"><ele>4.666666666666667</ele><time>2026-04-18T13:20:46.816Z</time></trkpt><trkpt lat="42.052657395680335" lon="11.820355489936096"><ele>5.0</ele><time>2026-04-18T13:20:47.816Z</time></trkpt><trkpt lat="42.05281537418322" lon="11.82035272834225"><ele>5.0</ele><time>2026-04-18T13:20:48.815Z</time></trkpt><trkpt lat="42.05296946757208" lon="11.820350381051572"><ele>5.0</ele><time>2026-04-18T13:20:49.815Z</time></trkpt><trkpt lat="42.05313064626564" lon="11.820332417249645"><ele>5.0</ele><time>2026-04-18T13:20:50.815Z</time></trkpt><trkpt lat="42.053296389121314" lon="11.820306706629186"><ele>6.0</ele><time>2026-04-18T13:20:51.815Z</time></trkpt><trkpt lat="42.053455480837066" lon="11.820284770726934"><ele>7.0</ele><time>2026-04-18T13:20:52.815Z</time></trkpt><trkpt lat="42.053620762901005" lon="11.820255438926878"><ele>8.0</ele><time>2026-04-18T13:20:53.815Z</time></trkpt><trkpt lat="42.05378480794233" lon="11.820220967744858"><ele>8.0</ele><time>2026-04-18T13:20:54.815Z</time></trkpt><trkpt lat="42.05395711686309" lon="11.820184759078359"><ele>8.0</ele><time>2026-04-18T13:20:55.815Z</time></trkpt><trkpt lat="42.054123097641366" lon="11.820145460308174"><ele>8.0</ele><time>2026-04-18T13:20:56.815Z</time></trkpt><trkpt lat="42.054287005149114" lon="11.82011986527575"><ele>7.0</ele><time>2026-04-18T13:20:57.815Z</time></trkpt><trkpt lat="42.0544498052952" lon="11.82010055888476"><ele>6.0</ele><time>2026-04-18T13:20:58.815Z</time></trkpt><trkpt lat="42.05461880632892" lon="11.820080468911476"><ele>5.0</ele><time>2026-04-18T13:20:59.815Z</time></trkpt><trkpt lat="42.05478054684732" lon="11.820062039115138"><ele>5.0</ele><time>2026-04-18T13:21:00.815Z</time></trkpt><trkpt lat="42.05494515216857" lon="11.8200383767341"><ele>5.0</ele><time>2026-04-18T13:21:01.815Z</time></trkpt><trkpt lat="42.0551034755138" lon="11.820013824910474"><ele>5.0</ele><time>2026-04-18T13:21:02.815Z</time></trkpt><trkpt lat="42.0552724269956" lon="11.819983434593698"><ele>5.0</ele><time>2026-04-18T13:21:03.815Z</time></trkpt><trkpt lat="42.05543649407938" lon="11.819949619661987"><ele>5.0</ele><time>2026-04-18T13:21:04.815Z</time></trkpt><trkpt lat="42.055608540992736" lon="11.819914452777644"><ele>5.0</ele><time>2026-04-18T13:21:05.815Z</time></trkpt><trkpt lat="42.05577845961492" lon="11.819873904561383"><ele>4.333333333333334</ele><time>2026-04-18T13:21:06.815Z</time></trkpt><trkpt lat="42.055950948187544" lon="11.819830242953692"><ele>3.666666666666667</ele><time>2026-04-18T13:21:07.815Z</time></trkpt><trkpt lat="42.05612039562359" lon="11.819789231462991"><ele>3.0</ele><time>2026-04-18T13:21:08.815Z</time></trkpt><trkpt lat="42.05628851657636" lon="11.819755447820423"><ele>3.0</ele><time>2026-04-18T13:21:09.815Z</time></trkpt><trkpt lat="42.05645534916069" lon="11.819731065361584"><ele>3.0</ele><time>2026-04-18T13:21:10.815Z</time></trkpt><trkpt lat="42.056619251266504" lon="11.819708245313242"><ele>3.0</ele><time>2026-04-18T13:21:11.815Z</time></trkpt><trkpt lat="42.05678990539904" lon="11.819670528838078"><ele>4.333333333333334</ele><time>2026-04-18T13:21:12.815Z</time></trkpt><trkpt lat="42.05695065246043" lon="11.819627390156095"><ele>5.666666666666667</ele><time>2026-04-18T13:21:13.815Z</time></trkpt><trkpt lat="42.05709993676514" lon="11.819540490822087"><ele>7.0</ele><time>2026-04-18T13:21:14.815Z</time></trkpt><trkpt lat="42.057240266908146" lon="11.819405922826716"><ele>5.0</ele><time>2026-04-18T13:21:15.815Z</time></trkpt><trkpt lat="42.05736511102331" lon="11.819258046391704"><ele>3.0</ele><time>2026-04-18T13:21:16.815Z</time></trkpt><trkpt lat="42.057489555189136" lon="11.819107477479312"><ele>1.0</ele><time>2026-04-18T13:21:17.815Z</time></trkpt><trkpt lat="42.05762142452052" lon="11.81895331560136"><ele>1.0</ele><time>2026-04-18T13:21:18.815Z</time></trkpt><trkpt lat="42.057755534196424" lon="11.818806735499843"><ele>1.0</ele><time>2026-04-18T13:21:19.815Z</time></trkpt><trkpt lat="42.05788811436598" lon="11.818658486538618"><ele>1.0</ele><time>2026-04-18T13:21:20.815Z</time></trkpt><trkpt lat="42.05801992212735" lon="11.818509156490565"><ele>1.0</ele><time>2026-04-18T13:21:21.815Z</time></trkpt><trkpt lat="42.058172323438306" lon="11.818384597064032"><ele>1.0</ele><time>2026-04-18T13:21:22.815Z</time></trkpt><trkpt lat="42.05831025534482" lon="11.81823025746986"><ele>1.0</ele><time>2026-04-18T13:21:23.815Z</time></trkpt><trkpt lat="42.058447999320585" lon="11.818070065125683"><ele>2.0</ele><time>2026-04-18T13:21:24.815Z</time></trkpt><trkpt lat="42.05858523333735" lon="11.817912841297513"><ele>3.0</ele><time>2026-04-18T13:21:25.815Z</time></trkpt><trkpt lat="42.058722422568806" lon="11.817764962369207"><ele>4.0</ele><time>2026-04-18T13:21:26.814Z</time></trkpt><trkpt lat="42.05885795137037" lon="11.817611783251815"><ele>4.333333333333333</ele><time>2026-04-18T13:21:27.814Z</time></trkpt><trkpt lat="42.05898542936806" lon="11.8174770384417"><ele>4.666666666666667</ele><time>2026-04-18T13:21:28.814Z</time></trkpt><trkpt lat="42.059110641893774" lon="11.817366661869181"><ele>5.0</ele><time>2026-04-18T13:21:29.814Z</time></trkpt><trkpt lat="42.05924897958581" lon="11.817275360774836"><ele>6.333333333333334</ele><time>2026-04-18T13:21:30.813Z</time></trkpt><trkpt lat="42.059398796050374" lon="11.81722231965649"><ele>7.666666666666667</ele><time>2026-04-18T13:21:31.813Z</time></trkpt><trkpt lat="42.059555121546175" lon="11.81716832074271"><ele>9.0</ele><time>2026-04-18T13:21:32.814Z</time></trkpt><trkpt lat="42.059711506796376" lon="11.817110692560867"><ele>9.0</ele><time>2026-04-18T13:21:33.813Z</time></trkpt><trkpt lat="42.0598790830026" lon="11.817069101346558"><ele>9.0</ele><time>2026-04-18T13:21:34.813Z</time></trkpt><trkpt lat="42.06003615283132" lon="11.817022009827582"><ele>9.0</ele><time>2026-04-18T13:21:35.814Z</time></trkpt><trkpt lat="42.06019588925515" lon="11.816976114232054"><ele>10.0</ele><time>2026-04-18T13:21:36.813Z</time></trkpt><trkpt lat="42.060344042096496" lon="11.816918507183711"><ele>11.0</ele><time>2026-04-18T13:21:37.813Z</time></trkpt><trkpt lat="42.0604916429472" lon="11.816860263384667"><ele>12.0</ele><time>2026-04-18T13:21:38.813Z</time></trkpt><trkpt lat="42.06062567308399" lon="11.816784677920873"><ele>10.666666666666666</ele><time>2026-04-18T13:21:39.813Z</time></trkpt><trkpt lat="42.060764485281226" lon="11.816701857978918"><ele>9.333333333333332</ele><time>2026-04-18T13:21:40.813Z</time></trkpt><trkpt lat="42.06090369530585" lon="11.816603086939933"><ele>8.0</ele><time>2026-04-18T13:21:41.813Z</time></trkpt><trkpt lat="42.06104706712638" lon="11.816502791409041"><ele>8.0</ele><time>2026-04-18T13:21:42.813Z</time></trkpt><trkpt lat="42.06119278907543" lon="11.816392087425626"><ele>8.0</ele><time>2026-04-18T13:21:43.813Z</time></trkpt><trkpt lat="42.061338571148596" lon="11.816280110436232"><ele>8.0</ele><time>2026-04-18T13:21:44.813Z</time></trkpt><trkpt lat="42.06148517947654" lon="11.816158479094327"><ele>8.0</ele><time>2026-04-18T13:21:45.813Z</time></trkpt><trkpt lat="42.06163848669595" lon="11.816046618075273"><ele>8.0</ele><time>2026-04-18T13:21:46.813Z</time></trkpt><trkpt lat="42.06178298363427" lon="11.815928321032613"><ele>8.0</ele><time>2026-04-18T13:21:47.813Z</time></trkpt><trkpt lat="42.06192826992445" lon="11.815806770125572"><ele>7.333333333333333</ele><time>2026-04-18T13:21:48.813Z</time></trkpt><trkpt lat="42.0620748575757" lon="11.815694676779383"><ele>6.666666666666666</ele><time>2026-04-18T13:21:49.813Z</time></trkpt><trkpt lat="42.062226369550736" lon="11.815575311121899"><ele>6.0</ele><time>2026-04-18T13:21:50.813Z</time></trkpt><trkpt lat="42.06237389008136" lon="11.815465802703631"><ele>6.333333333333334</ele><time>2026-04-18T13:21:51.813Z</time></trkpt><trkpt lat="42.06252466763326" lon="11.81534572109902"><ele>6.666666666666667</ele><time>2026-04-18T13:21:52.813Z</time></trkpt><trkpt lat="42.06267647186886" lon="11.815225760509145"><ele>7.0</ele><time>2026-04-18T13:21:53.813Z</time></trkpt><trkpt lat="42.06282707814766" lon="11.81511254491301"><ele>5.333333333333334</ele><time>2026-04-18T13:21:54.813Z</time></trkpt><trkpt lat="42.062973817026986" lon="11.815001139189247"><ele>3.666666666666667</ele><time>2026-04-18T13:21:55.813Z</time></trkpt><trkpt lat="42.0631240725439" lon="11.814883618533708"><ele>2.0</ele><time>2026-04-18T13:21:56.813Z</time></trkpt><trkpt lat="42.06327520410093" lon="11.814770006784457"><ele>2.6666666666666665</ele><time>2026-04-18T13:21:57.813Z</time></trkpt><trkpt lat="42.06342506722127" lon="11.814665762581532"><ele>3.333333333333333</ele><time>2026-04-18T13:21:58.813Z</time></trkpt><trkpt lat="42.06357747847642" lon="11.814551668760862"><ele>4.0</ele><time>2026-04-18T13:21:59.813Z</time></trkpt><trkpt lat="42.06372496413557" lon="11.814444041842771"><ele>4.0</ele><time>2026-04-18T13:22:00.813Z</time></trkpt><trkpt lat="42.06387706773021" lon="11.814326531709053"><ele>4.0</ele><time>2026-04-18T13:22:01.813Z</time></trkpt><trkpt lat="42.06403515322455" lon="11.814230984958073"><ele>4.0</ele><time>2026-04-18T13:22:02.813Z</time></trkpt><trkpt lat="42.06420140946225" lon="11.814148983205532"><ele>4.0</ele><time>2026-04-18T13:22:03.813Z</time></trkpt><trkpt lat="42.0643713546066" lon="11.814075393274926"><ele>4.0</ele><time>2026-04-18T13:22:04.813Z</time></trkpt><trkpt lat="42.064550319131406" lon="11.814013063271465"><ele>4.0</ele><time>2026-04-18T13:22:05.813Z</time></trkpt><trkpt lat="42.064728586955574" lon="11.81396913733604"><ele>4.0</ele><time>2026-04-18T13:22:06.813Z</time></trkpt><trkpt lat="42.06490046382117" lon="11.813934631111483"><ele>4.0</ele><time>2026-04-18T13:22:07.813Z</time></trkpt><trkpt lat="42.065059536230656" lon="11.813909082149772"><ele>4.0</ele><time>2026-04-18T13:22:08.813Z</time></trkpt><trkpt lat="42.06521481395108" lon="11.813887520327386"><ele>4.25</ele><time>2026-04-18T13:22:09.813Z</time></trkpt><trkpt lat="42.06535449921793" lon="11.813885289405773"><ele>4.5</ele><time>2026-04-18T13:22:10.813Z</time></trkpt><trkpt lat="42.06548030984898" lon="11.813879645489957"><ele>4.75</ele><time>2026-04-18T13:22:11.813Z</time></trkpt><trkpt lat="42.06559662092884" lon="11.81390777012615"><ele>5.0</ele><time>2026-04-18T13:22:12.813Z</time></trkpt><trkpt lat="42.06571154435273" lon="11.813955547895779"><ele>5.0</ele><time>2026-04-18T13:22:13.813Z</time></trkpt><trkpt lat="42.06583205378606" lon="11.814015985824428"><ele>5.0</ele><time>2026-04-18T13:22:14.813Z</time></trkpt><trkpt lat="42.06595060981363" lon="11.814096067555084"><ele>5.0</ele><time>2026-04-18T13:22:15.813Z</time></trkpt><trkpt lat="42.066055642322915" lon="11.81416539889779"><ele>5.0</ele><time>2026-04-18T13:22:16.813Z</time></trkpt><trkpt lat="42.06615559290037" lon="11.814229880543584"><ele>5.0</ele><time>2026-04-18T13:22:17.813Z</time></trkpt><trkpt lat="42.066252531169866" lon="11.81428707664126"><ele>5.0</ele><time>2026-04-18T13:22:18.813Z</time></trkpt><trkpt lat="42.066341143807" lon="11.8143217380004"><ele>5.0</ele><time>2026-04-18T13:22:19.813Z</time></trkpt><trkpt lat="42.06643196213848" lon="11.814345177016268"><ele>5.0</ele><time>2026-04-18T13:22:20.813Z</time></trkpt><trkpt lat="42.06651892593054" lon="11.814342806567092"><ele>5.0</ele><time>2026-04-18T13:22:21.812Z</time></trkpt><trkpt lat="42.06662299943623" lon="11.814282732288234"><ele>5.0</ele><time>2026-04-18T13:22:22.812Z</time></trkpt><trkpt lat="42.06671690895013" lon="11.81416388145584"><ele>5.0</ele><time>2026-04-18T13:22:23.812Z</time></trkpt><trkpt lat="42.066791877736236" lon="11.814009369471572"><ele>5.0</ele><time>2026-04-18T13:22:24.812Z</time></trkpt><trkpt lat="42.06687552444638" lon="11.813857613667356"><ele>5.0</ele><time>2026-04-18T13:22:25.812Z</time></trkpt><trkpt lat="42.06697907341491" lon="11.813725164935429"><ele>5.0</ele><time>2026-04-18T13:22:26.812Z</time></trkpt><trkpt lat="42.06708691881471" lon="11.813611235492584"><ele>5.0</ele><time>2026-04-18T13:22:27.812Z</time></trkpt><trkpt lat="42.06721972068398" lon="11.813503888536106"><ele>5.0</ele><time>2026-04-18T13:22:28.812Z</time></trkpt><trkpt lat="42.06735728570197" lon="11.813398317673581"><ele>5.0</ele><time>2026-04-18T13:22:29.812Z</time></trkpt><trkpt lat="42.06749234691634" lon="11.813284970269471"><ele>5.0</ele><time>2026-04-18T13:22:30.812Z</time></trkpt><trkpt lat="42.06763357950007" lon="11.813167644686445"><ele>5.0</ele><time>2026-04-18T13:22:31.812Z</time></trkpt><trkpt lat="42.067773904074954" lon="11.81305539574838"><ele>5.0</ele><time>2026-04-18T13:22:32.812Z</time></trkpt><trkpt lat="42.0679152632248" lon="11.812927215003699"><ele>5.0</ele><time>2026-04-18T13:22:33.812Z</time></trkpt><trkpt lat="42.06806036162548" lon="11.812803269676937"><ele>5.0</ele><time>2026-04-18T13:22:34.812Z</time></trkpt><trkpt lat="42.06822190443392" lon="11.81271066609934"><ele>5.666666666666667</ele><time>2026-04-18T13:22:35.812Z</time></trkpt><trkpt lat="42.068361614717105" lon="11.812591506417712"><ele>6.333333333333334</ele><time>2026-04-18T13:22:36.812Z</time></trkpt><trkpt lat="42.068515528288884" lon="11.81247934716805"><ele>7.0</ele><time>2026-04-18T13:22:37.812Z</time></trkpt><trkpt lat="42.068666715799644" lon="11.812362566696631"><ele>7.0</ele><time>2026-04-18T13:22:38.812Z</time></trkpt><trkpt lat="42.06881858474424" lon="11.812240915628712"><ele>7.0</ele><time>2026-04-18T13:22:39.812Z</time></trkpt><trkpt lat="42.068970763024005" lon="11.812121127471217"><ele>7.0</ele><time>2026-04-18T13:22:40.812Z</time></trkpt><trkpt lat="42.069123238376804" lon="11.812003498320289"><ele>7.666666666666667</ele><time>2026-04-18T13:22:41.812Z</time></trkpt><trkpt lat="42.06926909341089" lon="11.811887252657968"><ele>8.333333333333334</ele><time>2026-04-18T13:22:42.812Z</time></trkpt><trkpt lat="42.0694204339798" lon="11.811763819248176"><ele>9.0</ele><time>2026-04-18T13:22:43.812Z</time></trkpt><trkpt lat="42.0695684832376" lon="11.811640703536808"><ele>9.0</ele><time>2026-04-18T13:22:44.812Z</time></trkpt><trkpt lat="42.06972439537432" lon="11.811519882470932"><ele>9.0</ele><time>2026-04-18T13:22:45.812Z</time></trkpt><trkpt lat="42.06988014563941" lon="11.811398240927135"><ele>9.0</ele><time>2026-04-18T13:22:46.812Z</time></trkpt><trkpt lat="42.07003262466454" lon="11.81128528142513"><ele>10.333333333333332</ele><time>2026-04-18T13:22:47.812Z</time></trkpt><trkpt lat="42.07019023618901" lon="11.811179786435105"><ele>11.666666666666666</ele><time>2026-04-18T13:22:48.812Z</time></trkpt><trkpt lat="42.07034660930009" lon="11.811092043722983"><ele>13.0</ele><time>2026-04-18T13:22:49.812Z</time></trkpt><trkpt lat="42.07050604617552" lon="11.811013842166425"><ele>12.333333333333332</ele><time>2026-04-18T13:22:50.812Z</time></trkpt><trkpt lat="42.07066485929896" lon="11.810952881858787"><ele>11.666666666666666</ele><time>2026-04-18T13:22:51.812Z</time></trkpt><trkpt lat="42.07082057992404" lon="11.810878315070989"><ele>11.0</ele><time>2026-04-18T13:22:52.812Z</time></trkpt><trkpt lat="42.07096981813467" lon="11.810815023192868"><ele>11.0</ele><time>2026-04-18T13:22:53.812Z</time></trkpt><trkpt lat="42.07110751027035" lon="11.810745417147553"><ele>11.0</ele><time>2026-04-18T13:22:54.812Z</time></trkpt><trkpt lat="42.07123209505855" lon="11.810683028684224"><ele>11.0</ele><time>2026-04-18T13:22:55.812Z</time></trkpt><trkpt lat="42.0713506947226" lon="11.810618097343893"><ele>11.0</ele><time>2026-04-18T13:22:56.812Z</time></trkpt><trkpt lat="42.071464450208" lon="11.810561393287937"><ele>11.0</ele><time>2026-04-18T13:22:57.812Z</time></trkpt><trkpt lat="42.07157239935406" lon="11.810509689840451"><ele>11.0</ele><time>2026-04-18T13:22:58.812Z</time></trkpt><trkpt lat="42.071686044626084" lon="11.810460313519037"><ele>11.0</ele><time>2026-04-18T13:22:59.812Z</time></trkpt><trkpt lat="42.07180797935937" lon="11.81041320717844"><ele>11.0</ele><time>2026-04-18T13:23:00.812Z</time></trkpt><trkpt lat="42.071936895637336" lon="11.81036936696451"><ele>11.0</ele><time>2026-04-18T13:23:01.812Z</time></trkpt><trkpt lat="42.07206473707111" lon="11.810308546315701"><ele>11.0</ele><time>2026-04-18T13:23:02.812Z</time></trkpt><trkpt lat="42.07219901379463" lon="11.810244651425846"><ele>11.0</ele><time>2026-04-18T13:23:03.812Z</time></trkpt><trkpt lat="42.072335064070074" lon="11.810190172110703"><ele>11.0</ele><time>2026-04-18T13:23:04.812Z</time></trkpt><trkpt lat="42.07247316471689" lon="11.810130506352206"><ele>11.0</ele><time>2026-04-18T13:23:05.812Z</time></trkpt><trkpt lat="42.07260409321252" lon="11.81006738041487"><ele>11.0</ele><time>2026-04-18T13:23:06.812Z</time></trkpt><trkpt lat="42.07274163241016" lon="11.810001954205347"><ele>11.0</ele><time>2026-04-18T13:23:07.812Z</time></trkpt><trkpt lat="42.072878863981714" lon="11.809939461264833"><ele>11.0</ele><time>2026-04-18T13:23:08.812Z</time></trkpt><trkpt lat="42.07301526513074" lon="11.809877269010236"><ele>11.0</ele><time>2026-04-18T13:23:09.812Z</time></trkpt><trkpt lat="42.073151714325924" lon="11.809814944502637"><ele>11.0</ele><time>2026-04-18T13:23:10.812Z</time></trkpt><trkpt lat="42.07328332184655" lon="11.80975059984367"><ele>11.0</ele><time>2026-04-18T13:23:11.812Z</time></trkpt><trkpt lat="42.0734078518694" lon="11.809690202313822"><ele>11.0</ele><time>2026-04-18T13:23:12.812Z</time></trkpt><trkpt lat="42.073521972156186" lon="11.8096319169369"><ele>11.75</ele><time>2026-04-18T13:23:13.812Z</time></trkpt><trkpt lat="42.073629163922156" lon="11.8095741165747"><ele>12.5</ele><time>2026-04-18T13:23:14.812Z</time></trkpt><trkpt lat="42.07373560754947" lon="11.809525361138629"><ele>13.25</ele><time>2026-04-18T13:23:15.812Z</time></trkpt><trkpt lat="42.07384586955001" lon="11.809472898074658"><ele>14.0</ele><time>2026-04-18T13:23:16.812Z</time></trkpt><trkpt lat="42.073951598819065" lon="11.809425849416929"><ele>14.000000000000002</ele><time>2026-04-18T13:23:17.812Z</time></trkpt><trkpt lat="42.07404706119449" lon="11.809383501472437"><ele>14.0</ele><time>2026-04-18T13:23:18.812Z</time></trkpt><trkpt lat="42.07413633670947" lon="11.809347397412967"><ele>14.0</ele><time>2026-04-18T13:23:19.812Z</time></trkpt><trkpt lat="42.07421612575216" lon="11.809318349320248"><ele>14.0</ele><time>2026-04-18T13:23:20.812Z</time></trkpt><trkpt lat="42.074290331296034" lon="11.809295088150739"><ele>14.000000000000002</ele><time>2026-04-18T13:23:21.812Z</time></trkpt><trkpt lat="42.07435329302548" lon="11.809271185417453"><ele>14.0</ele><time>2026-04-18T13:23:22.812Z</time></trkpt><trkpt lat="42.074455183363774" lon="11.809211539316347"><ele>14.0</ele><time>2026-04-18T13:23:24.812Z</time></trkpt><trkpt lat="42.07452540085797" lon="11.80917407944679"><ele>13.999999999999998</ele><time>2026-04-18T13:23:25.812Z</time></trkpt><trkpt lat="42.07461313126998" lon="11.809134680211638"><ele>13.999999999999998</ele><time>2026-04-18T13:23:26.812Z</time></trkpt><trkpt lat="42.074725222214035" lon="11.80912253827185"><ele>14.0</ele><time>2026-04-18T13:23:27.812Z</time></trkpt><trkpt lat="42.07484472948096" lon="11.809082764887666"><ele>14.0</ele><time>2026-04-18T13:23:28.812Z</time></trkpt><trkpt lat="42.07496656673061" lon="11.80905513191522"><ele>14.25</ele><time>2026-04-18T13:23:29.812Z</time></trkpt><trkpt lat="42.075098458907995" lon="11.80902293865039"><ele>14.5</ele><time>2026-04-18T13:23:30.812Z</time></trkpt><trkpt lat="42.07523668217776" lon="11.808980369455421"><ele>14.75</ele><time>2026-04-18T13:23:31.811Z</time></trkpt><trkpt lat="42.07537113886972" lon="11.80893087224691"><ele>15.0</ele><time>2026-04-18T13:23:32.81Z</time></trkpt><trkpt lat="42.075506403875764" lon="11.808888379344014"><ele>15.0</ele><time>2026-04-18T13:23:33.81Z</time></trkpt><trkpt lat="42.075640719675086" lon="11.808850574061683"><ele>15.0</ele><time>2026-04-18T13:23:34.81Z</time></trkpt><trkpt lat="42.07576431872789" lon="11.808826693422654"><ele>15.0</ele><time>2026-04-18T13:23:35.81Z</time></trkpt><trkpt lat="42.07588544926842" lon="11.808797209137525"><ele>15.0</ele><time>2026-04-18T13:23:36.81Z</time></trkpt><trkpt lat="42.07601142015923" lon="11.80876044285524"><ele>14.5</ele><time>2026-04-18T13:23:37.81Z</time></trkpt><trkpt lat="42.076131184879614" lon="11.808725027928729"><ele>14.0</ele><time>2026-04-18T13:23:38.81Z</time></trkpt><trkpt lat="42.07624338148849" lon="11.808683987391975"><ele>13.5</ele><time>2026-04-18T13:23:39.809Z</time></trkpt><trkpt lat="42.0763589741512" lon="11.808642336575401"><ele>13.0</ele><time>2026-04-18T13:23:40.809Z</time></trkpt><trkpt lat="42.07647181421626" lon="11.808606323778887"><ele>13.0</ele><time>2026-04-18T13:23:41.809Z</time></trkpt><trkpt lat="42.07659126305812" lon="11.808574884630444"><ele>13.0</ele><time>2026-04-18T13:23:42.81Z</time></trkpt><trkpt lat="42.076713182769495" lon="11.808545197912562"><ele>13.0</ele><time>2026-04-18T13:23:43.81Z</time></trkpt><trkpt lat="42.0768389762241" lon="11.808517110481674"><ele>13.0</ele><time>2026-04-18T13:23:44.809Z</time></trkpt><trkpt lat="42.076960521727344" lon="11.808479902458435"><ele>11.200000000000001</ele><time>2026-04-18T13:23:45.809Z</time></trkpt><trkpt lat="42.077062939293135" lon="11.808448388405056"><ele>9.4</ele><time>2026-04-18T13:23:46.809Z</time></trkpt><trkpt lat="42.0771629436269" lon="11.80841976876821"><ele>7.6000000000000005</ele><time>2026-04-18T13:23:47.809Z</time></trkpt><trkpt lat="42.07726239267917" lon="11.808390261323902"><ele>5.800000000000001</ele><time>2026-04-18T13:23:48.809Z</time></trkpt><trkpt lat="42.07735513310495" lon="11.808367408908689"><ele>4.0</ele><time>2026-04-18T13:23:49.809Z</time></trkpt><trkpt lat="42.07744160670387" lon="11.80834430187474"><ele>3.9999999999999996</ele><time>2026-04-18T13:23:50.809Z</time></trkpt><trkpt lat="42.07752257868489" lon="11.808321270036144"><ele>4.0</ele><time>2026-04-18T13:23:51.809Z</time></trkpt><trkpt lat="42.07760796070652" lon="11.808295842521428"><ele>4.0</ele><time>2026-04-18T13:23:52.809Z</time></trkpt><trkpt lat="42.07769503572546" lon="11.808269664204703"><ele>4.0</ele><time>2026-04-18T13:23:53.809Z</time></trkpt><trkpt lat="42.07777087604821" lon="11.808249360368203"><ele>3.9999999999999996</ele><time>2026-04-18T13:23:54.809Z</time></trkpt><trkpt lat="42.07785587826694" lon="11.808211993427014"><ele>4.0</ele><time>2026-04-18T13:23:55.809Z</time></trkpt><trkpt lat="42.077950658743106" lon="11.80817855892431"><ele>4.0</ele><time>2026-04-18T13:23:56.809Z</time></trkpt><trkpt lat="42.07805762060645" lon="11.808179235991304"><ele>4.0</ele><time>2026-04-18T13:23:57.809Z</time></trkpt><trkpt lat="42.07816758724548" lon="11.808147965755882"><ele>4.0</ele><time>2026-04-18T13:23:58.809Z</time></trkpt><trkpt lat="42.078282514226984" lon="11.80811748422441"><ele>4.0</ele><time>2026-04-18T13:23:59.809Z</time></trkpt><trkpt lat="42.07840364882907" lon="11.808070300419525"><ele>5.0</ele><time>2026-04-18T13:24:00.809Z</time></trkpt><trkpt lat="42.078530046733626" lon="11.808039334415549"><ele>6.0</ele><time>2026-04-18T13:24:01.809Z</time></trkpt><trkpt lat="42.07866183429472" lon="11.808011373540731"><ele>7.0</ele><time>2026-04-18T13:24:02.809Z</time></trkpt><trkpt lat="42.078797553886645" lon="11.807966200777049"><ele>8.0</ele><time>2026-04-18T13:24:03.809Z</time></trkpt><trkpt lat="42.078938002140404" lon="11.807912239457105"><ele>8.0</ele><time>2026-04-18T13:24:04.809Z</time></trkpt><trkpt lat="42.07907310900909" lon="11.807864842633249"><ele>8.0</ele><time>2026-04-18T13:24:05.809Z</time></trkpt><trkpt lat="42.07920801753366" lon="11.807807761541905"><ele>8.0</ele><time>2026-04-18T13:24:06.809Z</time></trkpt><trkpt lat="42.07934557237425" lon="11.807745943655815"><ele>8.0</ele><time>2026-04-18T13:24:07.809Z</time></trkpt><trkpt lat="42.07949018219565" lon="11.807694725722635"><ele>8.25</ele><time>2026-04-18T13:24:08.809Z</time></trkpt><trkpt lat="42.07962425443098" lon="11.807655598312863"><ele>8.5</ele><time>2026-04-18T13:24:09.809Z</time></trkpt><trkpt lat="42.07974858787018" lon="11.80760512946885"><ele>8.75</ele><time>2026-04-18T13:24:10.809Z</time></trkpt><trkpt lat="42.07986306579912" lon="11.80755053424359"><ele>9.0</ele><time>2026-04-18T13:24:11.809Z</time></trkpt><trkpt lat="42.079977474019366" lon="11.807496037899972"><ele>9.0</ele><time>2026-04-18T13:24:12.809Z</time></trkpt><trkpt lat="42.08009684500304" lon="11.807447290385483"><ele>9.0</ele><time>2026-04-18T13:24:13.808Z</time></trkpt><trkpt lat="42.080209131153296" lon="11.807400398897265"><ele>9.0</ele><time>2026-04-18T13:24:14.808Z</time></trkpt><trkpt lat="42.0803236685019" lon="11.807349335490462"><ele>9.0</ele><time>2026-04-18T13:24:15.808Z</time></trkpt><trkpt lat="42.08043987245021" lon="11.807300824416444"><ele>9.0</ele><time>2026-04-18T13:24:16.808Z</time></trkpt><trkpt lat="42.0805641238316" lon="11.807248189857814"><ele>9.0</ele><time>2026-04-18T13:24:17.808Z</time></trkpt><trkpt lat="42.0806899851777" lon="11.807186693109024"><ele>9.0</ele><time>2026-04-18T13:24:18.808Z</time></trkpt><trkpt lat="42.08081347473294" lon="11.80711986693678"><ele>9.0</ele><time>2026-04-18T13:24:19.808Z</time></trkpt><trkpt lat="42.08094796318393" lon="11.807054246778357"><ele>8.75</ele><time>2026-04-18T13:24:20.808Z</time></trkpt><trkpt lat="42.081079227081915" lon="11.806987574460978"><ele>8.5</ele><time>2026-04-18T13:24:21.808Z</time></trkpt><trkpt lat="42.08121482636812" lon="11.806915573012022"><ele>8.25</ele><time>2026-04-18T13:24:22.808Z</time></trkpt><trkpt lat="42.08135142699063" lon="11.806846584331836"><ele>8.0</ele><time>2026-04-18T13:24:23.808Z</time></trkpt><trkpt lat="42.08148904584195" lon="11.806782571848276"><ele>8.0</ele><time>2026-04-18T13:24:24.808Z</time></trkpt><trkpt lat="42.081632488089625" lon="11.80671714773111"><ele>8.0</ele><time>2026-04-18T13:24:25.808Z</time></trkpt><trkpt lat="42.08176515998871" lon="11.806663913882206"><ele>8.0</ele><time>2026-04-18T13:24:26.808Z</time></trkpt><trkpt lat="42.08188556568123" lon="11.806611106377169"><ele>8.0</ele><time>2026-04-18T13:24:27.808Z</time></trkpt><trkpt lat="42.08200247635511" lon="11.806557923160659"><ele>8.0</ele><time>2026-04-18T13:24:28.808Z</time></trkpt><trkpt lat="42.08212572324297" lon="11.806488075750071"><ele>8.0</ele><time>2026-04-18T13:24:29.808Z</time></trkpt><trkpt lat="42.082245730760945" lon="11.806409704227912"><ele>8.0</ele><time>2026-04-18T13:24:30.808Z</time></trkpt><trkpt lat="42.082360102583635" lon="11.806332816971231"><ele>8.0</ele><time>2026-04-18T13:24:31.808Z</time></trkpt><trkpt lat="42.08246199990221" lon="11.806264533488358"><ele>8.600000000000001</ele><time>2026-04-18T13:24:32.808Z</time></trkpt><trkpt lat="42.082556899555826" lon="11.806189543070735"><ele>9.200000000000001</ele><time>2026-04-18T13:24:33.808Z</time></trkpt><trkpt lat="42.08264068253994" lon="11.806146198755847"><ele>9.8</ele><time>2026-04-18T13:24:34.808Z</time></trkpt><trkpt lat="42.08269828672884" lon="11.806090819027261"><ele>10.4</ele><time>2026-04-18T13:24:35.808Z</time></trkpt><trkpt lat="42.08279501547716" lon="11.806007114617925"><ele>11.0</ele><time>2026-04-18T13:24:37.808Z</time></trkpt><trkpt lat="42.082849790422124" lon="11.805952767162786"><ele>11.0</ele><time>2026-04-18T13:24:39.808Z</time></trkpt><trkpt lat="42.08291292121148" lon="11.805892395424268"><ele>11.0</ele><time>2026-04-18T13:24:42.808Z</time></trkpt><trkpt lat="42.08298235582746" lon="11.805815202924485"><ele>11.0</ele><time>2026-04-18T13:24:43.808Z</time></trkpt><trkpt lat="42.08307229113527" lon="11.805743491086552"><ele>11.0</ele><time>2026-04-18T13:24:44.808Z</time></trkpt><trkpt lat="42.08312926498028" lon="11.805604462137065"><ele>11.0</ele><time>2026-04-18T13:24:45.808Z</time></trkpt><trkpt lat="42.08321206809726" lon="11.805496490092695"><ele>11.25</ele><time>2026-04-18T13:24:46.808Z</time></trkpt><trkpt lat="42.083295492323415" lon="11.805365429292165"><ele>11.5</ele><time>2026-04-18T13:24:47.808Z</time></trkpt><trkpt lat="42.083381963347506" lon="11.805245284233507"><ele>11.75</ele><time>2026-04-18T13:24:48.808Z</time></trkpt><trkpt lat="42.08347413873464" lon="11.805120370838601"><ele>12.0</ele><time>2026-04-18T13:24:49.808Z</time></trkpt><trkpt lat="42.083570632421534" lon="11.804992699350276"><ele>12.0</ele><time>2026-04-18T13:24:50.808Z</time></trkpt><trkpt lat="42.083667033332226" lon="11.804858765236284"><ele>12.0</ele><time>2026-04-18T13:24:51.808Z</time></trkpt><trkpt lat="42.08375887828694" lon="11.804720129243465"><ele>12.0</ele><time>2026-04-18T13:24:52.808Z</time></trkpt><trkpt lat="42.08385403378192" lon="11.804594926575335"><ele>12.0</ele><time>2026-04-18T13:24:53.808Z</time></trkpt><trkpt lat="42.083956098611154" lon="11.804468807577381"><ele>12.5</ele><time>2026-04-18T13:24:54.808Z</time></trkpt><trkpt lat="42.084053892512856" lon="11.804328615900976"><ele>13.0</ele><time>2026-04-18T13:24:55.808Z</time></trkpt><trkpt lat="42.08415057212099" lon="11.804188125712026"><ele>13.5</ele><time>2026-04-18T13:24:56.808Z</time></trkpt><trkpt lat="42.08424717136675" lon="11.804045655542252"><ele>14.0</ele><time>2026-04-18T13:24:57.808Z</time></trkpt><trkpt lat="42.08433845267397" lon="11.803904736607329"><ele>14.0</ele><time>2026-04-18T13:24:58.808Z</time></trkpt><trkpt lat="42.08442761080001" lon="11.80377991401553"><ele>14.0</ele><time>2026-04-18T13:24:59.808Z</time></trkpt><trkpt lat="42.084506835995015" lon="11.80366068820999"><ele>14.0</ele><time>2026-04-18T13:25:00.808Z</time></trkpt><trkpt lat="42.084594119049754" lon="11.803549970710787"><ele>14.0</ele><time>2026-04-18T13:25:01.808Z</time></trkpt><trkpt lat="42.08467647107549" lon="11.80343120040157"><ele>13.799999999999999</ele><time>2026-04-18T13:25:02.808Z</time></trkpt><trkpt lat="42.08475392809549" lon="11.803322097073048"><ele>13.599999999999998</ele><time>2026-04-18T13:25:03.808Z</time></trkpt><trkpt lat="42.084833844104274" lon="11.80321978451727"><ele>13.4</ele><time>2026-04-18T13:25:04.808Z</time></trkpt><trkpt lat="42.08490522520604" lon="11.803118942503847"><ele>13.2</ele><time>2026-04-18T13:25:05.808Z</time></trkpt><trkpt lat="42.08497774265713" lon="11.803025536799396"><ele>13.0</ele><time>2026-04-18T13:25:06.808Z</time></trkpt><trkpt lat="42.085073072791296" lon="11.80295040832753"><ele>13.0</ele><time>2026-04-18T13:25:07.808Z</time></trkpt><trkpt lat="42.0851506683611" lon="11.802840973924594"><ele>13.0</ele><time>2026-04-18T13:25:08.808Z</time></trkpt><trkpt lat="42.08522763819862" lon="11.802722152073212"><ele>13.0</ele><time>2026-04-18T13:25:09.808Z</time></trkpt><trkpt lat="42.08530754634196" lon="11.802616772762992"><ele>13.0</ele><time>2026-04-18T13:25:10.808Z</time></trkpt><trkpt lat="42.08538286466013" lon="11.802498646597426"><ele>13.0</ele><time>2026-04-18T13:25:11.808Z</time></trkpt><trkpt lat="42.08546829730647" lon="11.802387431786132"><ele>13.0</ele><time>2026-04-18T13:25:12.808Z</time></trkpt><trkpt lat="42.085545881155895" lon="11.80226373454645"><ele>13.0</ele><time>2026-04-18T13:25:13.808Z</time></trkpt><trkpt lat="42.085614854970636" lon="11.802151323808598"><ele>13.0</ele><time>2026-04-18T13:25:14.808Z</time></trkpt><trkpt lat="42.085686770096814" lon="11.802041079061283"><ele>12.8</ele><time>2026-04-18T13:25:15.808Z</time></trkpt><trkpt lat="42.085768142786705" lon="11.801935046947793"><ele>12.600000000000001</ele><time>2026-04-18T13:25:16.808Z</time></trkpt><trkpt lat="42.085837072659125" lon="11.801832454239074"><ele>12.399999999999999</ele><time>2026-04-18T13:25:17.808Z</time></trkpt><trkpt lat="42.08593399574169" lon="11.801768464629994"><ele>12.2</ele><time>2026-04-18T13:25:18.808Z</time></trkpt><trkpt lat="42.08600915249917" lon="11.801663798366326"><ele>12.0</ele><time>2026-04-18T13:25:19.808Z</time></trkpt><trkpt lat="42.086089181401675" lon="11.801556711457064"><ele>12.0</ele><time>2026-04-18T13:25:20.808Z</time></trkpt><trkpt lat="42.086158857636434" lon="11.801442208480264"><ele>12.0</ele><time>2026-04-18T13:25:21.808Z</time></trkpt><trkpt lat="42.0862246943875" lon="11.80133427529611"><ele>12.0</ele><time>2026-04-18T13:25:22.808Z</time></trkpt><trkpt lat="42.0862799768101" lon="11.801213117353756"><ele>12.0</ele><time>2026-04-18T13:25:23.808Z</time></trkpt><trkpt lat="42.08633399388864" lon="11.801082482214795"><ele>12.0</ele><time>2026-04-18T13:25:24.807Z</time></trkpt><trkpt lat="42.08638849433336" lon="11.800961254804582"><ele>11.0</ele><time>2026-04-18T13:25:25.807Z</time></trkpt><trkpt lat="42.08644496864618" lon="11.800852574652232"><ele>10.0</ele><time>2026-04-18T13:25:26.807Z</time></trkpt><trkpt lat="42.08648692349158" lon="11.800739523015519"><ele>9.0</ele><time>2026-04-18T13:25:27.807Z</time></trkpt><trkpt lat="42.08653392057619" lon="11.800633096185429"><ele>8.0</ele><time>2026-04-18T13:25:28.807Z</time></trkpt><trkpt lat="42.0865760574856" lon="11.800535233126348"><ele>7.0</ele><time>2026-04-18T13:25:29.807Z</time></trkpt><trkpt lat="42.0866234629931" lon="11.800429297560061"><ele>7.0</ele><time>2026-04-18T13:25:30.807Z</time></trkpt><trkpt lat="42.086675757080215" lon="11.800328066368154"><ele>6.999999999999999</ele><time>2026-04-18T13:25:31.807Z</time></trkpt><trkpt lat="42.08672824304922" lon="11.800229261710019"><ele>6.999999999999999</ele><time>2026-04-18T13:25:32.807Z</time></trkpt><trkpt lat="42.086784457900386" lon="11.800139269863761"><ele>7.0</ele><time>2026-04-18T13:25:33.807Z</time></trkpt><trkpt lat="42.08684744244364" lon="11.80003533483845"><ele>7.0</ele><time>2026-04-18T13:25:34.807Z</time></trkpt><trkpt lat="42.08690225271205" lon="11.79991738057524"><ele>7.0</ele><time>2026-04-18T13:25:35.807Z</time></trkpt><trkpt lat="42.08695768780001" lon="11.799790486983115"><ele>6.999999999999999</ele><time>2026-04-18T13:25:36.807Z</time></trkpt><trkpt lat="42.08701458279541" lon="11.799657686949951"><ele>6.999999999999999</ele><time>2026-04-18T13:25:37.807Z</time></trkpt><trkpt lat="42.08706685951879" lon="11.799524656088286"><ele>7.0</ele><time>2026-04-18T13:25:38.805Z</time></trkpt><trkpt lat="42.087130372290716" lon="11.799396277234878"><ele>7.0</ele><time>2026-04-18T13:25:39.805Z</time></trkpt><trkpt lat="42.0871921860869" lon="11.799246929087928"><ele>6.5</ele><time>2026-04-18T13:25:40.805Z</time></trkpt><trkpt lat="42.08725034086967" lon="11.799107593449374"><ele>6.0</ele><time>2026-04-18T13:25:41.805Z</time></trkpt><trkpt lat="42.08730945827401" lon="11.798955963750325"><ele>5.5</ele><time>2026-04-18T13:25:42.805Z</time></trkpt><trkpt lat="42.087382138515935" lon="11.79880634813022"><ele>5.0</ele><time>2026-04-18T13:25:43.805Z</time></trkpt><trkpt lat="42.08744104353333" lon="11.798648551446204"><ele>6.25</ele><time>2026-04-18T13:25:44.806Z</time></trkpt><trkpt lat="42.08750332035593" lon="11.798496860484649"><ele>7.5</ele><time>2026-04-18T13:25:45.806Z</time></trkpt><trkpt lat="42.08756381796412" lon="11.798345217780584"><ele>8.75</ele><time>2026-04-18T13:25:46.806Z</time></trkpt><trkpt lat="42.08762993550751" lon="11.798181236720113"><ele>10.0</ele><time>2026-04-18T13:25:47.805Z</time></trkpt><trkpt lat="42.0876943619212" lon="11.798033002543889"><ele>10.0</ele><time>2026-04-18T13:25:48.805Z</time></trkpt><trkpt lat="42.08775380177605" lon="11.79790416659202"><ele>10.0</ele><time>2026-04-18T13:25:49.805Z</time></trkpt><trkpt lat="42.08781282270703" lon="11.797787435034097"><ele>10.0</ele><time>2026-04-18T13:25:50.805Z</time></trkpt><trkpt lat="42.08786178597539" lon="11.79766714746381"><ele>10.0</ele><time>2026-04-18T13:25:51.805Z</time></trkpt><trkpt lat="42.087910064655155" lon="11.797558456864845"><ele>10.0</ele><time>2026-04-18T13:25:52.805Z</time></trkpt><trkpt lat="42.08795254633965" lon="11.797451487934728"><ele>9.5</ele><time>2026-04-18T13:25:53.805Z</time></trkpt><trkpt lat="42.08800132926661" lon="11.79734164726954"><ele>9.0</ele><time>2026-04-18T13:25:54.805Z</time></trkpt><trkpt lat="42.08804851254384" lon="11.797238135163335"><ele>8.5</ele><time>2026-04-18T13:25:55.805Z</time></trkpt><trkpt lat="42.08809608633775" lon="11.797143598770514"><ele>8.0</ele><time>2026-04-18T13:25:56.805Z</time></trkpt><trkpt lat="42.0881347418214" lon="11.797054807923077"><ele>7.500000000000001</ele><time>2026-04-18T13:25:57.805Z</time></trkpt><trkpt lat="42.08817063277125" lon="11.796972332551888"><ele>7.0</ele><time>2026-04-18T13:25:58.805Z</time></trkpt><trkpt lat="42.08820117948661" lon="11.796886017002803"><ele>6.8</ele><time>2026-04-18T13:25:59.805Z</time></trkpt><trkpt lat="42.088281082964045" lon="11.796863949649204"><ele>6.6</ele><time>2026-04-18T13:26:00.805Z</time></trkpt><trkpt lat="42.08813415366544" lon="11.7967468810072"><ele>6.3999999999999995</ele><time>2026-04-18T13:26:03.805Z</time></trkpt><trkpt lat="42.08808119924278" lon="11.796694157360406"><ele>6.199999999999999</ele><time>2026-04-18T13:26:05.805Z</time></trkpt><trkpt lat="42.088073668752386" lon="11.79656960971556"><ele>6.0</ele><time>2026-04-18T13:26:06.805Z</time></trkpt><trkpt lat="42.08808920744881" lon="11.79648525807744"><ele>5.75</ele><time>2026-04-18T13:26:07.805Z</time></trkpt><trkpt lat="42.088107055840624" lon="11.796342606687752"><ele>5.5</ele><time>2026-04-18T13:26:09.805Z</time></trkpt><trkpt lat="42.08825919577494" lon="11.796304668513836"><ele>5.25</ele><time>2026-04-18T13:26:10.805Z</time></trkpt><trkpt lat="42.088305590914416" lon="11.796158633052109"><ele>5.0</ele><time>2026-04-18T13:26:12.805Z</time></trkpt><trkpt lat="42.088181285314235" lon="11.795925050098917"><ele>4.6</ele><time>2026-04-18T13:26:14.805Z</time></trkpt><trkpt lat="42.088233193837624" lon="11.795766245425803"><ele>4.2</ele><time>2026-04-18T13:26:16.805Z</time></trkpt><trkpt lat="42.08828106121068" lon="11.795645791017513"><ele>3.8</ele><time>2026-04-18T13:26:18.805Z</time></trkpt><trkpt lat="42.08832730617548" lon="11.795529797676473"><ele>3.4</ele><time>2026-04-18T13:26:20.805Z</time></trkpt><trkpt lat="42.088367413688125" lon="11.795425278571495"><ele>3.0</ele><time>2026-04-18T13:26:22.805Z</time></trkpt><trkpt lat="42.08839844152933" lon="11.795327174491565"><ele>3.0</ele><time>2026-04-18T13:26:24.805Z</time></trkpt><trkpt lat="42.088429179626196" lon="11.795224101154348"><ele>3.0</ele><time>2026-04-18T13:26:26.805Z</time></trkpt><trkpt lat="42.08846046004942" lon="11.7951192082764"><ele>3.0</ele><time>2026-04-18T13:26:28.805Z</time></trkpt><trkpt lat="42.08849059047697" lon="11.795018171682175"><ele>3.0</ele><time>2026-04-18T13:26:30.805Z</time></trkpt><trkpt lat="42.08852280339828" lon="11.79491015184199"><ele>3.0</ele><time>2026-04-18T13:26:32.805Z</time></trkpt><trkpt lat="42.08865643907233" lon="11.794918326789146"><ele>2.6666666666666665</ele><time>2026-04-18T13:26:33.805Z</time></trkpt><trkpt lat="42.0887115217069" lon="11.794829391965271"><ele>2.3333333333333335</ele><time>2026-04-18T13:26:35.805Z</time></trkpt><trkpt lat="42.08875891100031" lon="11.794737121240498"><ele>2.0</ele><time>2026-04-18T13:26:37.805Z</time></trkpt><trkpt lat="42.08879829498402" lon="11.794629339746226"><ele>1.6666666666666665</ele><time>2026-04-18T13:26:39.804Z</time></trkpt><trkpt lat="42.088844468165846" lon="11.794526811301289"><ele>1.3333333333333333</ele><time>2026-04-18T13:26:41.804Z</time></trkpt><trkpt lat="42.088892131364965" lon="11.794419844121327"><ele>1.0</ele><time>2026-04-18T13:26:43.804Z</time></trkpt><trkpt lat="42.08894190979412" lon="11.794313686298736"><ele>0.8</ele><time>2026-04-18T13:26:45.804Z</time></trkpt><trkpt lat="42.08899269435437" lon="11.794205331474993"><ele>0.6000000000000001</ele><time>2026-04-18T13:26:47.804Z</time></trkpt><trkpt lat="42.089038830681964" lon="11.794092950419698"><ele>0.4</ele><time>2026-04-18T13:26:49.804Z</time></trkpt><trkpt lat="42.08909141513466" lon="11.793987601836896"><ele>0.2</ele><time>2026-04-18T13:26:51.804Z</time></trkpt><trkpt lat="42.0891462855583" lon="11.793878199021187"><ele>0.0</ele><time>2026-04-18T13:26:53.804Z</time></trkpt><trkpt lat="42.08920143666637" lon="11.793766764524609"><ele>0.4</ele><time>2026-04-18T13:26:55.804Z</time></trkpt><trkpt lat="42.08925626946005" lon="11.79366179486094"><ele>0.8</ele><time>2026-04-18T13:26:57.804Z</time></trkpt><trkpt lat="42.08931321533967" lon="11.79355338747359"><ele>1.2000000000000002</ele><time>2026-04-18T13:26:59.804Z</time></trkpt><trkpt lat="42.08936614383356" lon="11.793445057194562"><ele>1.6</ele><time>2026-04-18T13:27:01.804Z</time></trkpt><trkpt lat="42.08941720857067" lon="11.793342512525502"><ele>2.0</ele><time>2026-04-18T13:27:03.804Z</time></trkpt><trkpt lat="42.089455997849775" lon="11.793245897405559"><ele>1.9999999999999998</ele><time>2026-04-18T13:27:05.804Z</time></trkpt><trkpt lat="42.08949421622452" lon="11.793155859873172"><ele>2.0</ele><time>2026-04-18T13:27:07.804Z</time></trkpt><trkpt lat="42.08952927708506" lon="11.793070955441431"><ele>2.0</ele><time>2026-04-18T13:27:09.804Z</time></trkpt><trkpt lat="42.08956419086155" lon="11.792973358862007"><ele>2.0</ele><time>2026-04-18T13:27:12.804Z</time></trkpt><trkpt lat="42.08958657899748" lon="11.792893550889413"><ele>1.9999999999999998</ele><time>2026-04-18T13:27:14.804Z</time></trkpt><trkpt lat="42.08961323723553" lon="11.79277237647115"><ele>2.0</ele><time>2026-04-18T13:27:17.804Z</time></trkpt><trkpt lat="42.08963394643663" lon="11.79269161408565"><ele>2.0</ele><time>2026-04-18T13:27:19.804Z</time></trkpt><trkpt lat="42.08966791028433" lon="11.792577237959856"><ele>2.0</ele><time>2026-04-18T13:27:22.804Z</time></trkpt><trkpt lat="42.0897284848413" lon="11.792520184368662"><ele>2.0</ele><time>2026-04-18T13:27:25.804Z</time></trkpt><trkpt lat="42.08978330507471" lon="11.792462410724003"><ele>2.0</ele><time>2026-04-18T13:28:20.801Z</time></trkpt><trkpt lat="42.08986447323781" lon="11.792488545046286"><ele>2.0</ele><time>2026-04-18T13:48:39.866Z</time></trkpt></trkseg></trk></gpx>